<?xml version="1.0" encoding="UTF-8" standalone="no" ?>
<gpx xmlns="http://www.topografix.com/GPX/1/1" xmlns:xsi="http://www.w3.org/2001/XMLSchema-instance" xsi:schemaLocation="http://www.topografix.com/GPX/1/1 http://www.topografix.com/GPX/1/1/gpx.xsd" version="1.1" creator="VisuGPX - https://www.visugpx.com">
  <metadata>
    <name>Le Mont-Dore -&gt; Volvic</name>
    <desc><![CDATA[3 jours d\\\'itinérance entre le Mont-Dore et Volvic]]></desc>
  </metadata>
  <trk>
    <name><![CDATA[Mont-Dore - volvic]]></name>
    <desc><![CDATA[<h1>OruxMaps</h1><br /><hr align="center" width="480" style="height: 2px; width: 517px"/><h2>Nom: Mont-Dore - volvic</h2><br /><p>Temps de départ: 05/15/2015 10:08</p><p>Temps d'arrivée: 05/17/2015 17:36</p><p>Distance: 72,7km (22:03)</p><p>Temps déplacement: 17:29</p><p>Vitesse moyenne: 3,3km/h</p><p>Vitesse moyenne: 4,2km/h</p><p>Vitess Max.: 11,2km/h</p><p>Altitude minimale: 704m</p><p>Altitude maximale: 1491m</p><p>Vitesse d'élévation: 362,7m/h</p><p>Vitesse de descente: -380,3m/h</p><p>Gain Altitude: 3541m</p><p>Perte Altitude: -3781m</p><p>Temps d'élévation: 09:45</p><p>Temps de descente: 09:56</p><hr align="center" width="480" style="height: 2px; width: 517px"/>]]></desc>
    <trkseg>
      <trkpt lat="45.57923" lon="2.8054">
        <ele>1027.53</ele>
        <time>2015-05-15T08:08:02Z</time>
      </trkpt>
      <trkpt lat="45.57933" lon="2.80515">
        <ele>1002.83</ele>
        <time>2015-05-15T08:09:26Z</time>
      </trkpt>
      <trkpt lat="45.5794" lon="2.80491">
        <ele>1004.82</ele>
        <time>2015-05-15T08:09:41Z</time>
      </trkpt>
      <trkpt lat="45.57925" lon="2.80506">
        <ele>1021.69</ele>
        <time>2015-05-15T08:11:04Z</time>
      </trkpt>
      <trkpt lat="45.57911" lon="2.80525">
        <ele>1023.32</ele>
        <time>2015-05-15T08:11:23Z</time>
      </trkpt>
      <trkpt lat="45.57906" lon="2.80551">
        <ele>1032.58</ele>
        <time>2015-05-15T08:11:39Z</time>
      </trkpt>
      <trkpt lat="45.57899" lon="2.80576">
        <ele>1029.7</ele>
        <time>2015-05-15T08:12:03Z</time>
      </trkpt>
      <trkpt lat="45.57897" lon="2.80602">
        <ele>1027.18</ele>
        <time>2015-05-15T08:12:16Z</time>
      </trkpt>
      <trkpt lat="45.57893" lon="2.80628">
        <ele>1025.29</ele>
        <time>2015-05-15T08:12:28Z</time>
      </trkpt>
      <trkpt lat="45.57891" lon="2.80653">
        <ele>1024.59</ele>
        <time>2015-05-15T08:12:42Z</time>
      </trkpt>
      <trkpt lat="45.57896" lon="2.80678">
        <ele>1034.86</ele>
        <time>2015-05-15T08:13:12Z</time>
      </trkpt>
      <trkpt lat="45.5791" lon="2.80696">
        <ele>1025.84</ele>
        <time>2015-05-15T08:13:32Z</time>
      </trkpt>
      <trkpt lat="45.57928" lon="2.80693">
        <ele>1015.92</ele>
        <time>2015-05-15T08:13:46Z</time>
      </trkpt>
      <trkpt lat="45.57943" lon="2.80675">
        <ele>1013.57</ele>
        <time>2015-05-15T08:13:59Z</time>
      </trkpt>
      <trkpt lat="45.57955" lon="2.80654">
        <ele>1013.63</ele>
        <time>2015-05-15T08:14:14Z</time>
      </trkpt>
      <trkpt lat="45.57967" lon="2.80633">
        <ele>1015.45</ele>
        <time>2015-05-15T08:14:27Z</time>
      </trkpt>
      <trkpt lat="45.57978" lon="2.80611">
        <ele>1015.52</ele>
        <time>2015-05-15T08:14:41Z</time>
      </trkpt>
      <trkpt lat="45.57988" lon="2.80589">
        <ele>1014.9</ele>
        <time>2015-05-15T08:14:54Z</time>
      </trkpt>
      <trkpt lat="45.57995" lon="2.80564">
        <ele>1015.52</ele>
        <time>2015-05-15T08:15:08Z</time>
      </trkpt>
      <trkpt lat="45.58004" lon="2.80541">
        <ele>1017.02</ele>
        <time>2015-05-15T08:15:22Z</time>
      </trkpt>
      <trkpt lat="45.58007" lon="2.80516">
        <ele>1015.76</ele>
        <time>2015-05-15T08:15:36Z</time>
      </trkpt>
      <trkpt lat="45.5801" lon="2.80489">
        <ele>1012.01</ele>
        <time>2015-05-15T08:15:53Z</time>
      </trkpt>
      <trkpt lat="45.58014" lon="2.80463">
        <ele>1013.05</ele>
        <time>2015-05-15T08:16:07Z</time>
      </trkpt>
      <trkpt lat="45.58016" lon="2.80437">
        <ele>1011.82</ele>
        <time>2015-05-15T08:16:21Z</time>
      </trkpt>
      <trkpt lat="45.58017" lon="2.80411">
        <ele>1010.58</ele>
        <time>2015-05-15T08:16:35Z</time>
      </trkpt>
      <trkpt lat="45.58026" lon="2.80388">
        <ele>1007.2</ele>
        <time>2015-05-15T08:16:52Z</time>
      </trkpt>
      <trkpt lat="45.58036" lon="2.80365">
        <ele>1004.67</ele>
        <time>2015-05-15T08:17:07Z</time>
      </trkpt>
      <trkpt lat="45.58045" lon="2.80341">
        <ele>1001.67</ele>
        <time>2015-05-15T08:17:22Z</time>
      </trkpt>
      <trkpt lat="45.58054" lon="2.80316">
        <ele>1002.01</ele>
        <time>2015-05-15T08:17:36Z</time>
      </trkpt>
      <trkpt lat="45.58068" lon="2.80298">
        <ele>1000.52</ele>
        <time>2015-05-15T08:17:52Z</time>
      </trkpt>
      <trkpt lat="45.58085" lon="2.80289">
        <ele>1000.64</ele>
        <time>2015-05-15T08:18:06Z</time>
      </trkpt>
      <trkpt lat="45.58104" lon="2.80289">
        <ele>1003.23</ele>
        <time>2015-05-15T08:18:22Z</time>
      </trkpt>
      <trkpt lat="45.58123" lon="2.80291">
        <ele>1010.78</ele>
        <time>2015-05-15T08:18:34Z</time>
      </trkpt>
      <trkpt lat="45.58142" lon="2.80297">
        <ele>1006.14</ele>
        <time>2015-05-15T08:18:51Z</time>
      </trkpt>
      <trkpt lat="45.58161" lon="2.803">
        <ele>1007</ele>
        <time>2015-05-15T08:19:04Z</time>
      </trkpt>
      <trkpt lat="45.58179" lon="2.80302">
        <ele>1010.63</ele>
        <time>2015-05-15T08:19:16Z</time>
      </trkpt>
      <trkpt lat="45.58198" lon="2.80301">
        <ele>1009.28</ele>
        <time>2015-05-15T08:19:30Z</time>
      </trkpt>
      <trkpt lat="45.58217" lon="2.80301">
        <ele>1006.08</ele>
        <time>2015-05-15T08:19:44Z</time>
      </trkpt>
      <trkpt lat="45.58236" lon="2.80298">
        <ele>1003.64</ele>
        <time>2015-05-15T08:19:58Z</time>
      </trkpt>
      <trkpt lat="45.58254" lon="2.80294">
        <ele>1001.81</ele>
        <time>2015-05-15T08:20:13Z</time>
      </trkpt>
      <trkpt lat="45.58269" lon="2.80277">
        <ele>998.33</ele>
        <time>2015-05-15T08:20:28Z</time>
      </trkpt>
      <trkpt lat="45.58287" lon="2.80271">
        <ele>999.92</ele>
        <time>2015-05-15T08:20:42Z</time>
      </trkpt>
      <trkpt lat="45.58305" lon="2.80262">
        <ele>1000.61</ele>
        <time>2015-05-15T08:20:58Z</time>
      </trkpt>
      <trkpt lat="45.58317" lon="2.80242">
        <ele>994.07</ele>
        <time>2015-05-15T08:21:15Z</time>
      </trkpt>
      <trkpt lat="45.58324" lon="2.80217">
        <ele>992.26</ele>
        <time>2015-05-15T08:21:30Z</time>
      </trkpt>
      <trkpt lat="45.5834" lon="2.80206">
        <ele>987.19</ele>
        <time>2015-05-15T08:21:48Z</time>
      </trkpt>
      <trkpt lat="45.58357" lon="2.80197">
        <ele>979.17</ele>
        <time>2015-05-15T08:22:08Z</time>
      </trkpt>
      <trkpt lat="45.58374" lon="2.80185">
        <ele>980.52</ele>
        <time>2015-05-15T08:22:22Z</time>
      </trkpt>
      <trkpt lat="45.5839" lon="2.8017">
        <ele>982.02</ele>
        <time>2015-05-15T08:22:35Z</time>
      </trkpt>
      <trkpt lat="45.58406" lon="2.80156">
        <ele>986.28</ele>
        <time>2015-05-15T08:22:46Z</time>
      </trkpt>
      <trkpt lat="45.58421" lon="2.80142">
        <ele>988.34</ele>
        <time>2015-05-15T08:22:58Z</time>
      </trkpt>
      <trkpt lat="45.58437" lon="2.80126">
        <ele>987.89</ele>
        <time>2015-05-15T08:23:12Z</time>
      </trkpt>
      <trkpt lat="45.58452" lon="2.80111">
        <ele>990.07</ele>
        <time>2015-05-15T08:23:26Z</time>
      </trkpt>
      <trkpt lat="45.58469" lon="2.80102">
        <ele>989.27</ele>
        <time>2015-05-15T08:23:39Z</time>
      </trkpt>
      <trkpt lat="45.58488" lon="2.80098">
        <ele>992.5</ele>
        <time>2015-05-15T08:23:54Z</time>
      </trkpt>
      <trkpt lat="45.58506" lon="2.80094">
        <ele>988.03</ele>
        <time>2015-05-15T08:24:12Z</time>
      </trkpt>
      <trkpt lat="45.58522" lon="2.80082">
        <ele>979.05</ele>
        <time>2015-05-15T08:24:29Z</time>
      </trkpt>
      <trkpt lat="45.58539" lon="2.80071">
        <ele>980.14</ele>
        <time>2015-05-15T08:24:40Z</time>
      </trkpt>
      <trkpt lat="45.58555" lon="2.80056">
        <ele>981.35</ele>
        <time>2015-05-15T08:24:52Z</time>
      </trkpt>
      <trkpt lat="45.58569" lon="2.80036">
        <ele>978.15</ele>
        <time>2015-05-15T08:25:09Z</time>
      </trkpt>
      <trkpt lat="45.58578" lon="2.80014">
        <ele>979.39</ele>
        <time>2015-05-15T08:25:22Z</time>
      </trkpt>
      <trkpt lat="45.58585" lon="2.7999">
        <ele>981.04</ele>
        <time>2015-05-15T08:25:35Z</time>
      </trkpt>
      <trkpt lat="45.58593" lon="2.79966">
        <ele>995.99</ele>
        <time>2015-05-15T08:26:28Z</time>
      </trkpt>
      <trkpt lat="45.58602" lon="2.79941">
        <ele>989.73</ele>
        <time>2015-05-15T08:26:44Z</time>
      </trkpt>
      <trkpt lat="45.58613" lon="2.7992">
        <ele>983.11</ele>
        <time>2015-05-15T08:26:59Z</time>
      </trkpt>
      <trkpt lat="45.58622" lon="2.79897">
        <ele>981.71</ele>
        <time>2015-05-15T08:27:15Z</time>
      </trkpt>
      <trkpt lat="45.5863" lon="2.79873">
        <ele>972.05</ele>
        <time>2015-05-15T08:27:31Z</time>
      </trkpt>
      <trkpt lat="45.58636" lon="2.79847">
        <ele>963.11</ele>
        <time>2015-05-15T08:27:48Z</time>
      </trkpt>
      <trkpt lat="45.58644" lon="2.79823">
        <ele>962.93</ele>
        <time>2015-05-15T08:28:03Z</time>
      </trkpt>
      <trkpt lat="45.58645" lon="2.79797">
        <ele>970.12</ele>
        <time>2015-05-15T08:28:14Z</time>
      </trkpt>
      <trkpt lat="45.58645" lon="2.79769">
        <ele>977.03</ele>
        <time>2015-05-15T08:28:24Z</time>
      </trkpt>
      <trkpt lat="45.58638" lon="2.79744">
        <ele>978.99</ele>
        <time>2015-05-15T08:28:38Z</time>
      </trkpt>
      <trkpt lat="45.58629" lon="2.79721">
        <ele>976.03</ele>
        <time>2015-05-15T08:28:52Z</time>
      </trkpt>
      <trkpt lat="45.58624" lon="2.79696">
        <ele>968.43</ele>
        <time>2015-05-15T08:29:08Z</time>
      </trkpt>
      <trkpt lat="45.58626" lon="2.7967">
        <ele>961.99</ele>
        <time>2015-05-15T08:29:25Z</time>
      </trkpt>
      <trkpt lat="45.58631" lon="2.79644">
        <ele>963.7</ele>
        <time>2015-05-15T08:29:41Z</time>
      </trkpt>
      <trkpt lat="45.58634" lon="2.79617">
        <ele>956.61</ele>
        <time>2015-05-15T08:29:56Z</time>
      </trkpt>
      <trkpt lat="45.58638" lon="2.7959">
        <ele>955.52</ele>
        <time>2015-05-15T08:30:09Z</time>
      </trkpt>
      <trkpt lat="45.58642" lon="2.79563">
        <ele>957.99</ele>
        <time>2015-05-15T08:30:22Z</time>
      </trkpt>
      <trkpt lat="45.58646" lon="2.79538">
        <ele>957.43</ele>
        <time>2015-05-15T08:30:36Z</time>
      </trkpt>
      <trkpt lat="45.58652" lon="2.79513">
        <ele>955.13</ele>
        <time>2015-05-15T08:30:51Z</time>
      </trkpt>
      <trkpt lat="45.58658" lon="2.79488">
        <ele>957.42</ele>
        <time>2015-05-15T08:31:02Z</time>
      </trkpt>
      <trkpt lat="45.58668" lon="2.79466">
        <ele>959.48</ele>
        <time>2015-05-15T08:31:15Z</time>
      </trkpt>
      <trkpt lat="45.58674" lon="2.79441">
        <ele>961.94</ele>
        <time>2015-05-15T08:31:29Z</time>
      </trkpt>
      <trkpt lat="45.58683" lon="2.79416">
        <ele>963.45</ele>
        <time>2015-05-15T08:31:44Z</time>
      </trkpt>
      <trkpt lat="45.58692" lon="2.79392">
        <ele>969.76</ele>
        <time>2015-05-15T08:31:55Z</time>
      </trkpt>
      <trkpt lat="45.58679" lon="2.7941">
        <ele>967.31</ele>
        <time>2015-05-15T08:32:21Z</time>
      </trkpt>
      <trkpt lat="45.58672" lon="2.79434">
        <ele>966.98</ele>
        <time>2015-05-15T08:32:35Z</time>
      </trkpt>
      <trkpt lat="45.58688" lon="2.79444">
        <ele>970.59</ele>
        <time>2015-05-15T08:32:48Z</time>
      </trkpt>
      <trkpt lat="45.58701" lon="2.79462">
        <ele>968.1</ele>
        <time>2015-05-15T08:33:05Z</time>
      </trkpt>
      <trkpt lat="45.58709" lon="2.79486">
        <ele>967.19</ele>
        <time>2015-05-15T08:33:18Z</time>
      </trkpt>
      <trkpt lat="45.58713" lon="2.79512">
        <ele>968.65</ele>
        <time>2015-05-15T08:33:31Z</time>
      </trkpt>
      <trkpt lat="45.5872" lon="2.79536">
        <ele>970.5</ele>
        <time>2015-05-15T08:33:45Z</time>
      </trkpt>
      <trkpt lat="45.58738" lon="2.79539">
        <ele>964.95</ele>
        <time>2015-05-15T08:36:22Z</time>
      </trkpt>
      <trkpt lat="45.58738" lon="2.79513">
        <ele>973.6</ele>
        <time>2015-05-15T08:38:55Z</time>
      </trkpt>
      <trkpt lat="45.58749" lon="2.79492">
        <ele>973.32</ele>
        <time>2015-05-15T08:39:08Z</time>
      </trkpt>
      <trkpt lat="45.58768" lon="2.79487">
        <ele>976.38</ele>
        <time>2015-05-15T08:39:24Z</time>
      </trkpt>
      <trkpt lat="45.58786" lon="2.79493">
        <ele>978.35</ele>
        <time>2015-05-15T08:39:38Z</time>
      </trkpt>
      <trkpt lat="45.58804" lon="2.79502">
        <ele>980.91</ele>
        <time>2015-05-15T08:39:53Z</time>
      </trkpt>
      <trkpt lat="45.5882" lon="2.79512">
        <ele>988.28</ele>
        <time>2015-05-15T08:40:08Z</time>
      </trkpt>
      <trkpt lat="45.58838" lon="2.79521">
        <ele>984.43</ele>
        <time>2015-05-15T08:40:25Z</time>
      </trkpt>
      <trkpt lat="45.58855" lon="2.7951">
        <ele>984.26</ele>
        <time>2015-05-15T08:40:42Z</time>
      </trkpt>
      <trkpt lat="45.58865" lon="2.79488">
        <ele>986.48</ele>
        <time>2015-05-15T08:40:58Z</time>
      </trkpt>
      <trkpt lat="45.58873" lon="2.79464">
        <ele>987.74</ele>
        <time>2015-05-15T08:41:13Z</time>
      </trkpt>
      <trkpt lat="45.58882" lon="2.79441">
        <ele>987.52</ele>
        <time>2015-05-15T08:41:31Z</time>
      </trkpt>
      <trkpt lat="45.58877" lon="2.79415">
        <ele>988.48</ele>
        <time>2015-05-15T08:42:10Z</time>
      </trkpt>
      <trkpt lat="45.58869" lon="2.79392">
        <ele>986.25</ele>
        <time>2015-05-15T08:42:26Z</time>
      </trkpt>
      <trkpt lat="45.58875" lon="2.79366">
        <ele>990.38</ele>
        <time>2015-05-15T08:42:41Z</time>
      </trkpt>
      <trkpt lat="45.58879" lon="2.7934">
        <ele>993.26</ele>
        <time>2015-05-15T08:42:59Z</time>
      </trkpt>
      <trkpt lat="45.58885" lon="2.79315">
        <ele>993.5</ele>
        <time>2015-05-15T08:43:14Z</time>
      </trkpt>
      <trkpt lat="45.589" lon="2.79298">
        <ele>1000.96</ele>
        <time>2015-05-15T08:43:43Z</time>
      </trkpt>
      <trkpt lat="45.58916" lon="2.79283">
        <ele>1016.23</ele>
        <time>2015-05-15T08:44:04Z</time>
      </trkpt>
      <trkpt lat="45.58929" lon="2.79302">
        <ele>1016.01</ele>
        <time>2015-05-15T08:44:50Z</time>
      </trkpt>
      <trkpt lat="45.58943" lon="2.79319">
        <ele>1011.6</ele>
        <time>2015-05-15T08:45:13Z</time>
      </trkpt>
      <trkpt lat="45.58957" lon="2.79337">
        <ele>1007.23</ele>
        <time>2015-05-15T08:45:33Z</time>
      </trkpt>
      <trkpt lat="45.58962" lon="2.79363">
        <ele>1016.18</ele>
        <time>2015-05-15T08:45:59Z</time>
      </trkpt>
      <trkpt lat="45.5896" lon="2.79389">
        <ele>1016.63</ele>
        <time>2015-05-15T08:46:17Z</time>
      </trkpt>
      <trkpt lat="45.58964" lon="2.79417">
        <ele>1017.85</ele>
        <time>2015-05-15T08:46:38Z</time>
      </trkpt>
      <trkpt lat="45.58972" lon="2.79441">
        <ele>1021.58</ele>
        <time>2015-05-15T08:46:59Z</time>
      </trkpt>
      <trkpt lat="45.58975" lon="2.79468">
        <ele>1025.01</ele>
        <time>2015-05-15T08:47:23Z</time>
      </trkpt>
      <trkpt lat="45.58983" lon="2.79492">
        <ele>1030.49</ele>
        <time>2015-05-15T08:47:45Z</time>
      </trkpt>
      <trkpt lat="45.5899" lon="2.79517">
        <ele>1031.52</ele>
        <time>2015-05-15T08:48:03Z</time>
      </trkpt>
      <trkpt lat="45.58995" lon="2.79542">
        <ele>1031.45</ele>
        <time>2015-05-15T08:48:23Z</time>
      </trkpt>
      <trkpt lat="45.58998" lon="2.79568">
        <ele>1033.38</ele>
        <time>2015-05-15T08:48:40Z</time>
      </trkpt>
      <trkpt lat="45.59005" lon="2.79592">
        <ele>1034.03</ele>
        <time>2015-05-15T08:48:59Z</time>
      </trkpt>
      <trkpt lat="45.5901" lon="2.79618">
        <ele>1032.26</ele>
        <time>2015-05-15T08:49:21Z</time>
      </trkpt>
      <trkpt lat="45.59015" lon="2.79643">
        <ele>1036.21</ele>
        <time>2015-05-15T08:49:39Z</time>
      </trkpt>
      <trkpt lat="45.59014" lon="2.79669">
        <ele>1036.28</ele>
        <time>2015-05-15T08:49:57Z</time>
      </trkpt>
      <trkpt lat="45.5901" lon="2.79697">
        <ele>1038.36</ele>
        <time>2015-05-15T08:50:25Z</time>
      </trkpt>
      <trkpt lat="45.59006" lon="2.79722">
        <ele>1035</ele>
        <time>2015-05-15T08:50:38Z</time>
      </trkpt>
      <trkpt lat="45.59002" lon="2.79748">
        <ele>1039.15</ele>
        <time>2015-05-15T08:50:56Z</time>
      </trkpt>
      <trkpt lat="45.58997" lon="2.79774">
        <ele>1031.84</ele>
        <time>2015-05-15T08:51:12Z</time>
      </trkpt>
      <trkpt lat="45.59002" lon="2.79801">
        <ele>1036.85</ele>
        <time>2015-05-15T08:51:32Z</time>
      </trkpt>
      <trkpt lat="45.59007" lon="2.79826">
        <ele>1036.14</ele>
        <time>2015-05-15T08:51:47Z</time>
      </trkpt>
      <trkpt lat="45.59015" lon="2.79851">
        <ele>1033.51</ele>
        <time>2015-05-15T08:52:02Z</time>
      </trkpt>
      <trkpt lat="45.59019" lon="2.79877">
        <ele>1034.92</ele>
        <time>2015-05-15T08:52:19Z</time>
      </trkpt>
      <trkpt lat="45.59026" lon="2.79901">
        <ele>1033.98</ele>
        <time>2015-05-15T08:52:36Z</time>
      </trkpt>
      <trkpt lat="45.59027" lon="2.79927">
        <ele>1037.2</ele>
        <time>2015-05-15T08:53:08Z</time>
      </trkpt>
      <trkpt lat="45.59026" lon="2.79954">
        <ele>1038.36</ele>
        <time>2015-05-15T08:53:22Z</time>
      </trkpt>
      <trkpt lat="45.59023" lon="2.79979">
        <ele>1038.51</ele>
        <time>2015-05-15T08:53:40Z</time>
      </trkpt>
      <trkpt lat="45.59032" lon="2.80002">
        <ele>1040.51</ele>
        <time>2015-05-15T08:53:58Z</time>
      </trkpt>
      <trkpt lat="45.59037" lon="2.80028">
        <ele>1043.48</ele>
        <time>2015-05-15T08:54:18Z</time>
      </trkpt>
      <trkpt lat="45.59039" lon="2.80053">
        <ele>1043.13</ele>
        <time>2015-05-15T08:54:35Z</time>
      </trkpt>
      <trkpt lat="45.59041" lon="2.80079">
        <ele>1038.9</ele>
        <time>2015-05-15T08:55:07Z</time>
      </trkpt>
      <trkpt lat="45.59047" lon="2.80104">
        <ele>1046.42</ele>
        <time>2015-05-15T08:55:40Z</time>
      </trkpt>
      <trkpt lat="45.59054" lon="2.80128">
        <ele>1049.23</ele>
        <time>2015-05-15T08:55:58Z</time>
      </trkpt>
      <trkpt lat="45.59056" lon="2.80156">
        <ele>1054.3</ele>
        <time>2015-05-15T08:56:16Z</time>
      </trkpt>
      <trkpt lat="45.59057" lon="2.80182">
        <ele>1060.4</ele>
        <time>2015-05-15T08:56:35Z</time>
      </trkpt>
      <trkpt lat="45.59058" lon="2.80208">
        <ele>1058.02</ele>
        <time>2015-05-15T08:56:51Z</time>
      </trkpt>
      <trkpt lat="45.59058" lon="2.80235">
        <ele>1059.04</ele>
        <time>2015-05-15T08:57:08Z</time>
      </trkpt>
      <trkpt lat="45.59062" lon="2.8026">
        <ele>1050.29</ele>
        <time>2015-05-15T08:57:20Z</time>
      </trkpt>
      <trkpt lat="45.5906" lon="2.80286">
        <ele>1057.75</ele>
        <time>2015-05-15T08:57:39Z</time>
      </trkpt>
      <trkpt lat="45.59063" lon="2.80311">
        <ele>1055.08</ele>
        <time>2015-05-15T08:57:54Z</time>
      </trkpt>
      <trkpt lat="45.59065" lon="2.80339">
        <ele>1053.51</ele>
        <time>2015-05-15T08:58:17Z</time>
      </trkpt>
      <trkpt lat="45.59069" lon="2.80365">
        <ele>1051.68</ele>
        <time>2015-05-15T08:58:31Z</time>
      </trkpt>
      <trkpt lat="45.5907" lon="2.80392">
        <ele>1052.81</ele>
        <time>2015-05-15T08:58:48Z</time>
      </trkpt>
      <trkpt lat="45.59075" lon="2.80417">
        <ele>1056.01</ele>
        <time>2015-05-15T08:59:07Z</time>
      </trkpt>
      <trkpt lat="45.5908" lon="2.80442">
        <ele>1058.4</ele>
        <time>2015-05-15T08:59:20Z</time>
      </trkpt>
      <trkpt lat="45.5908" lon="2.80469">
        <ele>1064.47</ele>
        <time>2015-05-15T08:59:39Z</time>
      </trkpt>
      <trkpt lat="45.59081" lon="2.80495">
        <ele>1065.23</ele>
        <time>2015-05-15T08:59:55Z</time>
      </trkpt>
      <trkpt lat="45.59092" lon="2.80518">
        <ele>1064.42</ele>
        <time>2015-05-15T09:00:19Z</time>
      </trkpt>
      <trkpt lat="45.59106" lon="2.80534">
        <ele>1073.98</ele>
        <time>2015-05-15T09:00:41Z</time>
      </trkpt>
      <trkpt lat="45.59111" lon="2.80559">
        <ele>1077.33</ele>
        <time>2015-05-15T09:00:57Z</time>
      </trkpt>
      <trkpt lat="45.59115" lon="2.80584">
        <ele>1077.47</ele>
        <time>2015-05-15T09:01:12Z</time>
      </trkpt>
      <trkpt lat="45.59121" lon="2.8061">
        <ele>1072.04</ele>
        <time>2015-05-15T09:01:27Z</time>
      </trkpt>
      <trkpt lat="45.59127" lon="2.80635">
        <ele>1069.7</ele>
        <time>2015-05-15T09:01:43Z</time>
      </trkpt>
      <trkpt lat="45.59135" lon="2.80659">
        <ele>1069.79</ele>
        <time>2015-05-15T09:02:02Z</time>
      </trkpt>
      <trkpt lat="45.59143" lon="2.80683">
        <ele>1085.61</ele>
        <time>2015-05-15T09:02:27Z</time>
      </trkpt>
      <trkpt lat="45.59149" lon="2.80708">
        <ele>1082.95</ele>
        <time>2015-05-15T09:02:43Z</time>
      </trkpt>
      <trkpt lat="45.59154" lon="2.80734">
        <ele>1074.24</ele>
        <time>2015-05-15T09:02:59Z</time>
      </trkpt>
      <trkpt lat="45.59157" lon="2.80761">
        <ele>1082.53</ele>
        <time>2015-05-15T09:03:19Z</time>
      </trkpt>
      <trkpt lat="45.59164" lon="2.80784">
        <ele>1079.23</ele>
        <time>2015-05-15T09:03:33Z</time>
      </trkpt>
      <trkpt lat="45.59166" lon="2.8081">
        <ele>1078.52</ele>
        <time>2015-05-15T09:03:49Z</time>
      </trkpt>
      <trkpt lat="45.59156" lon="2.80831">
        <ele>1075.38</ele>
        <time>2015-05-15T09:04:06Z</time>
      </trkpt>
      <trkpt lat="45.59145" lon="2.80853">
        <ele>1078.27</ele>
        <time>2015-05-15T09:04:22Z</time>
      </trkpt>
      <trkpt lat="45.59141" lon="2.80878">
        <ele>1074.69</ele>
        <time>2015-05-15T09:04:39Z</time>
      </trkpt>
      <trkpt lat="45.59139" lon="2.80904">
        <ele>1078.62</ele>
        <time>2015-05-15T09:05:04Z</time>
      </trkpt>
      <trkpt lat="45.5914" lon="2.80931">
        <ele>1073.58</ele>
        <time>2015-05-15T09:05:23Z</time>
      </trkpt>
      <trkpt lat="45.59149" lon="2.80955">
        <ele>1076.22</ele>
        <time>2015-05-15T09:05:38Z</time>
      </trkpt>
      <trkpt lat="45.59159" lon="2.80977">
        <ele>1081.65</ele>
        <time>2015-05-15T09:05:54Z</time>
      </trkpt>
      <trkpt lat="45.59168" lon="2.80999">
        <ele>1082.63</ele>
        <time>2015-05-15T09:06:05Z</time>
      </trkpt>
      <trkpt lat="45.5918" lon="2.8102">
        <ele>1084.26</ele>
        <time>2015-05-15T09:06:20Z</time>
      </trkpt>
      <trkpt lat="45.59196" lon="2.81032">
        <ele>1088.25</ele>
        <time>2015-05-15T09:06:39Z</time>
      </trkpt>
      <trkpt lat="45.59213" lon="2.81042">
        <ele>1086.13</ele>
        <time>2015-05-15T09:06:57Z</time>
      </trkpt>
      <trkpt lat="45.59231" lon="2.81046">
        <ele>1088.03</ele>
        <time>2015-05-15T09:07:16Z</time>
      </trkpt>
      <trkpt lat="45.5925" lon="2.81045">
        <ele>1097.87</ele>
        <time>2015-05-15T09:07:34Z</time>
      </trkpt>
      <trkpt lat="45.59269" lon="2.81042">
        <ele>1098.95</ele>
        <time>2015-05-15T09:07:53Z</time>
      </trkpt>
      <trkpt lat="45.59288" lon="2.81042">
        <ele>1108.28</ele>
        <time>2015-05-15T09:08:12Z</time>
      </trkpt>
      <trkpt lat="45.59306" lon="2.8104">
        <ele>1112.57</ele>
        <time>2015-05-15T09:08:49Z</time>
      </trkpt>
      <trkpt lat="45.59306" lon="2.81068">
        <ele>1098.3</ele>
        <time>2015-05-15T09:09:48Z</time>
      </trkpt>
      <trkpt lat="45.59292" lon="2.81085">
        <ele>1091.33</ele>
        <time>2015-05-15T09:10:02Z</time>
      </trkpt>
      <trkpt lat="45.59276" lon="2.81101">
        <ele>1099.47</ele>
        <time>2015-05-15T09:10:23Z</time>
      </trkpt>
      <trkpt lat="45.59266" lon="2.81123">
        <ele>1096.9</ele>
        <time>2015-05-15T09:10:38Z</time>
      </trkpt>
      <trkpt lat="45.59263" lon="2.81149">
        <ele>1091.87</ele>
        <time>2015-05-15T09:10:57Z</time>
      </trkpt>
      <trkpt lat="45.59262" lon="2.81175">
        <ele>1087.17</ele>
        <time>2015-05-15T09:11:13Z</time>
      </trkpt>
      <trkpt lat="45.59248" lon="2.8119">
        <ele>1087.23</ele>
        <time>2015-05-15T09:11:36Z</time>
      </trkpt>
      <trkpt lat="45.59238" lon="2.81213">
        <ele>1091.26</ele>
        <time>2015-05-15T09:12:07Z</time>
      </trkpt>
      <trkpt lat="45.5925" lon="2.81234">
        <ele>1098.92</ele>
        <time>2015-05-15T09:12:38Z</time>
      </trkpt>
      <trkpt lat="45.59257" lon="2.81258">
        <ele>1098.26</ele>
        <time>2015-05-15T09:13:03Z</time>
      </trkpt>
      <trkpt lat="45.59266" lon="2.81283">
        <ele>1103.44</ele>
        <time>2015-05-15T09:13:27Z</time>
      </trkpt>
      <trkpt lat="45.59274" lon="2.81307">
        <ele>1102.26</ele>
        <time>2015-05-15T09:14:03Z</time>
      </trkpt>
      <trkpt lat="45.59282" lon="2.81331">
        <ele>1107.75</ele>
        <time>2015-05-15T09:14:27Z</time>
      </trkpt>
      <trkpt lat="45.59296" lon="2.81347">
        <ele>1114.45</ele>
        <time>2015-05-15T09:14:59Z</time>
      </trkpt>
      <trkpt lat="45.59313" lon="2.8136">
        <ele>1114.45</ele>
        <time>2015-05-15T09:15:23Z</time>
      </trkpt>
      <trkpt lat="45.5933" lon="2.81368">
        <ele>1117.04</ele>
        <time>2015-05-15T09:18:23Z</time>
      </trkpt>
      <trkpt lat="45.59348" lon="2.81373">
        <ele>1128.51</ele>
        <time>2015-05-15T09:18:53Z</time>
      </trkpt>
      <trkpt lat="45.59363" lon="2.81386">
        <ele>1134.82</ele>
        <time>2015-05-15T09:19:17Z</time>
      </trkpt>
      <trkpt lat="45.59378" lon="2.81401">
        <ele>1135.16</ele>
        <time>2015-05-15T09:19:37Z</time>
      </trkpt>
      <trkpt lat="45.59391" lon="2.81421">
        <ele>1129.39</ele>
        <time>2015-05-15T09:20:00Z</time>
      </trkpt>
      <trkpt lat="45.594" lon="2.81443">
        <ele>1133.28</ele>
        <time>2015-05-15T09:20:25Z</time>
      </trkpt>
      <trkpt lat="45.59407" lon="2.81467">
        <ele>1126.58</ele>
        <time>2015-05-15T09:20:48Z</time>
      </trkpt>
      <trkpt lat="45.59415" lon="2.81494">
        <ele>1131.98</ele>
        <time>2015-05-15T09:21:14Z</time>
      </trkpt>
      <trkpt lat="45.59423" lon="2.81518">
        <ele>1146.79</ele>
        <time>2015-05-15T09:21:30Z</time>
      </trkpt>
      <trkpt lat="45.59435" lon="2.81538">
        <ele>1149.1</ele>
        <time>2015-05-15T09:21:48Z</time>
      </trkpt>
      <trkpt lat="45.59446" lon="2.81559">
        <ele>1147.94</ele>
        <time>2015-05-15T09:22:04Z</time>
      </trkpt>
      <trkpt lat="45.59461" lon="2.81574">
        <ele>1144.4</ele>
        <time>2015-05-15T09:22:20Z</time>
      </trkpt>
      <trkpt lat="45.59478" lon="2.81584">
        <ele>1137.45</ele>
        <time>2015-05-15T09:22:38Z</time>
      </trkpt>
      <trkpt lat="45.59497" lon="2.81581">
        <ele>1134.95</ele>
        <time>2015-05-15T09:23:01Z</time>
      </trkpt>
      <trkpt lat="45.59512" lon="2.81564">
        <ele>1144.2</ele>
        <time>2015-05-15T09:23:17Z</time>
      </trkpt>
      <trkpt lat="45.59519" lon="2.81539">
        <ele>1146.88</ele>
        <time>2015-05-15T09:23:35Z</time>
      </trkpt>
      <trkpt lat="45.59525" lon="2.81514">
        <ele>1149.98</ele>
        <time>2015-05-15T09:23:55Z</time>
      </trkpt>
      <trkpt lat="45.59529" lon="2.81489">
        <ele>1153.24</ele>
        <time>2015-05-15T09:24:14Z</time>
      </trkpt>
      <trkpt lat="45.59536" lon="2.81464">
        <ele>1157.38</ele>
        <time>2015-05-15T09:24:35Z</time>
      </trkpt>
      <trkpt lat="45.59551" lon="2.81478">
        <ele>1164.73</ele>
        <time>2015-05-15T09:25:15Z</time>
      </trkpt>
      <trkpt lat="45.59565" lon="2.81494">
        <ele>1169.04</ele>
        <time>2015-05-15T09:25:37Z</time>
      </trkpt>
      <trkpt lat="45.5958" lon="2.81507">
        <ele>1172.48</ele>
        <time>2015-05-15T09:26:01Z</time>
      </trkpt>
      <trkpt lat="45.59595" lon="2.81524">
        <ele>1176.38</ele>
        <time>2015-05-15T09:26:23Z</time>
      </trkpt>
      <trkpt lat="45.5961" lon="2.8154">
        <ele>1181.98</ele>
        <time>2015-05-15T09:26:49Z</time>
      </trkpt>
      <trkpt lat="45.59628" lon="2.8154">
        <ele>1185.14</ele>
        <time>2015-05-15T09:27:29Z</time>
      </trkpt>
      <trkpt lat="45.59638" lon="2.81519">
        <ele>1191.63</ele>
        <time>2015-05-15T09:28:11Z</time>
      </trkpt>
      <trkpt lat="45.59649" lon="2.81498">
        <ele>1198.38</ele>
        <time>2015-05-15T09:28:45Z</time>
      </trkpt>
      <trkpt lat="45.59667" lon="2.81488">
        <ele>1216.28</ele>
        <time>2015-05-15T09:29:50Z</time>
      </trkpt>
      <trkpt lat="45.59679" lon="2.81507">
        <ele>1215.38</ele>
        <time>2015-05-15T09:30:16Z</time>
      </trkpt>
      <trkpt lat="45.5969" lon="2.81527">
        <ele>1223.37</ele>
        <time>2015-05-15T09:30:37Z</time>
      </trkpt>
      <trkpt lat="45.59707" lon="2.81541">
        <ele>1222.51</ele>
        <time>2015-05-15T09:31:03Z</time>
      </trkpt>
      <trkpt lat="45.59721" lon="2.81559">
        <ele>1216.86</ele>
        <time>2015-05-15T09:31:31Z</time>
      </trkpt>
      <trkpt lat="45.59734" lon="2.81576">
        <ele>1226.67</ele>
        <time>2015-05-15T09:32:02Z</time>
      </trkpt>
      <trkpt lat="45.59749" lon="2.81561">
        <ele>1226.51</ele>
        <time>2015-05-15T09:32:42Z</time>
      </trkpt>
      <trkpt lat="45.59755" lon="2.81535">
        <ele>1227.02</ele>
        <time>2015-05-15T09:33:05Z</time>
      </trkpt>
      <trkpt lat="45.59765" lon="2.81512">
        <ele>1232.39</ele>
        <time>2015-05-15T09:33:42Z</time>
      </trkpt>
      <trkpt lat="45.59775" lon="2.81491">
        <ele>1237.51</ele>
        <time>2015-05-15T09:34:42Z</time>
      </trkpt>
      <trkpt lat="45.59782" lon="2.81466">
        <ele>1237.45</ele>
        <time>2015-05-15T09:34:57Z</time>
      </trkpt>
      <trkpt lat="45.59792" lon="2.81443">
        <ele>1238.56</ele>
        <time>2015-05-15T09:35:13Z</time>
      </trkpt>
      <trkpt lat="45.59804" lon="2.81423">
        <ele>1239.51</ele>
        <time>2015-05-15T09:35:29Z</time>
      </trkpt>
      <trkpt lat="45.59815" lon="2.81403">
        <ele>1239.51</ele>
        <time>2015-05-15T09:35:45Z</time>
      </trkpt>
      <trkpt lat="45.59825" lon="2.8138">
        <ele>1240.51</ele>
        <time>2015-05-15T09:36:02Z</time>
      </trkpt>
      <trkpt lat="45.59836" lon="2.81357">
        <ele>1243.26</ele>
        <time>2015-05-15T09:36:20Z</time>
      </trkpt>
      <trkpt lat="45.59846" lon="2.81335">
        <ele>1245.99</ele>
        <time>2015-05-15T09:36:39Z</time>
      </trkpt>
      <trkpt lat="45.59854" lon="2.81311">
        <ele>1249.26</ele>
        <time>2015-05-15T09:37:02Z</time>
      </trkpt>
      <trkpt lat="45.5987" lon="2.813">
        <ele>1253.06</ele>
        <time>2015-05-15T09:37:30Z</time>
      </trkpt>
      <trkpt lat="45.59888" lon="2.813">
        <ele>1257.51</ele>
        <time>2015-05-15T09:38:25Z</time>
      </trkpt>
      <trkpt lat="45.59906" lon="2.81305">
        <ele>1268.19</ele>
        <time>2015-05-15T09:38:57Z</time>
      </trkpt>
      <trkpt lat="45.59923" lon="2.81315">
        <ele>1270</ele>
        <time>2015-05-15T09:39:23Z</time>
      </trkpt>
      <trkpt lat="45.59942" lon="2.81312">
        <ele>1272.24</ele>
        <time>2015-05-15T09:39:46Z</time>
      </trkpt>
      <trkpt lat="45.5996" lon="2.81308">
        <ele>1272</ele>
        <time>2015-05-15T09:40:14Z</time>
      </trkpt>
      <trkpt lat="45.59978" lon="2.81303">
        <ele>1275.39</ele>
        <time>2015-05-15T09:40:57Z</time>
      </trkpt>
      <trkpt lat="45.59994" lon="2.8129">
        <ele>1278.38</ele>
        <time>2015-05-15T09:41:14Z</time>
      </trkpt>
      <trkpt lat="45.60011" lon="2.81283">
        <ele>1278.18</ele>
        <time>2015-05-15T09:41:37Z</time>
      </trkpt>
      <trkpt lat="45.60029" lon="2.81286">
        <ele>1276.88</ele>
        <time>2015-05-15T09:41:59Z</time>
      </trkpt>
      <trkpt lat="45.60048" lon="2.81284">
        <ele>1282.49</ele>
        <time>2015-05-15T09:42:25Z</time>
      </trkpt>
      <trkpt lat="45.60066" lon="2.81291">
        <ele>1289.44</ele>
        <time>2015-05-15T09:43:01Z</time>
      </trkpt>
      <trkpt lat="45.60084" lon="2.81292">
        <ele>1294.99</ele>
        <time>2015-05-15T09:43:30Z</time>
      </trkpt>
      <trkpt lat="45.60102" lon="2.81291">
        <ele>1297.5</ele>
        <time>2015-05-15T09:44:00Z</time>
      </trkpt>
      <trkpt lat="45.6012" lon="2.81288">
        <ele>1300.51</ele>
        <time>2015-05-15T09:44:26Z</time>
      </trkpt>
      <trkpt lat="45.60139" lon="2.81287">
        <ele>1304.51</ele>
        <time>2015-05-15T09:44:53Z</time>
      </trkpt>
      <trkpt lat="45.60157" lon="2.81285">
        <ele>1307.75</ele>
        <time>2015-05-15T09:45:18Z</time>
      </trkpt>
      <trkpt lat="45.60175" lon="2.81284">
        <ele>1310.49</ele>
        <time>2015-05-15T09:45:45Z</time>
      </trkpt>
      <trkpt lat="45.60193" lon="2.81281">
        <ele>1314.48</ele>
        <time>2015-05-15T09:46:11Z</time>
      </trkpt>
      <trkpt lat="45.60211" lon="2.81279">
        <ele>1317.25</ele>
        <time>2015-05-15T09:46:36Z</time>
      </trkpt>
      <trkpt lat="45.60229" lon="2.81274">
        <ele>1319.38</ele>
        <time>2015-05-15T09:47:03Z</time>
      </trkpt>
      <trkpt lat="45.60247" lon="2.81273">
        <ele>1324.38</ele>
        <time>2015-05-15T09:47:33Z</time>
      </trkpt>
      <trkpt lat="45.60265" lon="2.81266">
        <ele>1327.25</ele>
        <time>2015-05-15T09:48:03Z</time>
      </trkpt>
      <trkpt lat="45.60283" lon="2.81265">
        <ele>1328.47</ele>
        <time>2015-05-15T09:48:28Z</time>
      </trkpt>
      <trkpt lat="45.60302" lon="2.81261">
        <ele>1329.13</ele>
        <time>2015-05-15T09:48:51Z</time>
      </trkpt>
      <trkpt lat="45.6032" lon="2.81252">
        <ele>1331.01</ele>
        <time>2015-05-15T09:49:23Z</time>
      </trkpt>
      <trkpt lat="45.60337" lon="2.81242">
        <ele>1331.51</ele>
        <time>2015-05-15T09:49:39Z</time>
      </trkpt>
      <trkpt lat="45.60355" lon="2.81239">
        <ele>1332.73</ele>
        <time>2015-05-15T09:49:57Z</time>
      </trkpt>
      <trkpt lat="45.60374" lon="2.81237">
        <ele>1334.5</ele>
        <time>2015-05-15T09:50:16Z</time>
      </trkpt>
      <trkpt lat="45.60392" lon="2.81234">
        <ele>1337.98</ele>
        <time>2015-05-15T09:50:36Z</time>
      </trkpt>
      <trkpt lat="45.60411" lon="2.81232">
        <ele>1340.41</ele>
        <time>2015-05-15T09:50:55Z</time>
      </trkpt>
      <trkpt lat="45.60429" lon="2.8123">
        <ele>1339.95</ele>
        <time>2015-05-15T09:51:13Z</time>
      </trkpt>
      <trkpt lat="45.60447" lon="2.81228">
        <ele>1340.45</ele>
        <time>2015-05-15T09:51:32Z</time>
      </trkpt>
      <trkpt lat="45.60465" lon="2.81223">
        <ele>1339.01</ele>
        <time>2015-05-15T09:51:50Z</time>
      </trkpt>
      <trkpt lat="45.60483" lon="2.81217">
        <ele>1340.44</ele>
        <time>2015-05-15T09:52:09Z</time>
      </trkpt>
      <trkpt lat="45.60501" lon="2.81212">
        <ele>1340.76</ele>
        <time>2015-05-15T09:52:28Z</time>
      </trkpt>
      <trkpt lat="45.60518" lon="2.81201">
        <ele>1342.38</ele>
        <time>2015-05-15T09:52:47Z</time>
      </trkpt>
      <trkpt lat="45.60535" lon="2.81191">
        <ele>1343.29</ele>
        <time>2015-05-15T09:53:06Z</time>
      </trkpt>
      <trkpt lat="45.60552" lon="2.81181">
        <ele>1342.51</ele>
        <time>2015-05-15T09:53:23Z</time>
      </trkpt>
      <trkpt lat="45.60563" lon="2.81202">
        <ele>1343.51</ele>
        <time>2015-05-15T09:53:42Z</time>
      </trkpt>
      <trkpt lat="45.60571" lon="2.81227">
        <ele>1344.51</ele>
        <time>2015-05-15T09:54:05Z</time>
      </trkpt>
      <trkpt lat="45.60575" lon="2.81252">
        <ele>1345.51</ele>
        <time>2015-05-15T09:54:54Z</time>
      </trkpt>
      <trkpt lat="45.60574" lon="2.81279">
        <ele>1346.51</ele>
        <time>2015-05-15T09:55:12Z</time>
      </trkpt>
      <trkpt lat="45.60575" lon="2.81306">
        <ele>1347.51</ele>
        <time>2015-05-15T09:55:29Z</time>
      </trkpt>
      <trkpt lat="45.60574" lon="2.81333">
        <ele>1347.51</ele>
        <time>2015-05-15T09:55:48Z</time>
      </trkpt>
      <trkpt lat="45.60574" lon="2.81359">
        <ele>1349.5</ele>
        <time>2015-05-15T09:56:07Z</time>
      </trkpt>
      <trkpt lat="45.60575" lon="2.81385">
        <ele>1350.5</ele>
        <time>2015-05-15T09:56:26Z</time>
      </trkpt>
      <trkpt lat="45.60575" lon="2.8141">
        <ele>1353.23</ele>
        <time>2015-05-15T09:56:47Z</time>
      </trkpt>
      <trkpt lat="45.60574" lon="2.81436">
        <ele>1356.07</ele>
        <time>2015-05-15T09:57:12Z</time>
      </trkpt>
      <trkpt lat="45.60575" lon="2.81462">
        <ele>1359.51</ele>
        <time>2015-05-15T09:57:39Z</time>
      </trkpt>
      <trkpt lat="45.60575" lon="2.81488">
        <ele>1360.5</ele>
        <time>2015-05-15T09:57:56Z</time>
      </trkpt>
      <trkpt lat="45.60574" lon="2.81515">
        <ele>1360.51</ele>
        <time>2015-05-15T09:58:13Z</time>
      </trkpt>
      <trkpt lat="45.60575" lon="2.81541">
        <ele>1359.63</ele>
        <time>2015-05-15T09:58:29Z</time>
      </trkpt>
      <trkpt lat="45.60576" lon="2.81568">
        <ele>1359.51</ele>
        <time>2015-05-15T09:58:45Z</time>
      </trkpt>
      <trkpt lat="45.60576" lon="2.81594">
        <ele>1357.57</ele>
        <time>2015-05-15T09:59:03Z</time>
      </trkpt>
      <trkpt lat="45.60575" lon="2.81621">
        <ele>1355.51</ele>
        <time>2015-05-15T09:59:24Z</time>
      </trkpt>
      <trkpt lat="45.60575" lon="2.81648">
        <ele>1352.64</ele>
        <time>2015-05-15T09:59:41Z</time>
      </trkpt>
      <trkpt lat="45.60574" lon="2.81674">
        <ele>1350.26</ele>
        <time>2015-05-15T10:00:07Z</time>
      </trkpt>
      <trkpt lat="45.60572" lon="2.81701">
        <ele>1352.02</ele>
        <time>2015-05-15T10:00:34Z</time>
      </trkpt>
      <trkpt lat="45.60573" lon="2.81727">
        <ele>1345.14</ele>
        <time>2015-05-15T10:01:10Z</time>
      </trkpt>
      <trkpt lat="45.60576" lon="2.81753">
        <ele>1339.34</ele>
        <time>2015-05-15T10:01:41Z</time>
      </trkpt>
      <trkpt lat="45.60579" lon="2.81778">
        <ele>1330.7</ele>
        <time>2015-05-15T10:02:06Z</time>
      </trkpt>
      <trkpt lat="45.60574" lon="2.81803">
        <ele>1327.62</ele>
        <time>2015-05-15T10:02:27Z</time>
      </trkpt>
      <trkpt lat="45.60571" lon="2.81829">
        <ele>1328.33</ele>
        <time>2015-05-15T10:02:50Z</time>
      </trkpt>
      <trkpt lat="45.60568" lon="2.81855">
        <ele>1325.3</ele>
        <time>2015-05-15T10:03:10Z</time>
      </trkpt>
      <trkpt lat="45.60566" lon="2.81882">
        <ele>1324</ele>
        <time>2015-05-15T10:03:25Z</time>
      </trkpt>
      <trkpt lat="45.60566" lon="2.81909">
        <ele>1318.43</ele>
        <time>2015-05-15T10:03:43Z</time>
      </trkpt>
      <trkpt lat="45.60569" lon="2.81935">
        <ele>1316.39</ele>
        <time>2015-05-15T10:04:04Z</time>
      </trkpt>
      <trkpt lat="45.60571" lon="2.81961">
        <ele>1311.12</ele>
        <time>2015-05-15T10:04:22Z</time>
      </trkpt>
      <trkpt lat="45.60575" lon="2.81986">
        <ele>1302.55</ele>
        <time>2015-05-15T10:04:35Z</time>
      </trkpt>
      <trkpt lat="45.60573" lon="2.82013">
        <ele>1302.59</ele>
        <time>2015-05-15T10:04:49Z</time>
      </trkpt>
      <trkpt lat="45.60573" lon="2.82039">
        <ele>1301.39</ele>
        <time>2015-05-15T10:05:05Z</time>
      </trkpt>
      <trkpt lat="45.60576" lon="2.82065">
        <ele>1297.04</ele>
        <time>2015-05-15T10:05:19Z</time>
      </trkpt>
      <trkpt lat="45.60573" lon="2.82092">
        <ele>1298.49</ele>
        <time>2015-05-15T10:05:35Z</time>
      </trkpt>
      <trkpt lat="45.60574" lon="2.8212">
        <ele>1299.27</ele>
        <time>2015-05-15T10:05:51Z</time>
      </trkpt>
      <trkpt lat="45.60587" lon="2.82139">
        <ele>1300.75</ele>
        <time>2015-05-15T10:06:08Z</time>
      </trkpt>
      <trkpt lat="45.60604" lon="2.8215">
        <ele>1296.3</ele>
        <time>2015-05-15T10:06:23Z</time>
      </trkpt>
      <trkpt lat="45.60622" lon="2.82161">
        <ele>1292.2</ele>
        <time>2015-05-15T10:06:38Z</time>
      </trkpt>
      <trkpt lat="45.60636" lon="2.82176">
        <ele>1288.29</ele>
        <time>2015-05-15T10:06:53Z</time>
      </trkpt>
      <trkpt lat="45.60654" lon="2.8218">
        <ele>1288.33</ele>
        <time>2015-05-15T10:07:08Z</time>
      </trkpt>
      <trkpt lat="45.60673" lon="2.82186">
        <ele>1290.04</ele>
        <time>2015-05-15T10:07:22Z</time>
      </trkpt>
      <trkpt lat="45.60692" lon="2.82182">
        <ele>1291.97</ele>
        <time>2015-05-15T10:07:38Z</time>
      </trkpt>
      <trkpt lat="45.60711" lon="2.82192">
        <ele>1290.08</ele>
        <time>2015-05-15T10:07:57Z</time>
      </trkpt>
      <trkpt lat="45.6073" lon="2.82189">
        <ele>1287.58</ele>
        <time>2015-05-15T10:08:08Z</time>
      </trkpt>
      <trkpt lat="45.60749" lon="2.82188">
        <ele>1277.18</ele>
        <time>2015-05-15T10:08:19Z</time>
      </trkpt>
      <trkpt lat="45.60766" lon="2.82193">
        <ele>1275.71</ele>
        <time>2015-05-15T10:08:32Z</time>
      </trkpt>
      <trkpt lat="45.60784" lon="2.822">
        <ele>1277.28</ele>
        <time>2015-05-15T10:08:46Z</time>
      </trkpt>
      <trkpt lat="45.60802" lon="2.82209">
        <ele>1268.81</ele>
        <time>2015-05-15T10:08:58Z</time>
      </trkpt>
      <trkpt lat="45.6082" lon="2.82215">
        <ele>1274.6</ele>
        <time>2015-05-15T10:09:13Z</time>
      </trkpt>
      <trkpt lat="45.60837" lon="2.82221">
        <ele>1275.02</ele>
        <time>2015-05-15T10:09:26Z</time>
      </trkpt>
      <trkpt lat="45.60855" lon="2.82232">
        <ele>1274.63</ele>
        <time>2015-05-15T10:09:45Z</time>
      </trkpt>
      <trkpt lat="45.60873" lon="2.82228">
        <ele>1273.02</ele>
        <time>2015-05-15T10:09:59Z</time>
      </trkpt>
      <trkpt lat="45.60892" lon="2.82221">
        <ele>1279.18</ele>
        <time>2015-05-15T10:10:17Z</time>
      </trkpt>
      <trkpt lat="45.6091" lon="2.82214">
        <ele>1278.43</ele>
        <time>2015-05-15T10:10:34Z</time>
      </trkpt>
      <trkpt lat="45.60927" lon="2.82204">
        <ele>1283.33</ele>
        <time>2015-05-15T10:10:50Z</time>
      </trkpt>
      <trkpt lat="45.60945" lon="2.82196">
        <ele>1283.29</ele>
        <time>2015-05-15T10:11:06Z</time>
      </trkpt>
      <trkpt lat="45.60963" lon="2.8219">
        <ele>1288.56</ele>
        <time>2015-05-15T10:11:24Z</time>
      </trkpt>
      <trkpt lat="45.60981" lon="2.82193">
        <ele>1275.97</ele>
        <time>2015-05-15T10:11:36Z</time>
      </trkpt>
      <trkpt lat="45.61" lon="2.82189">
        <ele>1268.76</ele>
        <time>2015-05-15T10:11:47Z</time>
      </trkpt>
      <trkpt lat="45.61019" lon="2.82187">
        <ele>1266.52</ele>
        <time>2015-05-15T10:12:02Z</time>
      </trkpt>
      <trkpt lat="45.61037" lon="2.82194">
        <ele>1262.26</ele>
        <time>2015-05-15T10:12:14Z</time>
      </trkpt>
      <trkpt lat="45.61053" lon="2.82207">
        <ele>1257.83</ele>
        <time>2015-05-15T10:12:27Z</time>
      </trkpt>
      <trkpt lat="45.61068" lon="2.82223">
        <ele>1255.63</ele>
        <time>2015-05-15T10:12:41Z</time>
      </trkpt>
      <trkpt lat="45.61085" lon="2.82233">
        <ele>1254.51</ele>
        <time>2015-05-15T10:12:56Z</time>
      </trkpt>
      <trkpt lat="45.61104" lon="2.82235">
        <ele>1253.51</ele>
        <time>2015-05-15T10:13:12Z</time>
      </trkpt>
      <trkpt lat="45.61122" lon="2.82232">
        <ele>1253.51</ele>
        <time>2015-05-15T10:13:27Z</time>
      </trkpt>
      <trkpt lat="45.6114" lon="2.82227">
        <ele>1253.51</ele>
        <time>2015-05-15T10:13:42Z</time>
      </trkpt>
      <trkpt lat="45.61156" lon="2.82215">
        <ele>1252.76</ele>
        <time>2015-05-15T10:13:58Z</time>
      </trkpt>
      <trkpt lat="45.61172" lon="2.82202">
        <ele>1251.51</ele>
        <time>2015-05-15T10:14:13Z</time>
      </trkpt>
      <trkpt lat="45.61191" lon="2.82198">
        <ele>1249.54</ele>
        <time>2015-05-15T10:14:28Z</time>
      </trkpt>
      <trkpt lat="45.6121" lon="2.82198">
        <ele>1247.51</ele>
        <time>2015-05-15T10:14:43Z</time>
      </trkpt>
      <trkpt lat="45.61228" lon="2.82205">
        <ele>1245.51</ele>
        <time>2015-05-15T10:14:58Z</time>
      </trkpt>
      <trkpt lat="45.61245" lon="2.82214">
        <ele>1243.51</ele>
        <time>2015-05-15T10:15:16Z</time>
      </trkpt>
      <trkpt lat="45.61252" lon="2.8219">
        <ele>1249.95</ele>
        <time>2015-05-15T10:17:09Z</time>
      </trkpt>
      <trkpt lat="45.61261" lon="2.82166">
        <ele>1252.64</ele>
        <time>2015-05-15T10:17:30Z</time>
      </trkpt>
      <trkpt lat="45.61271" lon="2.82145">
        <ele>1256.06</ele>
        <time>2015-05-15T10:17:51Z</time>
      </trkpt>
      <trkpt lat="45.61279" lon="2.82121">
        <ele>1254.54</ele>
        <time>2015-05-15T10:18:10Z</time>
      </trkpt>
      <trkpt lat="45.61293" lon="2.82101">
        <ele>1247.27</ele>
        <time>2015-05-15T10:18:27Z</time>
      </trkpt>
      <trkpt lat="45.61306" lon="2.82082">
        <ele>1249.53</ele>
        <time>2015-05-15T10:18:45Z</time>
      </trkpt>
      <trkpt lat="45.61317" lon="2.8206">
        <ele>1251.03</ele>
        <time>2015-05-15T10:19:09Z</time>
      </trkpt>
      <trkpt lat="45.61334" lon="2.82048">
        <ele>1256.24</ele>
        <time>2015-05-15T10:19:42Z</time>
      </trkpt>
      <trkpt lat="45.61346" lon="2.82029">
        <ele>1264.95</ele>
        <time>2015-05-15T10:20:19Z</time>
      </trkpt>
      <trkpt lat="45.61356" lon="2.82007">
        <ele>1265.87</ele>
        <time>2015-05-15T10:20:51Z</time>
      </trkpt>
      <trkpt lat="45.61339" lon="2.81994">
        <ele>1273.51</ele>
        <time>2015-05-15T10:22:20Z</time>
      </trkpt>
      <trkpt lat="45.61321" lon="2.81986">
        <ele>1267.26</ele>
        <time>2015-05-15T10:22:54Z</time>
      </trkpt>
      <trkpt lat="45.61312" lon="2.81963">
        <ele>1286.41</ele>
        <time>2015-05-15T10:24:04Z</time>
      </trkpt>
      <trkpt lat="45.61325" lon="2.81945">
        <ele>1294.13</ele>
        <time>2015-05-15T10:24:39Z</time>
      </trkpt>
      <trkpt lat="45.61343" lon="2.81938">
        <ele>1295.35</ele>
        <time>2015-05-15T10:25:02Z</time>
      </trkpt>
      <trkpt lat="45.61361" lon="2.81931">
        <ele>1296.44</ele>
        <time>2015-05-15T10:25:23Z</time>
      </trkpt>
      <trkpt lat="45.61378" lon="2.8192">
        <ele>1296.46</ele>
        <time>2015-05-15T10:25:44Z</time>
      </trkpt>
      <trkpt lat="45.61396" lon="2.81914">
        <ele>1293.51</ele>
        <time>2015-05-15T10:27:05Z</time>
      </trkpt>
      <trkpt lat="45.61412" lon="2.81902">
        <ele>1294.42</ele>
        <time>2015-05-15T10:27:37Z</time>
      </trkpt>
      <trkpt lat="45.61427" lon="2.81885">
        <ele>1295.09</ele>
        <time>2015-05-15T10:28:05Z</time>
      </trkpt>
      <trkpt lat="45.61445" lon="2.81891">
        <ele>1284.22</ele>
        <time>2015-05-15T10:28:39Z</time>
      </trkpt>
      <trkpt lat="45.61463" lon="2.81887">
        <ele>1277.19</ele>
        <time>2015-05-15T10:28:58Z</time>
      </trkpt>
      <trkpt lat="45.6148" lon="2.81881">
        <ele>1275.59</ele>
        <time>2015-05-15T10:29:12Z</time>
      </trkpt>
      <trkpt lat="45.61495" lon="2.81865">
        <ele>1267.76</ele>
        <time>2015-05-15T10:29:34Z</time>
      </trkpt>
      <trkpt lat="45.61514" lon="2.8186">
        <ele>1267.15</ele>
        <time>2015-05-15T10:29:48Z</time>
      </trkpt>
      <trkpt lat="45.61531" lon="2.81851">
        <ele>1264.39</ele>
        <time>2015-05-15T10:29:58Z</time>
      </trkpt>
      <trkpt lat="45.61548" lon="2.81839">
        <ele>1259.09</ele>
        <time>2015-05-15T10:30:20Z</time>
      </trkpt>
      <trkpt lat="45.61567" lon="2.81836">
        <ele>1254.84</ele>
        <time>2015-05-15T10:30:39Z</time>
      </trkpt>
      <trkpt lat="45.61581" lon="2.8182">
        <ele>1247.99</ele>
        <time>2015-05-15T10:30:53Z</time>
      </trkpt>
      <trkpt lat="45.61599" lon="2.81819">
        <ele>1243.76</ele>
        <time>2015-05-15T10:31:16Z</time>
      </trkpt>
      <trkpt lat="45.61617" lon="2.81808">
        <ele>1241.12</ele>
        <time>2015-05-15T10:31:31Z</time>
      </trkpt>
      <trkpt lat="45.61634" lon="2.818">
        <ele>1251.66</ele>
        <time>2015-05-15T10:31:48Z</time>
      </trkpt>
      <trkpt lat="45.6165" lon="2.81787">
        <ele>1252.91</ele>
        <time>2015-05-15T10:32:04Z</time>
      </trkpt>
      <trkpt lat="45.61668" lon="2.81788">
        <ele>1259.35</ele>
        <time>2015-05-15T10:33:26Z</time>
      </trkpt>
      <trkpt lat="45.61684" lon="2.818">
        <ele>1251.46</ele>
        <time>2015-05-15T10:33:51Z</time>
      </trkpt>
      <trkpt lat="45.61703" lon="2.81803">
        <ele>1251.24</ele>
        <time>2015-05-15T10:34:08Z</time>
      </trkpt>
      <trkpt lat="45.61721" lon="2.8181">
        <ele>1242.32</ele>
        <time>2015-05-15T10:34:26Z</time>
      </trkpt>
      <trkpt lat="45.6174" lon="2.81809">
        <ele>1244.43</ele>
        <time>2015-05-15T10:34:41Z</time>
      </trkpt>
      <trkpt lat="45.61757" lon="2.81801">
        <ele>1246.31</ele>
        <time>2015-05-15T10:34:59Z</time>
      </trkpt>
      <trkpt lat="45.61775" lon="2.81792">
        <ele>1252.66</ele>
        <time>2015-05-15T10:35:21Z</time>
      </trkpt>
      <trkpt lat="45.61792" lon="2.81801">
        <ele>1255.89</ele>
        <time>2015-05-15T10:35:45Z</time>
      </trkpt>
      <trkpt lat="45.61808" lon="2.81812">
        <ele>1257.41</ele>
        <time>2015-05-15T10:36:05Z</time>
      </trkpt>
      <trkpt lat="45.61822" lon="2.81828">
        <ele>1248.52</ele>
        <time>2015-05-15T10:36:21Z</time>
      </trkpt>
      <trkpt lat="45.61838" lon="2.81842">
        <ele>1257.37</ele>
        <time>2015-05-15T10:36:49Z</time>
      </trkpt>
      <trkpt lat="45.61856" lon="2.81849">
        <ele>1259.54</ele>
        <time>2015-05-15T10:37:11Z</time>
      </trkpt>
      <trkpt lat="45.61865" lon="2.81873">
        <ele>1256.59</ele>
        <time>2015-05-15T10:37:28Z</time>
      </trkpt>
      <trkpt lat="45.61869" lon="2.81899">
        <ele>1258.86</ele>
        <time>2015-05-15T10:37:43Z</time>
      </trkpt>
      <trkpt lat="45.61867" lon="2.81925">
        <ele>1258.1</ele>
        <time>2015-05-15T10:37:57Z</time>
      </trkpt>
      <trkpt lat="45.61862" lon="2.81952">
        <ele>1262.4</ele>
        <time>2015-05-15T10:38:13Z</time>
      </trkpt>
      <trkpt lat="45.61862" lon="2.8198">
        <ele>1259.8</ele>
        <time>2015-05-15T10:38:27Z</time>
      </trkpt>
      <trkpt lat="45.61866" lon="2.82008">
        <ele>1254.07</ele>
        <time>2015-05-15T10:38:42Z</time>
      </trkpt>
      <trkpt lat="45.6187" lon="2.82035">
        <ele>1249.85</ele>
        <time>2015-05-15T10:38:57Z</time>
      </trkpt>
      <trkpt lat="45.61859" lon="2.82056">
        <ele>1255.29</ele>
        <time>2015-05-15T10:39:15Z</time>
      </trkpt>
      <trkpt lat="45.61846" lon="2.82076">
        <ele>1255.46</ele>
        <time>2015-05-15T10:39:31Z</time>
      </trkpt>
      <trkpt lat="45.61841" lon="2.82101">
        <ele>1253.45</ele>
        <time>2015-05-15T10:39:43Z</time>
      </trkpt>
      <trkpt lat="45.61839" lon="2.82127">
        <ele>1262.43</ele>
        <time>2015-05-15T10:40:03Z</time>
      </trkpt>
      <trkpt lat="45.61854" lon="2.82142">
        <ele>1259.45</ele>
        <time>2015-05-15T10:40:19Z</time>
      </trkpt>
      <trkpt lat="45.6187" lon="2.8216">
        <ele>1252.77</ele>
        <time>2015-05-15T10:40:34Z</time>
      </trkpt>
      <trkpt lat="45.61879" lon="2.82182">
        <ele>1245.85</ele>
        <time>2015-05-15T10:40:51Z</time>
      </trkpt>
      <trkpt lat="45.61885" lon="2.82207">
        <ele>1246.76</ele>
        <time>2015-05-15T10:41:13Z</time>
      </trkpt>
      <trkpt lat="45.61892" lon="2.82231">
        <ele>1246.23</ele>
        <time>2015-05-15T10:42:06Z</time>
      </trkpt>
      <trkpt lat="45.61911" lon="2.82226">
        <ele>1244.51</ele>
        <time>2015-05-15T10:43:13Z</time>
      </trkpt>
      <trkpt lat="45.6193" lon="2.82223">
        <ele>1245.51</ele>
        <time>2015-05-15T10:43:28Z</time>
      </trkpt>
      <trkpt lat="45.61948" lon="2.82217">
        <ele>1249.44</ele>
        <time>2015-05-15T10:43:47Z</time>
      </trkpt>
      <trkpt lat="45.61958" lon="2.82196">
        <ele>1253.38</ele>
        <time>2015-05-15T10:44:06Z</time>
      </trkpt>
      <trkpt lat="45.61964" lon="2.82171">
        <ele>1256.34</ele>
        <time>2015-05-15T10:44:26Z</time>
      </trkpt>
      <trkpt lat="45.61963" lon="2.82144">
        <ele>1263.44</ele>
        <time>2015-05-15T10:44:44Z</time>
      </trkpt>
      <trkpt lat="45.61977" lon="2.82126">
        <ele>1264.76</ele>
        <time>2015-05-15T10:45:01Z</time>
      </trkpt>
      <trkpt lat="45.61992" lon="2.82112">
        <ele>1265.76</ele>
        <time>2015-05-15T10:45:20Z</time>
      </trkpt>
      <trkpt lat="45.62008" lon="2.82098">
        <ele>1267.49</ele>
        <time>2015-05-15T10:45:40Z</time>
      </trkpt>
      <trkpt lat="45.62024" lon="2.82088">
        <ele>1266.26</ele>
        <time>2015-05-15T10:46:01Z</time>
      </trkpt>
      <trkpt lat="45.62041" lon="2.82076">
        <ele>1267.47</ele>
        <time>2015-05-15T10:46:22Z</time>
      </trkpt>
      <trkpt lat="45.6205" lon="2.82053">
        <ele>1266.08</ele>
        <time>2015-05-15T10:47:00Z</time>
      </trkpt>
      <trkpt lat="45.62069" lon="2.82055">
        <ele>1266.27</ele>
        <time>2015-05-15T10:47:30Z</time>
      </trkpt>
      <trkpt lat="45.62088" lon="2.8205">
        <ele>1266.51</ele>
        <time>2015-05-15T10:48:09Z</time>
      </trkpt>
      <trkpt lat="45.62105" lon="2.82044">
        <ele>1266.51</ele>
        <time>2015-05-15T10:48:48Z</time>
      </trkpt>
      <trkpt lat="45.62124" lon="2.82044">
        <ele>1266.51</ele>
        <time>2015-05-15T10:49:08Z</time>
      </trkpt>
      <trkpt lat="45.62142" lon="2.82049">
        <ele>1268.92</ele>
        <time>2015-05-15T10:49:26Z</time>
      </trkpt>
      <trkpt lat="45.6216" lon="2.8205">
        <ele>1269.39</ele>
        <time>2015-05-15T10:49:42Z</time>
      </trkpt>
      <trkpt lat="45.62178" lon="2.82052">
        <ele>1270.5</ele>
        <time>2015-05-15T10:50:00Z</time>
      </trkpt>
      <trkpt lat="45.62197" lon="2.82052">
        <ele>1270.51</ele>
        <time>2015-05-15T10:50:17Z</time>
      </trkpt>
      <trkpt lat="45.62216" lon="2.82055">
        <ele>1269.04</ele>
        <time>2015-05-15T10:50:41Z</time>
      </trkpt>
      <trkpt lat="45.62233" lon="2.82046">
        <ele>1267.51</ele>
        <time>2015-05-15T10:51:05Z</time>
      </trkpt>
      <trkpt lat="45.62237" lon="2.82071">
        <ele>1267.4</ele>
        <time>2015-05-15T10:56:08Z</time>
      </trkpt>
      <trkpt lat="45.62235" lon="2.82097">
        <ele>1269.6</ele>
        <time>2015-05-15T10:56:29Z</time>
      </trkpt>
      <trkpt lat="45.62216" lon="2.82099">
        <ele>1269.01</ele>
        <time>2015-05-15T10:56:45Z</time>
      </trkpt>
      <trkpt lat="45.62198" lon="2.82104">
        <ele>1270.49</ele>
        <time>2015-05-15T10:57:02Z</time>
      </trkpt>
      <trkpt lat="45.62183" lon="2.82119">
        <ele>1275.68</ele>
        <time>2015-05-15T10:57:21Z</time>
      </trkpt>
      <trkpt lat="45.6217" lon="2.82138">
        <ele>1280.24</ele>
        <time>2015-05-15T10:57:40Z</time>
      </trkpt>
      <trkpt lat="45.6216" lon="2.8216">
        <ele>1282.76</ele>
        <time>2015-05-15T10:57:57Z</time>
      </trkpt>
      <trkpt lat="45.62156" lon="2.82186">
        <ele>1281.12</ele>
        <time>2015-05-15T10:58:18Z</time>
      </trkpt>
      <trkpt lat="45.62166" lon="2.82208">
        <ele>1279.25</ele>
        <time>2015-05-15T10:58:38Z</time>
      </trkpt>
      <trkpt lat="45.62173" lon="2.82233">
        <ele>1279.38</ele>
        <time>2015-05-15T10:58:57Z</time>
      </trkpt>
      <trkpt lat="45.62176" lon="2.82258">
        <ele>1282.18</ele>
        <time>2015-05-15T10:59:15Z</time>
      </trkpt>
      <trkpt lat="45.62172" lon="2.82284">
        <ele>1285.23</ele>
        <time>2015-05-15T10:59:35Z</time>
      </trkpt>
      <trkpt lat="45.62171" lon="2.8231">
        <ele>1290.48</ele>
        <time>2015-05-15T11:00:03Z</time>
      </trkpt>
      <trkpt lat="45.62161" lon="2.82332">
        <ele>1295.5</ele>
        <time>2015-05-15T11:00:26Z</time>
      </trkpt>
      <trkpt lat="45.62152" lon="2.82355">
        <ele>1299.94</ele>
        <time>2015-05-15T11:00:47Z</time>
      </trkpt>
      <trkpt lat="45.62142" lon="2.82377">
        <ele>1308.1</ele>
        <time>2015-05-15T11:01:10Z</time>
      </trkpt>
      <trkpt lat="45.62129" lon="2.82397">
        <ele>1309</ele>
        <time>2015-05-15T11:01:30Z</time>
      </trkpt>
      <trkpt lat="45.62124" lon="2.82422">
        <ele>1307.38</ele>
        <time>2015-05-15T11:02:47Z</time>
      </trkpt>
      <trkpt lat="45.62124" lon="2.82449">
        <ele>1309.48</ele>
        <time>2015-05-15T11:05:16Z</time>
      </trkpt>
      <trkpt lat="45.62119" lon="2.82474">
        <ele>1309.44</ele>
        <time>2015-05-15T11:05:31Z</time>
      </trkpt>
      <trkpt lat="45.62112" lon="2.82498">
        <ele>1312.19</ele>
        <time>2015-05-15T11:05:49Z</time>
      </trkpt>
      <trkpt lat="45.62106" lon="2.82524">
        <ele>1311.76</ele>
        <time>2015-05-15T11:06:05Z</time>
      </trkpt>
      <trkpt lat="45.62099" lon="2.82548">
        <ele>1313.39</ele>
        <time>2015-05-15T11:06:22Z</time>
      </trkpt>
      <trkpt lat="45.6209" lon="2.82571">
        <ele>1322.46</ele>
        <time>2015-05-15T11:06:48Z</time>
      </trkpt>
      <trkpt lat="45.62086" lon="2.82598">
        <ele>1325.51</ele>
        <time>2015-05-15T11:07:06Z</time>
      </trkpt>
      <trkpt lat="45.62082" lon="2.82623">
        <ele>1335.59</ele>
        <time>2015-05-15T11:07:28Z</time>
      </trkpt>
      <trkpt lat="45.6208" lon="2.82649">
        <ele>1338.49</ele>
        <time>2015-05-15T11:07:45Z</time>
      </trkpt>
      <trkpt lat="45.62068" lon="2.82671">
        <ele>1344.34</ele>
        <time>2015-05-15T11:08:01Z</time>
      </trkpt>
      <trkpt lat="45.62057" lon="2.82692">
        <ele>1343.4</ele>
        <time>2015-05-15T11:08:12Z</time>
      </trkpt>
      <trkpt lat="45.62047" lon="2.82713">
        <ele>1342.07</ele>
        <time>2015-05-15T11:08:26Z</time>
      </trkpt>
      <trkpt lat="45.62034" lon="2.82731">
        <ele>1342.22</ele>
        <time>2015-05-15T11:08:42Z</time>
      </trkpt>
      <trkpt lat="45.62018" lon="2.82746">
        <ele>1360.44</ele>
        <time>2015-05-15T11:09:12Z</time>
      </trkpt>
      <trkpt lat="45.62009" lon="2.8277">
        <ele>1355.72</ele>
        <time>2015-05-15T11:09:30Z</time>
      </trkpt>
      <trkpt lat="45.62006" lon="2.82797">
        <ele>1343.99</ele>
        <time>2015-05-15T11:09:44Z</time>
      </trkpt>
      <trkpt lat="45.62008" lon="2.82823">
        <ele>1340.09</ele>
        <time>2015-05-15T11:10:01Z</time>
      </trkpt>
      <trkpt lat="45.6201" lon="2.8285">
        <ele>1342.55</ele>
        <time>2015-05-15T11:10:18Z</time>
      </trkpt>
      <trkpt lat="45.62011" lon="2.82875">
        <ele>1345.22</ele>
        <time>2015-05-15T11:10:36Z</time>
      </trkpt>
      <trkpt lat="45.62007" lon="2.8285">
        <ele>1348.09</ele>
        <time>2015-05-15T11:11:34Z</time>
      </trkpt>
      <trkpt lat="45.62" lon="2.82835">
        <ele>1344.51</ele>
        <time>2015-05-15T11:12:29Z</time>
      </trkpt>
      <trkpt lat="45.62007" lon="2.82861">
        <ele>1352.31</ele>
        <time>2015-05-15T11:27:49Z</time>
      </trkpt>
      <trkpt lat="45.62012" lon="2.82887">
        <ele>1352.73</ele>
        <time>2015-05-15T11:28:04Z</time>
      </trkpt>
      <trkpt lat="45.62022" lon="2.82909">
        <ele>1355.1</ele>
        <time>2015-05-15T11:28:25Z</time>
      </trkpt>
      <trkpt lat="45.6204" lon="2.82904">
        <ele>1355.96</ele>
        <time>2015-05-15T11:28:43Z</time>
      </trkpt>
      <trkpt lat="45.6205" lon="2.82927">
        <ele>1361.23</ele>
        <time>2015-05-15T11:29:06Z</time>
      </trkpt>
      <trkpt lat="45.6206" lon="2.82949">
        <ele>1366.38</ele>
        <time>2015-05-15T11:29:30Z</time>
      </trkpt>
      <trkpt lat="45.6207" lon="2.82972">
        <ele>1370.38</ele>
        <time>2015-05-15T11:29:52Z</time>
      </trkpt>
      <trkpt lat="45.62081" lon="2.82993">
        <ele>1373.49</ele>
        <time>2015-05-15T11:30:12Z</time>
      </trkpt>
      <trkpt lat="45.62091" lon="2.83015">
        <ele>1374.42</ele>
        <time>2015-05-15T11:30:31Z</time>
      </trkpt>
      <trkpt lat="45.621" lon="2.83037">
        <ele>1377.49</ele>
        <time>2015-05-15T11:30:50Z</time>
      </trkpt>
      <trkpt lat="45.62109" lon="2.83059">
        <ele>1379.99</ele>
        <time>2015-05-15T11:31:10Z</time>
      </trkpt>
      <trkpt lat="45.62119" lon="2.83082">
        <ele>1385.38</ele>
        <time>2015-05-15T11:31:32Z</time>
      </trkpt>
      <trkpt lat="45.62129" lon="2.83104">
        <ele>1389.38</ele>
        <time>2015-05-15T11:31:54Z</time>
      </trkpt>
      <trkpt lat="45.62139" lon="2.83128">
        <ele>1393.75</ele>
        <time>2015-05-15T11:32:16Z</time>
      </trkpt>
      <trkpt lat="45.62152" lon="2.83146">
        <ele>1397.26</ele>
        <time>2015-05-15T11:32:39Z</time>
      </trkpt>
      <trkpt lat="45.62168" lon="2.83135">
        <ele>1399.23</ele>
        <time>2015-05-15T11:32:56Z</time>
      </trkpt>
      <trkpt lat="45.62185" lon="2.83122">
        <ele>1401.49</ele>
        <time>2015-05-15T11:33:14Z</time>
      </trkpt>
      <trkpt lat="45.62202" lon="2.83109">
        <ele>1404.45</ele>
        <time>2015-05-15T11:33:31Z</time>
      </trkpt>
      <trkpt lat="45.62219" lon="2.83098">
        <ele>1405.76</ele>
        <time>2015-05-15T11:33:48Z</time>
      </trkpt>
      <trkpt lat="45.62236" lon="2.83087">
        <ele>1405.63</ele>
        <time>2015-05-15T11:34:04Z</time>
      </trkpt>
      <trkpt lat="45.62254" lon="2.83081">
        <ele>1407.01</ele>
        <time>2015-05-15T11:34:19Z</time>
      </trkpt>
      <trkpt lat="45.62272" lon="2.83075">
        <ele>1407.26</ele>
        <time>2015-05-15T11:34:34Z</time>
      </trkpt>
      <trkpt lat="45.6229" lon="2.8307">
        <ele>1407.49</ele>
        <time>2015-05-15T11:34:49Z</time>
      </trkpt>
      <trkpt lat="45.62309" lon="2.83073">
        <ele>1408.5</ele>
        <time>2015-05-15T11:35:04Z</time>
      </trkpt>
      <trkpt lat="45.62327" lon="2.83078">
        <ele>1409.38</ele>
        <time>2015-05-15T11:35:18Z</time>
      </trkpt>
      <trkpt lat="45.62343" lon="2.83091">
        <ele>1409.51</ele>
        <time>2015-05-15T11:35:33Z</time>
      </trkpt>
      <trkpt lat="45.62355" lon="2.8311">
        <ele>1410.51</ele>
        <time>2015-05-15T11:35:48Z</time>
      </trkpt>
      <trkpt lat="45.62367" lon="2.8313">
        <ele>1412.26</ele>
        <time>2015-05-15T11:36:04Z</time>
      </trkpt>
      <trkpt lat="45.62385" lon="2.83138">
        <ele>1413.51</ele>
        <time>2015-05-15T11:36:21Z</time>
      </trkpt>
      <trkpt lat="45.62402" lon="2.83149">
        <ele>1409.54</ele>
        <time>2015-05-15T11:36:58Z</time>
      </trkpt>
      <trkpt lat="45.62414" lon="2.83168">
        <ele>1408.51</ele>
        <time>2015-05-15T11:37:15Z</time>
      </trkpt>
      <trkpt lat="45.62424" lon="2.83191">
        <ele>1408.52</ele>
        <time>2015-05-15T11:37:32Z</time>
      </trkpt>
      <trkpt lat="45.62438" lon="2.83209">
        <ele>1407.51</ele>
        <time>2015-05-15T11:37:48Z</time>
      </trkpt>
      <trkpt lat="45.62453" lon="2.83226">
        <ele>1406.51</ele>
        <time>2015-05-15T11:38:03Z</time>
      </trkpt>
      <trkpt lat="45.6247" lon="2.83237">
        <ele>1406.51</ele>
        <time>2015-05-15T11:38:19Z</time>
      </trkpt>
      <trkpt lat="45.62488" lon="2.83241">
        <ele>1406.51</ele>
        <time>2015-05-15T11:38:37Z</time>
      </trkpt>
      <trkpt lat="45.62507" lon="2.83243">
        <ele>1408.95</ele>
        <time>2015-05-15T11:38:55Z</time>
      </trkpt>
      <trkpt lat="45.62525" lon="2.83246">
        <ele>1410.51</ele>
        <time>2015-05-15T11:39:13Z</time>
      </trkpt>
      <trkpt lat="45.62544" lon="2.83249">
        <ele>1413.26</ele>
        <time>2015-05-15T11:39:32Z</time>
      </trkpt>
      <trkpt lat="45.62562" lon="2.83252">
        <ele>1416.49</ele>
        <time>2015-05-15T11:39:54Z</time>
      </trkpt>
      <trkpt lat="45.62577" lon="2.83266">
        <ele>1418.51</ele>
        <time>2015-05-15T11:40:14Z</time>
      </trkpt>
      <trkpt lat="45.62592" lon="2.83281">
        <ele>1421.38</ele>
        <time>2015-05-15T11:40:34Z</time>
      </trkpt>
      <trkpt lat="45.62607" lon="2.83297">
        <ele>1424.45</ele>
        <time>2015-05-15T11:40:55Z</time>
      </trkpt>
      <trkpt lat="45.62622" lon="2.83313">
        <ele>1427.5</ele>
        <time>2015-05-15T11:41:14Z</time>
      </trkpt>
      <trkpt lat="45.62636" lon="2.8333">
        <ele>1431.25</ele>
        <time>2015-05-15T11:41:34Z</time>
      </trkpt>
      <trkpt lat="45.62652" lon="2.83344">
        <ele>1433.01</ele>
        <time>2015-05-15T11:41:56Z</time>
      </trkpt>
      <trkpt lat="45.62656" lon="2.83369">
        <ele>1438.45</ele>
        <time>2015-05-15T11:43:11Z</time>
      </trkpt>
      <trkpt lat="45.62638" lon="2.83371">
        <ele>1449.35</ele>
        <time>2015-05-15T11:44:03Z</time>
      </trkpt>
      <trkpt lat="45.62619" lon="2.83374">
        <ele>1455.01</ele>
        <time>2015-05-15T11:44:46Z</time>
      </trkpt>
      <trkpt lat="45.62608" lon="2.83394">
        <ele>1461.45</ele>
        <time>2015-05-15T11:45:24Z</time>
      </trkpt>
      <trkpt lat="45.62595" lon="2.83412">
        <ele>1464.38</ele>
        <time>2015-05-15T11:45:46Z</time>
      </trkpt>
      <trkpt lat="45.6258" lon="2.83427">
        <ele>1468.26</ele>
        <time>2015-05-15T11:46:11Z</time>
      </trkpt>
      <trkpt lat="45.62569" lon="2.83448">
        <ele>1469.01</ele>
        <time>2015-05-15T11:46:30Z</time>
      </trkpt>
      <trkpt lat="45.62556" lon="2.83467">
        <ele>1472.5</ele>
        <time>2015-05-15T11:47:27Z</time>
      </trkpt>
      <trkpt lat="45.62543" lon="2.83485">
        <ele>1474.38</ele>
        <time>2015-05-15T11:47:47Z</time>
      </trkpt>
      <trkpt lat="45.62532" lon="2.83505">
        <ele>1475.63</ele>
        <time>2015-05-15T11:48:05Z</time>
      </trkpt>
      <trkpt lat="45.62519" lon="2.83524">
        <ele>1476.51</ele>
        <time>2015-05-15T11:48:23Z</time>
      </trkpt>
      <trkpt lat="45.62506" lon="2.83542">
        <ele>1477.51</ele>
        <time>2015-05-15T11:48:41Z</time>
      </trkpt>
      <trkpt lat="45.62491" lon="2.83558">
        <ele>1479.48</ele>
        <time>2015-05-15T11:49:02Z</time>
      </trkpt>
      <trkpt lat="45.62477" lon="2.83576">
        <ele>1479.6</ele>
        <time>2015-05-15T11:49:18Z</time>
      </trkpt>
      <trkpt lat="45.62463" lon="2.83591">
        <ele>1481.38</ele>
        <time>2015-05-15T11:49:35Z</time>
      </trkpt>
      <trkpt lat="45.62448" lon="2.83608">
        <ele>1482.51</ele>
        <time>2015-05-15T11:49:52Z</time>
      </trkpt>
      <trkpt lat="45.62433" lon="2.83622">
        <ele>1485.41</ele>
        <time>2015-05-15T11:50:09Z</time>
      </trkpt>
      <trkpt lat="45.62417" lon="2.83637">
        <ele>1485.51</ele>
        <time>2015-05-15T11:50:26Z</time>
      </trkpt>
      <trkpt lat="45.624" lon="2.83646">
        <ele>1484.51</ele>
        <time>2015-05-15T11:50:41Z</time>
      </trkpt>
      <trkpt lat="45.62383" lon="2.83659">
        <ele>1483.88</ele>
        <time>2015-05-15T11:50:56Z</time>
      </trkpt>
      <trkpt lat="45.62367" lon="2.83673">
        <ele>1486.26</ele>
        <time>2015-05-15T11:51:11Z</time>
      </trkpt>
      <trkpt lat="45.62354" lon="2.83692">
        <ele>1487.51</ele>
        <time>2015-05-15T11:51:28Z</time>
      </trkpt>
      <trkpt lat="45.62338" lon="2.83708">
        <ele>1485.59</ele>
        <time>2015-05-15T11:51:42Z</time>
      </trkpt>
      <trkpt lat="45.62324" lon="2.83725">
        <ele>1486.23</ele>
        <time>2015-05-15T11:51:56Z</time>
      </trkpt>
      <trkpt lat="45.62311" lon="2.83743">
        <ele>1486.51</ele>
        <time>2015-05-15T11:52:10Z</time>
      </trkpt>
      <trkpt lat="45.62299" lon="2.83764">
        <ele>1487.26</ele>
        <time>2015-05-15T11:52:24Z</time>
      </trkpt>
      <trkpt lat="45.62287" lon="2.83783">
        <ele>1486.57</ele>
        <time>2015-05-15T11:52:38Z</time>
      </trkpt>
      <trkpt lat="45.62277" lon="2.83804">
        <ele>1487.38</ele>
        <time>2015-05-15T11:52:52Z</time>
      </trkpt>
      <trkpt lat="45.6227" lon="2.8383">
        <ele>1488.51</ele>
        <time>2015-05-15T11:53:08Z</time>
      </trkpt>
      <trkpt lat="45.62264" lon="2.83854">
        <ele>1490.5</ele>
        <time>2015-05-15T11:53:24Z</time>
      </trkpt>
      <trkpt lat="45.62257" lon="2.83879">
        <ele>1491.51</ele>
        <time>2015-05-15T11:53:39Z</time>
      </trkpt>
      <trkpt lat="45.62248" lon="2.83901">
        <ele>1490.63</ele>
        <time>2015-05-15T11:53:54Z</time>
      </trkpt>
      <trkpt lat="45.62244" lon="2.83927">
        <ele>1491.51</ele>
        <time>2015-05-15T11:54:10Z</time>
      </trkpt>
      <trkpt lat="45.62252" lon="2.83951">
        <ele>1491.52</ele>
        <time>2015-05-15T11:54:28Z</time>
      </trkpt>
      <trkpt lat="45.62259" lon="2.83976">
        <ele>1491.51</ele>
        <time>2015-05-15T11:54:45Z</time>
      </trkpt>
      <trkpt lat="45.62265" lon="2.84001">
        <ele>1491.51</ele>
        <time>2015-05-15T11:55:22Z</time>
      </trkpt>
      <trkpt lat="45.62273" lon="2.84025">
        <ele>1488.64</ele>
        <time>2015-05-15T11:55:36Z</time>
      </trkpt>
      <trkpt lat="45.62281" lon="2.84048">
        <ele>1486.51</ele>
        <time>2015-05-15T11:55:50Z</time>
      </trkpt>
      <trkpt lat="45.62291" lon="2.84071">
        <ele>1486.54</ele>
        <time>2015-05-15T11:56:05Z</time>
      </trkpt>
      <trkpt lat="45.623" lon="2.84094">
        <ele>1485.79</ele>
        <time>2015-05-15T11:56:26Z</time>
      </trkpt>
      <trkpt lat="45.62311" lon="2.84115">
        <ele>1485.03</ele>
        <time>2015-05-15T11:56:39Z</time>
      </trkpt>
      <trkpt lat="45.62322" lon="2.84136">
        <ele>1483.61</ele>
        <time>2015-05-15T11:56:52Z</time>
      </trkpt>
      <trkpt lat="45.62335" lon="2.84156">
        <ele>1482.26</ele>
        <time>2015-05-15T11:57:05Z</time>
      </trkpt>
      <trkpt lat="45.62347" lon="2.84178">
        <ele>1481.76</ele>
        <time>2015-05-15T11:57:21Z</time>
      </trkpt>
      <trkpt lat="45.62357" lon="2.84201">
        <ele>1481.99</ele>
        <time>2015-05-15T11:57:34Z</time>
      </trkpt>
      <trkpt lat="45.62367" lon="2.84224">
        <ele>1480.54</ele>
        <time>2015-05-15T11:57:47Z</time>
      </trkpt>
      <trkpt lat="45.62377" lon="2.84247">
        <ele>1479.63</ele>
        <time>2015-05-15T11:58:01Z</time>
      </trkpt>
      <trkpt lat="45.62385" lon="2.84271">
        <ele>1479.42</ele>
        <time>2015-05-15T11:58:15Z</time>
      </trkpt>
      <trkpt lat="45.62394" lon="2.84295">
        <ele>1480.38</ele>
        <time>2015-05-15T11:58:29Z</time>
      </trkpt>
      <trkpt lat="45.62399" lon="2.84321">
        <ele>1479.38</ele>
        <time>2015-05-15T11:58:44Z</time>
      </trkpt>
      <trkpt lat="45.62404" lon="2.84346">
        <ele>1479.45</ele>
        <time>2015-05-15T11:58:59Z</time>
      </trkpt>
      <trkpt lat="45.62411" lon="2.84371">
        <ele>1478.76</ele>
        <time>2015-05-15T11:59:14Z</time>
      </trkpt>
      <trkpt lat="45.62417" lon="2.84395">
        <ele>1477.63</ele>
        <time>2015-05-15T11:59:28Z</time>
      </trkpt>
      <trkpt lat="45.6242" lon="2.8442">
        <ele>1477.01</ele>
        <time>2015-05-15T11:59:42Z</time>
      </trkpt>
      <trkpt lat="45.62422" lon="2.84446">
        <ele>1477.01</ele>
        <time>2015-05-15T11:59:56Z</time>
      </trkpt>
      <trkpt lat="45.62429" lon="2.8447">
        <ele>1477.46</ele>
        <time>2015-05-15T12:00:14Z</time>
      </trkpt>
      <trkpt lat="45.62441" lon="2.84491">
        <ele>1478.6</ele>
        <time>2015-05-15T12:00:33Z</time>
      </trkpt>
      <trkpt lat="45.62452" lon="2.8451">
        <ele>1479.51</ele>
        <time>2015-05-15T12:00:48Z</time>
      </trkpt>
      <trkpt lat="45.62464" lon="2.84532">
        <ele>1479.77</ele>
        <time>2015-05-15T12:01:02Z</time>
      </trkpt>
      <trkpt lat="45.62476" lon="2.84552">
        <ele>1478.01</ele>
        <time>2015-05-15T12:01:16Z</time>
      </trkpt>
      <trkpt lat="45.62487" lon="2.84572">
        <ele>1477.01</ele>
        <time>2015-05-15T12:01:30Z</time>
      </trkpt>
      <trkpt lat="45.62499" lon="2.84592">
        <ele>1475.64</ele>
        <time>2015-05-15T12:01:43Z</time>
      </trkpt>
      <trkpt lat="45.62512" lon="2.8461">
        <ele>1474.07</ele>
        <time>2015-05-15T12:01:58Z</time>
      </trkpt>
      <trkpt lat="45.62524" lon="2.84629">
        <ele>1471.95</ele>
        <time>2015-05-15T12:02:11Z</time>
      </trkpt>
      <trkpt lat="45.62534" lon="2.84652">
        <ele>1470.54</ele>
        <time>2015-05-15T12:02:24Z</time>
      </trkpt>
      <trkpt lat="45.62544" lon="2.84675">
        <ele>1468.76</ele>
        <time>2015-05-15T12:02:38Z</time>
      </trkpt>
      <trkpt lat="45.62554" lon="2.84697">
        <ele>1466.57</ele>
        <time>2015-05-15T12:02:54Z</time>
      </trkpt>
      <trkpt lat="45.62566" lon="2.84719">
        <ele>1464.39</ele>
        <time>2015-05-15T12:03:08Z</time>
      </trkpt>
      <trkpt lat="45.62579" lon="2.84739">
        <ele>1461.64</ele>
        <time>2015-05-15T12:03:23Z</time>
      </trkpt>
      <trkpt lat="45.62588" lon="2.84762">
        <ele>1458.54</ele>
        <time>2015-05-15T12:03:37Z</time>
      </trkpt>
      <trkpt lat="45.62599" lon="2.84784">
        <ele>1454.08</ele>
        <time>2015-05-15T12:03:52Z</time>
      </trkpt>
      <trkpt lat="45.62604" lon="2.84809">
        <ele>1450.58</ele>
        <time>2015-05-15T12:04:07Z</time>
      </trkpt>
      <trkpt lat="45.62611" lon="2.84834">
        <ele>1447.64</ele>
        <time>2015-05-15T12:04:21Z</time>
      </trkpt>
      <trkpt lat="45.62614" lon="2.84862">
        <ele>1442.79</ele>
        <time>2015-05-15T12:04:35Z</time>
      </trkpt>
      <trkpt lat="45.6262" lon="2.84886">
        <ele>1438.58</ele>
        <time>2015-05-15T12:04:49Z</time>
      </trkpt>
      <trkpt lat="45.6262" lon="2.84913">
        <ele>1438.57</ele>
        <time>2015-05-15T12:05:05Z</time>
      </trkpt>
      <trkpt lat="45.62625" lon="2.84938">
        <ele>1435.91</ele>
        <time>2015-05-15T12:05:20Z</time>
      </trkpt>
      <trkpt lat="45.62626" lon="2.84965">
        <ele>1433.52</ele>
        <time>2015-05-15T12:05:34Z</time>
      </trkpt>
      <trkpt lat="45.62631" lon="2.8499">
        <ele>1432.01</ele>
        <time>2015-05-15T12:05:52Z</time>
      </trkpt>
      <trkpt lat="45.62641" lon="2.85013">
        <ele>1428.65</ele>
        <time>2015-05-15T12:06:52Z</time>
      </trkpt>
      <trkpt lat="45.62653" lon="2.85032">
        <ele>1426.27</ele>
        <time>2015-05-15T12:07:06Z</time>
      </trkpt>
      <trkpt lat="45.62663" lon="2.85054">
        <ele>1423.61</ele>
        <time>2015-05-15T12:07:21Z</time>
      </trkpt>
      <trkpt lat="45.62674" lon="2.85076">
        <ele>1421.51</ele>
        <time>2015-05-15T12:07:44Z</time>
      </trkpt>
      <trkpt lat="45.6268" lon="2.85101">
        <ele>1418.76</ele>
        <time>2015-05-15T12:07:58Z</time>
      </trkpt>
      <trkpt lat="45.62683" lon="2.85127">
        <ele>1415.58</ele>
        <time>2015-05-15T12:08:11Z</time>
      </trkpt>
      <trkpt lat="45.62685" lon="2.85152">
        <ele>1412.54</ele>
        <time>2015-05-15T12:08:23Z</time>
      </trkpt>
      <trkpt lat="45.62692" lon="2.85178">
        <ele>1408.65</ele>
        <time>2015-05-15T12:08:37Z</time>
      </trkpt>
      <trkpt lat="45.62703" lon="2.85199">
        <ele>1405.64</ele>
        <time>2015-05-15T12:08:51Z</time>
      </trkpt>
      <trkpt lat="45.62716" lon="2.85216">
        <ele>1403.57</ele>
        <time>2015-05-15T12:09:05Z</time>
      </trkpt>
      <trkpt lat="45.62733" lon="2.85228">
        <ele>1400.63</ele>
        <time>2015-05-15T12:09:19Z</time>
      </trkpt>
      <trkpt lat="45.62751" lon="2.85236">
        <ele>1397.53</ele>
        <time>2015-05-15T12:09:33Z</time>
      </trkpt>
      <trkpt lat="45.62768" lon="2.85227">
        <ele>1393.58</ele>
        <time>2015-05-15T12:09:48Z</time>
      </trkpt>
      <trkpt lat="45.62785" lon="2.85216">
        <ele>1389.53</ele>
        <time>2015-05-15T12:10:03Z</time>
      </trkpt>
      <trkpt lat="45.62802" lon="2.85227">
        <ele>1388.51</ele>
        <time>2015-05-15T12:10:17Z</time>
      </trkpt>
      <trkpt lat="45.62819" lon="2.85238">
        <ele>1385.53</ele>
        <time>2015-05-15T12:10:32Z</time>
      </trkpt>
      <trkpt lat="45.62837" lon="2.8525">
        <ele>1382.77</ele>
        <time>2015-05-15T12:10:49Z</time>
      </trkpt>
      <trkpt lat="45.62853" lon="2.8526">
        <ele>1378.81</ele>
        <time>2015-05-15T12:11:05Z</time>
      </trkpt>
      <trkpt lat="45.62869" lon="2.85272">
        <ele>1376.54</ele>
        <time>2015-05-15T12:11:21Z</time>
      </trkpt>
      <trkpt lat="45.62887" lon="2.85281">
        <ele>1374.62</ele>
        <time>2015-05-15T12:11:38Z</time>
      </trkpt>
      <trkpt lat="45.62905" lon="2.8528">
        <ele>1373.84</ele>
        <time>2015-05-15T12:12:01Z</time>
      </trkpt>
      <trkpt lat="45.62923" lon="2.85289">
        <ele>1374.85</ele>
        <time>2015-05-15T12:12:16Z</time>
      </trkpt>
      <trkpt lat="45.6294" lon="2.85301">
        <ele>1376.28</ele>
        <time>2015-05-15T12:12:29Z</time>
      </trkpt>
      <trkpt lat="45.62956" lon="2.85313">
        <ele>1378.34</ele>
        <time>2015-05-15T12:12:42Z</time>
      </trkpt>
      <trkpt lat="45.62971" lon="2.85327">
        <ele>1377.68</ele>
        <time>2015-05-15T12:13:01Z</time>
      </trkpt>
      <trkpt lat="45.62988" lon="2.85337">
        <ele>1373.54</ele>
        <time>2015-05-15T12:13:22Z</time>
      </trkpt>
      <trkpt lat="45.63006" lon="2.85346">
        <ele>1364.53</ele>
        <time>2015-05-15T12:16:00Z</time>
      </trkpt>
      <trkpt lat="45.63024" lon="2.85347">
        <ele>1364.94</ele>
        <time>2015-05-15T12:16:14Z</time>
      </trkpt>
      <trkpt lat="45.63043" lon="2.85351">
        <ele>1361.64</ele>
        <time>2015-05-15T12:16:30Z</time>
      </trkpt>
      <trkpt lat="45.63061" lon="2.85353">
        <ele>1358.53</ele>
        <time>2015-05-15T12:16:46Z</time>
      </trkpt>
      <trkpt lat="45.63079" lon="2.85357">
        <ele>1357.51</ele>
        <time>2015-05-15T12:16:59Z</time>
      </trkpt>
      <trkpt lat="45.63097" lon="2.85361">
        <ele>1357.39</ele>
        <time>2015-05-15T12:17:13Z</time>
      </trkpt>
      <trkpt lat="45.63115" lon="2.85367">
        <ele>1357.51</ele>
        <time>2015-05-15T12:17:28Z</time>
      </trkpt>
      <trkpt lat="45.63134" lon="2.85371">
        <ele>1358.51</ele>
        <time>2015-05-15T12:17:44Z</time>
      </trkpt>
      <trkpt lat="45.63152" lon="2.85372">
        <ele>1359.49</ele>
        <time>2015-05-15T12:18:00Z</time>
      </trkpt>
      <trkpt lat="45.6317" lon="2.85378">
        <ele>1361.35</ele>
        <time>2015-05-15T12:18:18Z</time>
      </trkpt>
      <trkpt lat="45.63188" lon="2.85384">
        <ele>1362.07</ele>
        <time>2015-05-15T12:18:39Z</time>
      </trkpt>
      <trkpt lat="45.63206" lon="2.85387">
        <ele>1365.26</ele>
        <time>2015-05-15T12:19:00Z</time>
      </trkpt>
      <trkpt lat="45.63224" lon="2.85393">
        <ele>1367.99</ele>
        <time>2015-05-15T12:19:19Z</time>
      </trkpt>
      <trkpt lat="45.63243" lon="2.85397">
        <ele>1370.48</ele>
        <time>2015-05-15T12:19:38Z</time>
      </trkpt>
      <trkpt lat="45.63261" lon="2.85401">
        <ele>1372.26</ele>
        <time>2015-05-15T12:19:56Z</time>
      </trkpt>
      <trkpt lat="45.6328" lon="2.85405">
        <ele>1373.48</ele>
        <time>2015-05-15T12:20:13Z</time>
      </trkpt>
      <trkpt lat="45.63298" lon="2.85407">
        <ele>1374.51</ele>
        <time>2015-05-15T12:20:29Z</time>
      </trkpt>
      <trkpt lat="45.63317" lon="2.85408">
        <ele>1375.51</ele>
        <time>2015-05-15T12:20:45Z</time>
      </trkpt>
      <trkpt lat="45.63335" lon="2.85416">
        <ele>1376.44</ele>
        <time>2015-05-15T12:21:01Z</time>
      </trkpt>
      <trkpt lat="45.63354" lon="2.85418">
        <ele>1375.51</ele>
        <time>2015-05-15T12:21:16Z</time>
      </trkpt>
      <trkpt lat="45.63372" lon="2.85418">
        <ele>1374.51</ele>
        <time>2015-05-15T12:21:31Z</time>
      </trkpt>
      <trkpt lat="45.63391" lon="2.85424">
        <ele>1376.51</ele>
        <time>2015-05-15T12:21:46Z</time>
      </trkpt>
      <trkpt lat="45.63409" lon="2.85428">
        <ele>1378.26</ele>
        <time>2015-05-15T12:22:02Z</time>
      </trkpt>
      <trkpt lat="45.63428" lon="2.85429">
        <ele>1378.95</ele>
        <time>2015-05-15T12:22:16Z</time>
      </trkpt>
      <trkpt lat="45.63446" lon="2.85433">
        <ele>1380.48</ele>
        <time>2015-05-15T12:22:40Z</time>
      </trkpt>
      <trkpt lat="45.63465" lon="2.85436">
        <ele>1379.04</ele>
        <time>2015-05-15T12:22:54Z</time>
      </trkpt>
      <trkpt lat="45.63484" lon="2.85437">
        <ele>1377.76</ele>
        <time>2015-05-15T12:23:07Z</time>
      </trkpt>
      <trkpt lat="45.63502" lon="2.85434">
        <ele>1377.85</ele>
        <time>2015-05-15T12:23:24Z</time>
      </trkpt>
      <trkpt lat="45.6352" lon="2.8544">
        <ele>1380.72</ele>
        <time>2015-05-15T12:23:43Z</time>
      </trkpt>
      <trkpt lat="45.63538" lon="2.8544">
        <ele>1377.58</ele>
        <time>2015-05-15T12:23:55Z</time>
      </trkpt>
      <trkpt lat="45.63557" lon="2.8544">
        <ele>1377.95</ele>
        <time>2015-05-15T12:24:12Z</time>
      </trkpt>
      <trkpt lat="45.63576" lon="2.85441">
        <ele>1378.33</ele>
        <time>2015-05-15T12:24:31Z</time>
      </trkpt>
      <trkpt lat="45.63594" lon="2.85441">
        <ele>1379.76</ele>
        <time>2015-05-15T12:24:48Z</time>
      </trkpt>
      <trkpt lat="45.63613" lon="2.85442">
        <ele>1384</ele>
        <time>2015-05-15T12:25:05Z</time>
      </trkpt>
      <trkpt lat="45.63632" lon="2.85445">
        <ele>1383.01</ele>
        <time>2015-05-15T12:25:20Z</time>
      </trkpt>
      <trkpt lat="45.6365" lon="2.85453">
        <ele>1384.5</ele>
        <time>2015-05-15T12:25:34Z</time>
      </trkpt>
      <trkpt lat="45.63668" lon="2.85457">
        <ele>1385.51</ele>
        <time>2015-05-15T12:25:50Z</time>
      </trkpt>
      <trkpt lat="45.63686" lon="2.8546">
        <ele>1385.51</ele>
        <time>2015-05-15T12:26:23Z</time>
      </trkpt>
      <trkpt lat="45.63705" lon="2.85461">
        <ele>1383.56</ele>
        <time>2015-05-15T12:26:38Z</time>
      </trkpt>
      <trkpt lat="45.63723" lon="2.85466">
        <ele>1381.81</ele>
        <time>2015-05-15T12:26:53Z</time>
      </trkpt>
      <trkpt lat="45.6374" lon="2.85475">
        <ele>1379.52</ele>
        <time>2015-05-15T12:27:07Z</time>
      </trkpt>
      <trkpt lat="45.63758" lon="2.85484">
        <ele>1376.54</ele>
        <time>2015-05-15T12:27:23Z</time>
      </trkpt>
      <trkpt lat="45.6377" lon="2.85502">
        <ele>1374.02</ele>
        <time>2015-05-15T12:28:11Z</time>
      </trkpt>
      <trkpt lat="45.63777" lon="2.85527">
        <ele>1370.56</ele>
        <time>2015-05-15T12:28:28Z</time>
      </trkpt>
      <trkpt lat="45.63784" lon="2.85551">
        <ele>1367.53</ele>
        <time>2015-05-15T12:28:43Z</time>
      </trkpt>
      <trkpt lat="45.63789" lon="2.85576">
        <ele>1362.78</ele>
        <time>2015-05-15T12:28:58Z</time>
      </trkpt>
      <trkpt lat="45.6379" lon="2.85603">
        <ele>1359.57</ele>
        <time>2015-05-15T12:29:13Z</time>
      </trkpt>
      <trkpt lat="45.63789" lon="2.8563">
        <ele>1356.64</ele>
        <time>2015-05-15T12:29:28Z</time>
      </trkpt>
      <trkpt lat="45.63789" lon="2.85656">
        <ele>1355.14</ele>
        <time>2015-05-15T12:29:44Z</time>
      </trkpt>
      <trkpt lat="45.63789" lon="2.85684">
        <ele>1350.65</ele>
        <time>2015-05-15T12:30:00Z</time>
      </trkpt>
      <trkpt lat="45.63789" lon="2.8571">
        <ele>1346.54</ele>
        <time>2015-05-15T12:30:15Z</time>
      </trkpt>
      <trkpt lat="45.63788" lon="2.85737">
        <ele>1342.64</ele>
        <time>2015-05-15T12:30:32Z</time>
      </trkpt>
      <trkpt lat="45.63788" lon="2.85763">
        <ele>1338.64</ele>
        <time>2015-05-15T12:30:49Z</time>
      </trkpt>
      <trkpt lat="45.63788" lon="2.85789">
        <ele>1330.86</ele>
        <time>2015-05-15T12:31:07Z</time>
      </trkpt>
      <trkpt lat="45.63787" lon="2.85816">
        <ele>1324.17</ele>
        <time>2015-05-15T12:31:23Z</time>
      </trkpt>
      <trkpt lat="45.63788" lon="2.85843">
        <ele>1311.35</ele>
        <time>2015-05-15T12:31:44Z</time>
      </trkpt>
      <trkpt lat="45.6379" lon="2.85869">
        <ele>1300.83</ele>
        <time>2015-05-15T12:32:15Z</time>
      </trkpt>
      <trkpt lat="45.63787" lon="2.85894">
        <ele>1293.79</ele>
        <time>2015-05-15T12:32:38Z</time>
      </trkpt>
      <trkpt lat="45.63787" lon="2.8592">
        <ele>1285.68</ele>
        <time>2015-05-15T12:33:04Z</time>
      </trkpt>
      <trkpt lat="45.63804" lon="2.85929">
        <ele>1284.49</ele>
        <time>2015-05-15T12:33:39Z</time>
      </trkpt>
      <trkpt lat="45.63822" lon="2.85933">
        <ele>1287.24</ele>
        <time>2015-05-15T12:33:52Z</time>
      </trkpt>
      <trkpt lat="45.6384" lon="2.85941">
        <ele>1288.44</ele>
        <time>2015-05-15T12:34:06Z</time>
      </trkpt>
      <trkpt lat="45.63858" lon="2.85945">
        <ele>1287.51</ele>
        <time>2015-05-15T12:34:20Z</time>
      </trkpt>
      <trkpt lat="45.63876" lon="2.85951">
        <ele>1287.49</ele>
        <time>2015-05-15T12:34:34Z</time>
      </trkpt>
      <trkpt lat="45.63893" lon="2.85961">
        <ele>1286.04</ele>
        <time>2015-05-15T12:34:49Z</time>
      </trkpt>
      <trkpt lat="45.63911" lon="2.85963">
        <ele>1283.59</ele>
        <time>2015-05-15T12:35:01Z</time>
      </trkpt>
      <trkpt lat="45.63929" lon="2.85969">
        <ele>1280.67</ele>
        <time>2015-05-15T12:35:14Z</time>
      </trkpt>
      <trkpt lat="45.63947" lon="2.85971">
        <ele>1278.57</ele>
        <time>2015-05-15T12:35:28Z</time>
      </trkpt>
      <trkpt lat="45.63966" lon="2.85975">
        <ele>1274.82</ele>
        <time>2015-05-15T12:35:41Z</time>
      </trkpt>
      <trkpt lat="45.63983" lon="2.8598">
        <ele>1271.77</ele>
        <time>2015-05-15T12:35:55Z</time>
      </trkpt>
      <trkpt lat="45.64001" lon="2.85986">
        <ele>1268.57</ele>
        <time>2015-05-15T12:36:08Z</time>
      </trkpt>
      <trkpt lat="45.6402" lon="2.85991">
        <ele>1267.39</ele>
        <time>2015-05-15T12:36:21Z</time>
      </trkpt>
      <trkpt lat="45.64038" lon="2.85998">
        <ele>1268.97</ele>
        <time>2015-05-15T12:36:35Z</time>
      </trkpt>
      <trkpt lat="45.64057" lon="2.86004">
        <ele>1267.02</ele>
        <time>2015-05-15T12:36:50Z</time>
      </trkpt>
      <trkpt lat="45.64075" lon="2.8601">
        <ele>1264.14</ele>
        <time>2015-05-15T12:37:04Z</time>
      </trkpt>
      <trkpt lat="45.64094" lon="2.86016">
        <ele>1261.54</ele>
        <time>2015-05-15T12:37:17Z</time>
      </trkpt>
      <trkpt lat="45.64113" lon="2.8602">
        <ele>1259.57</ele>
        <time>2015-05-15T12:37:31Z</time>
      </trkpt>
      <trkpt lat="45.64131" lon="2.86025">
        <ele>1258.51</ele>
        <time>2015-05-15T12:37:45Z</time>
      </trkpt>
      <trkpt lat="45.64149" lon="2.86029">
        <ele>1256.57</ele>
        <time>2015-05-15T12:38:00Z</time>
      </trkpt>
      <trkpt lat="45.64168" lon="2.86037">
        <ele>1253.87</ele>
        <time>2015-05-15T12:38:17Z</time>
      </trkpt>
      <trkpt lat="45.64185" lon="2.86043">
        <ele>1252.51</ele>
        <time>2015-05-15T12:38:30Z</time>
      </trkpt>
      <trkpt lat="45.64204" lon="2.86044">
        <ele>1250.76</ele>
        <time>2015-05-15T12:38:43Z</time>
      </trkpt>
      <trkpt lat="45.64221" lon="2.86051">
        <ele>1249.57</ele>
        <time>2015-05-15T12:38:59Z</time>
      </trkpt>
      <trkpt lat="45.64238" lon="2.86058">
        <ele>1246.58</ele>
        <time>2015-05-15T12:39:15Z</time>
      </trkpt>
      <trkpt lat="45.64256" lon="2.86063">
        <ele>1243.54</ele>
        <time>2015-05-15T12:39:30Z</time>
      </trkpt>
      <trkpt lat="45.64274" lon="2.8607">
        <ele>1241.76</ele>
        <time>2015-05-15T12:39:44Z</time>
      </trkpt>
      <trkpt lat="45.64292" lon="2.86077">
        <ele>1240.28</ele>
        <time>2015-05-15T12:40:00Z</time>
      </trkpt>
      <trkpt lat="45.6431" lon="2.86086">
        <ele>1237.57</ele>
        <time>2015-05-15T12:40:15Z</time>
      </trkpt>
      <trkpt lat="45.64328" lon="2.86087">
        <ele>1232.2</ele>
        <time>2015-05-15T12:40:32Z</time>
      </trkpt>
      <trkpt lat="45.64347" lon="2.86088">
        <ele>1227.5</ele>
        <time>2015-05-15T12:40:51Z</time>
      </trkpt>
      <trkpt lat="45.64364" lon="2.86096">
        <ele>1228.04</ele>
        <time>2015-05-15T12:41:13Z</time>
      </trkpt>
      <trkpt lat="45.64381" lon="2.86107">
        <ele>1222.03</ele>
        <time>2015-05-15T12:41:28Z</time>
      </trkpt>
      <trkpt lat="45.64398" lon="2.86116">
        <ele>1217.79</ele>
        <time>2015-05-15T12:41:43Z</time>
      </trkpt>
      <trkpt lat="45.64417" lon="2.86124">
        <ele>1215.52</ele>
        <time>2015-05-15T12:41:58Z</time>
      </trkpt>
      <trkpt lat="45.64435" lon="2.86128">
        <ele>1212.86</ele>
        <time>2015-05-15T12:42:13Z</time>
      </trkpt>
      <trkpt lat="45.64454" lon="2.86132">
        <ele>1210.05</ele>
        <time>2015-05-15T12:42:28Z</time>
      </trkpt>
      <trkpt lat="45.64471" lon="2.86138">
        <ele>1206.51</ele>
        <time>2015-05-15T12:42:57Z</time>
      </trkpt>
      <trkpt lat="45.64482" lon="2.8616">
        <ele>1205.51</ele>
        <time>2015-05-15T12:43:14Z</time>
      </trkpt>
      <trkpt lat="45.64494" lon="2.8618">
        <ele>1206.01</ele>
        <time>2015-05-15T12:43:30Z</time>
      </trkpt>
      <trkpt lat="45.64505" lon="2.862">
        <ele>1205.51</ele>
        <time>2015-05-15T12:43:46Z</time>
      </trkpt>
      <trkpt lat="45.6452" lon="2.86216">
        <ele>1204.52</ele>
        <time>2015-05-15T12:44:02Z</time>
      </trkpt>
      <trkpt lat="45.64536" lon="2.86229">
        <ele>1204.51</ele>
        <time>2015-05-15T12:44:17Z</time>
      </trkpt>
      <trkpt lat="45.64553" lon="2.86241">
        <ele>1203.51</ele>
        <time>2015-05-15T12:44:33Z</time>
      </trkpt>
      <trkpt lat="45.6457" lon="2.86244">
        <ele>1203.51</ele>
        <time>2015-05-15T12:44:52Z</time>
      </trkpt>
      <trkpt lat="45.64589" lon="2.86239">
        <ele>1205.5</ele>
        <time>2015-05-15T12:45:37Z</time>
      </trkpt>
      <trkpt lat="45.64605" lon="2.86227">
        <ele>1205.38</ele>
        <time>2015-05-15T12:46:13Z</time>
      </trkpt>
      <trkpt lat="45.6462" lon="2.86212">
        <ele>1206.51</ele>
        <time>2015-05-15T12:46:30Z</time>
      </trkpt>
      <trkpt lat="45.64637" lon="2.862">
        <ele>1206.51</ele>
        <time>2015-05-15T12:46:47Z</time>
      </trkpt>
      <trkpt lat="45.64651" lon="2.86183">
        <ele>1207.51</ele>
        <time>2015-05-15T12:47:04Z</time>
      </trkpt>
      <trkpt lat="45.64668" lon="2.86169">
        <ele>1208.51</ele>
        <time>2015-05-15T12:47:20Z</time>
      </trkpt>
      <trkpt lat="45.64683" lon="2.86154">
        <ele>1208.01</ele>
        <time>2015-05-15T12:47:36Z</time>
      </trkpt>
      <trkpt lat="45.64697" lon="2.86137">
        <ele>1208.5</ele>
        <time>2015-05-15T12:47:52Z</time>
      </trkpt>
      <trkpt lat="45.64711" lon="2.86118">
        <ele>1208.34</ele>
        <time>2015-05-15T12:48:08Z</time>
      </trkpt>
      <trkpt lat="45.64725" lon="2.86101">
        <ele>1207.95</ele>
        <time>2015-05-15T12:48:23Z</time>
      </trkpt>
      <trkpt lat="45.64729" lon="2.86128">
        <ele>1209.5</ele>
        <time>2015-05-15T12:48:43Z</time>
      </trkpt>
      <trkpt lat="45.64725" lon="2.86155">
        <ele>1210.51</ele>
        <time>2015-05-15T12:48:58Z</time>
      </trkpt>
      <trkpt lat="45.64723" lon="2.86181">
        <ele>1212.76</ele>
        <time>2015-05-15T12:49:19Z</time>
      </trkpt>
      <trkpt lat="45.64725" lon="2.86209">
        <ele>1214.43</ele>
        <time>2015-05-15T12:49:34Z</time>
      </trkpt>
      <trkpt lat="45.6473" lon="2.86235">
        <ele>1217.57</ele>
        <time>2015-05-15T12:49:53Z</time>
      </trkpt>
      <trkpt lat="45.64737" lon="2.8626">
        <ele>1212.96</ele>
        <time>2015-05-15T12:50:09Z</time>
      </trkpt>
      <trkpt lat="45.64737" lon="2.86286">
        <ele>1210.64</ele>
        <time>2015-05-15T12:50:23Z</time>
      </trkpt>
      <trkpt lat="45.64736" lon="2.86314">
        <ele>1208.76</ele>
        <time>2015-05-15T12:50:38Z</time>
      </trkpt>
      <trkpt lat="45.64732" lon="2.8634">
        <ele>1207.71</ele>
        <time>2015-05-15T12:50:52Z</time>
      </trkpt>
      <trkpt lat="45.6473" lon="2.86367">
        <ele>1204.64</ele>
        <time>2015-05-15T12:51:05Z</time>
      </trkpt>
      <trkpt lat="45.64728" lon="2.86393">
        <ele>1200.56</ele>
        <time>2015-05-15T12:51:18Z</time>
      </trkpt>
      <trkpt lat="45.64729" lon="2.8642">
        <ele>1199.01</ele>
        <time>2015-05-15T12:51:31Z</time>
      </trkpt>
      <trkpt lat="45.64728" lon="2.86447">
        <ele>1198.51</ele>
        <time>2015-05-15T12:51:45Z</time>
      </trkpt>
      <trkpt lat="45.64728" lon="2.86475">
        <ele>1195.58</ele>
        <time>2015-05-15T12:51:58Z</time>
      </trkpt>
      <trkpt lat="45.64729" lon="2.86501">
        <ele>1194.51</ele>
        <time>2015-05-15T12:52:11Z</time>
      </trkpt>
      <trkpt lat="45.64728" lon="2.86527">
        <ele>1190.78</ele>
        <time>2015-05-15T12:52:24Z</time>
      </trkpt>
      <trkpt lat="45.64728" lon="2.86553">
        <ele>1190.77</ele>
        <time>2015-05-15T12:52:38Z</time>
      </trkpt>
      <trkpt lat="45.64729" lon="2.86581">
        <ele>1189.52</ele>
        <time>2015-05-15T12:52:52Z</time>
      </trkpt>
      <trkpt lat="45.64728" lon="2.86607">
        <ele>1187.52</ele>
        <time>2015-05-15T12:53:07Z</time>
      </trkpt>
      <trkpt lat="45.64727" lon="2.86633">
        <ele>1185.54</ele>
        <time>2015-05-15T12:53:21Z</time>
      </trkpt>
      <trkpt lat="45.64721" lon="2.86658">
        <ele>1185.02</ele>
        <time>2015-05-15T12:53:36Z</time>
      </trkpt>
      <trkpt lat="45.64719" lon="2.86685">
        <ele>1185.51</ele>
        <time>2015-05-15T12:53:52Z</time>
      </trkpt>
      <trkpt lat="45.64712" lon="2.8671">
        <ele>1189.38</ele>
        <time>2015-05-15T12:54:09Z</time>
      </trkpt>
      <trkpt lat="45.64709" lon="2.86737">
        <ele>1188.61</ele>
        <time>2015-05-15T12:55:06Z</time>
      </trkpt>
      <trkpt lat="45.64699" lon="2.86761">
        <ele>1186.56</ele>
        <time>2015-05-15T12:55:25Z</time>
      </trkpt>
      <trkpt lat="45.64693" lon="2.86785">
        <ele>1183.83</ele>
        <time>2015-05-15T12:55:39Z</time>
      </trkpt>
      <trkpt lat="45.64689" lon="2.86811">
        <ele>1183.65</ele>
        <time>2015-05-15T12:55:55Z</time>
      </trkpt>
      <trkpt lat="45.64685" lon="2.86837">
        <ele>1185.25</ele>
        <time>2015-05-15T12:56:11Z</time>
      </trkpt>
      <trkpt lat="45.64675" lon="2.86859">
        <ele>1185.76</ele>
        <time>2015-05-15T12:56:27Z</time>
      </trkpt>
      <trkpt lat="45.64667" lon="2.86883">
        <ele>1187.57</ele>
        <time>2015-05-15T12:56:42Z</time>
      </trkpt>
      <trkpt lat="45.64658" lon="2.86906">
        <ele>1186.16</ele>
        <time>2015-05-15T12:56:56Z</time>
      </trkpt>
      <trkpt lat="45.64645" lon="2.86925">
        <ele>1187.07</ele>
        <time>2015-05-15T12:57:12Z</time>
      </trkpt>
      <trkpt lat="45.64632" lon="2.86943">
        <ele>1190.34</ele>
        <time>2015-05-15T12:57:27Z</time>
      </trkpt>
      <trkpt lat="45.64617" lon="2.8696">
        <ele>1193.13</ele>
        <time>2015-05-15T12:57:41Z</time>
      </trkpt>
      <trkpt lat="45.64605" lon="2.86981">
        <ele>1195.75</ele>
        <time>2015-05-15T12:57:57Z</time>
      </trkpt>
      <trkpt lat="45.64591" lon="2.86999">
        <ele>1196.56</ele>
        <time>2015-05-15T12:58:11Z</time>
      </trkpt>
      <trkpt lat="45.64575" lon="2.87014">
        <ele>1197.37</ele>
        <time>2015-05-15T12:58:27Z</time>
      </trkpt>
      <trkpt lat="45.64567" lon="2.87038">
        <ele>1193.76</ele>
        <time>2015-05-15T12:58:45Z</time>
      </trkpt>
      <trkpt lat="45.64563" lon="2.87065">
        <ele>1195.56</ele>
        <time>2015-05-15T12:59:00Z</time>
      </trkpt>
      <trkpt lat="45.64557" lon="2.8709">
        <ele>1196.25</ele>
        <time>2015-05-15T12:59:15Z</time>
      </trkpt>
      <trkpt lat="45.64543" lon="2.87107">
        <ele>1197.79</ele>
        <time>2015-05-15T12:59:29Z</time>
      </trkpt>
      <trkpt lat="45.64529" lon="2.87125">
        <ele>1198.72</ele>
        <time>2015-05-15T12:59:44Z</time>
      </trkpt>
      <trkpt lat="45.64526" lon="2.87152">
        <ele>1193.62</ele>
        <time>2015-05-15T12:59:59Z</time>
      </trkpt>
      <trkpt lat="45.64526" lon="2.87178">
        <ele>1192.21</ele>
        <time>2015-05-15T13:00:13Z</time>
      </trkpt>
      <trkpt lat="45.64513" lon="2.87197">
        <ele>1187.72</ele>
        <time>2015-05-15T13:00:29Z</time>
      </trkpt>
      <trkpt lat="45.64503" lon="2.87221">
        <ele>1188.37</ele>
        <time>2015-05-15T13:00:44Z</time>
      </trkpt>
      <trkpt lat="45.64503" lon="2.87247">
        <ele>1185.14</ele>
        <time>2015-05-15T13:01:03Z</time>
      </trkpt>
      <trkpt lat="45.64507" lon="2.87272">
        <ele>1188.72</ele>
        <time>2015-05-15T13:01:17Z</time>
      </trkpt>
      <trkpt lat="45.64508" lon="2.87298">
        <ele>1188.34</ele>
        <time>2015-05-15T13:01:31Z</time>
      </trkpt>
      <trkpt lat="45.64513" lon="2.87326">
        <ele>1179.31</ele>
        <time>2015-05-15T13:01:44Z</time>
      </trkpt>
      <trkpt lat="45.64519" lon="2.87351">
        <ele>1179.7</ele>
        <time>2015-05-15T13:01:59Z</time>
      </trkpt>
      <trkpt lat="45.64531" lon="2.87373">
        <ele>1171.31</ele>
        <time>2015-05-15T13:02:09Z</time>
      </trkpt>
      <trkpt lat="45.64538" lon="2.87398">
        <ele>1169.01</ele>
        <time>2015-05-15T13:02:22Z</time>
      </trkpt>
      <trkpt lat="45.64539" lon="2.87425">
        <ele>1169.51</ele>
        <time>2015-05-15T13:02:39Z</time>
      </trkpt>
      <trkpt lat="45.64535" lon="2.87453">
        <ele>1171.07</ele>
        <time>2015-05-15T13:02:52Z</time>
      </trkpt>
      <trkpt lat="45.64532" lon="2.8748">
        <ele>1167.04</ele>
        <time>2015-05-15T13:03:03Z</time>
      </trkpt>
      <trkpt lat="45.64522" lon="2.87502">
        <ele>1167.68</ele>
        <time>2015-05-15T13:03:17Z</time>
      </trkpt>
      <trkpt lat="45.64519" lon="2.87529">
        <ele>1168.69</ele>
        <time>2015-05-15T13:03:34Z</time>
      </trkpt>
      <trkpt lat="45.6452" lon="2.87555">
        <ele>1162.95</ele>
        <time>2015-05-15T13:03:48Z</time>
      </trkpt>
      <trkpt lat="45.64521" lon="2.87581">
        <ele>1164.27</ele>
        <time>2015-05-15T13:04:01Z</time>
      </trkpt>
      <trkpt lat="45.64522" lon="2.87607">
        <ele>1159.95</ele>
        <time>2015-05-15T13:04:15Z</time>
      </trkpt>
      <trkpt lat="45.6452" lon="2.87633">
        <ele>1157.23</ele>
        <time>2015-05-15T13:04:27Z</time>
      </trkpt>
      <trkpt lat="45.64515" lon="2.87659">
        <ele>1150.61</ele>
        <time>2015-05-15T13:04:41Z</time>
      </trkpt>
      <trkpt lat="45.64521" lon="2.87684">
        <ele>1147.09</ele>
        <time>2015-05-15T13:04:53Z</time>
      </trkpt>
      <trkpt lat="45.64526" lon="2.87711">
        <ele>1153.78</ele>
        <time>2015-05-15T13:05:09Z</time>
      </trkpt>
      <trkpt lat="45.64532" lon="2.87735">
        <ele>1154.39</ele>
        <time>2015-05-15T13:05:23Z</time>
      </trkpt>
      <trkpt lat="45.64538" lon="2.8776">
        <ele>1154.41</ele>
        <time>2015-05-15T13:05:36Z</time>
      </trkpt>
      <trkpt lat="45.64539" lon="2.87787">
        <ele>1154.82</ele>
        <time>2015-05-15T13:05:50Z</time>
      </trkpt>
      <trkpt lat="45.64548" lon="2.87809">
        <ele>1152.2</ele>
        <time>2015-05-15T13:06:04Z</time>
      </trkpt>
      <trkpt lat="45.64562" lon="2.87828">
        <ele>1147.57</ele>
        <time>2015-05-15T13:06:16Z</time>
      </trkpt>
      <trkpt lat="45.64578" lon="2.87844">
        <ele>1147.72</ele>
        <time>2015-05-15T13:06:32Z</time>
      </trkpt>
      <trkpt lat="45.64596" lon="2.87852">
        <ele>1140.68</ele>
        <time>2015-05-15T13:06:45Z</time>
      </trkpt>
      <trkpt lat="45.64612" lon="2.87864">
        <ele>1144.7</ele>
        <time>2015-05-15T13:07:03Z</time>
      </trkpt>
      <trkpt lat="45.64627" lon="2.87881">
        <ele>1133.85</ele>
        <time>2015-05-15T13:07:14Z</time>
      </trkpt>
      <trkpt lat="45.64643" lon="2.87895">
        <ele>1133.51</ele>
        <time>2015-05-15T13:07:28Z</time>
      </trkpt>
      <trkpt lat="45.64658" lon="2.87911">
        <ele>1135.04</ele>
        <time>2015-05-15T13:07:44Z</time>
      </trkpt>
      <trkpt lat="45.64674" lon="2.87924">
        <ele>1134.29</ele>
        <time>2015-05-15T13:07:59Z</time>
      </trkpt>
      <trkpt lat="45.64691" lon="2.87939">
        <ele>1133.73</ele>
        <time>2015-05-15T13:08:15Z</time>
      </trkpt>
      <trkpt lat="45.64705" lon="2.87956">
        <ele>1135.61</ele>
        <time>2015-05-15T13:08:29Z</time>
      </trkpt>
      <trkpt lat="45.64718" lon="2.87975">
        <ele>1133.39</ele>
        <time>2015-05-15T13:08:42Z</time>
      </trkpt>
      <trkpt lat="45.64731" lon="2.87994">
        <ele>1133.87</ele>
        <time>2015-05-15T13:08:56Z</time>
      </trkpt>
      <trkpt lat="45.64743" lon="2.88015">
        <ele>1132.51</ele>
        <time>2015-05-15T13:09:09Z</time>
      </trkpt>
      <trkpt lat="45.64756" lon="2.88036">
        <ele>1131.32</ele>
        <time>2015-05-15T13:09:23Z</time>
      </trkpt>
      <trkpt lat="45.64771" lon="2.88055">
        <ele>1131.48</ele>
        <time>2015-05-15T13:09:40Z</time>
      </trkpt>
      <trkpt lat="45.64765" lon="2.88079">
        <ele>1125.08</ele>
        <time>2015-05-15T13:10:08Z</time>
      </trkpt>
      <trkpt lat="45.64747" lon="2.88087">
        <ele>1122.48</ele>
        <time>2015-05-15T13:10:27Z</time>
      </trkpt>
      <trkpt lat="45.64729" lon="2.88088">
        <ele>1125.51</ele>
        <time>2015-05-15T13:10:43Z</time>
      </trkpt>
      <trkpt lat="45.64711" lon="2.8809">
        <ele>1127.63</ele>
        <time>2015-05-15T13:10:56Z</time>
      </trkpt>
      <trkpt lat="45.64692" lon="2.88086">
        <ele>1131.07</ele>
        <time>2015-05-15T13:11:11Z</time>
      </trkpt>
      <trkpt lat="45.64673" lon="2.88086">
        <ele>1136.78</ele>
        <time>2015-05-15T13:11:31Z</time>
      </trkpt>
      <trkpt lat="45.64655" lon="2.88083">
        <ele>1142.76</ele>
        <time>2015-05-15T13:11:54Z</time>
      </trkpt>
      <trkpt lat="45.64638" lon="2.88071">
        <ele>1149.28</ele>
        <time>2015-05-15T13:12:10Z</time>
      </trkpt>
      <trkpt lat="45.64619" lon="2.88069">
        <ele>1141.77</ele>
        <time>2015-05-15T13:12:24Z</time>
      </trkpt>
      <trkpt lat="45.64601" lon="2.88075">
        <ele>1136.82</ele>
        <time>2015-05-15T13:12:41Z</time>
      </trkpt>
      <trkpt lat="45.64582" lon="2.88076">
        <ele>1141.75</ele>
        <time>2015-05-15T13:13:01Z</time>
      </trkpt>
      <trkpt lat="45.64564" lon="2.88084">
        <ele>1148.11</ele>
        <time>2015-05-15T13:13:30Z</time>
      </trkpt>
      <trkpt lat="45.64548" lon="2.88098">
        <ele>1151.36</ele>
        <time>2015-05-15T13:13:49Z</time>
      </trkpt>
      <trkpt lat="45.6453" lon="2.88106">
        <ele>1145.24</ele>
        <time>2015-05-15T13:14:04Z</time>
      </trkpt>
      <trkpt lat="45.64513" lon="2.88118">
        <ele>1146.52</ele>
        <time>2015-05-15T13:14:20Z</time>
      </trkpt>
      <trkpt lat="45.64494" lon="2.88123">
        <ele>1138.92</ele>
        <time>2015-05-15T13:14:32Z</time>
      </trkpt>
      <trkpt lat="45.64476" lon="2.8812">
        <ele>1139.77</ele>
        <time>2015-05-15T13:14:46Z</time>
      </trkpt>
      <trkpt lat="45.6446" lon="2.88129">
        <ele>1140.79</ele>
        <time>2015-05-15T13:15:04Z</time>
      </trkpt>
      <trkpt lat="45.64446" lon="2.88148">
        <ele>1137.73</ele>
        <time>2015-05-15T13:15:19Z</time>
      </trkpt>
      <trkpt lat="45.64432" lon="2.88166">
        <ele>1136.2</ele>
        <time>2015-05-15T13:15:36Z</time>
      </trkpt>
      <trkpt lat="45.64416" lon="2.88177">
        <ele>1133.53</ele>
        <time>2015-05-15T13:15:51Z</time>
      </trkpt>
      <trkpt lat="45.64398" lon="2.88188">
        <ele>1140.08</ele>
        <time>2015-05-15T13:16:10Z</time>
      </trkpt>
      <trkpt lat="45.6438" lon="2.88191">
        <ele>1138.08</ele>
        <time>2015-05-15T13:16:24Z</time>
      </trkpt>
      <trkpt lat="45.64362" lon="2.88186">
        <ele>1139.63</ele>
        <time>2015-05-15T13:16:41Z</time>
      </trkpt>
      <trkpt lat="45.64348" lon="2.88203">
        <ele>1138.42</ele>
        <time>2015-05-15T13:16:57Z</time>
      </trkpt>
      <trkpt lat="45.6433" lon="2.88199">
        <ele>1139.51</ele>
        <time>2015-05-15T13:17:12Z</time>
      </trkpt>
      <trkpt lat="45.64312" lon="2.8819">
        <ele>1139.45</ele>
        <time>2015-05-15T13:17:30Z</time>
      </trkpt>
      <trkpt lat="45.64295" lon="2.88185">
        <ele>1140.69</ele>
        <time>2015-05-15T13:17:47Z</time>
      </trkpt>
      <trkpt lat="45.64277" lon="2.88178">
        <ele>1141.07</ele>
        <time>2015-05-15T13:18:07Z</time>
      </trkpt>
      <trkpt lat="45.64258" lon="2.88179">
        <ele>1142.51</ele>
        <time>2015-05-15T13:18:26Z</time>
      </trkpt>
      <trkpt lat="45.6424" lon="2.88183">
        <ele>1144.96</ele>
        <time>2015-05-15T13:18:45Z</time>
      </trkpt>
      <trkpt lat="45.64221" lon="2.88187">
        <ele>1147.5</ele>
        <time>2015-05-15T13:19:03Z</time>
      </trkpt>
      <trkpt lat="45.64203" lon="2.88194">
        <ele>1149.51</ele>
        <time>2015-05-15T13:19:21Z</time>
      </trkpt>
      <trkpt lat="45.64185" lon="2.88196">
        <ele>1149.45</ele>
        <time>2015-05-15T13:19:39Z</time>
      </trkpt>
      <trkpt lat="45.64166" lon="2.882">
        <ele>1154.61</ele>
        <time>2015-05-15T13:19:59Z</time>
      </trkpt>
      <trkpt lat="45.64149" lon="2.88206">
        <ele>1158.15</ele>
        <time>2015-05-15T13:20:17Z</time>
      </trkpt>
      <trkpt lat="45.64131" lon="2.88215">
        <ele>1161.47</ele>
        <time>2015-05-15T13:20:33Z</time>
      </trkpt>
      <trkpt lat="45.64113" lon="2.88222">
        <ele>1161.01</ele>
        <time>2015-05-15T13:20:48Z</time>
      </trkpt>
      <trkpt lat="45.64096" lon="2.88231">
        <ele>1163.26</ele>
        <time>2015-05-15T13:21:05Z</time>
      </trkpt>
      <trkpt lat="45.64078" lon="2.88232">
        <ele>1160.96</ele>
        <time>2015-05-15T13:21:22Z</time>
      </trkpt>
      <trkpt lat="45.64061" lon="2.88242">
        <ele>1160.56</ele>
        <time>2015-05-15T13:21:40Z</time>
      </trkpt>
      <trkpt lat="45.64045" lon="2.88257">
        <ele>1161.53</ele>
        <time>2015-05-15T13:21:57Z</time>
      </trkpt>
      <trkpt lat="45.64034" lon="2.88278">
        <ele>1163.32</ele>
        <time>2015-05-15T13:22:12Z</time>
      </trkpt>
      <trkpt lat="45.64023" lon="2.88299">
        <ele>1162.52</ele>
        <time>2015-05-15T13:22:28Z</time>
      </trkpt>
      <trkpt lat="45.64013" lon="2.8832">
        <ele>1159.64</ele>
        <time>2015-05-15T13:22:43Z</time>
      </trkpt>
      <trkpt lat="45.64003" lon="2.88343">
        <ele>1159.54</ele>
        <time>2015-05-15T13:23:00Z</time>
      </trkpt>
      <trkpt lat="45.63993" lon="2.88367">
        <ele>1158.72</ele>
        <time>2015-05-15T13:23:15Z</time>
      </trkpt>
      <trkpt lat="45.63986" lon="2.88391">
        <ele>1160</ele>
        <time>2015-05-15T13:23:31Z</time>
      </trkpt>
      <trkpt lat="45.63979" lon="2.88415">
        <ele>1159.51</ele>
        <time>2015-05-15T13:23:45Z</time>
      </trkpt>
      <trkpt lat="45.63968" lon="2.88439">
        <ele>1161.45</ele>
        <time>2015-05-15T13:24:01Z</time>
      </trkpt>
      <trkpt lat="45.63959" lon="2.88462">
        <ele>1163.99</ele>
        <time>2015-05-15T13:24:16Z</time>
      </trkpt>
      <trkpt lat="45.63952" lon="2.88488">
        <ele>1164.45</ele>
        <time>2015-05-15T13:24:31Z</time>
      </trkpt>
      <trkpt lat="45.63942" lon="2.88511">
        <ele>1165.57</ele>
        <time>2015-05-15T13:24:47Z</time>
      </trkpt>
      <trkpt lat="45.63933" lon="2.88534">
        <ele>1168.12</ele>
        <time>2015-05-15T13:25:02Z</time>
      </trkpt>
      <trkpt lat="45.63925" lon="2.88558">
        <ele>1167.74</ele>
        <time>2015-05-15T13:25:17Z</time>
      </trkpt>
      <trkpt lat="45.63917" lon="2.88582">
        <ele>1170.14</ele>
        <time>2015-05-15T13:25:32Z</time>
      </trkpt>
      <trkpt lat="45.63907" lon="2.88605">
        <ele>1170.26</ele>
        <time>2015-05-15T13:25:48Z</time>
      </trkpt>
      <trkpt lat="45.63897" lon="2.88628">
        <ele>1167.31</ele>
        <time>2015-05-15T13:26:02Z</time>
      </trkpt>
      <trkpt lat="45.63887" lon="2.8865">
        <ele>1171.12</ele>
        <time>2015-05-15T13:26:18Z</time>
      </trkpt>
      <trkpt lat="45.63876" lon="2.88672">
        <ele>1169.57</ele>
        <time>2015-05-15T13:26:33Z</time>
      </trkpt>
      <trkpt lat="45.63864" lon="2.88692">
        <ele>1171.5</ele>
        <time>2015-05-15T13:26:48Z</time>
      </trkpt>
      <trkpt lat="45.63854" lon="2.88716">
        <ele>1173</ele>
        <time>2015-05-15T13:27:03Z</time>
      </trkpt>
      <trkpt lat="45.63842" lon="2.88738">
        <ele>1171.02</ele>
        <time>2015-05-15T13:27:19Z</time>
      </trkpt>
      <trkpt lat="45.63832" lon="2.88761">
        <ele>1171.86</ele>
        <time>2015-05-15T13:27:34Z</time>
      </trkpt>
      <trkpt lat="45.63818" lon="2.88779">
        <ele>1171.49</ele>
        <time>2015-05-15T13:27:49Z</time>
      </trkpt>
      <trkpt lat="45.63805" lon="2.88797">
        <ele>1170.44</ele>
        <time>2015-05-15T13:28:03Z</time>
      </trkpt>
      <trkpt lat="45.6379" lon="2.88813">
        <ele>1171.13</ele>
        <time>2015-05-15T13:28:19Z</time>
      </trkpt>
      <trkpt lat="45.63774" lon="2.88825">
        <ele>1173.64</ele>
        <time>2015-05-15T13:28:31Z</time>
      </trkpt>
      <trkpt lat="45.63761" lon="2.88845">
        <ele>1170.28</ele>
        <time>2015-05-15T13:28:45Z</time>
      </trkpt>
      <trkpt lat="45.63745" lon="2.88859">
        <ele>1170.03</ele>
        <time>2015-05-15T13:29:00Z</time>
      </trkpt>
      <trkpt lat="45.6373" lon="2.88877">
        <ele>1168.74</ele>
        <time>2015-05-15T13:29:16Z</time>
      </trkpt>
      <trkpt lat="45.63719" lon="2.88898">
        <ele>1172.06</ele>
        <time>2015-05-15T13:29:35Z</time>
      </trkpt>
      <trkpt lat="45.63704" lon="2.88917">
        <ele>1169.45</ele>
        <time>2015-05-15T13:29:50Z</time>
      </trkpt>
      <trkpt lat="45.63687" lon="2.88924">
        <ele>1170.36</ele>
        <time>2015-05-15T13:30:11Z</time>
      </trkpt>
      <trkpt lat="45.63668" lon="2.8892">
        <ele>1171.51</ele>
        <time>2015-05-15T13:30:34Z</time>
      </trkpt>
      <trkpt lat="45.63651" lon="2.88911">
        <ele>1170.26</ele>
        <time>2015-05-15T13:30:54Z</time>
      </trkpt>
      <trkpt lat="45.63632" lon="2.8891">
        <ele>1173.47</ele>
        <time>2015-05-15T13:31:13Z</time>
      </trkpt>
      <trkpt lat="45.63615" lon="2.88918">
        <ele>1175.49</ele>
        <time>2015-05-15T13:31:32Z</time>
      </trkpt>
      <trkpt lat="45.63596" lon="2.88917">
        <ele>1176.45</ele>
        <time>2015-05-15T13:31:49Z</time>
      </trkpt>
      <trkpt lat="45.63579" lon="2.88905">
        <ele>1175.58</ele>
        <time>2015-05-15T13:32:06Z</time>
      </trkpt>
      <trkpt lat="45.63564" lon="2.8889">
        <ele>1175.57</ele>
        <time>2015-05-15T13:32:24Z</time>
      </trkpt>
      <trkpt lat="45.6355" lon="2.88873">
        <ele>1175.51</ele>
        <time>2015-05-15T13:32:42Z</time>
      </trkpt>
      <trkpt lat="45.63534" lon="2.88862">
        <ele>1176.56</ele>
        <time>2015-05-15T13:33:00Z</time>
      </trkpt>
      <trkpt lat="45.63518" lon="2.88873">
        <ele>1180.26</ele>
        <time>2015-05-15T13:33:22Z</time>
      </trkpt>
      <trkpt lat="45.635" lon="2.88879">
        <ele>1178.72</ele>
        <time>2015-05-15T13:33:39Z</time>
      </trkpt>
      <trkpt lat="45.63504" lon="2.88905">
        <ele>1182.85</ele>
        <time>2015-05-15T13:34:21Z</time>
      </trkpt>
      <trkpt lat="45.63511" lon="2.88929">
        <ele>1184.74</ele>
        <time>2015-05-15T13:34:40Z</time>
      </trkpt>
      <trkpt lat="45.63529" lon="2.88935">
        <ele>1179.01</ele>
        <time>2015-05-15T13:35:14Z</time>
      </trkpt>
      <trkpt lat="45.63511" lon="2.88936">
        <ele>1176.51</ele>
        <time>2015-05-15T13:35:47Z</time>
      </trkpt>
      <trkpt lat="45.63503" lon="2.88911">
        <ele>1173.56</ele>
        <time>2015-05-15T13:36:07Z</time>
      </trkpt>
      <trkpt lat="45.63496" lon="2.88885">
        <ele>1176.59</ele>
        <time>2015-05-15T13:36:26Z</time>
      </trkpt>
      <trkpt lat="45.63538" lon="2.88937">
        <ele>1171.48</ele>
        <time>2015-05-16T06:51:41Z</time>
      </trkpt>
      <trkpt lat="45.63522" lon="2.88949">
        <ele>1173.57</ele>
        <time>2015-05-16T06:52:10Z</time>
      </trkpt>
      <trkpt lat="45.63519" lon="2.88975">
        <ele>1173.62</ele>
        <time>2015-05-16T06:52:33Z</time>
      </trkpt>
      <trkpt lat="45.63502" lon="2.88986">
        <ele>1176.19</ele>
        <time>2015-05-16T06:53:02Z</time>
      </trkpt>
      <trkpt lat="45.63493" lon="2.89009">
        <ele>1164.04</ele>
        <time>2015-05-16T06:53:22Z</time>
      </trkpt>
      <trkpt lat="45.63474" lon="2.89014">
        <ele>1167.49</ele>
        <time>2015-05-16T06:54:11Z</time>
      </trkpt>
      <trkpt lat="45.63463" lon="2.89035">
        <ele>1168.89</ele>
        <time>2015-05-16T06:54:26Z</time>
      </trkpt>
      <trkpt lat="45.63456" lon="2.89061">
        <ele>1169.24</ele>
        <time>2015-05-16T06:54:41Z</time>
      </trkpt>
      <trkpt lat="45.63449" lon="2.89087">
        <ele>1164.04</ele>
        <time>2015-05-16T06:54:57Z</time>
      </trkpt>
      <trkpt lat="45.63445" lon="2.89113">
        <ele>1164.43</ele>
        <time>2015-05-16T06:55:13Z</time>
      </trkpt>
      <trkpt lat="45.63442" lon="2.8914">
        <ele>1164.81</ele>
        <time>2015-05-16T06:55:26Z</time>
      </trkpt>
      <trkpt lat="45.63452" lon="2.89164">
        <ele>1164.02</ele>
        <time>2015-05-16T06:55:42Z</time>
      </trkpt>
      <trkpt lat="45.63465" lon="2.89182">
        <ele>1160.65</ele>
        <time>2015-05-16T06:55:57Z</time>
      </trkpt>
      <trkpt lat="45.63479" lon="2.89199">
        <ele>1161.02</ele>
        <time>2015-05-16T06:56:10Z</time>
      </trkpt>
      <trkpt lat="45.63492" lon="2.89219">
        <ele>1160.22</ele>
        <time>2015-05-16T06:56:22Z</time>
      </trkpt>
      <trkpt lat="45.63504" lon="2.89239">
        <ele>1158.85</ele>
        <time>2015-05-16T06:56:37Z</time>
      </trkpt>
      <trkpt lat="45.63519" lon="2.89255">
        <ele>1153.62</ele>
        <time>2015-05-16T06:56:54Z</time>
      </trkpt>
      <trkpt lat="45.63532" lon="2.89275">
        <ele>1154.91</ele>
        <time>2015-05-16T06:57:08Z</time>
      </trkpt>
      <trkpt lat="45.63544" lon="2.89293">
        <ele>1156.5</ele>
        <time>2015-05-16T06:57:19Z</time>
      </trkpt>
      <trkpt lat="45.63558" lon="2.89311">
        <ele>1157.06</ele>
        <time>2015-05-16T06:57:35Z</time>
      </trkpt>
      <trkpt lat="45.63572" lon="2.89329">
        <ele>1156.77</ele>
        <time>2015-05-16T06:57:46Z</time>
      </trkpt>
      <trkpt lat="45.63585" lon="2.89348">
        <ele>1155.99</ele>
        <time>2015-05-16T06:58:01Z</time>
      </trkpt>
      <trkpt lat="45.63599" lon="2.89366">
        <ele>1154.52</ele>
        <time>2015-05-16T06:58:13Z</time>
      </trkpt>
      <trkpt lat="45.6361" lon="2.89387">
        <ele>1154.52</ele>
        <time>2015-05-16T06:58:29Z</time>
      </trkpt>
      <trkpt lat="45.63598" lon="2.89407">
        <ele>1150.76</ele>
        <time>2015-05-16T06:58:51Z</time>
      </trkpt>
      <trkpt lat="45.63582" lon="2.89422">
        <ele>1147.78</ele>
        <time>2015-05-16T06:59:04Z</time>
      </trkpt>
      <trkpt lat="45.63567" lon="2.89439">
        <ele>1141.83</ele>
        <time>2015-05-16T06:59:23Z</time>
      </trkpt>
      <trkpt lat="45.63552" lon="2.89454">
        <ele>1138.08</ele>
        <time>2015-05-16T06:59:39Z</time>
      </trkpt>
      <trkpt lat="45.63535" lon="2.89466">
        <ele>1138.76</ele>
        <time>2015-05-16T06:59:52Z</time>
      </trkpt>
      <trkpt lat="45.63519" lon="2.8948">
        <ele>1134.73</ele>
        <time>2015-05-16T07:00:06Z</time>
      </trkpt>
      <trkpt lat="45.63504" lon="2.89494">
        <ele>1130.67</ele>
        <time>2015-05-16T07:00:20Z</time>
      </trkpt>
      <trkpt lat="45.63487" lon="2.89506">
        <ele>1129.11</ele>
        <time>2015-05-16T07:00:33Z</time>
      </trkpt>
      <trkpt lat="45.63475" lon="2.89527">
        <ele>1126.85</ele>
        <time>2015-05-16T07:00:47Z</time>
      </trkpt>
      <trkpt lat="45.63468" lon="2.89551">
        <ele>1130.24</ele>
        <time>2015-05-16T07:01:00Z</time>
      </trkpt>
      <trkpt lat="45.63465" lon="2.89578">
        <ele>1127.49</ele>
        <time>2015-05-16T07:01:14Z</time>
      </trkpt>
      <trkpt lat="45.63465" lon="2.89605">
        <ele>1128.73</ele>
        <time>2015-05-16T07:01:27Z</time>
      </trkpt>
      <trkpt lat="45.63462" lon="2.89631">
        <ele>1128.38</ele>
        <time>2015-05-16T07:01:42Z</time>
      </trkpt>
      <trkpt lat="45.6346" lon="2.89658">
        <ele>1128.01</ele>
        <time>2015-05-16T07:01:56Z</time>
      </trkpt>
      <trkpt lat="45.63457" lon="2.89683">
        <ele>1127.5</ele>
        <time>2015-05-16T07:02:09Z</time>
      </trkpt>
      <trkpt lat="45.63455" lon="2.89709">
        <ele>1126.52</ele>
        <time>2015-05-16T07:02:23Z</time>
      </trkpt>
      <trkpt lat="45.63453" lon="2.89735">
        <ele>1126.51</ele>
        <time>2015-05-16T07:02:35Z</time>
      </trkpt>
      <trkpt lat="45.63456" lon="2.8976">
        <ele>1127.02</ele>
        <time>2015-05-16T07:02:50Z</time>
      </trkpt>
      <trkpt lat="45.63463" lon="2.89785">
        <ele>1126.54</ele>
        <time>2015-05-16T07:03:04Z</time>
      </trkpt>
      <trkpt lat="45.63471" lon="2.8981">
        <ele>1127.45</ele>
        <time>2015-05-16T07:03:17Z</time>
      </trkpt>
      <trkpt lat="45.63478" lon="2.89836">
        <ele>1129.26</ele>
        <time>2015-05-16T07:03:31Z</time>
      </trkpt>
      <trkpt lat="45.63486" lon="2.8986">
        <ele>1129.52</ele>
        <time>2015-05-16T07:03:44Z</time>
      </trkpt>
      <trkpt lat="45.63493" lon="2.89885">
        <ele>1129.52</ele>
        <time>2015-05-16T07:03:57Z</time>
      </trkpt>
      <trkpt lat="45.63501" lon="2.89909">
        <ele>1130.48</ele>
        <time>2015-05-16T07:04:11Z</time>
      </trkpt>
      <trkpt lat="45.63508" lon="2.89933">
        <ele>1131.52</ele>
        <time>2015-05-16T07:04:24Z</time>
      </trkpt>
      <trkpt lat="45.63516" lon="2.89958">
        <ele>1131.51</ele>
        <time>2015-05-16T07:04:39Z</time>
      </trkpt>
      <trkpt lat="45.63525" lon="2.89983">
        <ele>1129.26</ele>
        <time>2015-05-16T07:04:54Z</time>
      </trkpt>
      <trkpt lat="45.63531" lon="2.90007">
        <ele>1130.22</ele>
        <time>2015-05-16T07:05:07Z</time>
      </trkpt>
      <trkpt lat="45.63539" lon="2.90031">
        <ele>1130.01</ele>
        <time>2015-05-16T07:05:21Z</time>
      </trkpt>
      <trkpt lat="45.63546" lon="2.90056">
        <ele>1129.57</ele>
        <time>2015-05-16T07:05:35Z</time>
      </trkpt>
      <trkpt lat="45.63554" lon="2.9008">
        <ele>1130.49</ele>
        <time>2015-05-16T07:05:48Z</time>
      </trkpt>
      <trkpt lat="45.63563" lon="2.90103">
        <ele>1129.76</ele>
        <time>2015-05-16T07:06:03Z</time>
      </trkpt>
      <trkpt lat="45.6357" lon="2.90128">
        <ele>1129.56</ele>
        <time>2015-05-16T07:06:16Z</time>
      </trkpt>
      <trkpt lat="45.63578" lon="2.90151">
        <ele>1126.77</ele>
        <time>2015-05-16T07:06:29Z</time>
      </trkpt>
      <trkpt lat="45.63586" lon="2.90176">
        <ele>1127.38</ele>
        <time>2015-05-16T07:06:43Z</time>
      </trkpt>
      <trkpt lat="45.63592" lon="2.90201">
        <ele>1128.22</ele>
        <time>2015-05-16T07:06:55Z</time>
      </trkpt>
      <trkpt lat="45.636" lon="2.90225">
        <ele>1127.52</ele>
        <time>2015-05-16T07:07:08Z</time>
      </trkpt>
      <trkpt lat="45.63607" lon="2.90249">
        <ele>1128.4</ele>
        <time>2015-05-16T07:07:21Z</time>
      </trkpt>
      <trkpt lat="45.63615" lon="2.90273">
        <ele>1127.55</ele>
        <time>2015-05-16T07:07:36Z</time>
      </trkpt>
      <trkpt lat="45.63623" lon="2.90297">
        <ele>1125.82</ele>
        <time>2015-05-16T07:07:49Z</time>
      </trkpt>
      <trkpt lat="45.63631" lon="2.90322">
        <ele>1127.01</ele>
        <time>2015-05-16T07:08:02Z</time>
      </trkpt>
      <trkpt lat="45.63639" lon="2.90347">
        <ele>1127.01</ele>
        <time>2015-05-16T07:08:16Z</time>
      </trkpt>
      <trkpt lat="45.63647" lon="2.90371">
        <ele>1124.64</ele>
        <time>2015-05-16T07:08:30Z</time>
      </trkpt>
      <trkpt lat="45.63654" lon="2.90397">
        <ele>1124.52</ele>
        <time>2015-05-16T07:08:43Z</time>
      </trkpt>
      <trkpt lat="45.63664" lon="2.9042">
        <ele>1118.54</ele>
        <time>2015-05-16T07:09:00Z</time>
      </trkpt>
      <trkpt lat="45.63672" lon="2.90444">
        <ele>1118.03</ele>
        <time>2015-05-16T07:09:13Z</time>
      </trkpt>
      <trkpt lat="45.6368" lon="2.90468">
        <ele>1117.95</ele>
        <time>2015-05-16T07:09:26Z</time>
      </trkpt>
      <trkpt lat="45.63686" lon="2.90493">
        <ele>1117.95</ele>
        <time>2015-05-16T07:09:39Z</time>
      </trkpt>
      <trkpt lat="45.63694" lon="2.90519">
        <ele>1118.51</ele>
        <time>2015-05-16T07:09:53Z</time>
      </trkpt>
      <trkpt lat="45.63702" lon="2.90544">
        <ele>1118.51</ele>
        <time>2015-05-16T07:10:06Z</time>
      </trkpt>
      <trkpt lat="45.63697" lon="2.90569">
        <ele>1110.06</ele>
        <time>2015-05-16T07:10:28Z</time>
      </trkpt>
      <trkpt lat="45.6368" lon="2.90582">
        <ele>1106.7</ele>
        <time>2015-05-16T07:10:43Z</time>
      </trkpt>
      <trkpt lat="45.63663" lon="2.90592">
        <ele>1104.53</ele>
        <time>2015-05-16T07:10:56Z</time>
      </trkpt>
      <trkpt lat="45.63646" lon="2.90606">
        <ele>1101.78</ele>
        <time>2015-05-16T07:11:11Z</time>
      </trkpt>
      <trkpt lat="45.63629" lon="2.90616">
        <ele>1100.44</ele>
        <time>2015-05-16T07:11:23Z</time>
      </trkpt>
      <trkpt lat="45.63613" lon="2.90628">
        <ele>1099.54</ele>
        <time>2015-05-16T07:11:37Z</time>
      </trkpt>
      <trkpt lat="45.63595" lon="2.90639">
        <ele>1097.89</ele>
        <time>2015-05-16T07:11:50Z</time>
      </trkpt>
      <trkpt lat="45.63578" lon="2.9065">
        <ele>1094.02</ele>
        <time>2015-05-16T07:12:03Z</time>
      </trkpt>
      <trkpt lat="45.63562" lon="2.90663">
        <ele>1093.51</ele>
        <time>2015-05-16T07:12:15Z</time>
      </trkpt>
      <trkpt lat="45.63545" lon="2.90674">
        <ele>1092.02</ele>
        <time>2015-05-16T07:12:28Z</time>
      </trkpt>
      <trkpt lat="45.63529" lon="2.90687">
        <ele>1089.08</ele>
        <time>2015-05-16T07:12:40Z</time>
      </trkpt>
      <trkpt lat="45.63517" lon="2.90708">
        <ele>1089.23</ele>
        <time>2015-05-16T07:12:56Z</time>
      </trkpt>
      <trkpt lat="45.63523" lon="2.90734">
        <ele>1091.49</ele>
        <time>2015-05-16T07:13:10Z</time>
      </trkpt>
      <trkpt lat="45.63532" lon="2.90757">
        <ele>1093.47</ele>
        <time>2015-05-16T07:13:23Z</time>
      </trkpt>
      <trkpt lat="45.6354" lon="2.9078">
        <ele>1093.62</ele>
        <time>2015-05-16T07:13:36Z</time>
      </trkpt>
      <trkpt lat="45.63548" lon="2.90803">
        <ele>1093.01</ele>
        <time>2015-05-16T07:13:50Z</time>
      </trkpt>
      <trkpt lat="45.63558" lon="2.90827">
        <ele>1091.56</ele>
        <time>2015-05-16T07:14:05Z</time>
      </trkpt>
      <trkpt lat="45.63566" lon="2.90851">
        <ele>1091.99</ele>
        <time>2015-05-16T07:14:19Z</time>
      </trkpt>
      <trkpt lat="45.63572" lon="2.90878">
        <ele>1097.12</ele>
        <time>2015-05-16T07:14:32Z</time>
      </trkpt>
      <trkpt lat="45.6358" lon="2.90902">
        <ele>1098.45</ele>
        <time>2015-05-16T07:14:47Z</time>
      </trkpt>
      <trkpt lat="45.6359" lon="2.90926">
        <ele>1096.55</ele>
        <time>2015-05-16T07:15:03Z</time>
      </trkpt>
      <trkpt lat="45.63598" lon="2.90949">
        <ele>1096.79</ele>
        <time>2015-05-16T07:15:17Z</time>
      </trkpt>
      <trkpt lat="45.63607" lon="2.90972">
        <ele>1094.55</ele>
        <time>2015-05-16T07:15:33Z</time>
      </trkpt>
      <trkpt lat="45.63615" lon="2.90997">
        <ele>1095.01</ele>
        <time>2015-05-16T07:15:47Z</time>
      </trkpt>
      <trkpt lat="45.63624" lon="2.9102">
        <ele>1094.42</ele>
        <time>2015-05-16T07:16:01Z</time>
      </trkpt>
      <trkpt lat="45.63632" lon="2.91044">
        <ele>1094.01</ele>
        <time>2015-05-16T07:16:14Z</time>
      </trkpt>
      <trkpt lat="45.63639" lon="2.91069">
        <ele>1095.24</ele>
        <time>2015-05-16T07:16:27Z</time>
      </trkpt>
      <trkpt lat="45.63649" lon="2.91091">
        <ele>1093.51</ele>
        <time>2015-05-16T07:16:42Z</time>
      </trkpt>
      <trkpt lat="45.63658" lon="2.91116">
        <ele>1094.51</ele>
        <time>2015-05-16T07:16:56Z</time>
      </trkpt>
      <trkpt lat="45.63665" lon="2.9114">
        <ele>1095.13</ele>
        <time>2015-05-16T07:17:09Z</time>
      </trkpt>
      <trkpt lat="45.63673" lon="2.91166">
        <ele>1094.17</ele>
        <time>2015-05-16T07:17:23Z</time>
      </trkpt>
      <trkpt lat="45.63682" lon="2.91189">
        <ele>1093.77</ele>
        <time>2015-05-16T07:17:37Z</time>
      </trkpt>
      <trkpt lat="45.63691" lon="2.91212">
        <ele>1091.04</ele>
        <time>2015-05-16T07:17:51Z</time>
      </trkpt>
      <trkpt lat="45.63699" lon="2.91235">
        <ele>1088.77</ele>
        <time>2015-05-16T07:18:04Z</time>
      </trkpt>
      <trkpt lat="45.6371" lon="2.91259">
        <ele>1086.5</ele>
        <time>2015-05-16T07:18:19Z</time>
      </trkpt>
      <trkpt lat="45.63717" lon="2.91284">
        <ele>1086.6</ele>
        <time>2015-05-16T07:18:32Z</time>
      </trkpt>
      <trkpt lat="45.63724" lon="2.91309">
        <ele>1084.53</ele>
        <time>2015-05-16T07:18:45Z</time>
      </trkpt>
      <trkpt lat="45.63734" lon="2.91331">
        <ele>1083.52</ele>
        <time>2015-05-16T07:18:58Z</time>
      </trkpt>
      <trkpt lat="45.63741" lon="2.91357">
        <ele>1082.99</ele>
        <time>2015-05-16T07:19:11Z</time>
      </trkpt>
      <trkpt lat="45.6375" lon="2.9138">
        <ele>1080.6</ele>
        <time>2015-05-16T07:19:26Z</time>
      </trkpt>
      <trkpt lat="45.63759" lon="2.91404">
        <ele>1079.42</ele>
        <time>2015-05-16T07:19:40Z</time>
      </trkpt>
      <trkpt lat="45.63766" lon="2.91427">
        <ele>1080.62</ele>
        <time>2015-05-16T07:19:52Z</time>
      </trkpt>
      <trkpt lat="45.63775" lon="2.9145">
        <ele>1078.57</ele>
        <time>2015-05-16T07:20:06Z</time>
      </trkpt>
      <trkpt lat="45.63783" lon="2.91475">
        <ele>1078.36</ele>
        <time>2015-05-16T07:20:20Z</time>
      </trkpt>
      <trkpt lat="45.63791" lon="2.915">
        <ele>1080.37</ele>
        <time>2015-05-16T07:20:33Z</time>
      </trkpt>
      <trkpt lat="45.638" lon="2.91522">
        <ele>1079.43</ele>
        <time>2015-05-16T07:20:47Z</time>
      </trkpt>
      <trkpt lat="45.63809" lon="2.91546">
        <ele>1079.95</ele>
        <time>2015-05-16T07:21:01Z</time>
      </trkpt>
      <trkpt lat="45.63817" lon="2.91569">
        <ele>1080.56</ele>
        <time>2015-05-16T07:21:14Z</time>
      </trkpt>
      <trkpt lat="45.63823" lon="2.91595">
        <ele>1082.51</ele>
        <time>2015-05-16T07:21:26Z</time>
      </trkpt>
      <trkpt lat="45.63832" lon="2.91618">
        <ele>1082.75</ele>
        <time>2015-05-16T07:21:40Z</time>
      </trkpt>
      <trkpt lat="45.63839" lon="2.91642">
        <ele>1083.49</ele>
        <time>2015-05-16T07:21:52Z</time>
      </trkpt>
      <trkpt lat="45.63848" lon="2.91666">
        <ele>1080.48</ele>
        <time>2015-05-16T07:22:07Z</time>
      </trkpt>
      <trkpt lat="45.63858" lon="2.9169">
        <ele>1077.26</ele>
        <time>2015-05-16T07:22:22Z</time>
      </trkpt>
      <trkpt lat="45.63867" lon="2.91714">
        <ele>1073.51</ele>
        <time>2015-05-16T07:22:37Z</time>
      </trkpt>
      <trkpt lat="45.63875" lon="2.91737">
        <ele>1072.01</ele>
        <time>2015-05-16T07:22:50Z</time>
      </trkpt>
      <trkpt lat="45.63883" lon="2.91761">
        <ele>1070.6</ele>
        <time>2015-05-16T07:23:03Z</time>
      </trkpt>
      <trkpt lat="45.63892" lon="2.91784">
        <ele>1067.63</ele>
        <time>2015-05-16T07:23:18Z</time>
      </trkpt>
      <trkpt lat="45.639" lon="2.91807">
        <ele>1063.65</ele>
        <time>2015-05-16T07:23:32Z</time>
      </trkpt>
      <trkpt lat="45.63909" lon="2.9183">
        <ele>1060.8</ele>
        <time>2015-05-16T07:23:46Z</time>
      </trkpt>
      <trkpt lat="45.63917" lon="2.91854">
        <ele>1057.65</ele>
        <time>2015-05-16T07:24:01Z</time>
      </trkpt>
      <trkpt lat="45.63924" lon="2.91878">
        <ele>1055.63</ele>
        <time>2015-05-16T07:24:16Z</time>
      </trkpt>
      <trkpt lat="45.6394" lon="2.91922">
        <ele>1052.51</ele>
        <time>2015-05-16T07:24:43Z</time>
      </trkpt>
      <trkpt lat="45.63949" lon="2.91945">
        <ele>1052.89</ele>
        <time>2015-05-16T07:24:55Z</time>
      </trkpt>
      <trkpt lat="45.63957" lon="2.91969">
        <ele>1051.66</ele>
        <time>2015-05-16T07:25:10Z</time>
      </trkpt>
      <trkpt lat="45.63962" lon="2.91994">
        <ele>1051.94</ele>
        <time>2015-05-16T07:25:24Z</time>
      </trkpt>
      <trkpt lat="45.63975" lon="2.92013">
        <ele>1050.65</ele>
        <time>2015-05-16T07:25:36Z</time>
      </trkpt>
      <trkpt lat="45.63994" lon="2.92013">
        <ele>1049.21</ele>
        <time>2015-05-16T07:26:24Z</time>
      </trkpt>
      <trkpt lat="45.64012" lon="2.92001">
        <ele>1047.51</ele>
        <time>2015-05-16T07:26:38Z</time>
      </trkpt>
      <trkpt lat="45.64015" lon="2.91974">
        <ele>1046.87</ele>
        <time>2015-05-16T07:27:00Z</time>
      </trkpt>
      <trkpt lat="45.64025" lon="2.91952">
        <ele>1045.88</ele>
        <time>2015-05-16T07:27:15Z</time>
      </trkpt>
      <trkpt lat="45.64029" lon="2.91927">
        <ele>1041.15</ele>
        <time>2015-05-16T07:27:30Z</time>
      </trkpt>
      <trkpt lat="45.64044" lon="2.9191">
        <ele>1035.71</ele>
        <time>2015-05-16T07:27:46Z</time>
      </trkpt>
      <trkpt lat="45.64059" lon="2.91893">
        <ele>1034.53</ele>
        <time>2015-05-16T07:27:59Z</time>
      </trkpt>
      <trkpt lat="45.64074" lon="2.91876">
        <ele>1031.06</ele>
        <time>2015-05-16T07:28:12Z</time>
      </trkpt>
      <trkpt lat="45.64089" lon="2.91858">
        <ele>1031.52</ele>
        <time>2015-05-16T07:28:25Z</time>
      </trkpt>
      <trkpt lat="45.64105" lon="2.91846">
        <ele>1032.92</ele>
        <time>2015-05-16T07:28:36Z</time>
      </trkpt>
      <trkpt lat="45.64123" lon="2.9185">
        <ele>1033.93</ele>
        <time>2015-05-16T07:28:55Z</time>
      </trkpt>
      <trkpt lat="45.64141" lon="2.91859">
        <ele>1040.98</ele>
        <time>2015-05-16T07:29:11Z</time>
      </trkpt>
      <trkpt lat="45.64158" lon="2.91852">
        <ele>1037.52</ele>
        <time>2015-05-16T07:29:28Z</time>
      </trkpt>
      <trkpt lat="45.64176" lon="2.91844">
        <ele>1032.6</ele>
        <time>2015-05-16T07:29:53Z</time>
      </trkpt>
      <trkpt lat="45.64194" lon="2.91842">
        <ele>1031.27</ele>
        <time>2015-05-16T07:30:06Z</time>
      </trkpt>
      <trkpt lat="45.64212" lon="2.91844">
        <ele>1036.68</ele>
        <time>2015-05-16T07:30:17Z</time>
      </trkpt>
      <trkpt lat="45.64228" lon="2.91857">
        <ele>1039.23</ele>
        <time>2015-05-16T07:30:53Z</time>
      </trkpt>
      <trkpt lat="45.64246" lon="2.91867">
        <ele>1039.52</ele>
        <time>2015-05-16T07:31:06Z</time>
      </trkpt>
      <trkpt lat="45.64264" lon="2.91879">
        <ele>1041.81</ele>
        <time>2015-05-16T07:31:22Z</time>
      </trkpt>
      <trkpt lat="45.64281" lon="2.91888">
        <ele>1040.15</ele>
        <time>2015-05-16T07:31:36Z</time>
      </trkpt>
      <trkpt lat="45.64299" lon="2.91897">
        <ele>1039.5</ele>
        <time>2015-05-16T07:31:52Z</time>
      </trkpt>
      <trkpt lat="45.64315" lon="2.9191">
        <ele>1034.41</ele>
        <time>2015-05-16T07:32:09Z</time>
      </trkpt>
      <trkpt lat="45.64327" lon="2.91931">
        <ele>1034.51</ele>
        <time>2015-05-16T07:32:25Z</time>
      </trkpt>
      <trkpt lat="45.6433" lon="2.91958">
        <ele>1035.47</ele>
        <time>2015-05-16T07:32:38Z</time>
      </trkpt>
      <trkpt lat="45.64332" lon="2.91984">
        <ele>1033.64</ele>
        <time>2015-05-16T07:32:51Z</time>
      </trkpt>
      <trkpt lat="45.64339" lon="2.92008">
        <ele>1033.01</ele>
        <time>2015-05-16T07:33:05Z</time>
      </trkpt>
      <trkpt lat="45.64347" lon="2.92032">
        <ele>1034.48</ele>
        <time>2015-05-16T07:33:18Z</time>
      </trkpt>
      <trkpt lat="45.64359" lon="2.92053">
        <ele>1032.76</ele>
        <time>2015-05-16T07:33:32Z</time>
      </trkpt>
      <trkpt lat="45.64372" lon="2.92072">
        <ele>1032.51</ele>
        <time>2015-05-16T07:33:47Z</time>
      </trkpt>
      <trkpt lat="45.64385" lon="2.92091">
        <ele>1034.51</ele>
        <time>2015-05-16T07:34:28Z</time>
      </trkpt>
      <trkpt lat="45.64397" lon="2.92111">
        <ele>1033.27</ele>
        <time>2015-05-16T07:34:43Z</time>
      </trkpt>
      <trkpt lat="45.64408" lon="2.92132">
        <ele>1031.45</ele>
        <time>2015-05-16T07:34:58Z</time>
      </trkpt>
      <trkpt lat="45.64418" lon="2.92154">
        <ele>1031.48</ele>
        <time>2015-05-16T07:35:12Z</time>
      </trkpt>
      <trkpt lat="45.64429" lon="2.92177">
        <ele>1033.49</ele>
        <time>2015-05-16T07:35:27Z</time>
      </trkpt>
      <trkpt lat="45.64439" lon="2.922">
        <ele>1032.52</ele>
        <time>2015-05-16T07:35:42Z</time>
      </trkpt>
      <trkpt lat="45.64447" lon="2.92225">
        <ele>1034.99</ele>
        <time>2015-05-16T07:35:56Z</time>
      </trkpt>
      <trkpt lat="45.64453" lon="2.9225">
        <ele>1033.71</ele>
        <time>2015-05-16T07:36:10Z</time>
      </trkpt>
      <trkpt lat="45.64457" lon="2.92277">
        <ele>1032.62</ele>
        <time>2015-05-16T07:36:24Z</time>
      </trkpt>
      <trkpt lat="45.64463" lon="2.92302">
        <ele>1033.74</ele>
        <time>2015-05-16T07:36:37Z</time>
      </trkpt>
      <trkpt lat="45.64473" lon="2.92325">
        <ele>1033.7</ele>
        <time>2015-05-16T07:36:51Z</time>
      </trkpt>
      <trkpt lat="45.64485" lon="2.92345">
        <ele>1031.64</ele>
        <time>2015-05-16T07:37:07Z</time>
      </trkpt>
      <trkpt lat="45.64496" lon="2.92368">
        <ele>1033.39</ele>
        <time>2015-05-16T07:37:21Z</time>
      </trkpt>
      <trkpt lat="45.64508" lon="2.9239">
        <ele>1033.98</ele>
        <time>2015-05-16T07:37:36Z</time>
      </trkpt>
      <trkpt lat="45.64519" lon="2.92412">
        <ele>1033.39</ele>
        <time>2015-05-16T07:37:50Z</time>
      </trkpt>
      <trkpt lat="45.64529" lon="2.92434">
        <ele>1034.86</ele>
        <time>2015-05-16T07:38:04Z</time>
      </trkpt>
      <trkpt lat="45.64538" lon="2.92457">
        <ele>1036.37</ele>
        <time>2015-05-16T07:38:19Z</time>
      </trkpt>
      <trkpt lat="45.64545" lon="2.92481">
        <ele>1032.34</ele>
        <time>2015-05-16T07:38:34Z</time>
      </trkpt>
      <trkpt lat="45.64552" lon="2.92506">
        <ele>1034.01</ele>
        <time>2015-05-16T07:38:45Z</time>
      </trkpt>
      <trkpt lat="45.64559" lon="2.92531">
        <ele>1032.77</ele>
        <time>2015-05-16T07:38:59Z</time>
      </trkpt>
      <trkpt lat="45.64567" lon="2.92555">
        <ele>1031.49</ele>
        <time>2015-05-16T07:39:13Z</time>
      </trkpt>
      <trkpt lat="45.64579" lon="2.92576">
        <ele>1031.51</ele>
        <time>2015-05-16T07:39:27Z</time>
      </trkpt>
      <trkpt lat="45.64595" lon="2.92591">
        <ele>1029.95</ele>
        <time>2015-05-16T07:39:40Z</time>
      </trkpt>
      <trkpt lat="45.64612" lon="2.92603">
        <ele>1028.59</ele>
        <time>2015-05-16T07:39:53Z</time>
      </trkpt>
      <trkpt lat="45.64627" lon="2.92618">
        <ele>1029.12</ele>
        <time>2015-05-16T07:40:06Z</time>
      </trkpt>
      <trkpt lat="45.64643" lon="2.92632">
        <ele>1028.76</ele>
        <time>2015-05-16T07:40:19Z</time>
      </trkpt>
      <trkpt lat="45.6466" lon="2.92646">
        <ele>1028.6</ele>
        <time>2015-05-16T07:40:32Z</time>
      </trkpt>
      <trkpt lat="45.64675" lon="2.92661">
        <ele>1027.04</ele>
        <time>2015-05-16T07:40:47Z</time>
      </trkpt>
      <trkpt lat="45.6469" lon="2.92678">
        <ele>1025.01</ele>
        <time>2015-05-16T07:41:02Z</time>
      </trkpt>
      <trkpt lat="45.647" lon="2.92701">
        <ele>1023.52</ele>
        <time>2015-05-16T07:41:17Z</time>
      </trkpt>
      <trkpt lat="45.64709" lon="2.92724">
        <ele>1022.51</ele>
        <time>2015-05-16T07:41:31Z</time>
      </trkpt>
      <trkpt lat="45.64717" lon="2.92747">
        <ele>1020.99</ele>
        <time>2015-05-16T07:41:45Z</time>
      </trkpt>
      <trkpt lat="45.64727" lon="2.9277">
        <ele>1020.51</ele>
        <time>2015-05-16T07:41:59Z</time>
      </trkpt>
      <trkpt lat="45.6474" lon="2.9279">
        <ele>1022.26</ele>
        <time>2015-05-16T07:42:13Z</time>
      </trkpt>
      <trkpt lat="45.64756" lon="2.92806">
        <ele>1022.26</ele>
        <time>2015-05-16T07:42:27Z</time>
      </trkpt>
      <trkpt lat="45.64771" lon="2.92823">
        <ele>1024.25</ele>
        <time>2015-05-16T07:42:41Z</time>
      </trkpt>
      <trkpt lat="45.64785" lon="2.92839">
        <ele>1024.38</ele>
        <time>2015-05-16T07:42:54Z</time>
      </trkpt>
      <trkpt lat="45.648" lon="2.92855">
        <ele>1025.57</ele>
        <time>2015-05-16T07:43:08Z</time>
      </trkpt>
      <trkpt lat="45.64813" lon="2.92873">
        <ele>1024.14</ele>
        <time>2015-05-16T07:43:22Z</time>
      </trkpt>
      <trkpt lat="45.64827" lon="2.92889">
        <ele>1023.45</ele>
        <time>2015-05-16T07:43:36Z</time>
      </trkpt>
      <trkpt lat="45.6484" lon="2.92909">
        <ele>1022.51</ele>
        <time>2015-05-16T07:43:50Z</time>
      </trkpt>
      <trkpt lat="45.64854" lon="2.92929">
        <ele>1021.45</ele>
        <time>2015-05-16T07:44:05Z</time>
      </trkpt>
      <trkpt lat="45.64867" lon="2.92947">
        <ele>1022.5</ele>
        <time>2015-05-16T07:44:18Z</time>
      </trkpt>
      <trkpt lat="45.64882" lon="2.92965">
        <ele>1020.63</ele>
        <time>2015-05-16T07:44:33Z</time>
      </trkpt>
      <trkpt lat="45.64899" lon="2.92976">
        <ele>1020.38</ele>
        <time>2015-05-16T07:44:48Z</time>
      </trkpt>
      <trkpt lat="45.64917" lon="2.92973">
        <ele>1018.98</ele>
        <time>2015-05-16T07:45:02Z</time>
      </trkpt>
      <trkpt lat="45.64935" lon="2.92964">
        <ele>1017.02</ele>
        <time>2015-05-16T07:45:17Z</time>
      </trkpt>
      <trkpt lat="45.64953" lon="2.92956">
        <ele>1015.64</ele>
        <time>2015-05-16T07:45:31Z</time>
      </trkpt>
      <trkpt lat="45.64972" lon="2.92953">
        <ele>1013.92</ele>
        <time>2015-05-16T07:45:46Z</time>
      </trkpt>
      <trkpt lat="45.64991" lon="2.92952">
        <ele>1011.52</ele>
        <time>2015-05-16T07:46:01Z</time>
      </trkpt>
      <trkpt lat="45.6501" lon="2.92951">
        <ele>1009.64</ele>
        <time>2015-05-16T07:46:15Z</time>
      </trkpt>
      <trkpt lat="45.65029" lon="2.92947">
        <ele>1005.64</ele>
        <time>2015-05-16T07:46:30Z</time>
      </trkpt>
      <trkpt lat="45.65048" lon="2.92944">
        <ele>1003.53</ele>
        <time>2015-05-16T07:46:44Z</time>
      </trkpt>
      <trkpt lat="45.65066" lon="2.92936">
        <ele>1000.53</ele>
        <time>2015-05-16T07:46:59Z</time>
      </trkpt>
      <trkpt lat="45.65084" lon="2.92929">
        <ele>998.64</ele>
        <time>2015-05-16T07:47:11Z</time>
      </trkpt>
      <trkpt lat="45.65101" lon="2.92919">
        <ele>997.56</ele>
        <time>2015-05-16T07:47:24Z</time>
      </trkpt>
      <trkpt lat="45.65116" lon="2.92901">
        <ele>995.63</ele>
        <time>2015-05-16T07:47:39Z</time>
      </trkpt>
      <trkpt lat="45.65131" lon="2.92886">
        <ele>994.51</ele>
        <time>2015-05-16T07:47:54Z</time>
      </trkpt>
      <trkpt lat="45.65149" lon="2.92881">
        <ele>992.53</ele>
        <time>2015-05-16T07:48:08Z</time>
      </trkpt>
      <trkpt lat="45.65168" lon="2.92888">
        <ele>991.51</ele>
        <time>2015-05-16T07:48:24Z</time>
      </trkpt>
      <trkpt lat="45.65185" lon="2.92898">
        <ele>992.1</ele>
        <time>2015-05-16T07:48:40Z</time>
      </trkpt>
      <trkpt lat="45.65194" lon="2.92921">
        <ele>996.25</ele>
        <time>2015-05-16T07:49:09Z</time>
      </trkpt>
      <trkpt lat="45.65201" lon="2.92945">
        <ele>997.25</ele>
        <time>2015-05-16T07:49:27Z</time>
      </trkpt>
      <trkpt lat="45.65207" lon="2.9297">
        <ele>1001.01</ele>
        <time>2015-05-16T07:49:43Z</time>
      </trkpt>
      <trkpt lat="45.65214" lon="2.92995">
        <ele>1002.88</ele>
        <time>2015-05-16T07:49:58Z</time>
      </trkpt>
      <trkpt lat="45.6522" lon="2.9302">
        <ele>1004.14</ele>
        <time>2015-05-16T07:50:14Z</time>
      </trkpt>
      <trkpt lat="45.65225" lon="2.93045">
        <ele>1001.38</ele>
        <time>2015-05-16T07:50:31Z</time>
      </trkpt>
      <trkpt lat="45.65231" lon="2.93069">
        <ele>1002.23</ele>
        <time>2015-05-16T07:50:45Z</time>
      </trkpt>
      <trkpt lat="45.65239" lon="2.93093">
        <ele>1002.16</ele>
        <time>2015-05-16T07:50:59Z</time>
      </trkpt>
      <trkpt lat="45.65245" lon="2.93117">
        <ele>1000.78</ele>
        <time>2015-05-16T07:51:13Z</time>
      </trkpt>
      <trkpt lat="45.65252" lon="2.93141">
        <ele>1002.51</ele>
        <time>2015-05-16T07:51:27Z</time>
      </trkpt>
      <trkpt lat="45.6526" lon="2.93166">
        <ele>1001.55</ele>
        <time>2015-05-16T07:51:41Z</time>
      </trkpt>
      <trkpt lat="45.65271" lon="2.93188">
        <ele>1003.45</ele>
        <time>2015-05-16T07:51:58Z</time>
      </trkpt>
      <trkpt lat="45.65281" lon="2.9321">
        <ele>1003.66</ele>
        <time>2015-05-16T07:52:14Z</time>
      </trkpt>
      <trkpt lat="45.65293" lon="2.93229">
        <ele>1001.08</ele>
        <time>2015-05-16T07:52:29Z</time>
      </trkpt>
      <trkpt lat="45.65305" lon="2.93249">
        <ele>1002.02</ele>
        <time>2015-05-16T07:52:45Z</time>
      </trkpt>
      <trkpt lat="45.65316" lon="2.9327">
        <ele>1003.96</ele>
        <time>2015-05-16T07:53:01Z</time>
      </trkpt>
      <trkpt lat="45.65326" lon="2.93293">
        <ele>1006.57</ele>
        <time>2015-05-16T07:53:17Z</time>
      </trkpt>
      <trkpt lat="45.65339" lon="2.93313">
        <ele>1012.18</ele>
        <time>2015-05-16T07:53:33Z</time>
      </trkpt>
      <trkpt lat="45.65351" lon="2.93334">
        <ele>1009.97</ele>
        <time>2015-05-16T07:53:51Z</time>
      </trkpt>
      <trkpt lat="45.65363" lon="2.93354">
        <ele>1011.94</ele>
        <time>2015-05-16T07:54:08Z</time>
      </trkpt>
      <trkpt lat="45.65374" lon="2.93375">
        <ele>1011.08</ele>
        <time>2015-05-16T07:54:25Z</time>
      </trkpt>
      <trkpt lat="45.65387" lon="2.93394">
        <ele>1014.91</ele>
        <time>2015-05-16T07:54:42Z</time>
      </trkpt>
      <trkpt lat="45.654" lon="2.93414">
        <ele>1011.08</ele>
        <time>2015-05-16T07:55:01Z</time>
      </trkpt>
      <trkpt lat="45.65414" lon="2.93432">
        <ele>1015.26</ele>
        <time>2015-05-16T07:55:20Z</time>
      </trkpt>
      <trkpt lat="45.6543" lon="2.93447">
        <ele>1014.56</ele>
        <time>2015-05-16T07:55:36Z</time>
      </trkpt>
      <trkpt lat="45.65444" lon="2.93464">
        <ele>1019.37</ele>
        <time>2015-05-16T07:55:52Z</time>
      </trkpt>
      <trkpt lat="45.65459" lon="2.93478">
        <ele>1021.2</ele>
        <time>2015-05-16T07:56:08Z</time>
      </trkpt>
      <trkpt lat="45.65475" lon="2.9349">
        <ele>1024.23</ele>
        <time>2015-05-16T07:56:23Z</time>
      </trkpt>
      <trkpt lat="45.65492" lon="2.93502">
        <ele>1027.52</ele>
        <time>2015-05-16T07:56:39Z</time>
      </trkpt>
      <trkpt lat="45.65508" lon="2.93518">
        <ele>1023.87</ele>
        <time>2015-05-16T07:56:59Z</time>
      </trkpt>
      <trkpt lat="45.65525" lon="2.9353">
        <ele>1024.46</ele>
        <time>2015-05-16T07:57:13Z</time>
      </trkpt>
      <trkpt lat="45.6554" lon="2.93544">
        <ele>1024.79</ele>
        <time>2015-05-16T07:57:27Z</time>
      </trkpt>
      <trkpt lat="45.65555" lon="2.93561">
        <ele>1027.34</ele>
        <time>2015-05-16T07:57:42Z</time>
      </trkpt>
      <trkpt lat="45.65569" lon="2.9358">
        <ele>1026.54</ele>
        <time>2015-05-16T07:57:58Z</time>
      </trkpt>
      <trkpt lat="45.65584" lon="2.93597">
        <ele>1028.75</ele>
        <time>2015-05-16T07:58:14Z</time>
      </trkpt>
      <trkpt lat="45.65597" lon="2.93615">
        <ele>1029.13</ele>
        <time>2015-05-16T07:58:29Z</time>
      </trkpt>
      <trkpt lat="45.65611" lon="2.93634">
        <ele>1025.26</ele>
        <time>2015-05-16T07:58:46Z</time>
      </trkpt>
      <trkpt lat="45.65624" lon="2.93652">
        <ele>1026.75</ele>
        <time>2015-05-16T07:59:00Z</time>
      </trkpt>
      <trkpt lat="45.65638" lon="2.93669">
        <ele>1026.18</ele>
        <time>2015-05-16T07:59:14Z</time>
      </trkpt>
      <trkpt lat="45.65651" lon="2.93688">
        <ele>1023.71</ele>
        <time>2015-05-16T07:59:30Z</time>
      </trkpt>
      <trkpt lat="45.65666" lon="2.93706">
        <ele>1022.2</ele>
        <time>2015-05-16T07:59:44Z</time>
      </trkpt>
      <trkpt lat="45.65681" lon="2.93724">
        <ele>1019.4</ele>
        <time>2015-05-16T08:00:00Z</time>
      </trkpt>
      <trkpt lat="45.65696" lon="2.93739">
        <ele>1020.51</ele>
        <time>2015-05-16T08:00:13Z</time>
      </trkpt>
      <trkpt lat="45.65712" lon="2.93754">
        <ele>1020.49</ele>
        <time>2015-05-16T08:00:29Z</time>
      </trkpt>
      <trkpt lat="45.65729" lon="2.93766">
        <ele>1023.48</ele>
        <time>2015-05-16T08:00:42Z</time>
      </trkpt>
      <trkpt lat="45.65745" lon="2.9378">
        <ele>1029.04</ele>
        <time>2015-05-16T08:00:56Z</time>
      </trkpt>
      <trkpt lat="45.65761" lon="2.93793">
        <ele>1030.97</ele>
        <time>2015-05-16T08:01:11Z</time>
      </trkpt>
      <trkpt lat="45.65778" lon="2.93802">
        <ele>1030.26</ele>
        <time>2015-05-16T08:01:26Z</time>
      </trkpt>
      <trkpt lat="45.65795" lon="2.93813">
        <ele>1028.82</ele>
        <time>2015-05-16T08:01:42Z</time>
      </trkpt>
      <trkpt lat="45.65812" lon="2.93826">
        <ele>1027.52</ele>
        <time>2015-05-16T08:01:56Z</time>
      </trkpt>
      <trkpt lat="45.65828" lon="2.93839">
        <ele>1026.73</ele>
        <time>2015-05-16T08:02:09Z</time>
      </trkpt>
      <trkpt lat="45.65846" lon="2.93843">
        <ele>1025.68</ele>
        <time>2015-05-16T08:02:22Z</time>
      </trkpt>
      <trkpt lat="45.65865" lon="2.93848">
        <ele>1024.52</ele>
        <time>2015-05-16T08:02:36Z</time>
      </trkpt>
      <trkpt lat="45.65883" lon="2.93854">
        <ele>1024.51</ele>
        <time>2015-05-16T08:02:49Z</time>
      </trkpt>
      <trkpt lat="45.65901" lon="2.93861">
        <ele>1025.51</ele>
        <time>2015-05-16T08:03:03Z</time>
      </trkpt>
      <trkpt lat="45.65919" lon="2.93867">
        <ele>1025.62</ele>
        <time>2015-05-16T08:03:16Z</time>
      </trkpt>
      <trkpt lat="45.65937" lon="2.93876">
        <ele>1025.52</ele>
        <time>2015-05-16T08:03:30Z</time>
      </trkpt>
      <trkpt lat="45.65955" lon="2.93883">
        <ele>1026.51</ele>
        <time>2015-05-16T08:03:44Z</time>
      </trkpt>
      <trkpt lat="45.65973" lon="2.93889">
        <ele>1024.55</ele>
        <time>2015-05-16T08:03:58Z</time>
      </trkpt>
      <trkpt lat="45.65991" lon="2.93892">
        <ele>1025.5</ele>
        <time>2015-05-16T08:04:15Z</time>
      </trkpt>
      <trkpt lat="45.65992" lon="2.93919">
        <ele>1026.44</ele>
        <time>2015-05-16T08:04:36Z</time>
      </trkpt>
      <trkpt lat="45.66001" lon="2.93942">
        <ele>1027.5</ele>
        <time>2015-05-16T08:04:53Z</time>
      </trkpt>
      <trkpt lat="45.66012" lon="2.93962">
        <ele>1026.51</ele>
        <time>2015-05-16T08:05:07Z</time>
      </trkpt>
      <trkpt lat="45.66023" lon="2.93985">
        <ele>1024.59</ele>
        <time>2015-05-16T08:05:23Z</time>
      </trkpt>
      <trkpt lat="45.66033" lon="2.94007">
        <ele>1025.21</ele>
        <time>2015-05-16T08:05:38Z</time>
      </trkpt>
      <trkpt lat="45.66042" lon="2.94029">
        <ele>1025.48</ele>
        <time>2015-05-16T08:05:53Z</time>
      </trkpt>
      <trkpt lat="45.66052" lon="2.94052">
        <ele>1027.12</ele>
        <time>2015-05-16T08:06:09Z</time>
      </trkpt>
      <trkpt lat="45.66062" lon="2.94073">
        <ele>1027.89</ele>
        <time>2015-05-16T08:06:25Z</time>
      </trkpt>
      <trkpt lat="45.66071" lon="2.94096">
        <ele>1027.24</ele>
        <time>2015-05-16T08:06:42Z</time>
      </trkpt>
      <trkpt lat="45.66082" lon="2.94117">
        <ele>1030.25</ele>
        <time>2015-05-16T08:06:57Z</time>
      </trkpt>
      <trkpt lat="45.6609" lon="2.9414">
        <ele>1031.3</ele>
        <time>2015-05-16T08:07:17Z</time>
      </trkpt>
      <trkpt lat="45.661" lon="2.94162">
        <ele>1032.42</ele>
        <time>2015-05-16T08:07:38Z</time>
      </trkpt>
      <trkpt lat="45.66108" lon="2.94186">
        <ele>1032.51</ele>
        <time>2015-05-16T08:07:54Z</time>
      </trkpt>
      <trkpt lat="45.66116" lon="2.94211">
        <ele>1031.88</ele>
        <time>2015-05-16T08:08:10Z</time>
      </trkpt>
      <trkpt lat="45.66126" lon="2.94234">
        <ele>1030.63</ele>
        <time>2015-05-16T08:08:25Z</time>
      </trkpt>
      <trkpt lat="45.66133" lon="2.9426">
        <ele>1031.49</ele>
        <time>2015-05-16T08:08:42Z</time>
      </trkpt>
      <trkpt lat="45.66142" lon="2.94283">
        <ele>1031.51</ele>
        <time>2015-05-16T08:08:56Z</time>
      </trkpt>
      <trkpt lat="45.66149" lon="2.94307">
        <ele>1032.51</ele>
        <time>2015-05-16T08:09:11Z</time>
      </trkpt>
      <trkpt lat="45.66154" lon="2.94334">
        <ele>1035.75</ele>
        <time>2015-05-16T08:09:26Z</time>
      </trkpt>
      <trkpt lat="45.66162" lon="2.94358">
        <ele>1037.27</ele>
        <time>2015-05-16T08:09:41Z</time>
      </trkpt>
      <trkpt lat="45.66171" lon="2.94382">
        <ele>1037.95</ele>
        <time>2015-05-16T08:09:58Z</time>
      </trkpt>
      <trkpt lat="45.66181" lon="2.94405">
        <ele>1037.07</ele>
        <time>2015-05-16T08:10:15Z</time>
      </trkpt>
      <trkpt lat="45.66191" lon="2.94427">
        <ele>1035.49</ele>
        <time>2015-05-16T08:10:31Z</time>
      </trkpt>
      <trkpt lat="45.66203" lon="2.94447">
        <ele>1032.87</ele>
        <time>2015-05-16T08:10:45Z</time>
      </trkpt>
      <trkpt lat="45.66212" lon="2.94469">
        <ele>1036.63</ele>
        <time>2015-05-16T08:10:59Z</time>
      </trkpt>
      <trkpt lat="45.66224" lon="2.94491">
        <ele>1037.26</ele>
        <time>2015-05-16T08:11:15Z</time>
      </trkpt>
      <trkpt lat="45.66236" lon="2.9451">
        <ele>1037.48</ele>
        <time>2015-05-16T08:11:30Z</time>
      </trkpt>
      <trkpt lat="45.66246" lon="2.94532">
        <ele>1037.32</ele>
        <time>2015-05-16T08:11:45Z</time>
      </trkpt>
      <trkpt lat="45.66256" lon="2.94554">
        <ele>1037</ele>
        <time>2015-05-16T08:12:00Z</time>
      </trkpt>
      <trkpt lat="45.66267" lon="2.94576">
        <ele>1036.57</ele>
        <time>2015-05-16T08:12:15Z</time>
      </trkpt>
      <trkpt lat="45.66277" lon="2.94598">
        <ele>1036.23</ele>
        <time>2015-05-16T08:12:30Z</time>
      </trkpt>
      <trkpt lat="45.66288" lon="2.9462">
        <ele>1037.26</ele>
        <time>2015-05-16T08:12:44Z</time>
      </trkpt>
      <trkpt lat="45.66299" lon="2.94641">
        <ele>1037.75</ele>
        <time>2015-05-16T08:12:58Z</time>
      </trkpt>
      <trkpt lat="45.66311" lon="2.9466">
        <ele>1035.79</ele>
        <time>2015-05-16T08:13:14Z</time>
      </trkpt>
      <trkpt lat="45.66323" lon="2.94683">
        <ele>1034.95</ele>
        <time>2015-05-16T08:13:29Z</time>
      </trkpt>
      <trkpt lat="45.66334" lon="2.94704">
        <ele>1030.51</ele>
        <time>2015-05-16T08:13:46Z</time>
      </trkpt>
      <trkpt lat="45.66345" lon="2.94725">
        <ele>1031.95</ele>
        <time>2015-05-16T08:14:03Z</time>
      </trkpt>
      <trkpt lat="45.66356" lon="2.94746">
        <ele>1033</ele>
        <time>2015-05-16T08:14:20Z</time>
      </trkpt>
      <trkpt lat="45.66365" lon="2.94768">
        <ele>1031.2</ele>
        <time>2015-05-16T08:14:33Z</time>
      </trkpt>
      <trkpt lat="45.66373" lon="2.94792">
        <ele>1034.57</ele>
        <time>2015-05-16T08:14:44Z</time>
      </trkpt>
      <trkpt lat="45.66378" lon="2.94818">
        <ele>1033.27</ele>
        <time>2015-05-16T08:14:58Z</time>
      </trkpt>
      <trkpt lat="45.66366" lon="2.9484">
        <ele>1034.48</ele>
        <time>2015-05-16T08:15:12Z</time>
      </trkpt>
      <trkpt lat="45.66353" lon="2.94859">
        <ele>1034.53</ele>
        <time>2015-05-16T08:15:25Z</time>
      </trkpt>
      <trkpt lat="45.6634" lon="2.94877">
        <ele>1034.07</ele>
        <time>2015-05-16T08:15:38Z</time>
      </trkpt>
      <trkpt lat="45.66325" lon="2.94895">
        <ele>1033.01</ele>
        <time>2015-05-16T08:15:52Z</time>
      </trkpt>
      <trkpt lat="45.66312" lon="2.94914">
        <ele>1035.36</ele>
        <time>2015-05-16T08:16:09Z</time>
      </trkpt>
      <trkpt lat="45.66305" lon="2.94939">
        <ele>1031.26</ele>
        <time>2015-05-16T08:16:32Z</time>
      </trkpt>
      <trkpt lat="45.6631" lon="2.94964">
        <ele>1029.37</ele>
        <time>2015-05-16T08:16:44Z</time>
      </trkpt>
      <trkpt lat="45.66325" lon="2.9498">
        <ele>1029.51</ele>
        <time>2015-05-16T08:16:58Z</time>
      </trkpt>
      <trkpt lat="45.66341" lon="2.94994">
        <ele>1030.01</ele>
        <time>2015-05-16T08:17:12Z</time>
      </trkpt>
      <trkpt lat="45.66356" lon="2.95011">
        <ele>1032.49</ele>
        <time>2015-05-16T08:17:26Z</time>
      </trkpt>
      <trkpt lat="45.6637" lon="2.95028">
        <ele>1032.51</ele>
        <time>2015-05-16T08:17:42Z</time>
      </trkpt>
      <trkpt lat="45.66385" lon="2.95041">
        <ele>1031.48</ele>
        <time>2015-05-16T08:17:57Z</time>
      </trkpt>
      <trkpt lat="45.664" lon="2.95058">
        <ele>1031.51</ele>
        <time>2015-05-16T08:18:15Z</time>
      </trkpt>
      <trkpt lat="45.66415" lon="2.95074">
        <ele>1029.07</ele>
        <time>2015-05-16T08:18:32Z</time>
      </trkpt>
      <trkpt lat="45.6643" lon="2.9509">
        <ele>1030.51</ele>
        <time>2015-05-16T08:18:49Z</time>
      </trkpt>
      <trkpt lat="45.66442" lon="2.95108">
        <ele>1032.51</ele>
        <time>2015-05-16T08:19:19Z</time>
      </trkpt>
      <trkpt lat="45.66456" lon="2.95127">
        <ele>1034.51</ele>
        <time>2015-05-16T08:19:35Z</time>
      </trkpt>
      <trkpt lat="45.66467" lon="2.95148">
        <ele>1037.44</ele>
        <time>2015-05-16T08:19:49Z</time>
      </trkpt>
      <trkpt lat="45.6648" lon="2.95168">
        <ele>1037.45</ele>
        <time>2015-05-16T08:20:06Z</time>
      </trkpt>
      <trkpt lat="45.66496" lon="2.95183">
        <ele>1037.51</ele>
        <time>2015-05-16T08:20:23Z</time>
      </trkpt>
      <trkpt lat="45.66512" lon="2.95199">
        <ele>1036.63</ele>
        <time>2015-05-16T08:20:38Z</time>
      </trkpt>
      <trkpt lat="45.66527" lon="2.95215">
        <ele>1038.52</ele>
        <time>2015-05-16T08:20:53Z</time>
      </trkpt>
      <trkpt lat="45.66542" lon="2.9523">
        <ele>1037.58</ele>
        <time>2015-05-16T08:21:09Z</time>
      </trkpt>
      <trkpt lat="45.66559" lon="2.95245">
        <ele>1038.04</ele>
        <time>2015-05-16T08:21:36Z</time>
      </trkpt>
      <trkpt lat="45.66573" lon="2.95261">
        <ele>1039.04</ele>
        <time>2015-05-16T08:21:50Z</time>
      </trkpt>
      <trkpt lat="45.66588" lon="2.95277">
        <ele>1039.06</ele>
        <time>2015-05-16T08:22:04Z</time>
      </trkpt>
      <trkpt lat="45.66605" lon="2.9529">
        <ele>1041.27</ele>
        <time>2015-05-16T08:22:17Z</time>
      </trkpt>
      <trkpt lat="45.66623" lon="2.95299">
        <ele>1040.07</ele>
        <time>2015-05-16T08:22:32Z</time>
      </trkpt>
      <trkpt lat="45.6664" lon="2.95308">
        <ele>1036.9</ele>
        <time>2015-05-16T08:22:45Z</time>
      </trkpt>
      <trkpt lat="45.66657" lon="2.95319">
        <ele>1034.52</ele>
        <time>2015-05-16T08:22:59Z</time>
      </trkpt>
      <trkpt lat="45.66674" lon="2.95327">
        <ele>1034.52</ele>
        <time>2015-05-16T08:23:13Z</time>
      </trkpt>
      <trkpt lat="45.66692" lon="2.95334">
        <ele>1032.14</ele>
        <time>2015-05-16T08:23:31Z</time>
      </trkpt>
      <trkpt lat="45.6671" lon="2.95338">
        <ele>1030.08</ele>
        <time>2015-05-16T08:23:44Z</time>
      </trkpt>
      <trkpt lat="45.66729" lon="2.95341">
        <ele>1028.52</ele>
        <time>2015-05-16T08:23:58Z</time>
      </trkpt>
      <trkpt lat="45.66747" lon="2.95341">
        <ele>1027.51</ele>
        <time>2015-05-16T08:24:12Z</time>
      </trkpt>
      <trkpt lat="45.66765" lon="2.95337">
        <ele>1026.76</ele>
        <time>2015-05-16T08:24:27Z</time>
      </trkpt>
      <trkpt lat="45.66783" lon="2.95331">
        <ele>1024.83</ele>
        <time>2015-05-16T08:24:42Z</time>
      </trkpt>
      <trkpt lat="45.66799" lon="2.95317">
        <ele>1024.31</ele>
        <time>2015-05-16T08:24:57Z</time>
      </trkpt>
      <trkpt lat="45.66817" lon="2.95306">
        <ele>1023.9</ele>
        <time>2015-05-16T08:25:12Z</time>
      </trkpt>
      <trkpt lat="45.66835" lon="2.95301">
        <ele>1020.51</ele>
        <time>2015-05-16T08:28:54Z</time>
      </trkpt>
      <trkpt lat="45.66852" lon="2.95289">
        <ele>1019.02</ele>
        <time>2015-05-16T08:29:13Z</time>
      </trkpt>
      <trkpt lat="45.66869" lon="2.95275">
        <ele>1018.51</ele>
        <time>2015-05-16T08:29:28Z</time>
      </trkpt>
      <trkpt lat="45.66885" lon="2.9526">
        <ele>1014.57</ele>
        <time>2015-05-16T08:29:42Z</time>
      </trkpt>
      <trkpt lat="45.66902" lon="2.95248">
        <ele>1013.51</ele>
        <time>2015-05-16T08:29:55Z</time>
      </trkpt>
      <trkpt lat="45.66918" lon="2.95234">
        <ele>1010.59</ele>
        <time>2015-05-16T08:30:10Z</time>
      </trkpt>
      <trkpt lat="45.66934" lon="2.9522">
        <ele>1009.88</ele>
        <time>2015-05-16T08:30:23Z</time>
      </trkpt>
      <trkpt lat="45.66949" lon="2.95203">
        <ele>1009.51</ele>
        <time>2015-05-16T08:30:36Z</time>
      </trkpt>
      <trkpt lat="45.66964" lon="2.95188">
        <ele>1008.51</ele>
        <time>2015-05-16T08:30:51Z</time>
      </trkpt>
      <trkpt lat="45.66978" lon="2.95171">
        <ele>1005.76</ele>
        <time>2015-05-16T08:31:08Z</time>
      </trkpt>
      <trkpt lat="45.66991" lon="2.95153">
        <ele>1003.26</ele>
        <time>2015-05-16T08:31:22Z</time>
      </trkpt>
      <trkpt lat="45.67007" lon="2.95137">
        <ele>1002.95</ele>
        <time>2015-05-16T08:31:36Z</time>
      </trkpt>
      <trkpt lat="45.67024" lon="2.95123">
        <ele>1001.54</ele>
        <time>2015-05-16T08:31:51Z</time>
      </trkpt>
      <trkpt lat="45.67041" lon="2.95114">
        <ele>1000.76</ele>
        <time>2015-05-16T08:32:05Z</time>
      </trkpt>
      <trkpt lat="45.67058" lon="2.95122">
        <ele>999.52</ele>
        <time>2015-05-16T08:32:19Z</time>
      </trkpt>
      <trkpt lat="45.67074" lon="2.95136">
        <ele>997.63</ele>
        <time>2015-05-16T08:32:33Z</time>
      </trkpt>
      <trkpt lat="45.6709" lon="2.95151">
        <ele>995.51</ele>
        <time>2015-05-16T08:32:48Z</time>
      </trkpt>
      <trkpt lat="45.67105" lon="2.95164">
        <ele>993.27</ele>
        <time>2015-05-16T08:33:20Z</time>
      </trkpt>
      <trkpt lat="45.67122" lon="2.95177">
        <ele>992.58</ele>
        <time>2015-05-16T08:33:34Z</time>
      </trkpt>
      <trkpt lat="45.67139" lon="2.9519">
        <ele>991.79</ele>
        <time>2015-05-16T08:33:48Z</time>
      </trkpt>
      <trkpt lat="45.67156" lon="2.95201">
        <ele>990.54</ele>
        <time>2015-05-16T08:34:02Z</time>
      </trkpt>
      <trkpt lat="45.67172" lon="2.95214">
        <ele>989.26</ele>
        <time>2015-05-16T08:34:15Z</time>
      </trkpt>
      <trkpt lat="45.67188" lon="2.95226">
        <ele>988.52</ele>
        <time>2015-05-16T08:34:28Z</time>
      </trkpt>
      <trkpt lat="45.67204" lon="2.95239">
        <ele>986.53</ele>
        <time>2015-05-16T08:34:42Z</time>
      </trkpt>
      <trkpt lat="45.67219" lon="2.95252">
        <ele>985.75</ele>
        <time>2015-05-16T08:34:55Z</time>
      </trkpt>
      <trkpt lat="45.67237" lon="2.95264">
        <ele>984.76</ele>
        <time>2015-05-16T08:35:08Z</time>
      </trkpt>
      <trkpt lat="45.67253" lon="2.95278">
        <ele>983.63</ele>
        <time>2015-05-16T08:35:21Z</time>
      </trkpt>
      <trkpt lat="45.6727" lon="2.95289">
        <ele>983.4</ele>
        <time>2015-05-16T08:35:34Z</time>
      </trkpt>
      <trkpt lat="45.67286" lon="2.95301">
        <ele>983.51</ele>
        <time>2015-05-16T08:35:47Z</time>
      </trkpt>
      <trkpt lat="45.67302" lon="2.95312">
        <ele>982.45</ele>
        <time>2015-05-16T08:36:01Z</time>
      </trkpt>
      <trkpt lat="45.67304" lon="2.95338">
        <ele>982.36</ele>
        <time>2015-05-16T08:36:23Z</time>
      </trkpt>
      <trkpt lat="45.67294" lon="2.9536">
        <ele>982.73</ele>
        <time>2015-05-16T08:36:38Z</time>
      </trkpt>
      <trkpt lat="45.67283" lon="2.95382">
        <ele>984.32</ele>
        <time>2015-05-16T08:36:53Z</time>
      </trkpt>
      <trkpt lat="45.67273" lon="2.95405">
        <ele>983.63</ele>
        <time>2015-05-16T08:37:08Z</time>
      </trkpt>
      <trkpt lat="45.67264" lon="2.95429">
        <ele>983.39</ele>
        <time>2015-05-16T08:37:23Z</time>
      </trkpt>
      <trkpt lat="45.67254" lon="2.95452">
        <ele>982.39</ele>
        <time>2015-05-16T08:37:38Z</time>
      </trkpt>
      <trkpt lat="45.67245" lon="2.95475">
        <ele>983.51</ele>
        <time>2015-05-16T08:37:51Z</time>
      </trkpt>
      <trkpt lat="45.67235" lon="2.95498">
        <ele>983.62</ele>
        <time>2015-05-16T08:38:04Z</time>
      </trkpt>
      <trkpt lat="45.67225" lon="2.9552">
        <ele>983.51</ele>
        <time>2015-05-16T08:38:18Z</time>
      </trkpt>
      <trkpt lat="45.67214" lon="2.95541">
        <ele>982.51</ele>
        <time>2015-05-16T08:38:33Z</time>
      </trkpt>
      <trkpt lat="45.67202" lon="2.95563">
        <ele>983.5</ele>
        <time>2015-05-16T08:38:48Z</time>
      </trkpt>
      <trkpt lat="45.67191" lon="2.95585">
        <ele>982.72</ele>
        <time>2015-05-16T08:39:02Z</time>
      </trkpt>
      <trkpt lat="45.67179" lon="2.95606">
        <ele>981.51</ele>
        <time>2015-05-16T08:39:17Z</time>
      </trkpt>
      <trkpt lat="45.67167" lon="2.95627">
        <ele>978.81</ele>
        <time>2015-05-16T08:39:33Z</time>
      </trkpt>
      <trkpt lat="45.67158" lon="2.95649">
        <ele>979.45</ele>
        <time>2015-05-16T08:39:47Z</time>
      </trkpt>
      <trkpt lat="45.67176" lon="2.95655">
        <ele>977.07</ele>
        <time>2015-05-16T08:40:09Z</time>
      </trkpt>
      <trkpt lat="45.67194" lon="2.95652">
        <ele>979.27</ele>
        <time>2015-05-16T08:40:26Z</time>
      </trkpt>
      <trkpt lat="45.67212" lon="2.95654">
        <ele>982.37</ele>
        <time>2015-05-16T08:40:43Z</time>
      </trkpt>
      <trkpt lat="45.67231" lon="2.95653">
        <ele>983.31</ele>
        <time>2015-05-16T08:41:02Z</time>
      </trkpt>
      <trkpt lat="45.6725" lon="2.95656">
        <ele>983.92</ele>
        <time>2015-05-16T08:41:20Z</time>
      </trkpt>
      <trkpt lat="45.67268" lon="2.9566">
        <ele>986.43</ele>
        <time>2015-05-16T08:41:38Z</time>
      </trkpt>
      <trkpt lat="45.67286" lon="2.95663">
        <ele>986.48</ele>
        <time>2015-05-16T08:41:54Z</time>
      </trkpt>
      <trkpt lat="45.67304" lon="2.95664">
        <ele>989.48</ele>
        <time>2015-05-16T08:42:09Z</time>
      </trkpt>
      <trkpt lat="45.67322" lon="2.95667">
        <ele>990.95</ele>
        <time>2015-05-16T08:42:28Z</time>
      </trkpt>
      <trkpt lat="45.67332" lon="2.95691">
        <ele>995.02</ele>
        <time>2015-05-16T08:43:13Z</time>
      </trkpt>
      <trkpt lat="45.67335" lon="2.95717">
        <ele>996.02</ele>
        <time>2015-05-16T08:43:39Z</time>
      </trkpt>
      <trkpt lat="45.67342" lon="2.95742">
        <ele>992.14</ele>
        <time>2015-05-16T08:43:59Z</time>
      </trkpt>
      <trkpt lat="45.6735" lon="2.95765">
        <ele>993.78</ele>
        <time>2015-05-16T08:44:18Z</time>
      </trkpt>
      <trkpt lat="45.67359" lon="2.95788">
        <ele>1000.71</ele>
        <time>2015-05-16T08:44:40Z</time>
      </trkpt>
      <trkpt lat="45.67368" lon="2.95811">
        <ele>1007</ele>
        <time>2015-05-16T08:45:02Z</time>
      </trkpt>
      <trkpt lat="45.67378" lon="2.95834">
        <ele>1007.47</ele>
        <time>2015-05-16T08:45:23Z</time>
      </trkpt>
      <trkpt lat="45.67387" lon="2.95857">
        <ele>1007.51</ele>
        <time>2015-05-16T08:45:42Z</time>
      </trkpt>
      <trkpt lat="45.67399" lon="2.95878">
        <ele>1003.76</ele>
        <time>2015-05-16T08:46:05Z</time>
      </trkpt>
      <trkpt lat="45.67412" lon="2.95896">
        <ele>1005.54</ele>
        <time>2015-05-16T08:46:26Z</time>
      </trkpt>
      <trkpt lat="45.67424" lon="2.95916">
        <ele>1001.15</ele>
        <time>2015-05-16T08:46:51Z</time>
      </trkpt>
      <trkpt lat="45.67437" lon="2.95934">
        <ele>1004.76</ele>
        <time>2015-05-16T08:47:09Z</time>
      </trkpt>
      <trkpt lat="45.67447" lon="2.95956">
        <ele>1003.81</ele>
        <time>2015-05-16T08:47:29Z</time>
      </trkpt>
      <trkpt lat="45.67451" lon="2.95982">
        <ele>1008.09</ele>
        <time>2015-05-16T08:47:48Z</time>
      </trkpt>
      <trkpt lat="45.67448" lon="2.96009">
        <ele>1018.2</ele>
        <time>2015-05-16T08:48:14Z</time>
      </trkpt>
      <trkpt lat="45.6744" lon="2.96034">
        <ele>1012.92</ele>
        <time>2015-05-16T08:48:40Z</time>
      </trkpt>
      <trkpt lat="45.67431" lon="2.96058">
        <ele>1011</ele>
        <time>2015-05-16T08:48:59Z</time>
      </trkpt>
      <trkpt lat="45.67422" lon="2.9608">
        <ele>1008.7</ele>
        <time>2015-05-16T08:49:22Z</time>
      </trkpt>
      <trkpt lat="45.67415" lon="2.96106">
        <ele>1003.29</ele>
        <time>2015-05-16T08:49:45Z</time>
      </trkpt>
      <trkpt lat="45.67409" lon="2.96131">
        <ele>998.39</ele>
        <time>2015-05-16T08:50:03Z</time>
      </trkpt>
      <trkpt lat="45.67399" lon="2.96153">
        <ele>1001.42</ele>
        <time>2015-05-16T08:50:18Z</time>
      </trkpt>
      <trkpt lat="45.6739" lon="2.96177">
        <ele>996.01</ele>
        <time>2015-05-16T08:50:36Z</time>
      </trkpt>
      <trkpt lat="45.67392" lon="2.96203">
        <ele>992.74</ele>
        <time>2015-05-16T08:51:05Z</time>
      </trkpt>
      <trkpt lat="45.6739" lon="2.9623">
        <ele>989.95</ele>
        <time>2015-05-16T08:51:22Z</time>
      </trkpt>
      <trkpt lat="45.67394" lon="2.96256">
        <ele>991.52</ele>
        <time>2015-05-16T08:51:44Z</time>
      </trkpt>
      <trkpt lat="45.67397" lon="2.96281">
        <ele>986.7</ele>
        <time>2015-05-16T08:51:59Z</time>
      </trkpt>
      <trkpt lat="45.67405" lon="2.96307">
        <ele>988.96</ele>
        <time>2015-05-16T08:52:13Z</time>
      </trkpt>
      <trkpt lat="45.67412" lon="2.96332">
        <ele>990.57</ele>
        <time>2015-05-16T08:52:25Z</time>
      </trkpt>
      <trkpt lat="45.67419" lon="2.96358">
        <ele>987.94</ele>
        <time>2015-05-16T08:52:38Z</time>
      </trkpt>
      <trkpt lat="45.67421" lon="2.96384">
        <ele>982.38</ele>
        <time>2015-05-16T08:52:49Z</time>
      </trkpt>
      <trkpt lat="45.67431" lon="2.96408">
        <ele>977.55</ele>
        <time>2015-05-16T08:53:09Z</time>
      </trkpt>
      <trkpt lat="45.67443" lon="2.96428">
        <ele>980.45</ele>
        <time>2015-05-16T08:53:23Z</time>
      </trkpt>
      <trkpt lat="45.67452" lon="2.96451">
        <ele>978.36</ele>
        <time>2015-05-16T08:53:39Z</time>
      </trkpt>
      <trkpt lat="45.67467" lon="2.96469">
        <ele>975.63</ele>
        <time>2015-05-16T08:53:56Z</time>
      </trkpt>
      <trkpt lat="45.6747" lon="2.96495">
        <ele>978.54</ele>
        <time>2015-05-16T08:54:12Z</time>
      </trkpt>
      <trkpt lat="45.67475" lon="2.9652">
        <ele>975.12</ele>
        <time>2015-05-16T08:54:32Z</time>
      </trkpt>
      <trkpt lat="45.67489" lon="2.96537">
        <ele>975.26</ele>
        <time>2015-05-16T08:54:44Z</time>
      </trkpt>
      <trkpt lat="45.67502" lon="2.96556">
        <ele>975.8</ele>
        <time>2015-05-16T08:54:57Z</time>
      </trkpt>
      <trkpt lat="45.67515" lon="2.96574">
        <ele>977.14</ele>
        <time>2015-05-16T08:55:11Z</time>
      </trkpt>
      <trkpt lat="45.6753" lon="2.96589">
        <ele>979.9</ele>
        <time>2015-05-16T08:55:26Z</time>
      </trkpt>
      <trkpt lat="45.67545" lon="2.96604">
        <ele>980.65</ele>
        <time>2015-05-16T08:55:42Z</time>
      </trkpt>
      <trkpt lat="45.67559" lon="2.96622">
        <ele>975.06</ele>
        <time>2015-05-16T08:55:58Z</time>
      </trkpt>
      <trkpt lat="45.67574" lon="2.96636">
        <ele>984.87</ele>
        <time>2015-05-16T08:56:21Z</time>
      </trkpt>
      <trkpt lat="45.67591" lon="2.96649">
        <ele>984.41</ele>
        <time>2015-05-16T08:56:36Z</time>
      </trkpt>
      <trkpt lat="45.67607" lon="2.9666">
        <ele>984.29</ele>
        <time>2015-05-16T08:56:50Z</time>
      </trkpt>
      <trkpt lat="45.67623" lon="2.96673">
        <ele>984.51</ele>
        <time>2015-05-16T08:57:04Z</time>
      </trkpt>
      <trkpt lat="45.67639" lon="2.96689">
        <ele>986.77</ele>
        <time>2015-05-16T08:57:20Z</time>
      </trkpt>
      <trkpt lat="45.67658" lon="2.96696">
        <ele>983.55</ele>
        <time>2015-05-16T08:57:35Z</time>
      </trkpt>
      <trkpt lat="45.67674" lon="2.96711">
        <ele>980.44</ele>
        <time>2015-05-16T08:57:50Z</time>
      </trkpt>
      <trkpt lat="45.67691" lon="2.96723">
        <ele>976.18</ele>
        <time>2015-05-16T08:58:05Z</time>
      </trkpt>
      <trkpt lat="45.6771" lon="2.96725">
        <ele>975.51</ele>
        <time>2015-05-16T08:58:20Z</time>
      </trkpt>
      <trkpt lat="45.67729" lon="2.96724">
        <ele>977.55</ele>
        <time>2015-05-16T08:58:35Z</time>
      </trkpt>
      <trkpt lat="45.67748" lon="2.96721">
        <ele>979.22</ele>
        <time>2015-05-16T08:58:52Z</time>
      </trkpt>
      <trkpt lat="45.67766" lon="2.96718">
        <ele>978.22</ele>
        <time>2015-05-16T08:59:11Z</time>
      </trkpt>
      <trkpt lat="45.67784" lon="2.96714">
        <ele>983.25</ele>
        <time>2015-05-16T08:59:24Z</time>
      </trkpt>
      <trkpt lat="45.67803" lon="2.96712">
        <ele>983.57</ele>
        <time>2015-05-16T08:59:38Z</time>
      </trkpt>
      <trkpt lat="45.67822" lon="2.96707">
        <ele>984.07</ele>
        <time>2015-05-16T08:59:51Z</time>
      </trkpt>
      <trkpt lat="45.6784" lon="2.96699">
        <ele>986</ele>
        <time>2015-05-16T09:00:03Z</time>
      </trkpt>
      <trkpt lat="45.67858" lon="2.96689">
        <ele>988.71</ele>
        <time>2015-05-16T09:00:20Z</time>
      </trkpt>
      <trkpt lat="45.67874" lon="2.96676">
        <ele>983.18</ele>
        <time>2015-05-16T09:00:35Z</time>
      </trkpt>
      <trkpt lat="45.67891" lon="2.96664">
        <ele>980.94</ele>
        <time>2015-05-16T09:00:49Z</time>
      </trkpt>
      <trkpt lat="45.67908" lon="2.96652">
        <ele>983.95</ele>
        <time>2015-05-16T09:01:10Z</time>
      </trkpt>
      <trkpt lat="45.67925" lon="2.96638">
        <ele>980.64</ele>
        <time>2015-05-16T09:01:24Z</time>
      </trkpt>
      <trkpt lat="45.67942" lon="2.96629">
        <ele>981.07</ele>
        <time>2015-05-16T09:01:37Z</time>
      </trkpt>
      <trkpt lat="45.67958" lon="2.96616">
        <ele>977.64</ele>
        <time>2015-05-16T09:01:50Z</time>
      </trkpt>
      <trkpt lat="45.67976" lon="2.96606">
        <ele>979.89</ele>
        <time>2015-05-16T09:02:10Z</time>
      </trkpt>
      <trkpt lat="45.67994" lon="2.96595">
        <ele>981.1</ele>
        <time>2015-05-16T09:02:29Z</time>
      </trkpt>
      <trkpt lat="45.68061" lon="2.96556">
        <ele>982.51</ele>
        <time>2015-05-16T09:03:46Z</time>
      </trkpt>
      <trkpt lat="45.68079" lon="2.96551">
        <ele>971.51</ele>
        <time>2015-05-16T09:05:06Z</time>
      </trkpt>
      <trkpt lat="45.68097" lon="2.96553">
        <ele>971.07</ele>
        <time>2015-05-16T09:05:24Z</time>
      </trkpt>
      <trkpt lat="45.68137" lon="2.96611">
        <ele>962.51</ele>
        <time>2015-05-16T09:06:13Z</time>
      </trkpt>
      <trkpt lat="45.68144" lon="2.96636">
        <ele>959.45</ele>
        <time>2015-05-16T09:06:30Z</time>
      </trkpt>
      <trkpt lat="45.68162" lon="2.96641">
        <ele>960.48</ele>
        <time>2015-05-16T09:06:47Z</time>
      </trkpt>
      <trkpt lat="45.68334" lon="2.96249">
        <ele>952.51</ele>
        <time>2015-05-16T09:11:04Z</time>
      </trkpt>
      <trkpt lat="45.68332" lon="2.96223">
        <ele>953.56</ele>
        <time>2015-05-16T09:11:18Z</time>
      </trkpt>
      <trkpt lat="45.68319" lon="2.96204">
        <ele>951.74</ele>
        <time>2015-05-16T09:11:34Z</time>
      </trkpt>
      <trkpt lat="45.68333" lon="2.96221">
        <ele>954.34</ele>
        <time>2015-05-16T09:12:54Z</time>
      </trkpt>
      <trkpt lat="45.68334" lon="2.96245">
        <ele>952.51</ele>
        <time>2015-05-16T09:13:07Z</time>
      </trkpt>
      <trkpt lat="45.68333" lon="2.96271">
        <ele>952.27</ele>
        <time>2015-05-16T09:13:22Z</time>
      </trkpt>
      <trkpt lat="45.68334" lon="2.96298">
        <ele>952.26</ele>
        <time>2015-05-16T09:13:36Z</time>
      </trkpt>
      <trkpt lat="45.68329" lon="2.96325">
        <ele>953.5</ele>
        <time>2015-05-16T09:13:49Z</time>
      </trkpt>
      <trkpt lat="45.68323" lon="2.96351">
        <ele>952.54</ele>
        <time>2015-05-16T09:14:03Z</time>
      </trkpt>
      <trkpt lat="45.68313" lon="2.96374">
        <ele>953.32</ele>
        <time>2015-05-16T09:14:16Z</time>
      </trkpt>
      <trkpt lat="45.68303" lon="2.96395">
        <ele>951.57</ele>
        <time>2015-05-16T09:14:29Z</time>
      </trkpt>
      <trkpt lat="45.68292" lon="2.96418">
        <ele>954.13</ele>
        <time>2015-05-16T09:14:43Z</time>
      </trkpt>
      <trkpt lat="45.68282" lon="2.96442">
        <ele>953.71</ele>
        <time>2015-05-16T09:14:56Z</time>
      </trkpt>
      <trkpt lat="45.68271" lon="2.96463">
        <ele>954.37</ele>
        <time>2015-05-16T09:15:10Z</time>
      </trkpt>
      <trkpt lat="45.68261" lon="2.96484">
        <ele>953.6</ele>
        <time>2015-05-16T09:15:23Z</time>
      </trkpt>
      <trkpt lat="45.68251" lon="2.96505">
        <ele>953.57</ele>
        <time>2015-05-16T09:15:36Z</time>
      </trkpt>
      <trkpt lat="45.6824" lon="2.96527">
        <ele>954.47</ele>
        <time>2015-05-16T09:15:49Z</time>
      </trkpt>
      <trkpt lat="45.68245" lon="2.96554">
        <ele>957.07</ele>
        <time>2015-05-16T09:16:04Z</time>
      </trkpt>
      <trkpt lat="45.68245" lon="2.9658">
        <ele>958.63</ele>
        <time>2015-05-16T09:16:17Z</time>
      </trkpt>
      <trkpt lat="45.68242" lon="2.96607">
        <ele>960.51</ele>
        <time>2015-05-16T09:16:33Z</time>
      </trkpt>
      <trkpt lat="45.6826" lon="2.96601">
        <ele>961.17</ele>
        <time>2015-05-16T09:17:18Z</time>
      </trkpt>
      <trkpt lat="45.68279" lon="2.96595">
        <ele>962</ele>
        <time>2015-05-16T09:17:36Z</time>
      </trkpt>
      <trkpt lat="45.68296" lon="2.96588">
        <ele>962.46</ele>
        <time>2015-05-16T09:17:51Z</time>
      </trkpt>
      <trkpt lat="45.68316" lon="2.96588">
        <ele>965.94</ele>
        <time>2015-05-16T09:18:07Z</time>
      </trkpt>
      <trkpt lat="45.68334" lon="2.96581">
        <ele>961.8</ele>
        <time>2015-05-16T09:18:24Z</time>
      </trkpt>
      <trkpt lat="45.68353" lon="2.96573">
        <ele>964.89</ele>
        <time>2015-05-16T09:18:42Z</time>
      </trkpt>
      <trkpt lat="45.68367" lon="2.96555">
        <ele>966.24</ele>
        <time>2015-05-16T09:19:01Z</time>
      </trkpt>
      <trkpt lat="45.68378" lon="2.96535">
        <ele>969.6</ele>
        <time>2015-05-16T09:19:22Z</time>
      </trkpt>
      <trkpt lat="45.68391" lon="2.96516">
        <ele>971.92</ele>
        <time>2015-05-16T09:19:42Z</time>
      </trkpt>
      <trkpt lat="45.68407" lon="2.96504">
        <ele>972.2</ele>
        <time>2015-05-16T09:20:02Z</time>
      </trkpt>
      <trkpt lat="45.68419" lon="2.96483">
        <ele>980.47</ele>
        <time>2015-05-16T09:20:28Z</time>
      </trkpt>
      <trkpt lat="45.68434" lon="2.96469">
        <ele>984.63</ele>
        <time>2015-05-16T09:21:01Z</time>
      </trkpt>
      <trkpt lat="45.68451" lon="2.96479">
        <ele>989.43</ele>
        <time>2015-05-16T09:21:45Z</time>
      </trkpt>
      <trkpt lat="45.6847" lon="2.96485">
        <ele>990.07</ele>
        <time>2015-05-16T09:22:04Z</time>
      </trkpt>
      <trkpt lat="45.68488" lon="2.96486">
        <ele>992.81</ele>
        <time>2015-05-16T09:22:26Z</time>
      </trkpt>
      <trkpt lat="45.68505" lon="2.96497">
        <ele>1001.33</ele>
        <time>2015-05-16T09:22:46Z</time>
      </trkpt>
      <trkpt lat="45.68521" lon="2.96508">
        <ele>1003.32</ele>
        <time>2015-05-16T09:23:04Z</time>
      </trkpt>
      <trkpt lat="45.68537" lon="2.96522">
        <ele>1011.29</ele>
        <time>2015-05-16T09:23:27Z</time>
      </trkpt>
      <trkpt lat="45.68556" lon="2.96524">
        <ele>1012.13</ele>
        <time>2015-05-16T09:24:07Z</time>
      </trkpt>
      <trkpt lat="45.68574" lon="2.96524">
        <ele>1002.12</ele>
        <time>2015-05-16T09:24:15Z</time>
      </trkpt>
      <trkpt lat="45.68592" lon="2.96524">
        <ele>1008.21</ele>
        <time>2015-05-16T09:24:25Z</time>
      </trkpt>
      <trkpt lat="45.68611" lon="2.96519">
        <ele>1010.51</ele>
        <time>2015-05-16T09:24:53Z</time>
      </trkpt>
      <trkpt lat="45.68629" lon="2.96519">
        <ele>1016.48</ele>
        <time>2015-05-16T09:25:04Z</time>
      </trkpt>
      <trkpt lat="45.68648" lon="2.96513">
        <ele>1018.64</ele>
        <time>2015-05-16T09:25:27Z</time>
      </trkpt>
      <trkpt lat="45.68667" lon="2.96508">
        <ele>1020.61</ele>
        <time>2015-05-16T09:25:53Z</time>
      </trkpt>
      <trkpt lat="45.68685" lon="2.96497">
        <ele>1021</ele>
        <time>2015-05-16T09:26:02Z</time>
      </trkpt>
      <trkpt lat="45.68703" lon="2.9649">
        <ele>1025.78</ele>
        <time>2015-05-16T09:26:11Z</time>
      </trkpt>
      <trkpt lat="45.68719" lon="2.96479">
        <ele>1029.41</ele>
        <time>2015-05-16T09:26:31Z</time>
      </trkpt>
      <trkpt lat="45.68736" lon="2.96469">
        <ele>1030.31</ele>
        <time>2015-05-16T09:30:30Z</time>
      </trkpt>
      <trkpt lat="45.68751" lon="2.9645">
        <ele>1032.27</ele>
        <time>2015-05-16T09:30:51Z</time>
      </trkpt>
      <trkpt lat="45.68759" lon="2.96427">
        <ele>1030.99</ele>
        <time>2015-05-16T09:31:11Z</time>
      </trkpt>
      <trkpt lat="45.68766" lon="2.96402">
        <ele>1030.28</ele>
        <time>2015-05-16T09:31:29Z</time>
      </trkpt>
      <trkpt lat="45.68769" lon="2.96376">
        <ele>1023.45</ele>
        <time>2015-05-16T09:31:48Z</time>
      </trkpt>
      <trkpt lat="45.68776" lon="2.96352">
        <ele>1024.51</ele>
        <time>2015-05-16T09:32:07Z</time>
      </trkpt>
      <trkpt lat="45.68783" lon="2.96328">
        <ele>1027.11</ele>
        <time>2015-05-16T09:32:18Z</time>
      </trkpt>
      <trkpt lat="45.6879" lon="2.96304">
        <ele>1023.76</ele>
        <time>2015-05-16T09:32:45Z</time>
      </trkpt>
      <trkpt lat="45.68798" lon="2.96279">
        <ele>1026.87</ele>
        <time>2015-05-16T09:34:00Z</time>
      </trkpt>
      <trkpt lat="45.68802" lon="2.96252">
        <ele>1032.48</ele>
        <time>2015-05-16T09:34:17Z</time>
      </trkpt>
      <trkpt lat="45.68808" lon="2.96228">
        <ele>1026.84</ele>
        <time>2015-05-16T09:34:38Z</time>
      </trkpt>
      <trkpt lat="45.68805" lon="2.962">
        <ele>1028.19</ele>
        <time>2015-05-16T09:34:52Z</time>
      </trkpt>
      <trkpt lat="45.68805" lon="2.96174">
        <ele>1025.07</ele>
        <time>2015-05-16T09:35:16Z</time>
      </trkpt>
      <trkpt lat="45.68819" lon="2.96156">
        <ele>1025.71</ele>
        <time>2015-05-16T09:35:31Z</time>
      </trkpt>
      <trkpt lat="45.68827" lon="2.96132">
        <ele>1021.56</ele>
        <time>2015-05-16T09:35:49Z</time>
      </trkpt>
      <trkpt lat="45.68837" lon="2.9611">
        <ele>1024.14</ele>
        <time>2015-05-16T09:36:01Z</time>
      </trkpt>
      <trkpt lat="45.68848" lon="2.9609">
        <ele>1030.94</ele>
        <time>2015-05-16T09:36:15Z</time>
      </trkpt>
      <trkpt lat="45.68845" lon="2.96064">
        <ele>1014.89</ele>
        <time>2015-05-16T09:36:31Z</time>
      </trkpt>
      <trkpt lat="45.68844" lon="2.96038">
        <ele>1013.08</ele>
        <time>2015-05-16T09:36:47Z</time>
      </trkpt>
      <trkpt lat="45.68838" lon="2.96012">
        <ele>1013.92</ele>
        <time>2015-05-16T09:36:59Z</time>
      </trkpt>
      <trkpt lat="45.68836" lon="2.95985">
        <ele>1014.07</ele>
        <time>2015-05-16T09:37:15Z</time>
      </trkpt>
      <trkpt lat="45.68823" lon="2.95964">
        <ele>1008.41</ele>
        <time>2015-05-16T09:37:29Z</time>
      </trkpt>
      <trkpt lat="45.68811" lon="2.95941">
        <ele>1003.01</ele>
        <time>2015-05-16T09:37:52Z</time>
      </trkpt>
      <trkpt lat="45.68796" lon="2.95923">
        <ele>1001.03</ele>
        <time>2015-05-16T09:38:12Z</time>
      </trkpt>
      <trkpt lat="45.68782" lon="2.95905">
        <ele>1001.5</ele>
        <time>2015-05-16T09:38:27Z</time>
      </trkpt>
      <trkpt lat="45.68767" lon="2.95889">
        <ele>1002.4</ele>
        <time>2015-05-16T09:38:37Z</time>
      </trkpt>
      <trkpt lat="45.68751" lon="2.95875">
        <ele>997.07</ele>
        <time>2015-05-16T09:38:53Z</time>
      </trkpt>
      <trkpt lat="45.68734" lon="2.95865">
        <ele>993.83</ele>
        <time>2015-05-16T09:39:09Z</time>
      </trkpt>
      <trkpt lat="45.68717" lon="2.95855">
        <ele>994.52</ele>
        <time>2015-05-16T09:39:22Z</time>
      </trkpt>
      <trkpt lat="45.68699" lon="2.95844">
        <ele>994.67</ele>
        <time>2015-05-16T09:39:35Z</time>
      </trkpt>
      <trkpt lat="45.68682" lon="2.95831">
        <ele>997.3</ele>
        <time>2015-05-16T09:39:49Z</time>
      </trkpt>
      <trkpt lat="45.68664" lon="2.95827">
        <ele>994.38</ele>
        <time>2015-05-16T09:40:16Z</time>
      </trkpt>
      <trkpt lat="45.68648" lon="2.95812">
        <ele>995.33</ele>
        <time>2015-05-16T09:40:30Z</time>
      </trkpt>
      <trkpt lat="45.68639" lon="2.95789">
        <ele>993.53</ele>
        <time>2015-05-16T09:40:45Z</time>
      </trkpt>
      <trkpt lat="45.68632" lon="2.95764">
        <ele>992.07</ele>
        <time>2015-05-16T09:41:02Z</time>
      </trkpt>
      <trkpt lat="45.68622" lon="2.95741">
        <ele>984.26</ele>
        <time>2015-05-16T09:41:25Z</time>
      </trkpt>
      <trkpt lat="45.68616" lon="2.95716">
        <ele>983.38</ele>
        <time>2015-05-16T09:41:47Z</time>
      </trkpt>
      <trkpt lat="45.68608" lon="2.95692">
        <ele>982.49</ele>
        <time>2015-05-16T09:42:03Z</time>
      </trkpt>
      <trkpt lat="45.68597" lon="2.9567">
        <ele>978.79</ele>
        <time>2015-05-16T09:42:22Z</time>
      </trkpt>
      <trkpt lat="45.68591" lon="2.95644">
        <ele>979.37</ele>
        <time>2015-05-16T09:42:39Z</time>
      </trkpt>
      <trkpt lat="45.68586" lon="2.95619">
        <ele>977.3</ele>
        <time>2015-05-16T09:42:56Z</time>
      </trkpt>
      <trkpt lat="45.68584" lon="2.95592">
        <ele>970.49</ele>
        <time>2015-05-16T09:43:10Z</time>
      </trkpt>
      <trkpt lat="45.68579" lon="2.95565">
        <ele>964.82</ele>
        <time>2015-05-16T09:43:26Z</time>
      </trkpt>
      <trkpt lat="45.68572" lon="2.95541">
        <ele>965.55</ele>
        <time>2015-05-16T09:43:42Z</time>
      </trkpt>
      <trkpt lat="45.68558" lon="2.95524">
        <ele>952.22</ele>
        <time>2015-05-16T09:44:13Z</time>
      </trkpt>
      <trkpt lat="45.68542" lon="2.9551">
        <ele>952.02</ele>
        <time>2015-05-16T09:44:31Z</time>
      </trkpt>
      <trkpt lat="45.68524" lon="2.955">
        <ele>957.65</ele>
        <time>2015-05-16T09:44:47Z</time>
      </trkpt>
      <trkpt lat="45.68517" lon="2.95475">
        <ele>958.63</ele>
        <time>2015-05-16T09:45:12Z</time>
      </trkpt>
      <trkpt lat="45.68525" lon="2.9545">
        <ele>959.09</ele>
        <time>2015-05-16T09:45:32Z</time>
      </trkpt>
      <trkpt lat="45.68542" lon="2.95437">
        <ele>958.79</ele>
        <time>2015-05-16T09:45:47Z</time>
      </trkpt>
      <trkpt lat="45.68555" lon="2.95418">
        <ele>960.97</ele>
        <time>2015-05-16T09:46:00Z</time>
      </trkpt>
      <trkpt lat="45.68568" lon="2.954">
        <ele>959.64</ele>
        <time>2015-05-16T09:46:15Z</time>
      </trkpt>
      <trkpt lat="45.68586" lon="2.95395">
        <ele>958.52</ele>
        <time>2015-05-16T09:46:30Z</time>
      </trkpt>
      <trkpt lat="45.68599" lon="2.95414">
        <ele>953.8</ele>
        <time>2015-05-16T09:46:43Z</time>
      </trkpt>
      <trkpt lat="45.68616" lon="2.95427">
        <ele>950.66</ele>
        <time>2015-05-16T09:46:58Z</time>
      </trkpt>
      <trkpt lat="45.68634" lon="2.95437">
        <ele>949.6</ele>
        <time>2015-05-16T09:47:12Z</time>
      </trkpt>
      <trkpt lat="45.68651" lon="2.95429">
        <ele>944.36</ele>
        <time>2015-05-16T09:47:41Z</time>
      </trkpt>
      <trkpt lat="45.68653" lon="2.95403">
        <ele>945.31</ele>
        <time>2015-05-16T09:47:56Z</time>
      </trkpt>
      <trkpt lat="45.68656" lon="2.95377">
        <ele>943.79</ele>
        <time>2015-05-16T09:48:13Z</time>
      </trkpt>
      <trkpt lat="45.68656" lon="2.9535">
        <ele>945.33</ele>
        <time>2015-05-16T09:48:27Z</time>
      </trkpt>
      <trkpt lat="45.6866" lon="2.95323">
        <ele>945.53</ele>
        <time>2015-05-16T09:48:43Z</time>
      </trkpt>
      <trkpt lat="45.68661" lon="2.95297">
        <ele>945.97</ele>
        <time>2015-05-16T09:48:57Z</time>
      </trkpt>
      <trkpt lat="45.68663" lon="2.9527">
        <ele>942.26</ele>
        <time>2015-05-16T09:49:14Z</time>
      </trkpt>
      <trkpt lat="45.68665" lon="2.95244">
        <ele>938.24</ele>
        <time>2015-05-16T09:49:32Z</time>
      </trkpt>
      <trkpt lat="45.6867" lon="2.95217">
        <ele>943.22</ele>
        <time>2015-05-16T09:49:47Z</time>
      </trkpt>
      <trkpt lat="45.68681" lon="2.95194">
        <ele>953.21</ele>
        <time>2015-05-16T09:50:04Z</time>
      </trkpt>
      <trkpt lat="45.68695" lon="2.95176">
        <ele>954.51</ele>
        <time>2015-05-16T09:50:19Z</time>
      </trkpt>
      <trkpt lat="45.68711" lon="2.95161">
        <ele>952.52</ele>
        <time>2015-05-16T09:50:38Z</time>
      </trkpt>
      <trkpt lat="45.68726" lon="2.95145">
        <ele>956.35</ele>
        <time>2015-05-16T09:50:51Z</time>
      </trkpt>
      <trkpt lat="45.68744" lon="2.95144">
        <ele>957.56</ele>
        <time>2015-05-16T09:51:07Z</time>
      </trkpt>
      <trkpt lat="45.68762" lon="2.95135">
        <ele>956.51</ele>
        <time>2015-05-16T09:51:38Z</time>
      </trkpt>
      <trkpt lat="45.6878" lon="2.95124">
        <ele>954.39</ele>
        <time>2015-05-16T09:51:55Z</time>
      </trkpt>
      <trkpt lat="45.68799" lon="2.95122">
        <ele>953.01</ele>
        <time>2015-05-16T09:52:11Z</time>
      </trkpt>
      <trkpt lat="45.68818" lon="2.9512">
        <ele>956.02</ele>
        <time>2015-05-16T09:52:24Z</time>
      </trkpt>
      <trkpt lat="45.68836" lon="2.95116">
        <ele>960.84</ele>
        <time>2015-05-16T09:52:40Z</time>
      </trkpt>
      <trkpt lat="45.68855" lon="2.95118">
        <ele>960.79</ele>
        <time>2015-05-16T09:53:03Z</time>
      </trkpt>
      <trkpt lat="45.68874" lon="2.95121">
        <ele>958.03</ele>
        <time>2015-05-16T09:53:19Z</time>
      </trkpt>
      <trkpt lat="45.68892" lon="2.95117">
        <ele>957.76</ele>
        <time>2015-05-16T09:53:35Z</time>
      </trkpt>
      <trkpt lat="45.68911" lon="2.95109">
        <ele>959.13</ele>
        <time>2015-05-16T09:53:57Z</time>
      </trkpt>
      <trkpt lat="45.68929" lon="2.95105">
        <ele>958.98</ele>
        <time>2015-05-16T09:54:13Z</time>
      </trkpt>
      <trkpt lat="45.68948" lon="2.95104">
        <ele>959.86</ele>
        <time>2015-05-16T09:54:25Z</time>
      </trkpt>
      <trkpt lat="45.68965" lon="2.95111">
        <ele>959.21</ele>
        <time>2015-05-16T09:56:36Z</time>
      </trkpt>
      <trkpt lat="45.68983" lon="2.95117">
        <ele>957.01</ele>
        <time>2015-05-16T09:56:56Z</time>
      </trkpt>
      <trkpt lat="45.69" lon="2.95131">
        <ele>954.04</ele>
        <time>2015-05-16T09:57:13Z</time>
      </trkpt>
      <trkpt lat="45.69017" lon="2.95136">
        <ele>951.57</ele>
        <time>2015-05-16T09:57:39Z</time>
      </trkpt>
      <trkpt lat="45.69032" lon="2.9512">
        <ele>950.39</ele>
        <time>2015-05-16T09:58:40Z</time>
      </trkpt>
      <trkpt lat="45.69048" lon="2.95107">
        <ele>952.73</ele>
        <time>2015-05-16T09:58:57Z</time>
      </trkpt>
      <trkpt lat="45.69066" lon="2.95104">
        <ele>954.07</ele>
        <time>2015-05-16T09:59:13Z</time>
      </trkpt>
      <trkpt lat="45.69083" lon="2.95111">
        <ele>952.57</ele>
        <time>2015-05-16T09:59:28Z</time>
      </trkpt>
      <trkpt lat="45.69101" lon="2.95111">
        <ele>954.38</ele>
        <time>2015-05-16T09:59:43Z</time>
      </trkpt>
      <trkpt lat="45.6912" lon="2.95109">
        <ele>954.76</ele>
        <time>2015-05-16T09:59:58Z</time>
      </trkpt>
      <trkpt lat="45.69138" lon="2.95109">
        <ele>957.24</ele>
        <time>2015-05-16T10:00:18Z</time>
      </trkpt>
      <trkpt lat="45.69158" lon="2.9511">
        <ele>956.54</ele>
        <time>2015-05-16T10:00:31Z</time>
      </trkpt>
      <trkpt lat="45.69176" lon="2.95108">
        <ele>956.94</ele>
        <time>2015-05-16T10:00:46Z</time>
      </trkpt>
      <trkpt lat="45.69194" lon="2.9511">
        <ele>958.42</ele>
        <time>2015-05-16T10:01:02Z</time>
      </trkpt>
      <trkpt lat="45.69214" lon="2.95112">
        <ele>956.47</ele>
        <time>2015-05-16T10:01:18Z</time>
      </trkpt>
      <trkpt lat="45.69232" lon="2.95114">
        <ele>957.22</ele>
        <time>2015-05-16T10:01:36Z</time>
      </trkpt>
      <trkpt lat="45.69251" lon="2.95115">
        <ele>960.52</ele>
        <time>2015-05-16T10:01:53Z</time>
      </trkpt>
      <trkpt lat="45.69269" lon="2.95115">
        <ele>960.21</ele>
        <time>2015-05-16T10:02:10Z</time>
      </trkpt>
      <trkpt lat="45.69287" lon="2.95118">
        <ele>961</ele>
        <time>2015-05-16T10:02:25Z</time>
      </trkpt>
      <trkpt lat="45.69306" lon="2.95119">
        <ele>964.48</ele>
        <time>2015-05-16T10:02:44Z</time>
      </trkpt>
      <trkpt lat="45.69324" lon="2.95113">
        <ele>963.01</ele>
        <time>2015-05-16T10:03:00Z</time>
      </trkpt>
      <trkpt lat="45.69343" lon="2.9511">
        <ele>962.51</ele>
        <time>2015-05-16T10:03:17Z</time>
      </trkpt>
      <trkpt lat="45.69359" lon="2.95123">
        <ele>963.51</ele>
        <time>2015-05-16T10:03:37Z</time>
      </trkpt>
      <trkpt lat="45.69374" lon="2.95109">
        <ele>967.5</ele>
        <time>2015-05-16T10:04:00Z</time>
      </trkpt>
      <trkpt lat="45.69392" lon="2.95113">
        <ele>961.68</ele>
        <time>2015-05-16T10:04:15Z</time>
      </trkpt>
      <trkpt lat="45.6941" lon="2.95104">
        <ele>970.1</ele>
        <time>2015-05-16T10:05:36Z</time>
      </trkpt>
      <trkpt lat="45.69411" lon="2.95101">
        <ele>967.51</ele>
        <time>2015-05-16T10:06:46Z</time>
      </trkpt>
      <trkpt lat="45.69418" lon="2.95089">
        <ele>962.51</ele>
        <time>2015-05-16T10:08:53Z</time>
      </trkpt>
      <trkpt lat="45.69418" lon="2.95089">
        <ele>962.51</ele>
        <time>2015-05-16T10:09:37Z</time>
      </trkpt>
      <trkpt lat="45.69405" lon="2.95071">
        <ele>967.7</ele>
        <time>2015-05-16T10:13:17Z</time>
      </trkpt>
      <trkpt lat="45.69417" lon="2.9509">
        <ele>967.48</ele>
        <time>2015-05-16T10:24:55Z</time>
      </trkpt>
      <trkpt lat="45.69398" lon="2.9509">
        <ele>969.25</ele>
        <time>2015-05-16T10:25:16Z</time>
      </trkpt>
      <trkpt lat="45.6938" lon="2.95088">
        <ele>966.97</ele>
        <time>2015-05-16T10:25:34Z</time>
      </trkpt>
      <trkpt lat="45.69361" lon="2.95082">
        <ele>970.38</ele>
        <time>2015-05-16T10:25:51Z</time>
      </trkpt>
      <trkpt lat="45.69343" lon="2.95077">
        <ele>969.02</ele>
        <time>2015-05-16T10:26:11Z</time>
      </trkpt>
      <trkpt lat="45.69324" lon="2.95076">
        <ele>967.51</ele>
        <time>2015-05-16T10:26:28Z</time>
      </trkpt>
      <trkpt lat="45.69319" lon="2.95073">
        <ele>963.51</ele>
        <time>2015-05-16T10:49:02Z</time>
      </trkpt>
      <trkpt lat="45.69325" lon="2.95097">
        <ele>963.35</ele>
        <time>2015-05-16T10:52:45Z</time>
      </trkpt>
      <trkpt lat="45.69316" lon="2.95121">
        <ele>964.95</ele>
        <time>2015-05-16T10:53:36Z</time>
      </trkpt>
      <trkpt lat="45.69327" lon="2.95143">
        <ele>961.53</ele>
        <time>2015-05-16T10:53:56Z</time>
      </trkpt>
      <trkpt lat="45.69337" lon="2.95166">
        <ele>958.2</ele>
        <time>2015-05-16T10:54:09Z</time>
      </trkpt>
      <trkpt lat="45.69351" lon="2.95183">
        <ele>955.68</ele>
        <time>2015-05-16T10:54:25Z</time>
      </trkpt>
      <trkpt lat="45.69365" lon="2.952">
        <ele>956.98</ele>
        <time>2015-05-16T10:54:43Z</time>
      </trkpt>
      <trkpt lat="45.69378" lon="2.95219">
        <ele>953.18</ele>
        <time>2015-05-16T10:55:00Z</time>
      </trkpt>
      <trkpt lat="45.69395" lon="2.95229">
        <ele>958.79</ele>
        <time>2015-05-16T10:55:37Z</time>
      </trkpt>
      <trkpt lat="45.69407" lon="2.95248">
        <ele>969.22</ele>
        <time>2015-05-16T10:56:06Z</time>
      </trkpt>
      <trkpt lat="45.6942" lon="2.95268">
        <ele>966.84</ele>
        <time>2015-05-16T10:56:25Z</time>
      </trkpt>
      <trkpt lat="45.69432" lon="2.95288">
        <ele>966.33</ele>
        <time>2015-05-16T10:56:38Z</time>
      </trkpt>
      <trkpt lat="45.69446" lon="2.95306">
        <ele>964.65</ele>
        <time>2015-05-16T10:56:54Z</time>
      </trkpt>
      <trkpt lat="45.69461" lon="2.95321">
        <ele>963.96</ele>
        <time>2015-05-16T10:57:12Z</time>
      </trkpt>
      <trkpt lat="45.69479" lon="2.95326">
        <ele>968.33</ele>
        <time>2015-05-16T10:57:42Z</time>
      </trkpt>
      <trkpt lat="45.69491" lon="2.95306">
        <ele>970.04</ele>
        <time>2015-05-16T10:58:02Z</time>
      </trkpt>
      <trkpt lat="45.69502" lon="2.95286">
        <ele>969.98</ele>
        <time>2015-05-16T10:58:21Z</time>
      </trkpt>
      <trkpt lat="45.69511" lon="2.95262">
        <ele>971.75</ele>
        <time>2015-05-16T10:58:37Z</time>
      </trkpt>
      <trkpt lat="45.6952" lon="2.95239">
        <ele>972.1</ele>
        <time>2015-05-16T10:58:54Z</time>
      </trkpt>
      <trkpt lat="45.6953" lon="2.95216">
        <ele>975.91</ele>
        <time>2015-05-16T10:59:10Z</time>
      </trkpt>
      <trkpt lat="45.69537" lon="2.95191">
        <ele>977.49</ele>
        <time>2015-05-16T10:59:27Z</time>
      </trkpt>
      <trkpt lat="45.69546" lon="2.95168">
        <ele>978.49</ele>
        <time>2015-05-16T10:59:46Z</time>
      </trkpt>
      <trkpt lat="45.69559" lon="2.9515">
        <ele>977.01</ele>
        <time>2015-05-16T11:00:06Z</time>
      </trkpt>
      <trkpt lat="45.69571" lon="2.9513">
        <ele>976.51</ele>
        <time>2015-05-16T11:00:35Z</time>
      </trkpt>
      <trkpt lat="45.69586" lon="2.95113">
        <ele>981.02</ele>
        <time>2015-05-16T11:00:59Z</time>
      </trkpt>
      <trkpt lat="45.69595" lon="2.9509">
        <ele>978.72</ele>
        <time>2015-05-16T11:01:17Z</time>
      </trkpt>
      <trkpt lat="45.696" lon="2.95066">
        <ele>978.05</ele>
        <time>2015-05-16T11:01:34Z</time>
      </trkpt>
      <trkpt lat="45.6961" lon="2.95043">
        <ele>978.29</ele>
        <time>2015-05-16T11:01:55Z</time>
      </trkpt>
      <trkpt lat="45.69619" lon="2.95021">
        <ele>980.26</ele>
        <time>2015-05-16T11:02:16Z</time>
      </trkpt>
      <trkpt lat="45.69628" lon="2.94998">
        <ele>985.12</ele>
        <time>2015-05-16T11:02:35Z</time>
      </trkpt>
      <trkpt lat="45.6964" lon="2.94977">
        <ele>984.41</ele>
        <time>2015-05-16T11:02:49Z</time>
      </trkpt>
      <trkpt lat="45.69651" lon="2.94955">
        <ele>984.87</ele>
        <time>2015-05-16T11:03:02Z</time>
      </trkpt>
      <trkpt lat="45.69661" lon="2.94933">
        <ele>988.23</ele>
        <time>2015-05-16T11:03:17Z</time>
      </trkpt>
      <trkpt lat="45.69669" lon="2.94908">
        <ele>987.11</ele>
        <time>2015-05-16T11:03:31Z</time>
      </trkpt>
      <trkpt lat="45.69679" lon="2.94886">
        <ele>985.89</ele>
        <time>2015-05-16T11:03:46Z</time>
      </trkpt>
      <trkpt lat="45.69691" lon="2.94866">
        <ele>988.74</ele>
        <time>2015-05-16T11:04:01Z</time>
      </trkpt>
      <trkpt lat="45.697" lon="2.94843">
        <ele>990.02</ele>
        <time>2015-05-16T11:04:15Z</time>
      </trkpt>
      <trkpt lat="45.69716" lon="2.94827">
        <ele>989.55</ele>
        <time>2015-05-16T11:04:35Z</time>
      </trkpt>
      <trkpt lat="45.69722" lon="2.94801">
        <ele>981.49</ele>
        <time>2015-05-16T11:04:52Z</time>
      </trkpt>
      <trkpt lat="45.69733" lon="2.94779">
        <ele>980.7</ele>
        <time>2015-05-16T11:05:11Z</time>
      </trkpt>
      <trkpt lat="45.69745" lon="2.94759">
        <ele>986.52</ele>
        <time>2015-05-16T11:05:22Z</time>
      </trkpt>
      <trkpt lat="45.69759" lon="2.9474">
        <ele>992.86</ele>
        <time>2015-05-16T11:05:38Z</time>
      </trkpt>
      <trkpt lat="45.69774" lon="2.94757">
        <ele>993.08</ele>
        <time>2015-05-16T11:05:57Z</time>
      </trkpt>
      <trkpt lat="45.69786" lon="2.94776">
        <ele>990.27</ele>
        <time>2015-05-16T11:06:14Z</time>
      </trkpt>
      <trkpt lat="45.69796" lon="2.94799">
        <ele>988.07</ele>
        <time>2015-05-16T11:06:30Z</time>
      </trkpt>
      <trkpt lat="45.69804" lon="2.94822">
        <ele>989.73</ele>
        <time>2015-05-16T11:06:44Z</time>
      </trkpt>
      <trkpt lat="45.69814" lon="2.94845">
        <ele>985.98</ele>
        <time>2015-05-16T11:07:02Z</time>
      </trkpt>
      <trkpt lat="45.69821" lon="2.9487">
        <ele>988.01</ele>
        <time>2015-05-16T11:07:13Z</time>
      </trkpt>
      <trkpt lat="45.69832" lon="2.94892">
        <ele>990.62</ele>
        <time>2015-05-16T11:07:32Z</time>
      </trkpt>
      <trkpt lat="45.69842" lon="2.94916">
        <ele>991.3</ele>
        <time>2015-05-16T11:07:47Z</time>
      </trkpt>
      <trkpt lat="45.69851" lon="2.94938">
        <ele>991.64</ele>
        <time>2015-05-16T11:08:01Z</time>
      </trkpt>
      <trkpt lat="45.69863" lon="2.94958">
        <ele>984.4</ele>
        <time>2015-05-16T11:08:19Z</time>
      </trkpt>
      <trkpt lat="45.69874" lon="2.9498">
        <ele>980.15</ele>
        <time>2015-05-16T11:08:37Z</time>
      </trkpt>
      <trkpt lat="45.69879" lon="2.95007">
        <ele>984.41</ele>
        <time>2015-05-16T11:08:47Z</time>
      </trkpt>
      <trkpt lat="45.6989" lon="2.9503">
        <ele>984.3</ele>
        <time>2015-05-16T11:09:03Z</time>
      </trkpt>
      <trkpt lat="45.699" lon="2.95052">
        <ele>980.86</ele>
        <time>2015-05-16T11:09:22Z</time>
      </trkpt>
      <trkpt lat="45.69908" lon="2.95075">
        <ele>975.74</ele>
        <time>2015-05-16T11:09:37Z</time>
      </trkpt>
      <trkpt lat="45.69916" lon="2.95099">
        <ele>972.05</ele>
        <time>2015-05-16T11:09:53Z</time>
      </trkpt>
      <trkpt lat="45.69927" lon="2.9512">
        <ele>958.49</ele>
        <time>2015-05-16T11:10:14Z</time>
      </trkpt>
      <trkpt lat="45.69929" lon="2.95146">
        <ele>959.79</ele>
        <time>2015-05-16T11:10:29Z</time>
      </trkpt>
      <trkpt lat="45.69926" lon="2.95172">
        <ele>959.19</ele>
        <time>2015-05-16T11:10:39Z</time>
      </trkpt>
      <trkpt lat="45.69922" lon="2.95197">
        <ele>962.52</ele>
        <time>2015-05-16T11:10:49Z</time>
      </trkpt>
      <trkpt lat="45.69926" lon="2.95225">
        <ele>969.26</ele>
        <time>2015-05-16T11:11:04Z</time>
      </trkpt>
      <trkpt lat="45.6993" lon="2.9525">
        <ele>973.17</ele>
        <time>2015-05-16T11:11:20Z</time>
      </trkpt>
      <trkpt lat="45.69936" lon="2.95275">
        <ele>978.44</ele>
        <time>2015-05-16T11:11:36Z</time>
      </trkpt>
      <trkpt lat="45.69942" lon="2.95299">
        <ele>972.59</ele>
        <time>2015-05-16T11:11:54Z</time>
      </trkpt>
      <trkpt lat="45.69946" lon="2.95326">
        <ele>977.63</ele>
        <time>2015-05-16T11:12:15Z</time>
      </trkpt>
      <trkpt lat="45.69952" lon="2.95351">
        <ele>986.94</ele>
        <time>2015-05-16T11:12:33Z</time>
      </trkpt>
      <trkpt lat="45.69956" lon="2.95377">
        <ele>993.27</ele>
        <time>2015-05-16T11:13:02Z</time>
      </trkpt>
      <trkpt lat="45.69964" lon="2.954">
        <ele>991.62</ele>
        <time>2015-05-16T11:13:27Z</time>
      </trkpt>
      <trkpt lat="45.69978" lon="2.95417">
        <ele>1002.12</ele>
        <time>2015-05-16T11:17:57Z</time>
      </trkpt>
      <trkpt lat="45.69994" lon="2.95432">
        <ele>998.93</ele>
        <time>2015-05-16T11:18:20Z</time>
      </trkpt>
      <trkpt lat="45.70004" lon="2.95453">
        <ele>992.74</ele>
        <time>2015-05-16T11:18:44Z</time>
      </trkpt>
      <trkpt lat="45.70002" lon="2.9548">
        <ele>994.88</ele>
        <time>2015-05-16T11:19:03Z</time>
      </trkpt>
      <trkpt lat="45.70002" lon="2.95507">
        <ele>997.73</ele>
        <time>2015-05-16T11:19:19Z</time>
      </trkpt>
      <trkpt lat="45.70004" lon="2.95532">
        <ele>993.64</ele>
        <time>2015-05-16T11:19:38Z</time>
      </trkpt>
      <trkpt lat="45.70008" lon="2.95559">
        <ele>990.34</ele>
        <time>2015-05-16T11:19:54Z</time>
      </trkpt>
      <trkpt lat="45.70002" lon="2.95585">
        <ele>980.76</ele>
        <time>2015-05-16T11:20:14Z</time>
      </trkpt>
      <trkpt lat="45.70003" lon="2.95612">
        <ele>976.24</ele>
        <time>2015-05-16T11:20:30Z</time>
      </trkpt>
      <trkpt lat="45.70004" lon="2.95638">
        <ele>982.1</ele>
        <time>2015-05-16T11:20:43Z</time>
      </trkpt>
      <trkpt lat="45.70012" lon="2.95663">
        <ele>985.79</ele>
        <time>2015-05-16T11:20:56Z</time>
      </trkpt>
      <trkpt lat="45.70024" lon="2.95683">
        <ele>987.83</ele>
        <time>2015-05-16T11:21:10Z</time>
      </trkpt>
      <trkpt lat="45.7004" lon="2.95696">
        <ele>981.29</ele>
        <time>2015-05-16T11:21:32Z</time>
      </trkpt>
      <trkpt lat="45.70057" lon="2.95703">
        <ele>984.49</ele>
        <time>2015-05-16T11:21:54Z</time>
      </trkpt>
      <trkpt lat="45.70077" lon="2.95701">
        <ele>977.2</ele>
        <time>2015-05-16T11:22:10Z</time>
      </trkpt>
      <trkpt lat="45.70096" lon="2.95706">
        <ele>971.35</ele>
        <time>2015-05-16T11:22:28Z</time>
      </trkpt>
      <trkpt lat="45.70113" lon="2.95714">
        <ele>982.21</ele>
        <time>2015-05-16T11:22:40Z</time>
      </trkpt>
      <trkpt lat="45.70132" lon="2.95721">
        <ele>985.67</ele>
        <time>2015-05-16T11:22:51Z</time>
      </trkpt>
      <trkpt lat="45.70148" lon="2.95733">
        <ele>985.74</ele>
        <time>2015-05-16T11:23:01Z</time>
      </trkpt>
      <trkpt lat="45.70161" lon="2.95752">
        <ele>976.15</ele>
        <time>2015-05-16T11:23:17Z</time>
      </trkpt>
      <trkpt lat="45.70174" lon="2.95772">
        <ele>978.05</ele>
        <time>2015-05-16T11:23:30Z</time>
      </trkpt>
      <trkpt lat="45.70183" lon="2.95794">
        <ele>980.43</ele>
        <time>2015-05-16T11:23:43Z</time>
      </trkpt>
      <trkpt lat="45.70193" lon="2.95816">
        <ele>976.73</ele>
        <time>2015-05-16T11:23:58Z</time>
      </trkpt>
      <trkpt lat="45.70201" lon="2.9584">
        <ele>978.69</ele>
        <time>2015-05-16T11:24:12Z</time>
      </trkpt>
      <trkpt lat="45.7021" lon="2.95864">
        <ele>980.02</ele>
        <time>2015-05-16T11:24:27Z</time>
      </trkpt>
      <trkpt lat="45.7022" lon="2.95886">
        <ele>978.17</ele>
        <time>2015-05-16T11:24:42Z</time>
      </trkpt>
      <trkpt lat="45.70225" lon="2.95912">
        <ele>982.58</ele>
        <time>2015-05-16T11:24:57Z</time>
      </trkpt>
      <trkpt lat="45.70227" lon="2.95938">
        <ele>987.73</ele>
        <time>2015-05-16T11:25:13Z</time>
      </trkpt>
      <trkpt lat="45.70228" lon="2.95965">
        <ele>989.03</ele>
        <time>2015-05-16T11:25:31Z</time>
      </trkpt>
      <trkpt lat="45.70222" lon="2.9599">
        <ele>989.27</ele>
        <time>2015-05-16T11:26:14Z</time>
      </trkpt>
      <trkpt lat="45.7021" lon="2.9601">
        <ele>992.58</ele>
        <time>2015-05-16T11:26:30Z</time>
      </trkpt>
      <trkpt lat="45.70197" lon="2.96029">
        <ele>985.55</ele>
        <time>2015-05-16T11:26:47Z</time>
      </trkpt>
      <trkpt lat="45.70184" lon="2.96049">
        <ele>988.53</ele>
        <time>2015-05-16T11:27:04Z</time>
      </trkpt>
      <trkpt lat="45.70175" lon="2.96071">
        <ele>983.64</ele>
        <time>2015-05-16T11:27:21Z</time>
      </trkpt>
      <trkpt lat="45.70164" lon="2.96092">
        <ele>980.45</ele>
        <time>2015-05-16T11:27:40Z</time>
      </trkpt>
      <trkpt lat="45.7015" lon="2.96111">
        <ele>978.38</ele>
        <time>2015-05-16T11:27:56Z</time>
      </trkpt>
      <trkpt lat="45.70137" lon="2.96128">
        <ele>983.81</ele>
        <time>2015-05-16T11:28:09Z</time>
      </trkpt>
      <trkpt lat="45.70127" lon="2.96154">
        <ele>997.75</ele>
        <time>2015-05-16T11:28:22Z</time>
      </trkpt>
      <trkpt lat="45.70113" lon="2.96173">
        <ele>995.07</ele>
        <time>2015-05-16T11:28:39Z</time>
      </trkpt>
      <trkpt lat="45.70108" lon="2.96198">
        <ele>992.27</ele>
        <time>2015-05-16T11:28:55Z</time>
      </trkpt>
      <trkpt lat="45.70096" lon="2.9622">
        <ele>995.35</ele>
        <time>2015-05-16T11:29:15Z</time>
      </trkpt>
      <trkpt lat="45.70088" lon="2.96245">
        <ele>991.79</ele>
        <time>2015-05-16T11:29:32Z</time>
      </trkpt>
      <trkpt lat="45.70078" lon="2.96268">
        <ele>989.62</ele>
        <time>2015-05-16T11:29:50Z</time>
      </trkpt>
      <trkpt lat="45.70073" lon="2.96294">
        <ele>994.42</ele>
        <time>2015-05-16T11:30:07Z</time>
      </trkpt>
      <trkpt lat="45.70066" lon="2.96318">
        <ele>996.27</ele>
        <time>2015-05-16T11:30:24Z</time>
      </trkpt>
      <trkpt lat="45.70083" lon="2.96329">
        <ele>1001.53</ele>
        <time>2015-05-16T11:30:57Z</time>
      </trkpt>
      <trkpt lat="45.70101" lon="2.96334">
        <ele>1007.24</ele>
        <time>2015-05-16T11:31:25Z</time>
      </trkpt>
      <trkpt lat="45.70118" lon="2.96324">
        <ele>1007.94</ele>
        <time>2015-05-16T11:31:47Z</time>
      </trkpt>
      <trkpt lat="45.70132" lon="2.96307">
        <ele>1006.76</ele>
        <time>2015-05-16T11:32:07Z</time>
      </trkpt>
      <trkpt lat="45.70148" lon="2.96322">
        <ele>1005.21</ele>
        <time>2015-05-16T11:34:20Z</time>
      </trkpt>
      <trkpt lat="45.7016" lon="2.96342">
        <ele>1005.51</ele>
        <time>2015-05-16T11:34:40Z</time>
      </trkpt>
      <trkpt lat="45.70176" lon="2.96356">
        <ele>1005.49</ele>
        <time>2015-05-16T11:35:01Z</time>
      </trkpt>
      <trkpt lat="45.70194" lon="2.96365">
        <ele>1005.93</ele>
        <time>2015-05-16T11:35:28Z</time>
      </trkpt>
      <trkpt lat="45.70211" lon="2.96374">
        <ele>1007.42</ele>
        <time>2015-05-16T11:35:47Z</time>
      </trkpt>
      <trkpt lat="45.70225" lon="2.96357">
        <ele>1005.28</ele>
        <time>2015-05-16T11:36:24Z</time>
      </trkpt>
      <trkpt lat="45.70234" lon="2.96334">
        <ele>995.16</ele>
        <time>2015-05-16T11:36:54Z</time>
      </trkpt>
      <trkpt lat="45.70235" lon="2.96306">
        <ele>999.81</ele>
        <time>2015-05-16T11:37:12Z</time>
      </trkpt>
      <trkpt lat="45.70229" lon="2.96281">
        <ele>1005.73</ele>
        <time>2015-05-16T11:37:28Z</time>
      </trkpt>
      <trkpt lat="45.70238" lon="2.96258">
        <ele>1018.63</ele>
        <time>2015-05-16T11:38:14Z</time>
      </trkpt>
      <trkpt lat="45.70243" lon="2.96231">
        <ele>1018.2</ele>
        <time>2015-05-16T11:38:42Z</time>
      </trkpt>
      <trkpt lat="45.70249" lon="2.96206">
        <ele>1025.27</ele>
        <time>2015-05-16T11:38:57Z</time>
      </trkpt>
      <trkpt lat="45.70249" lon="2.9618">
        <ele>1024.65</ele>
        <time>2015-05-16T11:39:19Z</time>
      </trkpt>
      <trkpt lat="45.70261" lon="2.9616">
        <ele>1038.91</ele>
        <time>2015-05-16T11:40:02Z</time>
      </trkpt>
      <trkpt lat="45.7028" lon="2.96162">
        <ele>1045.99</ele>
        <time>2015-05-16T11:40:38Z</time>
      </trkpt>
      <trkpt lat="45.70299" lon="2.96156">
        <ele>1055.5</ele>
        <time>2015-05-16T11:41:17Z</time>
      </trkpt>
      <trkpt lat="45.70316" lon="2.96148">
        <ele>1066.07</ele>
        <time>2015-05-16T11:41:52Z</time>
      </trkpt>
      <trkpt lat="45.70334" lon="2.96148">
        <ele>1070.24</ele>
        <time>2015-05-16T11:42:47Z</time>
      </trkpt>
      <trkpt lat="45.70351" lon="2.96156">
        <ele>1079.36</ele>
        <time>2015-05-16T11:43:34Z</time>
      </trkpt>
      <trkpt lat="45.70368" lon="2.96169">
        <ele>1085.33</ele>
        <time>2015-05-16T11:44:10Z</time>
      </trkpt>
      <trkpt lat="45.70365" lon="2.96195">
        <ele>1089.56</ele>
        <time>2015-05-16T11:45:21Z</time>
      </trkpt>
      <trkpt lat="45.70371" lon="2.96219">
        <ele>1087.89</ele>
        <time>2015-05-16T11:46:03Z</time>
      </trkpt>
      <trkpt lat="45.70385" lon="2.96237">
        <ele>1102.34</ele>
        <time>2015-05-16T11:46:44Z</time>
      </trkpt>
      <trkpt lat="45.70396" lon="2.96257">
        <ele>1109.12</ele>
        <time>2015-05-16T11:47:19Z</time>
      </trkpt>
      <trkpt lat="45.70411" lon="2.96273">
        <ele>1118.88</ele>
        <time>2015-05-16T11:47:57Z</time>
      </trkpt>
      <trkpt lat="45.70424" lon="2.96292">
        <ele>1133.3</ele>
        <time>2015-05-16T11:50:26Z</time>
      </trkpt>
      <trkpt lat="45.7044" lon="2.96304">
        <ele>1140.18</ele>
        <time>2015-05-16T11:51:00Z</time>
      </trkpt>
      <trkpt lat="45.70458" lon="2.96312">
        <ele>1146.62</ele>
        <time>2015-05-16T11:51:41Z</time>
      </trkpt>
      <trkpt lat="45.70472" lon="2.96327">
        <ele>1155</ele>
        <time>2015-05-16T11:52:16Z</time>
      </trkpt>
      <trkpt lat="45.70491" lon="2.96328">
        <ele>1159.64</ele>
        <time>2015-05-16T11:52:48Z</time>
      </trkpt>
      <trkpt lat="45.70509" lon="2.96329">
        <ele>1165.48</ele>
        <time>2015-05-16T11:53:53Z</time>
      </trkpt>
      <trkpt lat="45.70527" lon="2.96326">
        <ele>1166.26</ele>
        <time>2015-05-16T11:54:20Z</time>
      </trkpt>
      <trkpt lat="45.70545" lon="2.96317">
        <ele>1166.51</ele>
        <time>2015-05-16T11:57:08Z</time>
      </trkpt>
      <trkpt lat="45.70563" lon="2.96309">
        <ele>1166.51</ele>
        <time>2015-05-16T11:57:27Z</time>
      </trkpt>
      <trkpt lat="45.7058" lon="2.96302">
        <ele>1165.01</ele>
        <time>2015-05-16T11:57:46Z</time>
      </trkpt>
      <trkpt lat="45.70595" lon="2.96286">
        <ele>1164.07</ele>
        <time>2015-05-16T11:58:03Z</time>
      </trkpt>
      <trkpt lat="45.70612" lon="2.96273">
        <ele>1161.02</ele>
        <time>2015-05-16T11:58:21Z</time>
      </trkpt>
      <trkpt lat="45.70624" lon="2.96254">
        <ele>1159.52</ele>
        <time>2015-05-16T11:58:39Z</time>
      </trkpt>
      <trkpt lat="45.70638" lon="2.96237">
        <ele>1159.51</ele>
        <time>2015-05-16T11:58:55Z</time>
      </trkpt>
      <trkpt lat="45.70646" lon="2.96213">
        <ele>1156.7</ele>
        <time>2015-05-16T11:59:13Z</time>
      </trkpt>
      <trkpt lat="45.70656" lon="2.96192">
        <ele>1154.76</ele>
        <time>2015-05-16T11:59:36Z</time>
      </trkpt>
      <trkpt lat="45.70664" lon="2.96167">
        <ele>1150.89</ele>
        <time>2015-05-16T11:59:57Z</time>
      </trkpt>
      <trkpt lat="45.70668" lon="2.96141">
        <ele>1149.01</ele>
        <time>2015-05-16T12:00:15Z</time>
      </trkpt>
      <trkpt lat="45.70669" lon="2.96114">
        <ele>1144.78</ele>
        <time>2015-05-16T12:00:35Z</time>
      </trkpt>
      <trkpt lat="45.70667" lon="2.96088">
        <ele>1139.67</ele>
        <time>2015-05-16T12:01:01Z</time>
      </trkpt>
      <trkpt lat="45.70683" lon="2.96076">
        <ele>1133.55</ele>
        <time>2015-05-16T12:04:22Z</time>
      </trkpt>
      <trkpt lat="45.70694" lon="2.96055">
        <ele>1126.64</ele>
        <time>2015-05-16T12:04:56Z</time>
      </trkpt>
      <trkpt lat="45.70706" lon="2.96034">
        <ele>1122.56</ele>
        <time>2015-05-16T12:06:10Z</time>
      </trkpt>
      <trkpt lat="45.70723" lon="2.96025">
        <ele>1115.51</ele>
        <time>2015-05-16T12:06:34Z</time>
      </trkpt>
      <trkpt lat="45.70738" lon="2.9601">
        <ele>1108.59</ele>
        <time>2015-05-16T12:06:50Z</time>
      </trkpt>
      <trkpt lat="45.70743" lon="2.95984">
        <ele>1107.84</ele>
        <time>2015-05-16T12:07:09Z</time>
      </trkpt>
      <trkpt lat="45.70756" lon="2.95965">
        <ele>1097.18</ele>
        <time>2015-05-16T12:07:43Z</time>
      </trkpt>
      <trkpt lat="45.70768" lon="2.95944">
        <ele>1093.11</ele>
        <time>2015-05-16T12:08:05Z</time>
      </trkpt>
      <trkpt lat="45.70784" lon="2.95926">
        <ele>1089.62</ele>
        <time>2015-05-16T12:08:24Z</time>
      </trkpt>
      <trkpt lat="45.70799" lon="2.95911">
        <ele>1093.02</ele>
        <time>2015-05-16T12:09:29Z</time>
      </trkpt>
      <trkpt lat="45.70801" lon="2.95885">
        <ele>1099.49</ele>
        <time>2015-05-16T12:10:23Z</time>
      </trkpt>
      <trkpt lat="45.70816" lon="2.95899">
        <ele>1105.22</ele>
        <time>2015-05-16T12:10:55Z</time>
      </trkpt>
      <trkpt lat="45.70834" lon="2.95903">
        <ele>1106.27</ele>
        <time>2015-05-16T12:11:28Z</time>
      </trkpt>
      <trkpt lat="45.7085" lon="2.95916">
        <ele>1113.19</ele>
        <time>2015-05-16T12:12:09Z</time>
      </trkpt>
      <trkpt lat="45.7086" lon="2.95938">
        <ele>1124.04</ele>
        <time>2015-05-16T12:12:38Z</time>
      </trkpt>
      <trkpt lat="45.70878" lon="2.95943">
        <ele>1121.08</ele>
        <time>2015-05-16T12:13:05Z</time>
      </trkpt>
      <trkpt lat="45.70895" lon="2.95956">
        <ele>1129.01</ele>
        <time>2015-05-16T12:13:47Z</time>
      </trkpt>
      <trkpt lat="45.70912" lon="2.95968">
        <ele>1132.07</ele>
        <time>2015-05-16T12:14:13Z</time>
      </trkpt>
      <trkpt lat="45.7093" lon="2.95971">
        <ele>1131.95</ele>
        <time>2015-05-16T12:14:30Z</time>
      </trkpt>
      <trkpt lat="45.70948" lon="2.95969">
        <ele>1135.51</ele>
        <time>2015-05-16T12:14:56Z</time>
      </trkpt>
      <trkpt lat="45.70966" lon="2.95963">
        <ele>1142.51</ele>
        <time>2015-05-16T12:15:30Z</time>
      </trkpt>
      <trkpt lat="45.70984" lon="2.95955">
        <ele>1149.87</ele>
        <time>2015-05-16T12:16:06Z</time>
      </trkpt>
      <trkpt lat="45.71001" lon="2.95947">
        <ele>1157.44</ele>
        <time>2015-05-16T12:16:38Z</time>
      </trkpt>
      <trkpt lat="45.71019" lon="2.95937">
        <ele>1159.39</ele>
        <time>2015-05-16T12:17:08Z</time>
      </trkpt>
      <trkpt lat="45.71035" lon="2.95926">
        <ele>1160.54</ele>
        <time>2015-05-16T12:17:36Z</time>
      </trkpt>
      <trkpt lat="45.7105" lon="2.95911">
        <ele>1165.49</ele>
        <time>2015-05-16T12:18:09Z</time>
      </trkpt>
      <trkpt lat="45.71061" lon="2.9589">
        <ele>1169.45</ele>
        <time>2015-05-16T12:18:48Z</time>
      </trkpt>
      <trkpt lat="45.71075" lon="2.95871">
        <ele>1173.81</ele>
        <time>2015-05-16T12:19:17Z</time>
      </trkpt>
      <trkpt lat="45.71089" lon="2.95855">
        <ele>1176.17</ele>
        <time>2015-05-16T12:19:51Z</time>
      </trkpt>
      <trkpt lat="45.71098" lon="2.95833">
        <ele>1180.26</ele>
        <time>2015-05-16T12:20:35Z</time>
      </trkpt>
      <trkpt lat="45.71081" lon="2.95826">
        <ele>1188.51</ele>
        <time>2015-05-16T12:23:26Z</time>
      </trkpt>
      <trkpt lat="45.71064" lon="2.95839">
        <ele>1187.51</ele>
        <time>2015-05-16T12:23:48Z</time>
      </trkpt>
      <trkpt lat="45.71048" lon="2.9585">
        <ele>1188.35</ele>
        <time>2015-05-16T12:24:09Z</time>
      </trkpt>
      <trkpt lat="45.7103" lon="2.95857">
        <ele>1190.01</ele>
        <time>2015-05-16T12:24:40Z</time>
      </trkpt>
      <trkpt lat="45.71011" lon="2.9586">
        <ele>1190.51</ele>
        <time>2015-05-16T12:25:21Z</time>
      </trkpt>
      <trkpt lat="45.70993" lon="2.95857">
        <ele>1189.51</ele>
        <time>2015-05-16T12:25:46Z</time>
      </trkpt>
      <trkpt lat="45.71011" lon="2.9586">
        <ele>1190.48</ele>
        <time>2015-05-16T12:30:06Z</time>
      </trkpt>
      <trkpt lat="45.71029" lon="2.95858">
        <ele>1189.51</ele>
        <time>2015-05-16T12:30:26Z</time>
      </trkpt>
      <trkpt lat="45.71047" lon="2.9585">
        <ele>1189.49</ele>
        <time>2015-05-16T12:30:45Z</time>
      </trkpt>
      <trkpt lat="45.71065" lon="2.95841">
        <ele>1186.58</ele>
        <time>2015-05-16T12:31:09Z</time>
      </trkpt>
      <trkpt lat="45.7108" lon="2.95827">
        <ele>1185.76</ele>
        <time>2015-05-16T12:31:24Z</time>
      </trkpt>
      <trkpt lat="45.71095" lon="2.95812">
        <ele>1185.51</ele>
        <time>2015-05-16T12:31:42Z</time>
      </trkpt>
      <trkpt lat="45.71108" lon="2.95792">
        <ele>1185.51</ele>
        <time>2015-05-16T12:32:00Z</time>
      </trkpt>
      <trkpt lat="45.71119" lon="2.95772">
        <ele>1184.51</ele>
        <time>2015-05-16T12:32:17Z</time>
      </trkpt>
      <trkpt lat="45.71129" lon="2.95747">
        <ele>1186.01</ele>
        <time>2015-05-16T12:32:32Z</time>
      </trkpt>
      <trkpt lat="45.71136" lon="2.95723">
        <ele>1185.51</ele>
        <time>2015-05-16T12:32:48Z</time>
      </trkpt>
      <trkpt lat="45.71145" lon="2.957">
        <ele>1184.84</ele>
        <time>2015-05-16T12:33:05Z</time>
      </trkpt>
      <trkpt lat="45.71153" lon="2.95676">
        <ele>1184.51</ele>
        <time>2015-05-16T12:33:22Z</time>
      </trkpt>
      <trkpt lat="45.71162" lon="2.95652">
        <ele>1184.51</ele>
        <time>2015-05-16T12:33:38Z</time>
      </trkpt>
      <trkpt lat="45.71169" lon="2.95628">
        <ele>1184.04</ele>
        <time>2015-05-16T12:33:53Z</time>
      </trkpt>
      <trkpt lat="45.71172" lon="2.95601">
        <ele>1181.06</ele>
        <time>2015-05-16T12:34:13Z</time>
      </trkpt>
      <trkpt lat="45.71174" lon="2.95574">
        <ele>1178.39</ele>
        <time>2015-05-16T12:34:28Z</time>
      </trkpt>
      <trkpt lat="45.71178" lon="2.95548">
        <ele>1177.76</ele>
        <time>2015-05-16T12:35:02Z</time>
      </trkpt>
      <trkpt lat="45.71179" lon="2.95522">
        <ele>1171.78</ele>
        <time>2015-05-16T12:35:20Z</time>
      </trkpt>
      <trkpt lat="45.71166" lon="2.95504">
        <ele>1164.28</ele>
        <time>2015-05-16T12:35:44Z</time>
      </trkpt>
      <trkpt lat="45.71155" lon="2.95482">
        <ele>1158.65</ele>
        <time>2015-05-16T12:36:07Z</time>
      </trkpt>
      <trkpt lat="45.71143" lon="2.95463">
        <ele>1151.14</ele>
        <time>2015-05-16T12:36:56Z</time>
      </trkpt>
      <trkpt lat="45.7113" lon="2.95443">
        <ele>1142.28</ele>
        <time>2015-05-16T12:37:18Z</time>
      </trkpt>
      <trkpt lat="45.71121" lon="2.95419">
        <ele>1138.19</ele>
        <time>2015-05-16T12:37:33Z</time>
      </trkpt>
      <trkpt lat="45.71109" lon="2.954">
        <ele>1142.68</ele>
        <time>2015-05-16T12:37:50Z</time>
      </trkpt>
      <trkpt lat="45.71096" lon="2.9538">
        <ele>1143.5</ele>
        <time>2015-05-16T12:38:09Z</time>
      </trkpt>
      <trkpt lat="45.7108" lon="2.95367">
        <ele>1145.35</ele>
        <time>2015-05-16T12:38:25Z</time>
      </trkpt>
      <trkpt lat="45.71062" lon="2.95362">
        <ele>1145.39</ele>
        <time>2015-05-16T12:38:45Z</time>
      </trkpt>
      <trkpt lat="45.71044" lon="2.95354">
        <ele>1146.52</ele>
        <time>2015-05-16T12:39:03Z</time>
      </trkpt>
      <trkpt lat="45.71027" lon="2.95344">
        <ele>1146.76</ele>
        <time>2015-05-16T12:39:23Z</time>
      </trkpt>
      <trkpt lat="45.7101" lon="2.95331">
        <ele>1142.6</ele>
        <time>2015-05-16T12:39:40Z</time>
      </trkpt>
      <trkpt lat="45.70992" lon="2.95324">
        <ele>1146.95</ele>
        <time>2015-05-16T12:41:57Z</time>
      </trkpt>
      <trkpt lat="45.70974" lon="2.95318">
        <ele>1142.38</ele>
        <time>2015-05-16T12:42:22Z</time>
      </trkpt>
      <trkpt lat="45.70956" lon="2.95317">
        <ele>1137.58</ele>
        <time>2015-05-16T12:42:38Z</time>
      </trkpt>
      <trkpt lat="45.70937" lon="2.95317">
        <ele>1134.77</ele>
        <time>2015-05-16T12:42:55Z</time>
      </trkpt>
      <trkpt lat="45.7092" lon="2.95324">
        <ele>1132.12</ele>
        <time>2015-05-16T12:43:12Z</time>
      </trkpt>
      <trkpt lat="45.70901" lon="2.95331">
        <ele>1129.08</ele>
        <time>2015-05-16T12:43:31Z</time>
      </trkpt>
      <trkpt lat="45.70883" lon="2.95331">
        <ele>1122.05</ele>
        <time>2015-05-16T12:43:52Z</time>
      </trkpt>
      <trkpt lat="45.70864" lon="2.95329">
        <ele>1116.04</ele>
        <time>2015-05-16T12:44:58Z</time>
      </trkpt>
      <trkpt lat="45.70846" lon="2.95328">
        <ele>1110.54</ele>
        <time>2015-05-16T12:45:14Z</time>
      </trkpt>
      <trkpt lat="45.70827" lon="2.95325">
        <ele>1104.67</ele>
        <time>2015-05-16T12:45:30Z</time>
      </trkpt>
      <trkpt lat="45.70808" lon="2.9532">
        <ele>1099.67</ele>
        <time>2015-05-16T12:45:48Z</time>
      </trkpt>
      <trkpt lat="45.70789" lon="2.95322">
        <ele>1092.92</ele>
        <time>2015-05-16T12:46:06Z</time>
      </trkpt>
      <trkpt lat="45.70772" lon="2.95326">
        <ele>1087.66</ele>
        <time>2015-05-16T12:46:23Z</time>
      </trkpt>
      <trkpt lat="45.70753" lon="2.95329">
        <ele>1084.89</ele>
        <time>2015-05-16T12:46:40Z</time>
      </trkpt>
      <trkpt lat="45.70735" lon="2.9533">
        <ele>1076.59</ele>
        <time>2015-05-16T12:47:00Z</time>
      </trkpt>
      <trkpt lat="45.70717" lon="2.95334">
        <ele>1070.17</ele>
        <time>2015-05-16T12:47:17Z</time>
      </trkpt>
      <trkpt lat="45.70699" lon="2.95327">
        <ele>1063.66</ele>
        <time>2015-05-16T12:47:36Z</time>
      </trkpt>
      <trkpt lat="45.70687" lon="2.95308">
        <ele>1057.65</ele>
        <time>2015-05-16T12:47:55Z</time>
      </trkpt>
      <trkpt lat="45.70669" lon="2.95304">
        <ele>1050.52</ele>
        <time>2015-05-16T12:48:21Z</time>
      </trkpt>
      <trkpt lat="45.70651" lon="2.95297">
        <ele>1039.37</ele>
        <time>2015-05-16T12:48:48Z</time>
      </trkpt>
      <trkpt lat="45.70636" lon="2.95281">
        <ele>1033.16</ele>
        <time>2015-05-16T12:49:06Z</time>
      </trkpt>
      <trkpt lat="45.70619" lon="2.9527">
        <ele>1029.52</ele>
        <time>2015-05-16T12:49:23Z</time>
      </trkpt>
      <trkpt lat="45.70624" lon="2.95244">
        <ele>1033.84</ele>
        <time>2015-05-16T12:52:34Z</time>
      </trkpt>
      <trkpt lat="45.70636" lon="2.95223">
        <ele>1038.8</ele>
        <time>2015-05-16T12:52:54Z</time>
      </trkpt>
      <trkpt lat="45.70651" lon="2.95208">
        <ele>1039.22</ele>
        <time>2015-05-16T12:53:10Z</time>
      </trkpt>
      <trkpt lat="45.70661" lon="2.95184">
        <ele>1039.65</ele>
        <time>2015-05-16T12:53:29Z</time>
      </trkpt>
      <trkpt lat="45.70669" lon="2.9516">
        <ele>1033.85</ele>
        <time>2015-05-16T12:53:54Z</time>
      </trkpt>
      <trkpt lat="45.7067" lon="2.95134">
        <ele>1035.39</ele>
        <time>2015-05-16T12:54:09Z</time>
      </trkpt>
      <trkpt lat="45.70674" lon="2.95108">
        <ele>1039.3</ele>
        <time>2015-05-16T12:54:23Z</time>
      </trkpt>
      <trkpt lat="45.70673" lon="2.95082">
        <ele>1037.89</ele>
        <time>2015-05-16T12:54:41Z</time>
      </trkpt>
      <trkpt lat="45.70672" lon="2.95056">
        <ele>1041.35</ele>
        <time>2015-05-16T12:54:55Z</time>
      </trkpt>
      <trkpt lat="45.70673" lon="2.9503">
        <ele>1041.02</ele>
        <time>2015-05-16T12:55:11Z</time>
      </trkpt>
      <trkpt lat="45.70681" lon="2.95006">
        <ele>1044.01</ele>
        <time>2015-05-16T12:55:24Z</time>
      </trkpt>
      <trkpt lat="45.70687" lon="2.94981">
        <ele>1042.28</ele>
        <time>2015-05-16T12:55:44Z</time>
      </trkpt>
      <trkpt lat="45.707" lon="2.9496">
        <ele>1044.51</ele>
        <time>2015-05-16T12:56:03Z</time>
      </trkpt>
      <trkpt lat="45.70706" lon="2.94934">
        <ele>1045.53</ele>
        <time>2015-05-16T12:56:23Z</time>
      </trkpt>
      <trkpt lat="45.70712" lon="2.94909">
        <ele>1045.55</ele>
        <time>2015-05-16T12:56:45Z</time>
      </trkpt>
      <trkpt lat="45.70724" lon="2.94888">
        <ele>1033.55</ele>
        <time>2015-05-16T12:57:05Z</time>
      </trkpt>
      <trkpt lat="45.70733" lon="2.94864">
        <ele>1035.74</ele>
        <time>2015-05-16T12:57:21Z</time>
      </trkpt>
      <trkpt lat="45.70744" lon="2.94843">
        <ele>1041.57</ele>
        <time>2015-05-16T12:57:33Z</time>
      </trkpt>
      <trkpt lat="45.70758" lon="2.94825">
        <ele>1042.1</ele>
        <time>2015-05-16T12:57:50Z</time>
      </trkpt>
      <trkpt lat="45.70771" lon="2.94804">
        <ele>1042.05</ele>
        <time>2015-05-16T12:58:07Z</time>
      </trkpt>
      <trkpt lat="45.70784" lon="2.94786">
        <ele>1042.96</ele>
        <time>2015-05-16T12:58:23Z</time>
      </trkpt>
      <trkpt lat="45.70802" lon="2.94775">
        <ele>1043.26</ele>
        <time>2015-05-16T12:58:38Z</time>
      </trkpt>
      <trkpt lat="45.70811" lon="2.9475">
        <ele>1046.59</ele>
        <time>2015-05-16T12:58:51Z</time>
      </trkpt>
      <trkpt lat="45.70824" lon="2.9473">
        <ele>1046.54</ele>
        <time>2015-05-16T12:59:10Z</time>
      </trkpt>
      <trkpt lat="45.70837" lon="2.94711">
        <ele>1049.96</ele>
        <time>2015-05-16T12:59:27Z</time>
      </trkpt>
      <trkpt lat="45.70849" lon="2.9469">
        <ele>1054.12</ele>
        <time>2015-05-16T12:59:41Z</time>
      </trkpt>
      <trkpt lat="45.70865" lon="2.94676">
        <ele>1049.6</ele>
        <time>2015-05-16T13:00:00Z</time>
      </trkpt>
      <trkpt lat="45.70878" lon="2.94656">
        <ele>1049.49</ele>
        <time>2015-05-16T13:00:15Z</time>
      </trkpt>
      <trkpt lat="45.70891" lon="2.94638">
        <ele>1051.57</ele>
        <time>2015-05-16T13:00:28Z</time>
      </trkpt>
      <trkpt lat="45.70899" lon="2.94613">
        <ele>1049.38</ele>
        <time>2015-05-16T13:00:44Z</time>
      </trkpt>
      <trkpt lat="45.70911" lon="2.94593">
        <ele>1048.69</ele>
        <time>2015-05-16T13:01:01Z</time>
      </trkpt>
      <trkpt lat="45.7092" lon="2.94569">
        <ele>1045.74</ele>
        <time>2015-05-16T13:01:16Z</time>
      </trkpt>
      <trkpt lat="45.70937" lon="2.94558">
        <ele>1044</ele>
        <time>2015-05-16T13:01:32Z</time>
      </trkpt>
      <trkpt lat="45.70947" lon="2.94534">
        <ele>1042.84</ele>
        <time>2015-05-16T13:01:48Z</time>
      </trkpt>
      <trkpt lat="45.70959" lon="2.94512">
        <ele>1049.89</ele>
        <time>2015-05-16T13:02:00Z</time>
      </trkpt>
      <trkpt lat="45.7097" lon="2.94491">
        <ele>1047.52</ele>
        <time>2015-05-16T13:02:17Z</time>
      </trkpt>
      <trkpt lat="45.7098" lon="2.94468">
        <ele>1047.93</ele>
        <time>2015-05-16T13:02:32Z</time>
      </trkpt>
      <trkpt lat="45.70989" lon="2.94444">
        <ele>1048.49</ele>
        <time>2015-05-16T13:02:47Z</time>
      </trkpt>
      <trkpt lat="45.70996" lon="2.9442">
        <ele>1042.08</ele>
        <time>2015-05-16T13:03:03Z</time>
      </trkpt>
      <trkpt lat="45.70999" lon="2.94393">
        <ele>1042.38</ele>
        <time>2015-05-16T13:03:24Z</time>
      </trkpt>
      <trkpt lat="45.71004" lon="2.94369">
        <ele>1041.02</ele>
        <time>2015-05-16T13:03:47Z</time>
      </trkpt>
      <trkpt lat="45.71019" lon="2.94352">
        <ele>1042.29</ele>
        <time>2015-05-16T13:04:01Z</time>
      </trkpt>
      <trkpt lat="45.71033" lon="2.94334">
        <ele>1042.22</ele>
        <time>2015-05-16T13:04:16Z</time>
      </trkpt>
      <trkpt lat="45.71043" lon="2.94312">
        <ele>1042.02</ele>
        <time>2015-05-16T13:04:32Z</time>
      </trkpt>
      <trkpt lat="45.71058" lon="2.94327">
        <ele>1043.94</ele>
        <time>2015-05-16T13:05:39Z</time>
      </trkpt>
      <trkpt lat="45.7107" lon="2.94347">
        <ele>1046.23</ele>
        <time>2015-05-16T13:05:58Z</time>
      </trkpt>
      <trkpt lat="45.71078" lon="2.94372">
        <ele>1046.83</ele>
        <time>2015-05-16T13:06:14Z</time>
      </trkpt>
      <trkpt lat="45.71084" lon="2.94397">
        <ele>1046</ele>
        <time>2015-05-16T13:06:34Z</time>
      </trkpt>
      <trkpt lat="45.71093" lon="2.9442">
        <ele>1049.39</ele>
        <time>2015-05-16T13:06:53Z</time>
      </trkpt>
      <trkpt lat="45.71102" lon="2.94442">
        <ele>1051.14</ele>
        <time>2015-05-16T13:07:10Z</time>
      </trkpt>
      <trkpt lat="45.71113" lon="2.94464">
        <ele>1049.73</ele>
        <time>2015-05-16T13:07:26Z</time>
      </trkpt>
      <trkpt lat="45.71126" lon="2.94485">
        <ele>1050.86</ele>
        <time>2015-05-16T13:07:42Z</time>
      </trkpt>
      <trkpt lat="45.71139" lon="2.94504">
        <ele>1051.99</ele>
        <time>2015-05-16T13:07:56Z</time>
      </trkpt>
      <trkpt lat="45.71149" lon="2.94527">
        <ele>1054.27</ele>
        <time>2015-05-16T13:08:11Z</time>
      </trkpt>
      <trkpt lat="45.71163" lon="2.94546">
        <ele>1049.7</ele>
        <time>2015-05-16T13:08:27Z</time>
      </trkpt>
      <trkpt lat="45.71176" lon="2.94567">
        <ele>1051.51</ele>
        <time>2015-05-16T13:08:44Z</time>
      </trkpt>
      <trkpt lat="45.71182" lon="2.94592">
        <ele>1044.56</ele>
        <time>2015-05-16T13:09:01Z</time>
      </trkpt>
      <trkpt lat="45.71196" lon="2.94609">
        <ele>1044.12</ele>
        <time>2015-05-16T13:09:13Z</time>
      </trkpt>
      <trkpt lat="45.71212" lon="2.94626">
        <ele>1042.57</ele>
        <time>2015-05-16T13:09:30Z</time>
      </trkpt>
      <trkpt lat="45.71226" lon="2.94643">
        <ele>1042.98</ele>
        <time>2015-05-16T13:09:46Z</time>
      </trkpt>
      <trkpt lat="45.71241" lon="2.94659">
        <ele>1042.48</ele>
        <time>2015-05-16T13:10:00Z</time>
      </trkpt>
      <trkpt lat="45.71257" lon="2.94672">
        <ele>1039.5</ele>
        <time>2015-05-16T13:10:15Z</time>
      </trkpt>
      <trkpt lat="45.71274" lon="2.94683">
        <ele>1038.7</ele>
        <time>2015-05-16T13:10:30Z</time>
      </trkpt>
      <trkpt lat="45.71292" lon="2.94687">
        <ele>1041.53</ele>
        <time>2015-05-16T13:10:46Z</time>
      </trkpt>
      <trkpt lat="45.71308" lon="2.947">
        <ele>1044.53</ele>
        <time>2015-05-16T13:11:04Z</time>
      </trkpt>
      <trkpt lat="45.71326" lon="2.94709">
        <ele>1045.24</ele>
        <time>2015-05-16T13:11:18Z</time>
      </trkpt>
      <trkpt lat="45.71343" lon="2.94719">
        <ele>1044.42</ele>
        <time>2015-05-16T13:11:35Z</time>
      </trkpt>
      <trkpt lat="45.71362" lon="2.94726">
        <ele>1044.5</ele>
        <time>2015-05-16T13:12:21Z</time>
      </trkpt>
      <trkpt lat="45.71378" lon="2.94743">
        <ele>1048.88</ele>
        <time>2015-05-16T13:12:35Z</time>
      </trkpt>
      <trkpt lat="45.71391" lon="2.94761">
        <ele>1048.16</ele>
        <time>2015-05-16T13:12:51Z</time>
      </trkpt>
      <trkpt lat="45.71406" lon="2.94777">
        <ele>1046.51</ele>
        <time>2015-05-16T13:13:12Z</time>
      </trkpt>
      <trkpt lat="45.71422" lon="2.94791">
        <ele>1042.89</ele>
        <time>2015-05-16T13:13:25Z</time>
      </trkpt>
      <trkpt lat="45.71438" lon="2.94805">
        <ele>1046.37</ele>
        <time>2015-05-16T13:13:44Z</time>
      </trkpt>
      <trkpt lat="45.71456" lon="2.94812">
        <ele>1049.63</ele>
        <time>2015-05-16T13:14:04Z</time>
      </trkpt>
      <trkpt lat="45.71474" lon="2.94812">
        <ele>1052.73</ele>
        <time>2015-05-16T13:14:21Z</time>
      </trkpt>
      <trkpt lat="45.71492" lon="2.94822">
        <ele>1054.44</ele>
        <time>2015-05-16T13:14:37Z</time>
      </trkpt>
      <trkpt lat="45.7151" lon="2.94826">
        <ele>1057.43</ele>
        <time>2015-05-16T13:14:54Z</time>
      </trkpt>
      <trkpt lat="45.71528" lon="2.94832">
        <ele>1061.16</ele>
        <time>2015-05-16T13:15:15Z</time>
      </trkpt>
      <trkpt lat="45.71547" lon="2.94836">
        <ele>1062.51</ele>
        <time>2015-05-16T13:15:38Z</time>
      </trkpt>
      <trkpt lat="45.71565" lon="2.94847">
        <ele>1058.35</ele>
        <time>2015-05-16T13:15:51Z</time>
      </trkpt>
      <trkpt lat="45.71583" lon="2.94847">
        <ele>1063.98</ele>
        <time>2015-05-16T13:16:23Z</time>
      </trkpt>
      <trkpt lat="45.71601" lon="2.94856">
        <ele>1057.55</ele>
        <time>2015-05-16T13:16:38Z</time>
      </trkpt>
      <trkpt lat="45.71618" lon="2.94868">
        <ele>1055.41</ele>
        <time>2015-05-16T13:16:48Z</time>
      </trkpt>
      <trkpt lat="45.71637" lon="2.94878">
        <ele>1055.41</ele>
        <time>2015-05-16T13:17:18Z</time>
      </trkpt>
      <trkpt lat="45.71654" lon="2.94887">
        <ele>1055.31</ele>
        <time>2015-05-16T13:17:30Z</time>
      </trkpt>
      <trkpt lat="45.71671" lon="2.94894">
        <ele>1059.01</ele>
        <time>2015-05-16T13:17:54Z</time>
      </trkpt>
      <trkpt lat="45.7169" lon="2.949">
        <ele>1063.66</ele>
        <time>2015-05-16T13:18:03Z</time>
      </trkpt>
      <trkpt lat="45.71707" lon="2.94911">
        <ele>1069</ele>
        <time>2015-05-16T13:18:16Z</time>
      </trkpt>
      <trkpt lat="45.71725" lon="2.94918">
        <ele>1068.3</ele>
        <time>2015-05-16T13:18:32Z</time>
      </trkpt>
      <trkpt lat="45.7174" lon="2.94937">
        <ele>1074.08</ele>
        <time>2015-05-16T13:18:42Z</time>
      </trkpt>
      <trkpt lat="45.71759" lon="2.94946">
        <ele>1073.2</ele>
        <time>2015-05-16T13:19:02Z</time>
      </trkpt>
      <trkpt lat="45.71777" lon="2.94944">
        <ele>1076.13</ele>
        <time>2015-05-16T13:19:14Z</time>
      </trkpt>
      <trkpt lat="45.71795" lon="2.94954">
        <ele>1076.87</ele>
        <time>2015-05-16T13:19:26Z</time>
      </trkpt>
      <trkpt lat="45.71808" lon="2.94975">
        <ele>1073.78</ele>
        <time>2015-05-16T13:19:44Z</time>
      </trkpt>
      <trkpt lat="45.71822" lon="2.94992">
        <ele>1079.74</ele>
        <time>2015-05-16T13:20:00Z</time>
      </trkpt>
      <trkpt lat="45.71841" lon="2.95002">
        <ele>1076.75</ele>
        <time>2015-05-16T13:20:16Z</time>
      </trkpt>
      <trkpt lat="45.71859" lon="2.95014">
        <ele>1074.67</ele>
        <time>2015-05-16T13:20:52Z</time>
      </trkpt>
      <trkpt lat="45.71874" lon="2.95029">
        <ele>1079.4</ele>
        <time>2015-05-16T13:21:07Z</time>
      </trkpt>
      <trkpt lat="45.71892" lon="2.95039">
        <ele>1079.6</ele>
        <time>2015-05-16T13:21:18Z</time>
      </trkpt>
      <trkpt lat="45.71908" lon="2.95054">
        <ele>1076.87</ele>
        <time>2015-05-16T13:21:33Z</time>
      </trkpt>
      <trkpt lat="45.71924" lon="2.95066">
        <ele>1074.35</ele>
        <time>2015-05-16T13:21:53Z</time>
      </trkpt>
      <trkpt lat="45.71942" lon="2.95077">
        <ele>1078.76</ele>
        <time>2015-05-16T13:22:11Z</time>
      </trkpt>
      <trkpt lat="45.7196" lon="2.95083">
        <ele>1074.75</ele>
        <time>2015-05-16T13:22:29Z</time>
      </trkpt>
      <trkpt lat="45.71977" lon="2.95091">
        <ele>1076.52</ele>
        <time>2015-05-16T13:22:45Z</time>
      </trkpt>
      <trkpt lat="45.71997" lon="2.95096">
        <ele>1079.87</ele>
        <time>2015-05-16T13:22:57Z</time>
      </trkpt>
      <trkpt lat="45.72012" lon="2.95113">
        <ele>1080.69</ele>
        <time>2015-05-16T13:23:17Z</time>
      </trkpt>
      <trkpt lat="45.72028" lon="2.95124">
        <ele>1083.53</ele>
        <time>2015-05-16T13:23:35Z</time>
      </trkpt>
      <trkpt lat="45.72042" lon="2.95143">
        <ele>1082.46</ele>
        <time>2015-05-16T13:23:50Z</time>
      </trkpt>
      <trkpt lat="45.7206" lon="2.9515">
        <ele>1082.91</ele>
        <time>2015-05-16T13:24:05Z</time>
      </trkpt>
      <trkpt lat="45.72079" lon="2.95157">
        <ele>1080.1</ele>
        <time>2015-05-16T13:24:20Z</time>
      </trkpt>
      <trkpt lat="45.72097" lon="2.95162">
        <ele>1075.68</ele>
        <time>2015-05-16T13:24:35Z</time>
      </trkpt>
      <trkpt lat="45.72115" lon="2.95169">
        <ele>1077.52</ele>
        <time>2015-05-16T13:25:08Z</time>
      </trkpt>
      <trkpt lat="45.72131" lon="2.95182">
        <ele>1078.96</ele>
        <time>2015-05-16T13:25:30Z</time>
      </trkpt>
      <trkpt lat="45.7215" lon="2.95187">
        <ele>1085.64</ele>
        <time>2015-05-16T13:25:40Z</time>
      </trkpt>
      <trkpt lat="45.72168" lon="2.95198">
        <ele>1090.15</ele>
        <time>2015-05-16T13:25:55Z</time>
      </trkpt>
      <trkpt lat="45.72181" lon="2.95218">
        <ele>1091.52</ele>
        <time>2015-05-16T13:26:18Z</time>
      </trkpt>
      <trkpt lat="45.72198" lon="2.95213">
        <ele>1088.49</ele>
        <time>2015-05-16T13:26:32Z</time>
      </trkpt>
      <trkpt lat="45.72216" lon="2.95218">
        <ele>1092.11</ele>
        <time>2015-05-16T13:26:43Z</time>
      </trkpt>
      <trkpt lat="45.72227" lon="2.9524">
        <ele>1093.52</ele>
        <time>2015-05-16T13:27:02Z</time>
      </trkpt>
      <trkpt lat="45.72241" lon="2.95256">
        <ele>1090.63</ele>
        <time>2015-05-16T13:27:21Z</time>
      </trkpt>
      <trkpt lat="45.72256" lon="2.95272">
        <ele>1089.58</ele>
        <time>2015-05-16T13:27:37Z</time>
      </trkpt>
      <trkpt lat="45.7227" lon="2.95288">
        <ele>1088.89</ele>
        <time>2015-05-16T13:27:50Z</time>
      </trkpt>
      <trkpt lat="45.72286" lon="2.95304">
        <ele>1087.02</ele>
        <time>2015-05-16T13:28:04Z</time>
      </trkpt>
      <trkpt lat="45.723" lon="2.9532">
        <ele>1086.84</ele>
        <time>2015-05-16T13:28:14Z</time>
      </trkpt>
      <trkpt lat="45.72313" lon="2.95338">
        <ele>1094.98</ele>
        <time>2015-05-16T13:28:32Z</time>
      </trkpt>
      <trkpt lat="45.72331" lon="2.95352">
        <ele>1088.61</ele>
        <time>2015-05-16T13:28:47Z</time>
      </trkpt>
      <trkpt lat="45.72343" lon="2.95372">
        <ele>1094.5</ele>
        <time>2015-05-16T13:29:00Z</time>
      </trkpt>
      <trkpt lat="45.72362" lon="2.95385">
        <ele>1086.07</ele>
        <time>2015-05-16T13:29:27Z</time>
      </trkpt>
      <trkpt lat="45.72376" lon="2.95407">
        <ele>1085.93</ele>
        <time>2015-05-16T13:29:45Z</time>
      </trkpt>
      <trkpt lat="45.72388" lon="2.95427">
        <ele>1079.54</ele>
        <time>2015-05-16T13:30:03Z</time>
      </trkpt>
      <trkpt lat="45.72402" lon="2.95446">
        <ele>1078.54</ele>
        <time>2015-05-16T13:30:16Z</time>
      </trkpt>
      <trkpt lat="45.72416" lon="2.95463">
        <ele>1077.51</ele>
        <time>2015-05-16T13:30:31Z</time>
      </trkpt>
      <trkpt lat="45.7243" lon="2.95484">
        <ele>1071.85</ele>
        <time>2015-05-16T13:30:48Z</time>
      </trkpt>
      <trkpt lat="45.72446" lon="2.955">
        <ele>1073.17</ele>
        <time>2015-05-16T13:31:00Z</time>
      </trkpt>
      <trkpt lat="45.7246" lon="2.95517">
        <ele>1074.8</ele>
        <time>2015-05-16T13:31:18Z</time>
      </trkpt>
      <trkpt lat="45.72476" lon="2.95529">
        <ele>1071.34</ele>
        <time>2015-05-16T13:31:28Z</time>
      </trkpt>
      <trkpt lat="45.72492" lon="2.95542">
        <ele>1069.18</ele>
        <time>2015-05-16T13:31:42Z</time>
      </trkpt>
      <trkpt lat="45.72503" lon="2.95565">
        <ele>1072.01</ele>
        <time>2015-05-16T13:31:57Z</time>
      </trkpt>
      <trkpt lat="45.72517" lon="2.95581">
        <ele>1074.56</ele>
        <time>2015-05-16T13:32:08Z</time>
      </trkpt>
      <trkpt lat="45.72533" lon="2.95595">
        <ele>1072.83</ele>
        <time>2015-05-16T13:32:23Z</time>
      </trkpt>
      <trkpt lat="45.72549" lon="2.9561">
        <ele>1071.67</ele>
        <time>2015-05-16T13:32:39Z</time>
      </trkpt>
      <trkpt lat="45.72569" lon="2.95611">
        <ele>1073.29</ele>
        <time>2015-05-16T13:32:50Z</time>
      </trkpt>
      <trkpt lat="45.72584" lon="2.95629">
        <ele>1063.69</ele>
        <time>2015-05-16T13:33:08Z</time>
      </trkpt>
      <trkpt lat="45.72602" lon="2.95639">
        <ele>1066.59</ele>
        <time>2015-05-16T13:33:18Z</time>
      </trkpt>
      <trkpt lat="45.7262" lon="2.95644">
        <ele>1067.29</ele>
        <time>2015-05-16T13:33:34Z</time>
      </trkpt>
      <trkpt lat="45.72639" lon="2.95652">
        <ele>1068.28</ele>
        <time>2015-05-16T13:33:49Z</time>
      </trkpt>
      <trkpt lat="45.72657" lon="2.95648">
        <ele>1065.13</ele>
        <time>2015-05-16T13:34:02Z</time>
      </trkpt>
      <trkpt lat="45.72675" lon="2.95641">
        <ele>1065.05</ele>
        <time>2015-05-16T13:34:17Z</time>
      </trkpt>
      <trkpt lat="45.72694" lon="2.95643">
        <ele>1064.95</ele>
        <time>2015-05-16T13:34:42Z</time>
      </trkpt>
      <trkpt lat="45.72711" lon="2.95652">
        <ele>1061.57</ele>
        <time>2015-05-16T13:34:59Z</time>
      </trkpt>
      <trkpt lat="45.72727" lon="2.95667">
        <ele>1059.36</ele>
        <time>2015-05-16T13:35:13Z</time>
      </trkpt>
      <trkpt lat="45.7274" lon="2.95685">
        <ele>1064.64</ele>
        <time>2015-05-16T13:35:30Z</time>
      </trkpt>
      <trkpt lat="45.72754" lon="2.95703">
        <ele>1061.36</ele>
        <time>2015-05-16T13:35:43Z</time>
      </trkpt>
      <trkpt lat="45.72769" lon="2.95719">
        <ele>1056.84</ele>
        <time>2015-05-16T13:35:55Z</time>
      </trkpt>
      <trkpt lat="45.72784" lon="2.95739">
        <ele>1060.82</ele>
        <time>2015-05-16T13:36:12Z</time>
      </trkpt>
      <trkpt lat="45.72798" lon="2.95756">
        <ele>1062.43</ele>
        <time>2015-05-16T13:36:31Z</time>
      </trkpt>
      <trkpt lat="45.7281" lon="2.95776">
        <ele>1054.61</ele>
        <time>2015-05-16T13:36:49Z</time>
      </trkpt>
      <trkpt lat="45.72824" lon="2.95795">
        <ele>1048.75</ele>
        <time>2015-05-16T13:36:58Z</time>
      </trkpt>
      <trkpt lat="45.72832" lon="2.95819">
        <ele>1037.21</ele>
        <time>2015-05-16T13:37:15Z</time>
      </trkpt>
      <trkpt lat="45.72842" lon="2.95841">
        <ele>1041.35</ele>
        <time>2015-05-16T13:37:26Z</time>
      </trkpt>
      <trkpt lat="45.72851" lon="2.95866">
        <ele>1043.09</ele>
        <time>2015-05-16T13:37:43Z</time>
      </trkpt>
      <trkpt lat="45.72867" lon="2.95882">
        <ele>1040.28</ele>
        <time>2015-05-16T13:38:01Z</time>
      </trkpt>
      <trkpt lat="45.72881" lon="2.95899">
        <ele>1038.96</ele>
        <time>2015-05-16T13:38:10Z</time>
      </trkpt>
      <trkpt lat="45.72897" lon="2.95913">
        <ele>1036.49</ele>
        <time>2015-05-16T13:38:21Z</time>
      </trkpt>
      <trkpt lat="45.72908" lon="2.95934">
        <ele>1042.76</ele>
        <time>2015-05-16T13:38:35Z</time>
      </trkpt>
      <trkpt lat="45.72927" lon="2.95941">
        <ele>1042.99</ele>
        <time>2015-05-16T13:38:48Z</time>
      </trkpt>
      <trkpt lat="45.72943" lon="2.95958">
        <ele>1041.1</ele>
        <time>2015-05-16T13:39:03Z</time>
      </trkpt>
      <trkpt lat="45.72954" lon="2.9598">
        <ele>1039.26</ele>
        <time>2015-05-16T13:39:19Z</time>
      </trkpt>
      <trkpt lat="45.72969" lon="2.96001">
        <ele>1042.01</ele>
        <time>2015-05-16T13:39:48Z</time>
      </trkpt>
      <trkpt lat="45.72982" lon="2.96022">
        <ele>1034.81</ele>
        <time>2015-05-16T13:39:57Z</time>
      </trkpt>
      <trkpt lat="45.7299" lon="2.96046">
        <ele>1039.13</ele>
        <time>2015-05-16T13:40:05Z</time>
      </trkpt>
      <trkpt lat="45.73003" lon="2.96066">
        <ele>1036.83</ele>
        <time>2015-05-16T13:40:18Z</time>
      </trkpt>
      <trkpt lat="45.73013" lon="2.96091">
        <ele>1034.9</ele>
        <time>2015-05-16T13:40:37Z</time>
      </trkpt>
      <trkpt lat="45.73028" lon="2.96109">
        <ele>1031.34</ele>
        <time>2015-05-16T13:40:51Z</time>
      </trkpt>
      <trkpt lat="45.73043" lon="2.96125">
        <ele>1025.75</ele>
        <time>2015-05-16T13:41:04Z</time>
      </trkpt>
      <trkpt lat="45.73058" lon="2.9614">
        <ele>1023.35</ele>
        <time>2015-05-16T13:41:22Z</time>
      </trkpt>
      <trkpt lat="45.73074" lon="2.96152">
        <ele>1024.91</ele>
        <time>2015-05-16T13:41:33Z</time>
      </trkpt>
      <trkpt lat="45.73091" lon="2.96162">
        <ele>1023.13</ele>
        <time>2015-05-16T13:41:47Z</time>
      </trkpt>
      <trkpt lat="45.7311" lon="2.96164">
        <ele>1021.84</ele>
        <time>2015-05-16T13:42:00Z</time>
      </trkpt>
      <trkpt lat="45.73129" lon="2.96168">
        <ele>1014.92</ele>
        <time>2015-05-16T13:42:15Z</time>
      </trkpt>
      <trkpt lat="45.73147" lon="2.96171">
        <ele>1013.51</ele>
        <time>2015-05-16T13:42:53Z</time>
      </trkpt>
      <trkpt lat="45.73164" lon="2.96181">
        <ele>1008.45</ele>
        <time>2015-05-16T13:43:10Z</time>
      </trkpt>
      <trkpt lat="45.73181" lon="2.96192">
        <ele>1007.7</ele>
        <time>2015-05-16T13:43:24Z</time>
      </trkpt>
      <trkpt lat="45.73198" lon="2.96202">
        <ele>1008.91</ele>
        <time>2015-05-16T13:43:37Z</time>
      </trkpt>
      <trkpt lat="45.73213" lon="2.96218">
        <ele>1009.23</ele>
        <time>2015-05-16T13:43:54Z</time>
      </trkpt>
      <trkpt lat="45.73231" lon="2.96228">
        <ele>1008.01</ele>
        <time>2015-05-16T13:44:58Z</time>
      </trkpt>
      <trkpt lat="45.73247" lon="2.96239">
        <ele>1004.71</ele>
        <time>2015-05-16T13:45:13Z</time>
      </trkpt>
      <trkpt lat="45.73262" lon="2.96256">
        <ele>1004.73</ele>
        <time>2015-05-16T13:45:26Z</time>
      </trkpt>
      <trkpt lat="45.73277" lon="2.9627">
        <ele>1009.03</ele>
        <time>2015-05-16T13:45:36Z</time>
      </trkpt>
      <trkpt lat="45.73296" lon="2.9628">
        <ele>1006.12</ele>
        <time>2015-05-16T13:45:50Z</time>
      </trkpt>
      <trkpt lat="45.73312" lon="2.96293">
        <ele>1011.58</ele>
        <time>2015-05-16T13:46:02Z</time>
      </trkpt>
      <trkpt lat="45.7333" lon="2.96297">
        <ele>1011.3</ele>
        <time>2015-05-16T13:46:16Z</time>
      </trkpt>
      <trkpt lat="45.73348" lon="2.96307">
        <ele>1009.62</ele>
        <time>2015-05-16T13:46:33Z</time>
      </trkpt>
      <trkpt lat="45.73366" lon="2.96312">
        <ele>1006.8</ele>
        <time>2015-05-16T13:46:44Z</time>
      </trkpt>
      <trkpt lat="45.73384" lon="2.96319">
        <ele>1004.92</ele>
        <time>2015-05-16T13:46:59Z</time>
      </trkpt>
      <trkpt lat="45.73404" lon="2.96325">
        <ele>1003.99</ele>
        <time>2015-05-16T13:47:11Z</time>
      </trkpt>
      <trkpt lat="45.73421" lon="2.96334">
        <ele>1007.77</ele>
        <time>2015-05-16T13:47:33Z</time>
      </trkpt>
      <trkpt lat="45.73438" lon="2.96344">
        <ele>1003.23</ele>
        <time>2015-05-16T13:47:44Z</time>
      </trkpt>
      <trkpt lat="45.73457" lon="2.96349">
        <ele>1000.43</ele>
        <time>2015-05-16T13:47:53Z</time>
      </trkpt>
      <trkpt lat="45.73474" lon="2.96358">
        <ele>1003.7</ele>
        <time>2015-05-16T13:48:07Z</time>
      </trkpt>
      <trkpt lat="45.73492" lon="2.96366">
        <ele>1001.91</ele>
        <time>2015-05-16T13:48:17Z</time>
      </trkpt>
      <trkpt lat="45.73509" lon="2.96371">
        <ele>1001.97</ele>
        <time>2015-05-16T13:48:30Z</time>
      </trkpt>
      <trkpt lat="45.73527" lon="2.9638">
        <ele>999.34</ele>
        <time>2015-05-16T13:48:45Z</time>
      </trkpt>
      <trkpt lat="45.73545" lon="2.96389">
        <ele>1001.01</ele>
        <time>2015-05-16T13:48:58Z</time>
      </trkpt>
      <trkpt lat="45.73563" lon="2.96397">
        <ele>1001.4</ele>
        <time>2015-05-16T13:49:09Z</time>
      </trkpt>
      <trkpt lat="45.73579" lon="2.96409">
        <ele>1001.7</ele>
        <time>2015-05-16T13:49:28Z</time>
      </trkpt>
      <trkpt lat="45.73596" lon="2.96421">
        <ele>1004.15</ele>
        <time>2015-05-16T13:49:42Z</time>
      </trkpt>
      <trkpt lat="45.73613" lon="2.96433">
        <ele>1003.25</ele>
        <time>2015-05-16T13:49:57Z</time>
      </trkpt>
      <trkpt lat="45.73631" lon="2.96444">
        <ele>1002.34</ele>
        <time>2015-05-16T13:50:13Z</time>
      </trkpt>
      <trkpt lat="45.73649" lon="2.96455">
        <ele>1001.83</ele>
        <time>2015-05-16T13:50:29Z</time>
      </trkpt>
      <trkpt lat="45.73666" lon="2.96464">
        <ele>1001.34</ele>
        <time>2015-05-16T13:50:44Z</time>
      </trkpt>
      <trkpt lat="45.73682" lon="2.96476">
        <ele>1004.72</ele>
        <time>2015-05-16T13:50:59Z</time>
      </trkpt>
      <trkpt lat="45.73701" lon="2.96485">
        <ele>1000.34</ele>
        <time>2015-05-16T13:51:15Z</time>
      </trkpt>
      <trkpt lat="45.73716" lon="2.96498">
        <ele>1003.25</ele>
        <time>2015-05-16T13:51:26Z</time>
      </trkpt>
      <trkpt lat="45.73735" lon="2.96496">
        <ele>1003.78</ele>
        <time>2015-05-16T13:51:45Z</time>
      </trkpt>
      <trkpt lat="45.73748" lon="2.96515">
        <ele>999.35</ele>
        <time>2015-05-16T13:52:11Z</time>
      </trkpt>
      <trkpt lat="45.73765" lon="2.96529">
        <ele>996.76</ele>
        <time>2015-05-16T13:52:27Z</time>
      </trkpt>
      <trkpt lat="45.7378" lon="2.96546">
        <ele>999.56</ele>
        <time>2015-05-16T13:52:43Z</time>
      </trkpt>
      <trkpt lat="45.73798" lon="2.96555">
        <ele>997.84</ele>
        <time>2015-05-16T13:52:56Z</time>
      </trkpt>
      <trkpt lat="45.73815" lon="2.96565">
        <ele>993.88</ele>
        <time>2015-05-16T13:53:08Z</time>
      </trkpt>
      <trkpt lat="45.73831" lon="2.96577">
        <ele>993.62</ele>
        <time>2015-05-16T13:53:22Z</time>
      </trkpt>
      <trkpt lat="45.73849" lon="2.96587">
        <ele>995.34</ele>
        <time>2015-05-16T13:53:36Z</time>
      </trkpt>
      <trkpt lat="45.73867" lon="2.96593">
        <ele>996.42</ele>
        <time>2015-05-16T13:53:48Z</time>
      </trkpt>
      <trkpt lat="45.73885" lon="2.96597">
        <ele>994.18</ele>
        <time>2015-05-16T13:54:01Z</time>
      </trkpt>
      <trkpt lat="45.73903" lon="2.96594">
        <ele>993.83</ele>
        <time>2015-05-16T13:54:10Z</time>
      </trkpt>
      <trkpt lat="45.73922" lon="2.96593">
        <ele>998.77</ele>
        <time>2015-05-16T13:54:33Z</time>
      </trkpt>
      <trkpt lat="45.73941" lon="2.96591">
        <ele>997.44</ele>
        <time>2015-05-16T13:54:46Z</time>
      </trkpt>
      <trkpt lat="45.73958" lon="2.966">
        <ele>993.9</ele>
        <time>2015-05-16T13:55:04Z</time>
      </trkpt>
      <trkpt lat="45.73974" lon="2.96614">
        <ele>991.89</ele>
        <time>2015-05-16T13:55:19Z</time>
      </trkpt>
      <trkpt lat="45.73991" lon="2.96623">
        <ele>991.54</ele>
        <time>2015-05-16T13:55:34Z</time>
      </trkpt>
      <trkpt lat="45.74006" lon="2.96637">
        <ele>988.61</ele>
        <time>2015-05-16T13:56:00Z</time>
      </trkpt>
      <trkpt lat="45.74024" lon="2.96631">
        <ele>985.58</ele>
        <time>2015-05-16T13:56:58Z</time>
      </trkpt>
      <trkpt lat="45.74042" lon="2.96629">
        <ele>982.49</ele>
        <time>2015-05-16T13:57:17Z</time>
      </trkpt>
      <trkpt lat="45.7406" lon="2.96631">
        <ele>982.48</ele>
        <time>2015-05-16T13:58:13Z</time>
      </trkpt>
      <trkpt lat="45.74077" lon="2.96642">
        <ele>978.95</ele>
        <time>2015-05-16T13:58:31Z</time>
      </trkpt>
      <trkpt lat="45.7409" lon="2.96661">
        <ele>978.23</ele>
        <time>2015-05-16T13:58:47Z</time>
      </trkpt>
      <trkpt lat="45.74102" lon="2.9668">
        <ele>976.01</ele>
        <time>2015-05-16T13:59:04Z</time>
      </trkpt>
      <trkpt lat="45.74109" lon="2.96705">
        <ele>973.17</ele>
        <time>2015-05-16T13:59:22Z</time>
      </trkpt>
      <trkpt lat="45.74108" lon="2.96711">
        <ele>972.51</ele>
        <time>2015-05-16T13:59:39Z</time>
      </trkpt>
      <trkpt lat="45.74118" lon="2.96733">
        <ele>976.51</ele>
        <time>2015-05-16T14:01:41Z</time>
      </trkpt>
      <trkpt lat="45.74127" lon="2.96755">
        <ele>976.26</ele>
        <time>2015-05-16T14:01:57Z</time>
      </trkpt>
      <trkpt lat="45.7414" lon="2.96774">
        <ele>972.54</ele>
        <time>2015-05-16T14:02:14Z</time>
      </trkpt>
      <trkpt lat="45.74158" lon="2.96781">
        <ele>974.82</ele>
        <time>2015-05-16T14:02:30Z</time>
      </trkpt>
      <trkpt lat="45.74176" lon="2.9679">
        <ele>972.54</ele>
        <time>2015-05-16T14:02:47Z</time>
      </trkpt>
      <trkpt lat="45.74192" lon="2.96802">
        <ele>973.39</ele>
        <time>2015-05-16T14:03:03Z</time>
      </trkpt>
      <trkpt lat="45.74209" lon="2.96813">
        <ele>971.52</ele>
        <time>2015-05-16T14:03:18Z</time>
      </trkpt>
      <trkpt lat="45.74225" lon="2.96829">
        <ele>969.95</ele>
        <time>2015-05-16T14:03:34Z</time>
      </trkpt>
      <trkpt lat="45.74241" lon="2.96841">
        <ele>966.02</ele>
        <time>2015-05-16T14:03:51Z</time>
      </trkpt>
      <trkpt lat="45.74257" lon="2.96855">
        <ele>965.9</ele>
        <time>2015-05-16T14:04:07Z</time>
      </trkpt>
      <trkpt lat="45.74271" lon="2.96872">
        <ele>968.5</ele>
        <time>2015-05-16T14:04:27Z</time>
      </trkpt>
      <trkpt lat="45.74287" lon="2.96887">
        <ele>970.62</ele>
        <time>2015-05-16T14:04:43Z</time>
      </trkpt>
      <trkpt lat="45.74304" lon="2.96898">
        <ele>968.53</ele>
        <time>2015-05-16T14:05:01Z</time>
      </trkpt>
      <trkpt lat="45.7432" lon="2.96907">
        <ele>967.51</ele>
        <time>2015-05-16T14:06:23Z</time>
      </trkpt>
      <trkpt lat="45.74337" lon="2.96917">
        <ele>970.5</ele>
        <time>2015-05-16T14:06:37Z</time>
      </trkpt>
      <trkpt lat="45.74354" lon="2.96924">
        <ele>970.51</ele>
        <time>2015-05-16T14:06:53Z</time>
      </trkpt>
      <trkpt lat="45.74373" lon="2.96929">
        <ele>970.76</ele>
        <time>2015-05-16T14:07:10Z</time>
      </trkpt>
      <trkpt lat="45.74375" lon="2.96935">
        <ele>969.51</ele>
        <time>2015-05-16T14:07:28Z</time>
      </trkpt>
      <trkpt lat="45.74394" lon="2.96935">
        <ele>966.85</ele>
        <time>2015-05-16T14:08:14Z</time>
      </trkpt>
      <trkpt lat="45.74412" lon="2.96943">
        <ele>967.43</ele>
        <time>2015-05-16T14:08:31Z</time>
      </trkpt>
      <trkpt lat="45.7443" lon="2.9695">
        <ele>967.87</ele>
        <time>2015-05-16T14:08:45Z</time>
      </trkpt>
      <trkpt lat="45.74448" lon="2.9696">
        <ele>965.39</ele>
        <time>2015-05-16T14:09:01Z</time>
      </trkpt>
      <trkpt lat="45.74465" lon="2.9697">
        <ele>964.38</ele>
        <time>2015-05-16T14:09:15Z</time>
      </trkpt>
      <trkpt lat="45.74483" lon="2.96978">
        <ele>962.57</ele>
        <time>2015-05-16T14:09:34Z</time>
      </trkpt>
      <trkpt lat="45.74501" lon="2.96975">
        <ele>961.27</ele>
        <time>2015-05-16T14:09:50Z</time>
      </trkpt>
      <trkpt lat="45.74512" lon="2.9695">
        <ele>962.01</ele>
        <time>2015-05-16T14:10:11Z</time>
      </trkpt>
      <trkpt lat="45.74513" lon="2.96923">
        <ele>963.44</ele>
        <time>2015-05-16T14:10:28Z</time>
      </trkpt>
      <trkpt lat="45.74505" lon="2.96915">
        <ele>963.51</ele>
        <time>2015-05-17T06:19:21Z</time>
      </trkpt>
      <trkpt lat="45.74511" lon="2.9694">
        <ele>965.51</ele>
        <time>2015-05-17T06:19:57Z</time>
      </trkpt>
      <trkpt lat="45.74507" lon="2.96966">
        <ele>968.49</ele>
        <time>2015-05-17T06:20:14Z</time>
      </trkpt>
      <trkpt lat="45.74514" lon="2.9699">
        <ele>961.4</ele>
        <time>2015-05-17T06:20:42Z</time>
      </trkpt>
      <trkpt lat="45.74531" lon="2.96998">
        <ele>957.55</ele>
        <time>2015-05-17T06:20:58Z</time>
      </trkpt>
      <trkpt lat="45.74549" lon="2.97006">
        <ele>957.73</ele>
        <time>2015-05-17T06:21:11Z</time>
      </trkpt>
      <trkpt lat="45.74568" lon="2.97013">
        <ele>953.67</ele>
        <time>2015-05-17T06:21:27Z</time>
      </trkpt>
      <trkpt lat="45.74606" lon="2.97018">
        <ele>951.51</ele>
        <time>2015-05-17T06:21:57Z</time>
      </trkpt>
      <trkpt lat="45.74621" lon="2.97003">
        <ele>952.26</ele>
        <time>2015-05-17T06:22:21Z</time>
      </trkpt>
      <trkpt lat="45.74638" lon="2.96994">
        <ele>951.51</ele>
        <time>2015-05-17T06:22:38Z</time>
      </trkpt>
      <trkpt lat="45.74655" lon="2.96985">
        <ele>952.49</ele>
        <time>2015-05-17T06:22:48Z</time>
      </trkpt>
      <trkpt lat="45.74673" lon="2.96976">
        <ele>954.25</ele>
        <time>2015-05-17T06:23:02Z</time>
      </trkpt>
      <trkpt lat="45.74691" lon="2.96967">
        <ele>952.18</ele>
        <time>2015-05-17T06:23:17Z</time>
      </trkpt>
      <trkpt lat="45.74709" lon="2.96958">
        <ele>949.84</ele>
        <time>2015-05-17T06:23:31Z</time>
      </trkpt>
      <trkpt lat="45.74727" lon="2.96949">
        <ele>949.13</ele>
        <time>2015-05-17T06:23:44Z</time>
      </trkpt>
      <trkpt lat="45.74745" lon="2.96941">
        <ele>950.5</ele>
        <time>2015-05-17T06:23:57Z</time>
      </trkpt>
      <trkpt lat="45.74762" lon="2.96931">
        <ele>947.77</ele>
        <time>2015-05-17T06:24:12Z</time>
      </trkpt>
      <trkpt lat="45.74779" lon="2.96922">
        <ele>947.01</ele>
        <time>2015-05-17T06:24:25Z</time>
      </trkpt>
      <trkpt lat="45.74797" lon="2.96913">
        <ele>945.3</ele>
        <time>2015-05-17T06:24:40Z</time>
      </trkpt>
      <trkpt lat="45.74815" lon="2.96906">
        <ele>944.51</ele>
        <time>2015-05-17T06:24:53Z</time>
      </trkpt>
      <trkpt lat="45.74834" lon="2.96902">
        <ele>942.99</ele>
        <time>2015-05-17T06:25:07Z</time>
      </trkpt>
      <trkpt lat="45.74852" lon="2.96893">
        <ele>942.5</ele>
        <time>2015-05-17T06:25:22Z</time>
      </trkpt>
      <trkpt lat="45.7487" lon="2.96885">
        <ele>941.52</ele>
        <time>2015-05-17T06:25:38Z</time>
      </trkpt>
      <trkpt lat="45.74888" lon="2.96879">
        <ele>943.27</ele>
        <time>2015-05-17T06:25:52Z</time>
      </trkpt>
      <trkpt lat="45.74907" lon="2.96875">
        <ele>945.18</ele>
        <time>2015-05-17T06:26:08Z</time>
      </trkpt>
      <trkpt lat="45.74926" lon="2.96873">
        <ele>944.32</ele>
        <time>2015-05-17T06:26:23Z</time>
      </trkpt>
      <trkpt lat="45.74944" lon="2.96867">
        <ele>942.52</ele>
        <time>2015-05-17T06:26:37Z</time>
      </trkpt>
      <trkpt lat="45.74962" lon="2.96861">
        <ele>948.46</ele>
        <time>2015-05-17T06:26:51Z</time>
      </trkpt>
      <trkpt lat="45.7498" lon="2.96855">
        <ele>949.42</ele>
        <time>2015-05-17T06:27:06Z</time>
      </trkpt>
      <trkpt lat="45.74999" lon="2.96849">
        <ele>949.51</ele>
        <time>2015-05-17T06:27:20Z</time>
      </trkpt>
      <trkpt lat="45.75017" lon="2.96844">
        <ele>949.96</ele>
        <time>2015-05-17T06:27:34Z</time>
      </trkpt>
      <trkpt lat="45.75036" lon="2.96838">
        <ele>948.26</ele>
        <time>2015-05-17T06:27:50Z</time>
      </trkpt>
      <trkpt lat="45.75054" lon="2.96833">
        <ele>947.26</ele>
        <time>2015-05-17T06:28:04Z</time>
      </trkpt>
      <trkpt lat="45.75073" lon="2.9683">
        <ele>944.83</ele>
        <time>2015-05-17T06:28:20Z</time>
      </trkpt>
      <trkpt lat="45.75092" lon="2.96827">
        <ele>947.25</ele>
        <time>2015-05-17T06:28:34Z</time>
      </trkpt>
      <trkpt lat="45.75111" lon="2.96821">
        <ele>947.02</ele>
        <time>2015-05-17T06:28:47Z</time>
      </trkpt>
      <trkpt lat="45.75129" lon="2.96815">
        <ele>945.76</ele>
        <time>2015-05-17T06:29:03Z</time>
      </trkpt>
      <trkpt lat="45.75147" lon="2.9681">
        <ele>944.96</ele>
        <time>2015-05-17T06:29:17Z</time>
      </trkpt>
      <trkpt lat="45.75166" lon="2.96805">
        <ele>945.93</ele>
        <time>2015-05-17T06:29:32Z</time>
      </trkpt>
      <trkpt lat="45.75184" lon="2.96802">
        <ele>946.98</ele>
        <time>2015-05-17T06:29:46Z</time>
      </trkpt>
      <trkpt lat="45.75202" lon="2.96803">
        <ele>946.46</ele>
        <time>2015-05-17T06:30:00Z</time>
      </trkpt>
      <trkpt lat="45.75221" lon="2.968">
        <ele>947.07</ele>
        <time>2015-05-17T06:30:17Z</time>
      </trkpt>
      <trkpt lat="45.75268" lon="2.96803">
        <ele>948.8</ele>
        <time>2015-05-17T06:31:04Z</time>
      </trkpt>
      <trkpt lat="45.75282" lon="2.96785">
        <ele>950.15</ele>
        <time>2015-05-17T06:31:33Z</time>
      </trkpt>
      <trkpt lat="45.75292" lon="2.96762">
        <ele>950.05</ele>
        <time>2015-05-17T06:31:47Z</time>
      </trkpt>
      <trkpt lat="45.75307" lon="2.96746">
        <ele>950.7</ele>
        <time>2015-05-17T06:32:02Z</time>
      </trkpt>
      <trkpt lat="45.75325" lon="2.96738">
        <ele>952.26</ele>
        <time>2015-05-17T06:32:21Z</time>
      </trkpt>
      <trkpt lat="45.75343" lon="2.96731">
        <ele>950.63</ele>
        <time>2015-05-17T06:32:35Z</time>
      </trkpt>
      <trkpt lat="45.75361" lon="2.96724">
        <ele>951.44</ele>
        <time>2015-05-17T06:32:59Z</time>
      </trkpt>
      <trkpt lat="45.7538" lon="2.96719">
        <ele>950.37</ele>
        <time>2015-05-17T06:33:09Z</time>
      </trkpt>
      <trkpt lat="45.75398" lon="2.96715">
        <ele>950.62</ele>
        <time>2015-05-17T06:33:20Z</time>
      </trkpt>
      <trkpt lat="45.75415" lon="2.96704">
        <ele>956.59</ele>
        <time>2015-05-17T06:33:33Z</time>
      </trkpt>
      <trkpt lat="45.75432" lon="2.96696">
        <ele>957.19</ele>
        <time>2015-05-17T06:33:49Z</time>
      </trkpt>
      <trkpt lat="45.7545" lon="2.96689">
        <ele>957.4</ele>
        <time>2015-05-17T06:34:03Z</time>
      </trkpt>
      <trkpt lat="45.75468" lon="2.96684">
        <ele>958.24</ele>
        <time>2015-05-17T06:34:17Z</time>
      </trkpt>
      <trkpt lat="45.75484" lon="2.96672">
        <ele>956.44</ele>
        <time>2015-05-17T06:34:30Z</time>
      </trkpt>
      <trkpt lat="45.75502" lon="2.96662">
        <ele>963.12</ele>
        <time>2015-05-17T06:34:43Z</time>
      </trkpt>
      <trkpt lat="45.75519" lon="2.9665">
        <ele>960.01</ele>
        <time>2015-05-17T06:35:00Z</time>
      </trkpt>
      <trkpt lat="45.75537" lon="2.96642">
        <ele>955.48</ele>
        <time>2015-05-17T06:35:11Z</time>
      </trkpt>
      <trkpt lat="45.75555" lon="2.96632">
        <ele>955.86</ele>
        <time>2015-05-17T06:35:41Z</time>
      </trkpt>
      <trkpt lat="45.75573" lon="2.96622">
        <ele>957.62</ele>
        <time>2015-05-17T06:35:52Z</time>
      </trkpt>
      <trkpt lat="45.75591" lon="2.9661">
        <ele>966.8</ele>
        <time>2015-05-17T06:36:19Z</time>
      </trkpt>
      <trkpt lat="45.75607" lon="2.96598">
        <ele>969.05</ele>
        <time>2015-05-17T06:36:41Z</time>
      </trkpt>
      <trkpt lat="45.75626" lon="2.96588">
        <ele>973.62</ele>
        <time>2015-05-17T06:36:51Z</time>
      </trkpt>
      <trkpt lat="45.75646" lon="2.96583">
        <ele>974.06</ele>
        <time>2015-05-17T06:37:13Z</time>
      </trkpt>
      <trkpt lat="45.75666" lon="2.96577">
        <ele>967.79</ele>
        <time>2015-05-17T06:37:20Z</time>
      </trkpt>
      <trkpt lat="45.75684" lon="2.96568">
        <ele>964.45</ele>
        <time>2015-05-17T06:37:29Z</time>
      </trkpt>
      <trkpt lat="45.75703" lon="2.96564">
        <ele>961.12</ele>
        <time>2015-05-17T06:37:38Z</time>
      </trkpt>
      <trkpt lat="45.75723" lon="2.9656">
        <ele>958.04</ele>
        <time>2015-05-17T06:37:49Z</time>
      </trkpt>
      <trkpt lat="45.75742" lon="2.96557">
        <ele>956.35</ele>
        <time>2015-05-17T06:37:58Z</time>
      </trkpt>
      <trkpt lat="45.75759" lon="2.96547">
        <ele>953.53</ele>
        <time>2015-05-17T06:38:16Z</time>
      </trkpt>
      <trkpt lat="45.75776" lon="2.96538">
        <ele>952.39</ele>
        <time>2015-05-17T06:38:45Z</time>
      </trkpt>
      <trkpt lat="45.75794" lon="2.96531">
        <ele>954.59</ele>
        <time>2015-05-17T06:39:19Z</time>
      </trkpt>
      <trkpt lat="45.75814" lon="2.96527">
        <ele>948.55</ele>
        <time>2015-05-17T06:39:43Z</time>
      </trkpt>
      <trkpt lat="45.75831" lon="2.9652">
        <ele>950.73</ele>
        <time>2015-05-17T06:39:54Z</time>
      </trkpt>
      <trkpt lat="45.7585" lon="2.9652">
        <ele>949.02</ele>
        <time>2015-05-17T06:40:04Z</time>
      </trkpt>
      <trkpt lat="45.75868" lon="2.96514">
        <ele>952.8</ele>
        <time>2015-05-17T06:40:27Z</time>
      </trkpt>
      <trkpt lat="45.75885" lon="2.96506">
        <ele>946.15</ele>
        <time>2015-05-17T06:40:36Z</time>
      </trkpt>
      <trkpt lat="45.75905" lon="2.96505">
        <ele>951.97</ele>
        <time>2015-05-17T06:40:44Z</time>
      </trkpt>
      <trkpt lat="45.75923" lon="2.96493">
        <ele>960.14</ele>
        <time>2015-05-17T06:40:51Z</time>
      </trkpt>
      <trkpt lat="45.75943" lon="2.96491">
        <ele>960.11</ele>
        <time>2015-05-17T06:40:58Z</time>
      </trkpt>
      <trkpt lat="45.7596" lon="2.96478">
        <ele>966.63</ele>
        <time>2015-05-17T06:41:07Z</time>
      </trkpt>
      <trkpt lat="45.75979" lon="2.9647">
        <ele>962.83</ele>
        <time>2015-05-17T06:41:17Z</time>
      </trkpt>
      <trkpt lat="45.75989" lon="2.96447">
        <ele>962.65</ele>
        <time>2015-05-17T06:41:30Z</time>
      </trkpt>
      <trkpt lat="45.76005" lon="2.96434">
        <ele>964.38</ele>
        <time>2015-05-17T06:41:45Z</time>
      </trkpt>
      <trkpt lat="45.76013" lon="2.96408">
        <ele>961.69</ele>
        <time>2015-05-17T06:42:06Z</time>
      </trkpt>
      <trkpt lat="45.7602" lon="2.96384">
        <ele>961.02</ele>
        <time>2015-05-17T06:42:24Z</time>
      </trkpt>
      <trkpt lat="45.76026" lon="2.96359">
        <ele>968.45</ele>
        <time>2015-05-17T06:42:42Z</time>
      </trkpt>
      <trkpt lat="45.76034" lon="2.96334">
        <ele>970.05</ele>
        <time>2015-05-17T06:42:57Z</time>
      </trkpt>
      <trkpt lat="45.76042" lon="2.96311">
        <ele>954.57</ele>
        <time>2015-05-17T06:43:17Z</time>
      </trkpt>
      <trkpt lat="45.76055" lon="2.96292">
        <ele>963.54</ele>
        <time>2015-05-17T06:43:35Z</time>
      </trkpt>
      <trkpt lat="45.76055" lon="2.96265">
        <ele>970.92</ele>
        <time>2015-05-17T06:43:53Z</time>
      </trkpt>
      <trkpt lat="45.76067" lon="2.96243">
        <ele>975.82</ele>
        <time>2015-05-17T06:44:14Z</time>
      </trkpt>
      <trkpt lat="45.76071" lon="2.96217">
        <ele>972.56</ele>
        <time>2015-05-17T06:44:44Z</time>
      </trkpt>
      <trkpt lat="45.76072" lon="2.9619">
        <ele>968.05</ele>
        <time>2015-05-17T06:45:23Z</time>
      </trkpt>
      <trkpt lat="45.7608" lon="2.96167">
        <ele>977.93</ele>
        <time>2015-05-17T06:45:45Z</time>
      </trkpt>
      <trkpt lat="45.7609" lon="2.96146">
        <ele>986.05</ele>
        <time>2015-05-17T06:46:25Z</time>
      </trkpt>
      <trkpt lat="45.76095" lon="2.96119">
        <ele>983.36</ele>
        <time>2015-05-17T06:46:36Z</time>
      </trkpt>
      <trkpt lat="45.76092" lon="2.96092">
        <ele>993.23</ele>
        <time>2015-05-17T06:46:44Z</time>
      </trkpt>
      <trkpt lat="45.76099" lon="2.96068">
        <ele>999.55</ele>
        <time>2015-05-17T06:47:07Z</time>
      </trkpt>
      <trkpt lat="45.76094" lon="2.96042">
        <ele>1005.02</ele>
        <time>2015-05-17T06:47:42Z</time>
      </trkpt>
      <trkpt lat="45.76089" lon="2.96015">
        <ele>1016.26</ele>
        <time>2015-05-17T06:48:05Z</time>
      </trkpt>
      <trkpt lat="45.7608" lon="2.95992">
        <ele>1013.18</ele>
        <time>2015-05-17T06:48:32Z</time>
      </trkpt>
      <trkpt lat="45.7608" lon="2.95966">
        <ele>1019.56</ele>
        <time>2015-05-17T06:49:08Z</time>
      </trkpt>
      <trkpt lat="45.76073" lon="2.95941">
        <ele>1026.19</ele>
        <time>2015-05-17T06:49:42Z</time>
      </trkpt>
      <trkpt lat="45.76074" lon="2.95913">
        <ele>1037.14</ele>
        <time>2015-05-17T06:50:24Z</time>
      </trkpt>
      <trkpt lat="45.76078" lon="2.95886">
        <ele>1030.3</ele>
        <time>2015-05-17T06:51:06Z</time>
      </trkpt>
      <trkpt lat="45.76085" lon="2.95863">
        <ele>1024.63</ele>
        <time>2015-05-17T06:51:19Z</time>
      </trkpt>
      <trkpt lat="45.76093" lon="2.95839">
        <ele>1027.91</ele>
        <time>2015-05-17T06:51:34Z</time>
      </trkpt>
      <trkpt lat="45.76106" lon="2.95821">
        <ele>1034.62</ele>
        <time>2015-05-17T06:51:54Z</time>
      </trkpt>
      <trkpt lat="45.76121" lon="2.95807">
        <ele>1042.78</ele>
        <time>2015-05-17T06:52:14Z</time>
      </trkpt>
      <trkpt lat="45.76137" lon="2.95793">
        <ele>1050.4</ele>
        <time>2015-05-17T06:52:35Z</time>
      </trkpt>
      <trkpt lat="45.76152" lon="2.95778">
        <ele>1048.6</ele>
        <time>2015-05-17T06:52:55Z</time>
      </trkpt>
      <trkpt lat="45.76169" lon="2.95766">
        <ele>1048.75</ele>
        <time>2015-05-17T06:53:18Z</time>
      </trkpt>
      <trkpt lat="45.76187" lon="2.95757">
        <ele>1048.03</ele>
        <time>2015-05-17T06:53:40Z</time>
      </trkpt>
      <trkpt lat="45.76207" lon="2.95752">
        <ele>1037.53</ele>
        <time>2015-05-17T06:53:59Z</time>
      </trkpt>
      <trkpt lat="45.76227" lon="2.95754">
        <ele>1037</ele>
        <time>2015-05-17T06:54:09Z</time>
      </trkpt>
      <trkpt lat="45.76244" lon="2.95742">
        <ele>1046.53</ele>
        <time>2015-05-17T06:54:46Z</time>
      </trkpt>
      <trkpt lat="45.76261" lon="2.95735">
        <ele>1055.8</ele>
        <time>2015-05-17T06:55:00Z</time>
      </trkpt>
      <trkpt lat="45.76278" lon="2.95724">
        <ele>1056.56</ele>
        <time>2015-05-17T06:55:19Z</time>
      </trkpt>
      <trkpt lat="45.7629" lon="2.95703">
        <ele>1063.58</ele>
        <time>2015-05-17T06:55:40Z</time>
      </trkpt>
      <trkpt lat="45.76304" lon="2.95684">
        <ele>1061.22</ele>
        <time>2015-05-17T06:56:00Z</time>
      </trkpt>
      <trkpt lat="45.76319" lon="2.9567">
        <ele>1054.83</ele>
        <time>2015-05-17T06:56:27Z</time>
      </trkpt>
      <trkpt lat="45.76335" lon="2.95656">
        <ele>1061.54</ele>
        <time>2015-05-17T06:56:45Z</time>
      </trkpt>
      <trkpt lat="45.7635" lon="2.95641">
        <ele>1062.94</ele>
        <time>2015-05-17T06:57:04Z</time>
      </trkpt>
      <trkpt lat="45.76367" lon="2.95632">
        <ele>1063.12</ele>
        <time>2015-05-17T06:57:22Z</time>
      </trkpt>
      <trkpt lat="45.76384" lon="2.95619">
        <ele>1064.55</ele>
        <time>2015-05-17T06:57:43Z</time>
      </trkpt>
      <trkpt lat="45.76391" lon="2.95595">
        <ele>1068.23</ele>
        <time>2015-05-17T06:58:02Z</time>
      </trkpt>
      <trkpt lat="45.76398" lon="2.9557">
        <ele>1070.29</ele>
        <time>2015-05-17T06:58:21Z</time>
      </trkpt>
      <trkpt lat="45.76411" lon="2.9555">
        <ele>1076.16</ele>
        <time>2015-05-17T06:58:42Z</time>
      </trkpt>
      <trkpt lat="45.76428" lon="2.95543">
        <ele>1079.8</ele>
        <time>2015-05-17T06:59:03Z</time>
      </trkpt>
      <trkpt lat="45.76444" lon="2.95556">
        <ele>1079.3</ele>
        <time>2015-05-17T06:59:29Z</time>
      </trkpt>
      <trkpt lat="45.76445" lon="2.95582">
        <ele>1081.8</ele>
        <time>2015-05-17T06:59:54Z</time>
      </trkpt>
      <trkpt lat="45.76463" lon="2.95574">
        <ele>1084.67</ele>
        <time>2015-05-17T07:01:14Z</time>
      </trkpt>
      <trkpt lat="45.76479" lon="2.95587">
        <ele>1087.77</ele>
        <time>2015-05-17T07:01:33Z</time>
      </trkpt>
      <trkpt lat="45.76492" lon="2.95607">
        <ele>1089.82</ele>
        <time>2015-05-17T07:01:54Z</time>
      </trkpt>
      <trkpt lat="45.76494" lon="2.95634">
        <ele>1095.37</ele>
        <time>2015-05-17T07:02:13Z</time>
      </trkpt>
      <trkpt lat="45.76495" lon="2.9566">
        <ele>1096.86</ele>
        <time>2015-05-17T07:02:29Z</time>
      </trkpt>
      <trkpt lat="45.765" lon="2.95685">
        <ele>1107.9</ele>
        <time>2015-05-17T07:02:48Z</time>
      </trkpt>
      <trkpt lat="45.76498" lon="2.95712">
        <ele>1104.58</ele>
        <time>2015-05-17T07:03:05Z</time>
      </trkpt>
      <trkpt lat="45.76505" lon="2.95736">
        <ele>1111.94</ele>
        <time>2015-05-17T07:03:26Z</time>
      </trkpt>
      <trkpt lat="45.76515" lon="2.9576">
        <ele>1112.95</ele>
        <time>2015-05-17T07:03:46Z</time>
      </trkpt>
      <trkpt lat="45.76529" lon="2.95776">
        <ele>1120.43</ele>
        <time>2015-05-17T07:04:07Z</time>
      </trkpt>
      <trkpt lat="45.76547" lon="2.95784">
        <ele>1120.44</ele>
        <time>2015-05-17T07:04:30Z</time>
      </trkpt>
      <trkpt lat="45.76565" lon="2.95788">
        <ele>1122.53</ele>
        <time>2015-05-17T07:04:47Z</time>
      </trkpt>
      <trkpt lat="45.76582" lon="2.95797">
        <ele>1122.27</ele>
        <time>2015-05-17T07:05:09Z</time>
      </trkpt>
      <trkpt lat="45.766" lon="2.95806">
        <ele>1121.98</ele>
        <time>2015-05-17T07:05:27Z</time>
      </trkpt>
      <trkpt lat="45.76614" lon="2.95823">
        <ele>1129.59</ele>
        <time>2015-05-17T07:05:46Z</time>
      </trkpt>
      <trkpt lat="45.76621" lon="2.95849">
        <ele>1131.9</ele>
        <time>2015-05-17T07:06:08Z</time>
      </trkpt>
      <trkpt lat="45.76634" lon="2.95829">
        <ele>1130.3</ele>
        <time>2015-05-17T07:06:57Z</time>
      </trkpt>
      <trkpt lat="45.76647" lon="2.9581">
        <ele>1130.49</ele>
        <time>2015-05-17T07:07:18Z</time>
      </trkpt>
      <trkpt lat="45.76648" lon="2.95784">
        <ele>1131.01</ele>
        <time>2015-05-17T07:07:39Z</time>
      </trkpt>
      <trkpt lat="45.76655" lon="2.9576">
        <ele>1128.97</ele>
        <time>2015-05-17T07:08:02Z</time>
      </trkpt>
      <trkpt lat="45.76669" lon="2.95744">
        <ele>1140</ele>
        <time>2015-05-17T07:08:29Z</time>
      </trkpt>
      <trkpt lat="45.76688" lon="2.95745">
        <ele>1141.68</ele>
        <time>2015-05-17T07:08:53Z</time>
      </trkpt>
      <trkpt lat="45.76705" lon="2.95754">
        <ele>1150.94</ele>
        <time>2015-05-17T07:09:22Z</time>
      </trkpt>
      <trkpt lat="45.76714" lon="2.95777">
        <ele>1153.52</ele>
        <time>2015-05-17T07:09:51Z</time>
      </trkpt>
      <trkpt lat="45.76725" lon="2.95799">
        <ele>1159.73</ele>
        <time>2015-05-17T07:10:21Z</time>
      </trkpt>
      <trkpt lat="45.76741" lon="2.95811">
        <ele>1159.26</ele>
        <time>2015-05-17T07:10:47Z</time>
      </trkpt>
      <trkpt lat="45.76759" lon="2.95806">
        <ele>1159.55</ele>
        <time>2015-05-17T07:11:13Z</time>
      </trkpt>
      <trkpt lat="45.76774" lon="2.95792">
        <ele>1165.01</ele>
        <time>2015-05-17T07:11:37Z</time>
      </trkpt>
      <trkpt lat="45.7678" lon="2.95817">
        <ele>1164.67</ele>
        <time>2015-05-17T07:12:07Z</time>
      </trkpt>
      <trkpt lat="45.76772" lon="2.95842">
        <ele>1161.58</ele>
        <time>2015-05-17T07:12:55Z</time>
      </trkpt>
      <trkpt lat="45.76761" lon="2.95866">
        <ele>1165.61</ele>
        <time>2015-05-17T07:13:27Z</time>
      </trkpt>
      <trkpt lat="45.76757" lon="2.95892">
        <ele>1170.55</ele>
        <time>2015-05-17T07:13:53Z</time>
      </trkpt>
      <trkpt lat="45.76746" lon="2.95913">
        <ele>1181.74</ele>
        <time>2015-05-17T07:14:26Z</time>
      </trkpt>
      <trkpt lat="45.76739" lon="2.95937">
        <ele>1187.67</ele>
        <time>2015-05-17T07:15:02Z</time>
      </trkpt>
      <trkpt lat="45.76741" lon="2.95963">
        <ele>1197.04</ele>
        <time>2015-05-17T07:15:25Z</time>
      </trkpt>
      <trkpt lat="45.76733" lon="2.95987">
        <ele>1193.09</ele>
        <time>2015-05-17T07:15:59Z</time>
      </trkpt>
      <trkpt lat="45.76728" lon="2.96012">
        <ele>1201.54</ele>
        <time>2015-05-17T07:16:24Z</time>
      </trkpt>
      <trkpt lat="45.76727" lon="2.96038">
        <ele>1205.36</ele>
        <time>2015-05-17T07:16:52Z</time>
      </trkpt>
      <trkpt lat="45.76743" lon="2.96024">
        <ele>1213.37</ele>
        <time>2015-05-17T07:17:37Z</time>
      </trkpt>
      <trkpt lat="45.76757" lon="2.96007">
        <ele>1213.79</ele>
        <time>2015-05-17T07:18:07Z</time>
      </trkpt>
      <trkpt lat="45.76768" lon="2.95986">
        <ele>1218.06</ele>
        <time>2015-05-17T07:18:35Z</time>
      </trkpt>
      <trkpt lat="45.76779" lon="2.95966">
        <ele>1220.66</ele>
        <time>2015-05-17T07:18:54Z</time>
      </trkpt>
      <trkpt lat="45.7679" lon="2.95945">
        <ele>1224.16</ele>
        <time>2015-05-17T07:19:14Z</time>
      </trkpt>
      <trkpt lat="45.7679" lon="2.95972">
        <ele>1225.86</ele>
        <time>2015-05-17T07:19:46Z</time>
      </trkpt>
      <trkpt lat="45.76786" lon="2.95997">
        <ele>1228.8</ele>
        <time>2015-05-17T07:20:12Z</time>
      </trkpt>
      <trkpt lat="45.76777" lon="2.9602">
        <ele>1226.35</ele>
        <time>2015-05-17T07:20:31Z</time>
      </trkpt>
      <trkpt lat="45.7677" lon="2.96045">
        <ele>1234.56</ele>
        <time>2015-05-17T07:20:59Z</time>
      </trkpt>
      <trkpt lat="45.76785" lon="2.96061">
        <ele>1242.21</ele>
        <time>2015-05-17T07:21:32Z</time>
      </trkpt>
      <trkpt lat="45.76791" lon="2.96035">
        <ele>1244.85</ele>
        <time>2015-05-17T07:21:54Z</time>
      </trkpt>
      <trkpt lat="45.76801" lon="2.96015">
        <ele>1248.68</ele>
        <time>2015-05-17T07:22:23Z</time>
      </trkpt>
      <trkpt lat="45.76816" lon="2.95998">
        <ele>1247.37</ele>
        <time>2015-05-17T07:22:48Z</time>
      </trkpt>
      <trkpt lat="45.7683" lon="2.95983">
        <ele>1245.89</ele>
        <time>2015-05-17T07:23:12Z</time>
      </trkpt>
      <trkpt lat="45.76846" lon="2.95971">
        <ele>1256.53</ele>
        <time>2015-05-17T07:23:56Z</time>
      </trkpt>
      <trkpt lat="45.76861" lon="2.95957">
        <ele>1261.75</ele>
        <time>2015-05-17T07:24:20Z</time>
      </trkpt>
      <trkpt lat="45.76876" lon="2.95942">
        <ele>1269.8</ele>
        <time>2015-05-17T07:24:47Z</time>
      </trkpt>
      <trkpt lat="45.76895" lon="2.95939">
        <ele>1274.77</ele>
        <time>2015-05-17T07:25:16Z</time>
      </trkpt>
      <trkpt lat="45.76891" lon="2.95964">
        <ele>1274.73</ele>
        <time>2015-05-17T07:25:49Z</time>
      </trkpt>
      <trkpt lat="45.76876" lon="2.95978">
        <ele>1279.13</ele>
        <time>2015-05-17T07:26:22Z</time>
      </trkpt>
      <trkpt lat="45.76893" lon="2.95982">
        <ele>1285.05</ele>
        <time>2015-05-17T07:27:03Z</time>
      </trkpt>
      <trkpt lat="45.76911" lon="2.95974">
        <ele>1282.25</ele>
        <time>2015-05-17T07:27:26Z</time>
      </trkpt>
      <trkpt lat="45.76926" lon="2.9596">
        <ele>1291.45</ele>
        <time>2015-05-17T07:27:54Z</time>
      </trkpt>
      <trkpt lat="45.76941" lon="2.95945">
        <ele>1297.67</ele>
        <time>2015-05-17T07:28:23Z</time>
      </trkpt>
      <trkpt lat="45.76959" lon="2.95938">
        <ele>1302.95</ele>
        <time>2015-05-17T07:29:04Z</time>
      </trkpt>
      <trkpt lat="45.76954" lon="2.95965">
        <ele>1300.54</ele>
        <time>2015-05-17T07:29:35Z</time>
      </trkpt>
      <trkpt lat="45.76943" lon="2.95986">
        <ele>1302.5</ele>
        <time>2015-05-17T07:30:05Z</time>
      </trkpt>
      <trkpt lat="45.7693" lon="2.96005">
        <ele>1309</ele>
        <time>2015-05-17T07:30:35Z</time>
      </trkpt>
      <trkpt lat="45.76947" lon="2.95996">
        <ele>1318.74</ele>
        <time>2015-05-17T07:31:10Z</time>
      </trkpt>
      <trkpt lat="45.76948" lon="2.96022">
        <ele>1324.53</ele>
        <time>2015-05-17T07:32:14Z</time>
      </trkpt>
      <trkpt lat="45.76966" lon="2.96018">
        <ele>1336.67</ele>
        <time>2015-05-17T07:33:07Z</time>
      </trkpt>
      <trkpt lat="45.76979" lon="2.96">
        <ele>1344.29</ele>
        <time>2015-05-17T07:33:45Z</time>
      </trkpt>
      <trkpt lat="45.76983" lon="2.96026">
        <ele>1349.29</ele>
        <time>2015-05-17T07:34:25Z</time>
      </trkpt>
      <trkpt lat="45.76972" lon="2.96047">
        <ele>1352.61</ele>
        <time>2015-05-17T07:34:54Z</time>
      </trkpt>
      <trkpt lat="45.76958" lon="2.96064">
        <ele>1355.64</ele>
        <time>2015-05-17T07:35:20Z</time>
      </trkpt>
      <trkpt lat="45.76943" lon="2.96079">
        <ele>1358.67</ele>
        <time>2015-05-17T07:35:32Z</time>
      </trkpt>
      <trkpt lat="45.7693" lon="2.96098">
        <ele>1367.86</ele>
        <time>2015-05-17T07:35:46Z</time>
      </trkpt>
      <trkpt lat="45.76937" lon="2.96121">
        <ele>1374.41</ele>
        <time>2015-05-17T07:36:14Z</time>
      </trkpt>
      <trkpt lat="45.76955" lon="2.96116">
        <ele>1376.34</ele>
        <time>2015-05-17T07:36:40Z</time>
      </trkpt>
      <trkpt lat="45.76973" lon="2.9611">
        <ele>1380.76</ele>
        <time>2015-05-17T07:37:00Z</time>
      </trkpt>
      <trkpt lat="45.7699" lon="2.96093">
        <ele>1385.8</ele>
        <time>2015-05-17T07:37:24Z</time>
      </trkpt>
      <trkpt lat="45.77007" lon="2.96086">
        <ele>1391.73</ele>
        <time>2015-05-17T07:37:48Z</time>
      </trkpt>
      <trkpt lat="45.7702" lon="2.96105">
        <ele>1396.3</ele>
        <time>2015-05-17T07:38:11Z</time>
      </trkpt>
      <trkpt lat="45.77029" lon="2.96128">
        <ele>1400.28</ele>
        <time>2015-05-17T07:38:33Z</time>
      </trkpt>
      <trkpt lat="45.77041" lon="2.96148">
        <ele>1406.28</ele>
        <time>2015-05-17T07:38:56Z</time>
      </trkpt>
      <trkpt lat="45.77055" lon="2.96166">
        <ele>1408.8</ele>
        <time>2015-05-17T07:39:18Z</time>
      </trkpt>
      <trkpt lat="45.77068" lon="2.96184">
        <ele>1412.72</ele>
        <time>2015-05-17T07:39:39Z</time>
      </trkpt>
      <trkpt lat="45.77081" lon="2.96202">
        <ele>1416.93</ele>
        <time>2015-05-17T07:40:19Z</time>
      </trkpt>
      <trkpt lat="45.7709" lon="2.96225">
        <ele>1421.78</ele>
        <time>2015-05-17T07:41:16Z</time>
      </trkpt>
      <trkpt lat="45.77085" lon="2.9625">
        <ele>1422.05</ele>
        <time>2015-05-17T07:41:47Z</time>
      </trkpt>
      <trkpt lat="45.77085" lon="2.96224">
        <ele>1421.8</ele>
        <time>2015-05-17T07:43:05Z</time>
      </trkpt>
      <trkpt lat="45.77081" lon="2.9625">
        <ele>1412.8</ele>
        <time>2015-05-17T07:44:35Z</time>
      </trkpt>
      <trkpt lat="45.77078" lon="2.96276">
        <ele>1413.91</ele>
        <time>2015-05-17T07:44:49Z</time>
      </trkpt>
      <trkpt lat="45.77082" lon="2.96303">
        <ele>1414.82</ele>
        <time>2015-05-17T07:45:08Z</time>
      </trkpt>
      <trkpt lat="45.77092" lon="2.96325">
        <ele>1416.3</ele>
        <time>2015-05-17T07:45:24Z</time>
      </trkpt>
      <trkpt lat="45.77102" lon="2.96347">
        <ele>1422.85</ele>
        <time>2015-05-17T07:45:45Z</time>
      </trkpt>
      <trkpt lat="45.77112" lon="2.9637">
        <ele>1423.86</ele>
        <time>2015-05-17T07:46:06Z</time>
      </trkpt>
      <trkpt lat="45.77123" lon="2.9639">
        <ele>1428.67</ele>
        <time>2015-05-17T07:46:30Z</time>
      </trkpt>
      <trkpt lat="45.77138" lon="2.96374">
        <ele>1433.79</ele>
        <time>2015-05-17T07:46:56Z</time>
      </trkpt>
      <trkpt lat="45.77151" lon="2.96355">
        <ele>1436.73</ele>
        <time>2015-05-17T07:47:13Z</time>
      </trkpt>
      <trkpt lat="45.77158" lon="2.96331">
        <ele>1437.8</ele>
        <time>2015-05-17T07:47:28Z</time>
      </trkpt>
      <trkpt lat="45.7717" lon="2.96311">
        <ele>1437.8</ele>
        <time>2015-05-17T07:47:45Z</time>
      </trkpt>
      <trkpt lat="45.77158" lon="2.96331">
        <ele>1435.89</ele>
        <time>2015-05-17T07:49:02Z</time>
      </trkpt>
      <trkpt lat="45.77155" lon="2.96357">
        <ele>1435.74</ele>
        <time>2015-05-17T07:49:42Z</time>
      </trkpt>
      <trkpt lat="45.77166" lon="2.9638">
        <ele>1439.51</ele>
        <time>2015-05-17T07:49:56Z</time>
      </trkpt>
      <trkpt lat="45.77152" lon="2.9636">
        <ele>1436.96</ele>
        <time>2015-05-17T07:50:07Z</time>
      </trkpt>
      <trkpt lat="45.77139" lon="2.96377">
        <ele>1434.3</ele>
        <time>2015-05-17T07:50:20Z</time>
      </trkpt>
      <trkpt lat="45.77124" lon="2.96397">
        <ele>1433.11</ele>
        <time>2015-05-17T07:50:33Z</time>
      </trkpt>
      <trkpt lat="45.77135" lon="2.9642">
        <ele>1435.55</ele>
        <time>2015-05-17T07:50:47Z</time>
      </trkpt>
      <trkpt lat="45.77142" lon="2.96444">
        <ele>1438.55</ele>
        <time>2015-05-17T07:51:03Z</time>
      </trkpt>
      <trkpt lat="45.77144" lon="2.96471">
        <ele>1440.8</ele>
        <time>2015-05-17T07:51:19Z</time>
      </trkpt>
      <trkpt lat="45.77146" lon="2.96497">
        <ele>1443.67</ele>
        <time>2015-05-17T07:51:35Z</time>
      </trkpt>
      <trkpt lat="45.77164" lon="2.96505">
        <ele>1447.28</ele>
        <time>2015-05-17T07:51:57Z</time>
      </trkpt>
      <trkpt lat="45.77182" lon="2.96511">
        <ele>1449.47</ele>
        <time>2015-05-17T07:53:32Z</time>
      </trkpt>
      <trkpt lat="45.772" lon="2.96514">
        <ele>1453.54</ele>
        <time>2015-05-17T07:53:57Z</time>
      </trkpt>
      <trkpt lat="45.77218" lon="2.96506">
        <ele>1456.27</ele>
        <time>2015-05-17T07:54:58Z</time>
      </trkpt>
      <trkpt lat="45.77214" lon="2.96481">
        <ele>1457.8</ele>
        <time>2015-05-17T07:55:21Z</time>
      </trkpt>
      <trkpt lat="45.77223" lon="2.96504">
        <ele>1457.8</ele>
        <time>2015-05-17T07:56:59Z</time>
      </trkpt>
      <trkpt lat="45.77235" lon="2.96524">
        <ele>1457.79</ele>
        <time>2015-05-17T07:57:14Z</time>
      </trkpt>
      <trkpt lat="45.77254" lon="2.9652">
        <ele>1459.79</ele>
        <time>2015-05-17T07:58:00Z</time>
      </trkpt>
      <trkpt lat="45.77236" lon="2.96517">
        <ele>1457.91</ele>
        <time>2015-05-17T07:59:04Z</time>
      </trkpt>
      <trkpt lat="45.77254" lon="2.9652">
        <ele>1456.55</ele>
        <time>2015-05-17T08:00:41Z</time>
      </trkpt>
      <trkpt lat="45.77272" lon="2.96515">
        <ele>1454.92</ele>
        <time>2015-05-17T08:00:53Z</time>
      </trkpt>
      <trkpt lat="45.77287" lon="2.965">
        <ele>1453.55</ele>
        <time>2015-05-17T08:01:05Z</time>
      </trkpt>
      <trkpt lat="45.773" lon="2.96481">
        <ele>1451.83</ele>
        <time>2015-05-17T08:01:17Z</time>
      </trkpt>
      <trkpt lat="45.7731" lon="2.9646">
        <ele>1451.8</ele>
        <time>2015-05-17T08:01:31Z</time>
      </trkpt>
      <trkpt lat="45.7731" lon="2.96433">
        <ele>1451.8</ele>
        <time>2015-05-17T08:01:44Z</time>
      </trkpt>
      <trkpt lat="45.77307" lon="2.96407">
        <ele>1455.67</ele>
        <time>2015-05-17T08:02:10Z</time>
      </trkpt>
      <trkpt lat="45.77305" lon="2.96381">
        <ele>1452.43</ele>
        <time>2015-05-17T08:04:38Z</time>
      </trkpt>
      <trkpt lat="45.77302" lon="2.96355">
        <ele>1444.85</ele>
        <time>2015-05-17T08:05:50Z</time>
      </trkpt>
      <trkpt lat="45.77303" lon="2.96328">
        <ele>1443</ele>
        <time>2015-05-17T08:06:14Z</time>
      </trkpt>
      <trkpt lat="45.77303" lon="2.96302">
        <ele>1440.8</ele>
        <time>2015-05-17T08:06:29Z</time>
      </trkpt>
      <trkpt lat="45.77292" lon="2.96281">
        <ele>1438.83</ele>
        <time>2015-05-17T08:06:53Z</time>
      </trkpt>
      <trkpt lat="45.77279" lon="2.96262">
        <ele>1435.93</ele>
        <time>2015-05-17T08:07:09Z</time>
      </trkpt>
      <trkpt lat="45.77264" lon="2.96247">
        <ele>1431.99</ele>
        <time>2015-05-17T08:07:24Z</time>
      </trkpt>
      <trkpt lat="45.77248" lon="2.96233">
        <ele>1429.31</ele>
        <time>2015-05-17T08:07:40Z</time>
      </trkpt>
      <trkpt lat="45.77232" lon="2.96219">
        <ele>1426.87</ele>
        <time>2015-05-17T08:07:57Z</time>
      </trkpt>
      <trkpt lat="45.77216" lon="2.96207">
        <ele>1422.93</ele>
        <time>2015-05-17T08:08:12Z</time>
      </trkpt>
      <trkpt lat="45.77198" lon="2.96198">
        <ele>1420.79</ele>
        <time>2015-05-17T08:08:28Z</time>
      </trkpt>
      <trkpt lat="45.7718" lon="2.96191">
        <ele>1420.14</ele>
        <time>2015-05-17T08:08:43Z</time>
      </trkpt>
      <trkpt lat="45.77161" lon="2.96194">
        <ele>1419.56</ele>
        <time>2015-05-17T08:08:57Z</time>
      </trkpt>
      <trkpt lat="45.77145" lon="2.96206">
        <ele>1419.8</ele>
        <time>2015-05-17T08:09:13Z</time>
      </trkpt>
      <trkpt lat="45.77131" lon="2.96225">
        <ele>1421.8</ele>
        <time>2015-05-17T08:09:31Z</time>
      </trkpt>
      <trkpt lat="45.7712" lon="2.96245">
        <ele>1423.61</ele>
        <time>2015-05-17T08:09:47Z</time>
      </trkpt>
      <trkpt lat="45.77108" lon="2.96266">
        <ele>1422.83</ele>
        <time>2015-05-17T08:10:03Z</time>
      </trkpt>
      <trkpt lat="45.771" lon="2.9629">
        <ele>1422.74</ele>
        <time>2015-05-17T08:10:19Z</time>
      </trkpt>
      <trkpt lat="45.77094" lon="2.96314">
        <ele>1422.8</ele>
        <time>2015-05-17T08:10:36Z</time>
      </trkpt>
      <trkpt lat="45.77088" lon="2.96338">
        <ele>1423.78</ele>
        <time>2015-05-17T08:10:53Z</time>
      </trkpt>
      <trkpt lat="45.77084" lon="2.96363">
        <ele>1422.3</ele>
        <time>2015-05-17T08:11:10Z</time>
      </trkpt>
      <trkpt lat="45.77079" lon="2.9639">
        <ele>1418.44</ele>
        <time>2015-05-17T08:11:27Z</time>
      </trkpt>
      <trkpt lat="45.77074" lon="2.96415">
        <ele>1414.85</ele>
        <time>2015-05-17T08:11:45Z</time>
      </trkpt>
      <trkpt lat="45.7707" lon="2.9644">
        <ele>1414.93</ele>
        <time>2015-05-17T08:11:58Z</time>
      </trkpt>
      <trkpt lat="45.77071" lon="2.96467">
        <ele>1409.84</ele>
        <time>2015-05-17T08:12:10Z</time>
      </trkpt>
      <trkpt lat="45.77071" lon="2.96494">
        <ele>1413.39</ele>
        <time>2015-05-17T08:12:26Z</time>
      </trkpt>
      <trkpt lat="45.77073" lon="2.9652">
        <ele>1414.62</ele>
        <time>2015-05-17T08:12:36Z</time>
      </trkpt>
      <trkpt lat="45.77078" lon="2.96546">
        <ele>1406.06</ele>
        <time>2015-05-17T08:12:52Z</time>
      </trkpt>
      <trkpt lat="45.77085" lon="2.9657">
        <ele>1407.9</ele>
        <time>2015-05-17T08:13:05Z</time>
      </trkpt>
      <trkpt lat="45.77096" lon="2.9659">
        <ele>1403.33</ele>
        <time>2015-05-17T08:13:21Z</time>
      </trkpt>
      <trkpt lat="45.77104" lon="2.96615">
        <ele>1399.01</ele>
        <time>2015-05-17T08:13:36Z</time>
      </trkpt>
      <trkpt lat="45.77119" lon="2.96629">
        <ele>1402.17</ele>
        <time>2015-05-17T08:13:46Z</time>
      </trkpt>
      <trkpt lat="45.77132" lon="2.96649">
        <ele>1395.71</ele>
        <time>2015-05-17T08:14:05Z</time>
      </trkpt>
      <trkpt lat="45.77148" lon="2.96662">
        <ele>1398.39</ele>
        <time>2015-05-17T08:14:18Z</time>
      </trkpt>
      <trkpt lat="45.77165" lon="2.96675">
        <ele>1392.25</ele>
        <time>2015-05-17T08:14:33Z</time>
      </trkpt>
      <trkpt lat="45.77183" lon="2.96682">
        <ele>1385.32</ele>
        <time>2015-05-17T08:14:48Z</time>
      </trkpt>
      <trkpt lat="45.77202" lon="2.9669">
        <ele>1381.55</ele>
        <time>2015-05-17T08:15:04Z</time>
      </trkpt>
      <trkpt lat="45.77221" lon="2.96691">
        <ele>1380.4</ele>
        <time>2015-05-17T08:15:19Z</time>
      </trkpt>
      <trkpt lat="45.7724" lon="2.9669">
        <ele>1372.89</ele>
        <time>2015-05-17T08:15:36Z</time>
      </trkpt>
      <trkpt lat="45.77257" lon="2.96682">
        <ele>1370.83</ele>
        <time>2015-05-17T08:15:50Z</time>
      </trkpt>
      <trkpt lat="45.77272" lon="2.96665">
        <ele>1366.8</ele>
        <time>2015-05-17T08:16:05Z</time>
      </trkpt>
      <trkpt lat="45.77289" lon="2.96652">
        <ele>1363.7</ele>
        <time>2015-05-17T08:16:22Z</time>
      </trkpt>
      <trkpt lat="45.77305" lon="2.96638">
        <ele>1365.41</ele>
        <time>2015-05-17T08:16:36Z</time>
      </trkpt>
      <trkpt lat="45.77324" lon="2.96633">
        <ele>1361.15</ele>
        <time>2015-05-17T08:16:54Z</time>
      </trkpt>
      <trkpt lat="45.77342" lon="2.96629">
        <ele>1354.43</ele>
        <time>2015-05-17T08:17:10Z</time>
      </trkpt>
      <trkpt lat="45.77359" lon="2.96639">
        <ele>1354.8</ele>
        <time>2015-05-17T08:17:38Z</time>
      </trkpt>
      <trkpt lat="45.77378" lon="2.96638">
        <ele>1349.07</ele>
        <time>2015-05-17T08:18:07Z</time>
      </trkpt>
      <trkpt lat="45.77394" lon="2.96623">
        <ele>1340.99</ele>
        <time>2015-05-17T08:18:29Z</time>
      </trkpt>
      <trkpt lat="45.7741" lon="2.96612">
        <ele>1332.43</ele>
        <time>2015-05-17T08:18:53Z</time>
      </trkpt>
      <trkpt lat="45.77428" lon="2.96604">
        <ele>1325.83</ele>
        <time>2015-05-17T08:19:16Z</time>
      </trkpt>
      <trkpt lat="45.77446" lon="2.96593">
        <ele>1317.08</ele>
        <time>2015-05-17T08:19:42Z</time>
      </trkpt>
      <trkpt lat="45.7746" lon="2.96577">
        <ele>1312.81</ele>
        <time>2015-05-17T08:20:01Z</time>
      </trkpt>
      <trkpt lat="45.77472" lon="2.96557">
        <ele>1311.99</ele>
        <time>2015-05-17T08:20:18Z</time>
      </trkpt>
      <trkpt lat="45.77487" lon="2.96543">
        <ele>1302.4</ele>
        <time>2015-05-17T08:20:37Z</time>
      </trkpt>
      <trkpt lat="45.775" lon="2.96523">
        <ele>1298.46</ele>
        <time>2015-05-17T08:20:57Z</time>
      </trkpt>
      <trkpt lat="45.77513" lon="2.96503">
        <ele>1298.3</ele>
        <time>2015-05-17T08:21:14Z</time>
      </trkpt>
      <trkpt lat="45.77526" lon="2.96484">
        <ele>1295.83</ele>
        <time>2015-05-17T08:21:31Z</time>
      </trkpt>
      <trkpt lat="45.77537" lon="2.96463">
        <ele>1292.07</ele>
        <time>2015-05-17T08:21:49Z</time>
      </trkpt>
      <trkpt lat="45.77554" lon="2.96458">
        <ele>1285.73</ele>
        <time>2015-05-17T08:22:18Z</time>
      </trkpt>
      <trkpt lat="45.77562" lon="2.96483">
        <ele>1281.06</ele>
        <time>2015-05-17T08:22:43Z</time>
      </trkpt>
      <trkpt lat="45.7758" lon="2.9649">
        <ele>1272.33</ele>
        <time>2015-05-17T08:23:08Z</time>
      </trkpt>
      <trkpt lat="45.77593" lon="2.96472">
        <ele>1270.07</ele>
        <time>2015-05-17T08:23:28Z</time>
      </trkpt>
      <trkpt lat="45.77607" lon="2.96453">
        <ele>1267.85</ele>
        <time>2015-05-17T08:23:45Z</time>
      </trkpt>
      <trkpt lat="45.7762" lon="2.96435">
        <ele>1265.89</ele>
        <time>2015-05-17T08:24:04Z</time>
      </trkpt>
      <trkpt lat="45.77635" lon="2.96452">
        <ele>1257.27</ele>
        <time>2015-05-17T08:24:24Z</time>
      </trkpt>
      <trkpt lat="45.77643" lon="2.96476">
        <ele>1250.43</ele>
        <time>2015-05-17T08:24:42Z</time>
      </trkpt>
      <trkpt lat="45.77661" lon="2.96469">
        <ele>1248.92</ele>
        <time>2015-05-17T08:24:57Z</time>
      </trkpt>
      <trkpt lat="45.77678" lon="2.96459">
        <ele>1246.06</ele>
        <time>2015-05-17T08:25:13Z</time>
      </trkpt>
      <trkpt lat="45.77696" lon="2.9645">
        <ele>1243.86</ele>
        <time>2015-05-17T08:25:28Z</time>
      </trkpt>
      <trkpt lat="45.77716" lon="2.96444">
        <ele>1241.86</ele>
        <time>2015-05-17T08:25:42Z</time>
      </trkpt>
      <trkpt lat="45.77734" lon="2.96439">
        <ele>1237.9</ele>
        <time>2015-05-17T08:25:57Z</time>
      </trkpt>
      <trkpt lat="45.77753" lon="2.96434">
        <ele>1235.75</ele>
        <time>2015-05-17T08:26:11Z</time>
      </trkpt>
      <trkpt lat="45.77771" lon="2.96431">
        <ele>1230.84</ele>
        <time>2015-05-17T08:26:27Z</time>
      </trkpt>
      <trkpt lat="45.7779" lon="2.96428">
        <ele>1226.92</ele>
        <time>2015-05-17T08:26:42Z</time>
      </trkpt>
      <trkpt lat="45.77808" lon="2.96427">
        <ele>1225.33</ele>
        <time>2015-05-17T08:26:55Z</time>
      </trkpt>
      <trkpt lat="45.77822" lon="2.9641">
        <ele>1224.64</ele>
        <time>2015-05-17T08:27:14Z</time>
      </trkpt>
      <trkpt lat="45.77835" lon="2.96393">
        <ele>1220.86</ele>
        <time>2015-05-17T08:27:30Z</time>
      </trkpt>
      <trkpt lat="45.77852" lon="2.96381">
        <ele>1221.08</ele>
        <time>2015-05-17T08:27:44Z</time>
      </trkpt>
      <trkpt lat="45.7787" lon="2.96376">
        <ele>1221.56</ele>
        <time>2015-05-17T08:27:56Z</time>
      </trkpt>
      <trkpt lat="45.7789" lon="2.96377">
        <ele>1221.06</ele>
        <time>2015-05-17T08:28:10Z</time>
      </trkpt>
      <trkpt lat="45.77909" lon="2.9638">
        <ele>1215.97</ele>
        <time>2015-05-17T08:28:27Z</time>
      </trkpt>
      <trkpt lat="45.77928" lon="2.96378">
        <ele>1211.16</ele>
        <time>2015-05-17T08:28:44Z</time>
      </trkpt>
      <trkpt lat="45.77947" lon="2.96384">
        <ele>1207.54</ele>
        <time>2015-05-17T08:29:00Z</time>
      </trkpt>
      <trkpt lat="45.77964" lon="2.96395">
        <ele>1209.27</ele>
        <time>2015-05-17T08:29:15Z</time>
      </trkpt>
      <trkpt lat="45.77978" lon="2.96412">
        <ele>1209.29</ele>
        <time>2015-05-17T08:29:59Z</time>
      </trkpt>
      <trkpt lat="45.77997" lon="2.96418">
        <ele>1199.34</ele>
        <time>2015-05-17T08:30:13Z</time>
      </trkpt>
      <trkpt lat="45.78015" lon="2.96428">
        <ele>1190.08</ele>
        <time>2015-05-17T08:30:29Z</time>
      </trkpt>
      <trkpt lat="45.78031" lon="2.96442">
        <ele>1189.79</ele>
        <time>2015-05-17T08:30:45Z</time>
      </trkpt>
      <trkpt lat="45.78041" lon="2.96465">
        <ele>1188.9</ele>
        <time>2015-05-17T08:30:57Z</time>
      </trkpt>
      <trkpt lat="45.78041" lon="2.96491">
        <ele>1192.29</ele>
        <time>2015-05-17T08:31:11Z</time>
      </trkpt>
      <trkpt lat="45.78055" lon="2.96508">
        <ele>1184.14</ele>
        <time>2015-05-17T08:31:39Z</time>
      </trkpt>
      <trkpt lat="45.78074" lon="2.9651">
        <ele>1182.8</ele>
        <time>2015-05-17T08:31:53Z</time>
      </trkpt>
      <trkpt lat="45.78093" lon="2.96512">
        <ele>1177.62</ele>
        <time>2015-05-17T08:32:08Z</time>
      </trkpt>
      <trkpt lat="45.7811" lon="2.96522">
        <ele>1171.84</ele>
        <time>2015-05-17T08:32:23Z</time>
      </trkpt>
      <trkpt lat="45.7813" lon="2.96519">
        <ele>1169.28</ele>
        <time>2015-05-17T08:32:46Z</time>
      </trkpt>
      <trkpt lat="45.78148" lon="2.96517">
        <ele>1172.51</ele>
        <time>2015-05-17T08:33:01Z</time>
      </trkpt>
      <trkpt lat="45.78164" lon="2.96533">
        <ele>1162.67</ele>
        <time>2015-05-17T08:33:17Z</time>
      </trkpt>
      <trkpt lat="45.78179" lon="2.96549">
        <ele>1158.17</ele>
        <time>2015-05-17T08:33:31Z</time>
      </trkpt>
      <trkpt lat="45.78196" lon="2.96558">
        <ele>1152.3</ele>
        <time>2015-05-17T08:33:48Z</time>
      </trkpt>
      <trkpt lat="45.78214" lon="2.96562">
        <ele>1148.9</ele>
        <time>2015-05-17T08:34:03Z</time>
      </trkpt>
      <trkpt lat="45.78234" lon="2.96559">
        <ele>1146.91</ele>
        <time>2015-05-17T08:34:19Z</time>
      </trkpt>
      <trkpt lat="45.78254" lon="2.96555">
        <ele>1145.03</ele>
        <time>2015-05-17T08:34:44Z</time>
      </trkpt>
      <trkpt lat="45.78273" lon="2.96556">
        <ele>1142.4</ele>
        <time>2015-05-17T08:34:53Z</time>
      </trkpt>
      <trkpt lat="45.7829" lon="2.96548">
        <ele>1143.8</ele>
        <time>2015-05-17T08:35:16Z</time>
      </trkpt>
      <trkpt lat="45.78308" lon="2.96548">
        <ele>1140.86</ele>
        <time>2015-05-17T08:37:30Z</time>
      </trkpt>
      <trkpt lat="45.78326" lon="2.96551">
        <ele>1137.93</ele>
        <time>2015-05-17T08:37:52Z</time>
      </trkpt>
      <trkpt lat="45.78344" lon="2.96556">
        <ele>1132.04</ele>
        <time>2015-05-17T08:38:09Z</time>
      </trkpt>
      <trkpt lat="45.7836" lon="2.9657">
        <ele>1130.8</ele>
        <time>2015-05-17T08:38:29Z</time>
      </trkpt>
      <trkpt lat="45.78367" lon="2.96573">
        <ele>1129.8</ele>
        <time>2015-05-17T08:38:38Z</time>
      </trkpt>
      <trkpt lat="45.78384" lon="2.96583">
        <ele>1127.83</ele>
        <time>2015-05-17T08:39:21Z</time>
      </trkpt>
      <trkpt lat="45.78399" lon="2.96597">
        <ele>1131.62</ele>
        <time>2015-05-17T08:42:37Z</time>
      </trkpt>
      <trkpt lat="45.78417" lon="2.96606">
        <ele>1132.3</ele>
        <time>2015-05-17T08:43:05Z</time>
      </trkpt>
      <trkpt lat="45.78433" lon="2.96617">
        <ele>1134</ele>
        <time>2015-05-17T08:43:27Z</time>
      </trkpt>
      <trkpt lat="45.7845" lon="2.96629">
        <ele>1136.21</ele>
        <time>2015-05-17T08:43:44Z</time>
      </trkpt>
      <trkpt lat="45.78467" lon="2.96637">
        <ele>1138.72</ele>
        <time>2015-05-17T08:43:58Z</time>
      </trkpt>
      <trkpt lat="45.78483" lon="2.9665">
        <ele>1141.64</ele>
        <time>2015-05-17T08:44:16Z</time>
      </trkpt>
      <trkpt lat="45.78501" lon="2.96659">
        <ele>1143.52</ele>
        <time>2015-05-17T08:44:36Z</time>
      </trkpt>
      <trkpt lat="45.78519" lon="2.96658">
        <ele>1145.26</ele>
        <time>2015-05-17T08:44:55Z</time>
      </trkpt>
      <trkpt lat="45.78537" lon="2.96657">
        <ele>1143.8</ele>
        <time>2015-05-17T08:45:16Z</time>
      </trkpt>
      <trkpt lat="45.78556" lon="2.96659">
        <ele>1144.69</ele>
        <time>2015-05-17T08:45:30Z</time>
      </trkpt>
      <trkpt lat="45.78574" lon="2.96663">
        <ele>1145.79</ele>
        <time>2015-05-17T08:45:44Z</time>
      </trkpt>
      <trkpt lat="45.78593" lon="2.96666">
        <ele>1146.78</ele>
        <time>2015-05-17T08:46:01Z</time>
      </trkpt>
      <trkpt lat="45.78611" lon="2.96668">
        <ele>1144.3</ele>
        <time>2015-05-17T08:46:17Z</time>
      </trkpt>
      <trkpt lat="45.78631" lon="2.96671">
        <ele>1142.7</ele>
        <time>2015-05-17T08:46:33Z</time>
      </trkpt>
      <trkpt lat="45.78649" lon="2.96671">
        <ele>1140.15</ele>
        <time>2015-05-17T08:46:49Z</time>
      </trkpt>
      <trkpt lat="45.78668" lon="2.96674">
        <ele>1139.55</ele>
        <time>2015-05-17T08:47:04Z</time>
      </trkpt>
      <trkpt lat="45.78686" lon="2.96678">
        <ele>1140.3</ele>
        <time>2015-05-17T08:47:19Z</time>
      </trkpt>
      <trkpt lat="45.78705" lon="2.96682">
        <ele>1141.79</ele>
        <time>2015-05-17T08:47:33Z</time>
      </trkpt>
      <trkpt lat="45.78723" lon="2.96688">
        <ele>1141.55</ele>
        <time>2015-05-17T08:47:48Z</time>
      </trkpt>
      <trkpt lat="45.78742" lon="2.96692">
        <ele>1142.77</ele>
        <time>2015-05-17T08:48:01Z</time>
      </trkpt>
      <trkpt lat="45.7876" lon="2.96695">
        <ele>1142.38</ele>
        <time>2015-05-17T08:48:15Z</time>
      </trkpt>
      <trkpt lat="45.78779" lon="2.96698">
        <ele>1140.1</ele>
        <time>2015-05-17T08:48:29Z</time>
      </trkpt>
      <trkpt lat="45.78798" lon="2.96699">
        <ele>1138.8</ele>
        <time>2015-05-17T08:48:44Z</time>
      </trkpt>
      <trkpt lat="45.78816" lon="2.967">
        <ele>1136.82</ele>
        <time>2015-05-17T08:48:58Z</time>
      </trkpt>
      <trkpt lat="45.78835" lon="2.96702">
        <ele>1134.82</ele>
        <time>2015-05-17T08:49:12Z</time>
      </trkpt>
      <trkpt lat="45.78853" lon="2.96704">
        <ele>1133.41</ele>
        <time>2015-05-17T08:49:25Z</time>
      </trkpt>
      <trkpt lat="45.78872" lon="2.96705">
        <ele>1131.68</ele>
        <time>2015-05-17T08:49:40Z</time>
      </trkpt>
      <trkpt lat="45.7889" lon="2.96707">
        <ele>1129.39</ele>
        <time>2015-05-17T08:49:56Z</time>
      </trkpt>
      <trkpt lat="45.78909" lon="2.96712">
        <ele>1130.49</ele>
        <time>2015-05-17T08:50:10Z</time>
      </trkpt>
      <trkpt lat="45.78928" lon="2.96716">
        <ele>1129.84</ele>
        <time>2015-05-17T08:50:26Z</time>
      </trkpt>
      <trkpt lat="45.78946" lon="2.9672">
        <ele>1127.86</ele>
        <time>2015-05-17T08:50:40Z</time>
      </trkpt>
      <trkpt lat="45.78964" lon="2.96729">
        <ele>1126.83</ele>
        <time>2015-05-17T08:50:55Z</time>
      </trkpt>
      <trkpt lat="45.78981" lon="2.96739">
        <ele>1124.79</ele>
        <time>2015-05-17T08:51:11Z</time>
      </trkpt>
      <trkpt lat="45.78999" lon="2.96745">
        <ele>1122.88</ele>
        <time>2015-05-17T08:51:25Z</time>
      </trkpt>
      <trkpt lat="45.79016" lon="2.96754">
        <ele>1120.83</ele>
        <time>2015-05-17T08:51:40Z</time>
      </trkpt>
      <trkpt lat="45.79032" lon="2.96767">
        <ele>1118.07</ele>
        <time>2015-05-17T08:51:54Z</time>
      </trkpt>
      <trkpt lat="45.79046" lon="2.96783">
        <ele>1117.44</ele>
        <time>2015-05-17T08:52:08Z</time>
      </trkpt>
      <trkpt lat="45.79062" lon="2.96797">
        <ele>1115.8</ele>
        <time>2015-05-17T08:52:21Z</time>
      </trkpt>
      <trkpt lat="45.79079" lon="2.96808">
        <ele>1117.54</ele>
        <time>2015-05-17T08:52:35Z</time>
      </trkpt>
      <trkpt lat="45.79097" lon="2.96818">
        <ele>1116.8</ele>
        <time>2015-05-17T08:52:49Z</time>
      </trkpt>
      <trkpt lat="45.79114" lon="2.96828">
        <ele>1115.8</ele>
        <time>2015-05-17T08:53:04Z</time>
      </trkpt>
      <trkpt lat="45.7913" lon="2.9684">
        <ele>1114.8</ele>
        <time>2015-05-17T08:53:19Z</time>
      </trkpt>
      <trkpt lat="45.79149" lon="2.96848">
        <ele>1112.8</ele>
        <time>2015-05-17T08:53:33Z</time>
      </trkpt>
      <trkpt lat="45.79167" lon="2.96856">
        <ele>1111.2</ele>
        <time>2015-05-17T08:53:50Z</time>
      </trkpt>
      <trkpt lat="45.79186" lon="2.9686">
        <ele>1109.05</ele>
        <time>2015-05-17T08:54:04Z</time>
      </trkpt>
      <trkpt lat="45.79204" lon="2.96864">
        <ele>1107.68</ele>
        <time>2015-05-17T08:54:18Z</time>
      </trkpt>
      <trkpt lat="45.79222" lon="2.96874">
        <ele>1105.9</ele>
        <time>2015-05-17T08:54:32Z</time>
      </trkpt>
      <trkpt lat="45.79241" lon="2.96878">
        <ele>1102.56</ele>
        <time>2015-05-17T08:54:47Z</time>
      </trkpt>
      <trkpt lat="45.79259" lon="2.96878">
        <ele>1099.86</ele>
        <time>2015-05-17T08:55:02Z</time>
      </trkpt>
      <trkpt lat="45.79278" lon="2.96872">
        <ele>1096.93</ele>
        <time>2015-05-17T08:55:17Z</time>
      </trkpt>
      <trkpt lat="45.79296" lon="2.96874">
        <ele>1094.31</ele>
        <time>2015-05-17T08:55:33Z</time>
      </trkpt>
      <trkpt lat="45.79312" lon="2.9689">
        <ele>1092.79</ele>
        <time>2015-05-17T08:55:49Z</time>
      </trkpt>
      <trkpt lat="45.79328" lon="2.96903">
        <ele>1092.81</ele>
        <time>2015-05-17T08:56:16Z</time>
      </trkpt>
      <trkpt lat="45.79344" lon="2.96912">
        <ele>1090.05</ele>
        <time>2015-05-17T08:57:10Z</time>
      </trkpt>
      <trkpt lat="45.79347" lon="2.96938">
        <ele>1103.71</ele>
        <time>2015-05-17T08:57:31Z</time>
      </trkpt>
      <trkpt lat="45.79349" lon="2.96964">
        <ele>1098.42</ele>
        <time>2015-05-17T08:57:55Z</time>
      </trkpt>
      <trkpt lat="45.79356" lon="2.96989">
        <ele>1098.75</ele>
        <time>2015-05-17T08:58:13Z</time>
      </trkpt>
      <trkpt lat="45.79364" lon="2.97013">
        <ele>1099.06</ele>
        <time>2015-05-17T08:58:28Z</time>
      </trkpt>
      <trkpt lat="45.79374" lon="2.97035">
        <ele>1106.15</ele>
        <time>2015-05-17T08:59:13Z</time>
      </trkpt>
      <trkpt lat="45.79382" lon="2.97059">
        <ele>1109.81</ele>
        <time>2015-05-17T08:59:43Z</time>
      </trkpt>
      <trkpt lat="45.79388" lon="2.97084">
        <ele>1112.81</ele>
        <time>2015-05-17T09:00:07Z</time>
      </trkpt>
      <trkpt lat="45.79396" lon="2.97107">
        <ele>1114.82</ele>
        <time>2015-05-17T09:00:39Z</time>
      </trkpt>
      <trkpt lat="45.79411" lon="2.97124">
        <ele>1119.03</ele>
        <time>2015-05-17T09:01:02Z</time>
      </trkpt>
      <trkpt lat="45.79424" lon="2.97142">
        <ele>1121.24</ele>
        <time>2015-05-17T09:01:24Z</time>
      </trkpt>
      <trkpt lat="45.79436" lon="2.97164">
        <ele>1125.66</ele>
        <time>2015-05-17T09:01:47Z</time>
      </trkpt>
      <trkpt lat="45.79446" lon="2.97185">
        <ele>1130.04</ele>
        <time>2015-05-17T09:02:08Z</time>
      </trkpt>
      <trkpt lat="45.7946" lon="2.97202">
        <ele>1134.42</ele>
        <time>2015-05-17T09:02:27Z</time>
      </trkpt>
      <trkpt lat="45.79474" lon="2.9722">
        <ele>1141.37</ele>
        <time>2015-05-17T09:02:46Z</time>
      </trkpt>
      <trkpt lat="45.79489" lon="2.97237">
        <ele>1150.17</ele>
        <time>2015-05-17T09:03:07Z</time>
      </trkpt>
      <trkpt lat="45.79503" lon="2.97254">
        <ele>1151.79</ele>
        <time>2015-05-17T09:03:26Z</time>
      </trkpt>
      <trkpt lat="45.79517" lon="2.9727">
        <ele>1153.85</ele>
        <time>2015-05-17T09:03:52Z</time>
      </trkpt>
      <trkpt lat="45.79535" lon="2.97277">
        <ele>1159.7</ele>
        <time>2015-05-17T09:04:10Z</time>
      </trkpt>
      <trkpt lat="45.79547" lon="2.97297">
        <ele>1162.8</ele>
        <time>2015-05-17T09:04:31Z</time>
      </trkpt>
      <trkpt lat="45.7956" lon="2.97317">
        <ele>1169.17</ele>
        <time>2015-05-17T09:04:55Z</time>
      </trkpt>
      <trkpt lat="45.79573" lon="2.97335">
        <ele>1173.93</ele>
        <time>2015-05-17T09:05:14Z</time>
      </trkpt>
      <trkpt lat="45.79588" lon="2.97349">
        <ele>1174.27</ele>
        <time>2015-05-17T09:05:33Z</time>
      </trkpt>
      <trkpt lat="45.79605" lon="2.9736">
        <ele>1178.69</ele>
        <time>2015-05-17T09:05:54Z</time>
      </trkpt>
      <trkpt lat="45.79622" lon="2.9737">
        <ele>1184.49</ele>
        <time>2015-05-17T09:06:16Z</time>
      </trkpt>
      <trkpt lat="45.7964" lon="2.97379">
        <ele>1189.01</ele>
        <time>2015-05-17T09:06:37Z</time>
      </trkpt>
      <trkpt lat="45.79658" lon="2.97372">
        <ele>1194.42</ele>
        <time>2015-05-17T09:09:42Z</time>
      </trkpt>
      <trkpt lat="45.79674" lon="2.97385">
        <ele>1194.36</ele>
        <time>2015-05-17T09:10:06Z</time>
      </trkpt>
      <trkpt lat="45.79692" lon="2.97383">
        <ele>1192.83</ele>
        <time>2015-05-17T09:10:24Z</time>
      </trkpt>
      <trkpt lat="45.7971" lon="2.97376">
        <ele>1190.07</ele>
        <time>2015-05-17T09:10:40Z</time>
      </trkpt>
      <trkpt lat="45.79727" lon="2.97368">
        <ele>1186.92</ele>
        <time>2015-05-17T09:10:58Z</time>
      </trkpt>
      <trkpt lat="45.79745" lon="2.97359">
        <ele>1185.03</ele>
        <time>2015-05-17T09:11:14Z</time>
      </trkpt>
      <trkpt lat="45.7976" lon="2.97344">
        <ele>1184.8</ele>
        <time>2015-05-17T09:11:30Z</time>
      </trkpt>
      <trkpt lat="45.79774" lon="2.97327">
        <ele>1184.06</ele>
        <time>2015-05-17T09:11:46Z</time>
      </trkpt>
      <trkpt lat="45.79787" lon="2.97307">
        <ele>1181.81</ele>
        <time>2015-05-17T09:12:00Z</time>
      </trkpt>
      <trkpt lat="45.798" lon="2.97286">
        <ele>1180.06</ele>
        <time>2015-05-17T09:12:14Z</time>
      </trkpt>
      <trkpt lat="45.79809" lon="2.97263">
        <ele>1177.03</ele>
        <time>2015-05-17T09:12:30Z</time>
      </trkpt>
      <trkpt lat="45.79814" lon="2.97236">
        <ele>1175.46</ele>
        <time>2015-05-17T09:12:45Z</time>
      </trkpt>
      <trkpt lat="45.79819" lon="2.9721">
        <ele>1173.58</ele>
        <time>2015-05-17T09:13:00Z</time>
      </trkpt>
      <trkpt lat="45.79819" lon="2.97183">
        <ele>1173.8</ele>
        <time>2015-05-17T09:13:13Z</time>
      </trkpt>
      <trkpt lat="45.79815" lon="2.97155">
        <ele>1171.8</ele>
        <time>2015-05-17T09:13:28Z</time>
      </trkpt>
      <trkpt lat="45.79811" lon="2.97129">
        <ele>1168.82</ele>
        <time>2015-05-17T09:13:42Z</time>
      </trkpt>
      <trkpt lat="45.79803" lon="2.97104">
        <ele>1169.8</ele>
        <time>2015-05-17T09:13:56Z</time>
      </trkpt>
      <trkpt lat="45.79795" lon="2.9708">
        <ele>1170.77</ele>
        <time>2015-05-17T09:14:12Z</time>
      </trkpt>
      <trkpt lat="45.79783" lon="2.97061">
        <ele>1169.81</ele>
        <time>2015-05-17T09:14:28Z</time>
      </trkpt>
      <trkpt lat="45.7978" lon="2.97088">
        <ele>1163.43</ele>
        <time>2015-05-17T09:14:48Z</time>
      </trkpt>
      <trkpt lat="45.79785" lon="2.97113">
        <ele>1157.94</ele>
        <time>2015-05-17T09:15:00Z</time>
      </trkpt>
      <trkpt lat="45.79784" lon="2.9714">
        <ele>1154.99</ele>
        <time>2015-05-17T09:15:13Z</time>
      </trkpt>
      <trkpt lat="45.79781" lon="2.97166">
        <ele>1150.94</ele>
        <time>2015-05-17T09:15:25Z</time>
      </trkpt>
      <trkpt lat="45.79768" lon="2.97186">
        <ele>1146.83</ele>
        <time>2015-05-17T09:15:39Z</time>
      </trkpt>
      <trkpt lat="45.79755" lon="2.97204">
        <ele>1144.87</ele>
        <time>2015-05-17T09:15:51Z</time>
      </trkpt>
      <trkpt lat="45.79738" lon="2.97215">
        <ele>1141.83</ele>
        <time>2015-05-17T09:16:04Z</time>
      </trkpt>
      <trkpt lat="45.79719" lon="2.97216">
        <ele>1137.37</ele>
        <time>2015-05-17T09:16:17Z</time>
      </trkpt>
      <trkpt lat="45.79702" lon="2.97209">
        <ele>1134.82</ele>
        <time>2015-05-17T09:16:31Z</time>
      </trkpt>
      <trkpt lat="45.79686" lon="2.97195">
        <ele>1130.88</ele>
        <time>2015-05-17T09:16:45Z</time>
      </trkpt>
      <trkpt lat="45.79673" lon="2.97175">
        <ele>1126.92</ele>
        <time>2015-05-17T09:17:19Z</time>
      </trkpt>
      <trkpt lat="45.79688" lon="2.9716">
        <ele>1122.3</ele>
        <time>2015-05-17T09:17:42Z</time>
      </trkpt>
      <trkpt lat="45.79671" lon="2.97168">
        <ele>1123.5</ele>
        <time>2015-05-17T09:18:34Z</time>
      </trkpt>
      <trkpt lat="45.7968" lon="2.97192">
        <ele>1127.53</ele>
        <time>2015-05-17T09:18:50Z</time>
      </trkpt>
      <trkpt lat="45.79695" lon="2.97209">
        <ele>1129.8</ele>
        <time>2015-05-17T09:19:10Z</time>
      </trkpt>
      <trkpt lat="45.79712" lon="2.97218">
        <ele>1131.67</ele>
        <time>2015-05-17T09:19:27Z</time>
      </trkpt>
      <trkpt lat="45.7973" lon="2.97218">
        <ele>1137.97</ele>
        <time>2015-05-17T09:19:45Z</time>
      </trkpt>
      <trkpt lat="45.79748" lon="2.9721">
        <ele>1138.66</ele>
        <time>2015-05-17T09:20:02Z</time>
      </trkpt>
      <trkpt lat="45.79763" lon="2.97196">
        <ele>1142.23</ele>
        <time>2015-05-17T09:20:18Z</time>
      </trkpt>
      <trkpt lat="45.79777" lon="2.97178">
        <ele>1142.79</ele>
        <time>2015-05-17T09:20:34Z</time>
      </trkpt>
      <trkpt lat="45.79785" lon="2.97154">
        <ele>1146.76</ele>
        <time>2015-05-17T09:20:54Z</time>
      </trkpt>
      <trkpt lat="45.79786" lon="2.97127">
        <ele>1152.71</ele>
        <time>2015-05-17T09:21:13Z</time>
      </trkpt>
      <trkpt lat="45.79783" lon="2.97101">
        <ele>1157.24</ele>
        <time>2015-05-17T09:21:32Z</time>
      </trkpt>
      <trkpt lat="45.79779" lon="2.97075">
        <ele>1163.51</ele>
        <time>2015-05-17T09:21:53Z</time>
      </trkpt>
      <trkpt lat="45.79797" lon="2.97083">
        <ele>1166.05</ele>
        <time>2015-05-17T09:22:28Z</time>
      </trkpt>
      <trkpt lat="45.79806" lon="2.97105">
        <ele>1164.81</ele>
        <time>2015-05-17T09:22:42Z</time>
      </trkpt>
      <trkpt lat="45.79818" lon="2.97125">
        <ele>1164.33</ele>
        <time>2015-05-17T09:23:32Z</time>
      </trkpt>
      <trkpt lat="45.79831" lon="2.97145">
        <ele>1159.63</ele>
        <time>2015-05-17T09:23:50Z</time>
      </trkpt>
      <trkpt lat="45.79838" lon="2.9717">
        <ele>1160.5</ele>
        <time>2015-05-17T09:24:05Z</time>
      </trkpt>
      <trkpt lat="45.79846" lon="2.97193">
        <ele>1157.87</ele>
        <time>2015-05-17T09:24:20Z</time>
      </trkpt>
      <trkpt lat="45.79852" lon="2.97219">
        <ele>1156.91</ele>
        <time>2015-05-17T09:24:37Z</time>
      </trkpt>
      <trkpt lat="45.79857" lon="2.97245">
        <ele>1150.05</ele>
        <time>2015-05-17T09:24:54Z</time>
      </trkpt>
      <trkpt lat="45.79862" lon="2.97272">
        <ele>1146.59</ele>
        <time>2015-05-17T09:25:12Z</time>
      </trkpt>
      <trkpt lat="45.79874" lon="2.97291">
        <ele>1148.88</ele>
        <time>2015-05-17T09:25:26Z</time>
      </trkpt>
      <trkpt lat="45.79873" lon="2.97317">
        <ele>1145.36</ele>
        <time>2015-05-17T09:25:50Z</time>
      </trkpt>
      <trkpt lat="45.79873" lon="2.97344">
        <ele>1139.91</ele>
        <time>2015-05-17T09:26:06Z</time>
      </trkpt>
      <trkpt lat="45.79878" lon="2.9737">
        <ele>1140.78</ele>
        <time>2015-05-17T09:26:20Z</time>
      </trkpt>
      <trkpt lat="45.79873" lon="2.97399">
        <ele>1138.18</ele>
        <time>2015-05-17T09:26:35Z</time>
      </trkpt>
      <trkpt lat="45.79871" lon="2.97426">
        <ele>1135.93</ele>
        <time>2015-05-17T09:26:49Z</time>
      </trkpt>
      <trkpt lat="45.79858" lon="2.97447">
        <ele>1129.54</ele>
        <time>2015-05-17T09:26:59Z</time>
      </trkpt>
      <trkpt lat="45.79852" lon="2.97471">
        <ele>1127.57</ele>
        <time>2015-05-17T09:27:12Z</time>
      </trkpt>
      <trkpt lat="45.7985" lon="2.97498">
        <ele>1127.93</ele>
        <time>2015-05-17T09:27:29Z</time>
      </trkpt>
      <trkpt lat="45.79853" lon="2.97524">
        <ele>1122.68</ele>
        <time>2015-05-17T09:27:48Z</time>
      </trkpt>
      <trkpt lat="45.79839" lon="2.97542">
        <ele>1113.94</ele>
        <time>2015-05-17T09:27:56Z</time>
      </trkpt>
      <trkpt lat="45.79834" lon="2.97567">
        <ele>1113.64</ele>
        <time>2015-05-17T09:28:11Z</time>
      </trkpt>
      <trkpt lat="45.79826" lon="2.97593">
        <ele>1106.13</ele>
        <time>2015-05-17T09:28:28Z</time>
      </trkpt>
      <trkpt lat="45.79824" lon="2.97618">
        <ele>1106.34</ele>
        <time>2015-05-17T09:28:43Z</time>
      </trkpt>
      <trkpt lat="45.79828" lon="2.97645">
        <ele>1100.3</ele>
        <time>2015-05-17T09:28:57Z</time>
      </trkpt>
      <trkpt lat="45.79836" lon="2.97671">
        <ele>1100.66</ele>
        <time>2015-05-17T09:29:13Z</time>
      </trkpt>
      <trkpt lat="45.79824" lon="2.97691">
        <ele>1101.2</ele>
        <time>2015-05-17T09:29:28Z</time>
      </trkpt>
      <trkpt lat="45.79806" lon="2.97697">
        <ele>1100.99</ele>
        <time>2015-05-17T09:29:45Z</time>
      </trkpt>
      <trkpt lat="45.7981" lon="2.97723">
        <ele>1088.98</ele>
        <time>2015-05-17T09:30:08Z</time>
      </trkpt>
      <trkpt lat="45.79822" lon="2.97743">
        <ele>1084.51</ele>
        <time>2015-05-17T09:30:24Z</time>
      </trkpt>
      <trkpt lat="45.79835" lon="2.97763">
        <ele>1084.09</ele>
        <time>2015-05-17T09:30:41Z</time>
      </trkpt>
      <trkpt lat="45.79851" lon="2.97779">
        <ele>1081.11</ele>
        <time>2015-05-17T09:30:59Z</time>
      </trkpt>
      <trkpt lat="45.79863" lon="2.97799">
        <ele>1075.6</ele>
        <time>2015-05-17T09:31:12Z</time>
      </trkpt>
      <trkpt lat="45.79881" lon="2.97801">
        <ele>1077.22</ele>
        <time>2015-05-17T09:31:27Z</time>
      </trkpt>
      <trkpt lat="45.79899" lon="2.97793">
        <ele>1076.59</ele>
        <time>2015-05-17T09:31:47Z</time>
      </trkpt>
      <trkpt lat="45.79919" lon="2.9779">
        <ele>1071.89</ele>
        <time>2015-05-17T09:32:07Z</time>
      </trkpt>
      <trkpt lat="45.79937" lon="2.97789">
        <ele>1074.22</ele>
        <time>2015-05-17T09:32:25Z</time>
      </trkpt>
      <trkpt lat="45.79955" lon="2.97784">
        <ele>1076.77</ele>
        <time>2015-05-17T09:32:50Z</time>
      </trkpt>
      <trkpt lat="45.79972" lon="2.97773">
        <ele>1077.08</ele>
        <time>2015-05-17T09:33:09Z</time>
      </trkpt>
      <trkpt lat="45.79984" lon="2.97752">
        <ele>1076.38</ele>
        <time>2015-05-17T09:33:23Z</time>
      </trkpt>
      <trkpt lat="45.79995" lon="2.9773">
        <ele>1076.7</ele>
        <time>2015-05-17T09:33:36Z</time>
      </trkpt>
      <trkpt lat="45.79997" lon="2.97703">
        <ele>1074.64</ele>
        <time>2015-05-17T09:33:51Z</time>
      </trkpt>
      <trkpt lat="45.80009" lon="2.97683">
        <ele>1074.18</ele>
        <time>2015-05-17T09:34:08Z</time>
      </trkpt>
      <trkpt lat="45.80018" lon="2.97658">
        <ele>1067.69</ele>
        <time>2015-05-17T09:34:26Z</time>
      </trkpt>
      <trkpt lat="45.80022" lon="2.97632">
        <ele>1064.8</ele>
        <time>2015-05-17T09:34:41Z</time>
      </trkpt>
      <trkpt lat="45.80033" lon="2.9761">
        <ele>1054.09</ele>
        <time>2015-05-17T09:34:55Z</time>
      </trkpt>
      <trkpt lat="45.80034" lon="2.97584">
        <ele>1056.17</ele>
        <time>2015-05-17T09:35:09Z</time>
      </trkpt>
      <trkpt lat="45.80034" lon="2.97558">
        <ele>1061.8</ele>
        <time>2015-05-17T09:35:21Z</time>
      </trkpt>
      <trkpt lat="45.80033" lon="2.97532">
        <ele>1063.15</ele>
        <time>2015-05-17T09:35:35Z</time>
      </trkpt>
      <trkpt lat="45.80037" lon="2.97506">
        <ele>1064.34</ele>
        <time>2015-05-17T09:35:53Z</time>
      </trkpt>
      <trkpt lat="45.80046" lon="2.97482">
        <ele>1068.71</ele>
        <time>2015-05-17T09:36:06Z</time>
      </trkpt>
      <trkpt lat="45.80061" lon="2.97466">
        <ele>1066.29</ele>
        <time>2015-05-17T09:36:19Z</time>
      </trkpt>
      <trkpt lat="45.80073" lon="2.97447">
        <ele>1066.58</ele>
        <time>2015-05-17T09:36:40Z</time>
      </trkpt>
      <trkpt lat="45.80087" lon="2.97429">
        <ele>1059.67</ele>
        <time>2015-05-17T09:36:54Z</time>
      </trkpt>
      <trkpt lat="45.80105" lon="2.97424">
        <ele>1060.97</ele>
        <time>2015-05-17T09:37:08Z</time>
      </trkpt>
      <trkpt lat="45.80118" lon="2.97442">
        <ele>1048.74</ele>
        <time>2015-05-17T09:37:30Z</time>
      </trkpt>
      <trkpt lat="45.80136" lon="2.97448">
        <ele>1044.52</ele>
        <time>2015-05-17T09:37:47Z</time>
      </trkpt>
      <trkpt lat="45.80154" lon="2.97441">
        <ele>1045.41</ele>
        <time>2015-05-17T09:38:01Z</time>
      </trkpt>
      <trkpt lat="45.80171" lon="2.97431">
        <ele>1042.33</ele>
        <time>2015-05-17T09:38:20Z</time>
      </trkpt>
      <trkpt lat="45.80192" lon="2.97422">
        <ele>1042.67</ele>
        <time>2015-05-17T09:38:35Z</time>
      </trkpt>
      <trkpt lat="45.8021" lon="2.97424">
        <ele>1039.69</ele>
        <time>2015-05-17T09:38:50Z</time>
      </trkpt>
      <trkpt lat="45.80227" lon="2.97429">
        <ele>1037.38</ele>
        <time>2015-05-17T09:39:09Z</time>
      </trkpt>
      <trkpt lat="45.80246" lon="2.97438">
        <ele>1037.38</ele>
        <time>2015-05-17T09:39:32Z</time>
      </trkpt>
      <trkpt lat="45.80264" lon="2.97439">
        <ele>1030.89</ele>
        <time>2015-05-17T09:39:44Z</time>
      </trkpt>
      <trkpt lat="45.8028" lon="2.97451">
        <ele>1028.08</ele>
        <time>2015-05-17T09:39:57Z</time>
      </trkpt>
      <trkpt lat="45.80295" lon="2.97467">
        <ele>1035.61</ele>
        <time>2015-05-17T09:40:45Z</time>
      </trkpt>
      <trkpt lat="45.80312" lon="2.97476">
        <ele>1033.68</ele>
        <time>2015-05-17T09:40:58Z</time>
      </trkpt>
      <trkpt lat="45.80332" lon="2.97476">
        <ele>1034.48</ele>
        <time>2015-05-17T09:41:18Z</time>
      </trkpt>
      <trkpt lat="45.8035" lon="2.9748">
        <ele>1034.8</ele>
        <time>2015-05-17T09:41:45Z</time>
      </trkpt>
      <trkpt lat="45.80368" lon="2.97489">
        <ele>1025.93</ele>
        <time>2015-05-17T09:41:53Z</time>
      </trkpt>
      <trkpt lat="45.80388" lon="2.97494">
        <ele>1021.96</ele>
        <time>2015-05-17T09:42:07Z</time>
      </trkpt>
      <trkpt lat="45.80405" lon="2.97505">
        <ele>1026.14</ele>
        <time>2015-05-17T09:42:19Z</time>
      </trkpt>
      <trkpt lat="45.80422" lon="2.97516">
        <ele>1021.19</ele>
        <time>2015-05-17T09:42:31Z</time>
      </trkpt>
      <trkpt lat="45.8044" lon="2.97523">
        <ele>1021.61</ele>
        <time>2015-05-17T09:42:46Z</time>
      </trkpt>
      <trkpt lat="45.80433" lon="2.97499">
        <ele>1028.44</ele>
        <time>2015-05-17T09:44:28Z</time>
      </trkpt>
      <trkpt lat="45.80423" lon="2.97476">
        <ele>1028.69</ele>
        <time>2015-05-17T09:44:40Z</time>
      </trkpt>
      <trkpt lat="45.80409" lon="2.97459">
        <ele>1028.16</ele>
        <time>2015-05-17T09:44:57Z</time>
      </trkpt>
      <trkpt lat="45.80395" lon="2.97442">
        <ele>1028.5</ele>
        <time>2015-05-17T09:45:14Z</time>
      </trkpt>
      <trkpt lat="45.80394" lon="2.97415">
        <ele>1031.65</ele>
        <time>2015-05-17T09:45:33Z</time>
      </trkpt>
      <trkpt lat="45.80387" lon="2.97387">
        <ele>1031.5</ele>
        <time>2015-05-17T09:45:47Z</time>
      </trkpt>
      <trkpt lat="45.80381" lon="2.97361">
        <ele>1034.16</ele>
        <time>2015-05-17T09:46:02Z</time>
      </trkpt>
      <trkpt lat="45.80382" lon="2.97335">
        <ele>1039.93</ele>
        <time>2015-05-17T09:46:17Z</time>
      </trkpt>
      <trkpt lat="45.80373" lon="2.97312">
        <ele>1028.63</ele>
        <time>2015-05-17T09:46:34Z</time>
      </trkpt>
      <trkpt lat="45.80366" lon="2.97286">
        <ele>1028.97</ele>
        <time>2015-05-17T09:46:48Z</time>
      </trkpt>
      <trkpt lat="45.80362" lon="2.97259">
        <ele>1027.37</ele>
        <time>2015-05-17T09:47:04Z</time>
      </trkpt>
      <trkpt lat="45.80363" lon="2.97231">
        <ele>1032.32</ele>
        <time>2015-05-17T09:47:22Z</time>
      </trkpt>
      <trkpt lat="45.80356" lon="2.97207">
        <ele>1033.09</ele>
        <time>2015-05-17T09:47:38Z</time>
      </trkpt>
      <trkpt lat="45.80355" lon="2.97181">
        <ele>1034.74</ele>
        <time>2015-05-17T09:47:58Z</time>
      </trkpt>
      <trkpt lat="45.80351" lon="2.97156">
        <ele>1034.56</ele>
        <time>2015-05-17T09:48:09Z</time>
      </trkpt>
      <trkpt lat="45.80353" lon="2.97129">
        <ele>1045.69</ele>
        <time>2015-05-17T09:48:23Z</time>
      </trkpt>
      <trkpt lat="45.80345" lon="2.97106">
        <ele>1041.11</ele>
        <time>2015-05-17T09:48:35Z</time>
      </trkpt>
      <trkpt lat="45.80342" lon="2.9708">
        <ele>1036.97</ele>
        <time>2015-05-17T09:48:56Z</time>
      </trkpt>
      <trkpt lat="45.80334" lon="2.97056">
        <ele>1036.1</ele>
        <time>2015-05-17T09:49:15Z</time>
      </trkpt>
      <trkpt lat="45.80323" lon="2.97035">
        <ele>1038.23</ele>
        <time>2015-05-17T09:49:24Z</time>
      </trkpt>
      <trkpt lat="45.80316" lon="2.97011">
        <ele>1039.8</ele>
        <time>2015-05-17T09:49:39Z</time>
      </trkpt>
      <trkpt lat="45.80312" lon="2.96985">
        <ele>1038.63</ele>
        <time>2015-05-17T09:49:55Z</time>
      </trkpt>
      <trkpt lat="45.80306" lon="2.9696">
        <ele>1042.27</ele>
        <time>2015-05-17T09:50:10Z</time>
      </trkpt>
      <trkpt lat="45.80301" lon="2.96934">
        <ele>1041.03</ele>
        <time>2015-05-17T09:50:27Z</time>
      </trkpt>
      <trkpt lat="45.80295" lon="2.96907">
        <ele>1038.35</ele>
        <time>2015-05-17T09:50:45Z</time>
      </trkpt>
      <trkpt lat="45.80289" lon="2.96883">
        <ele>1040.57</ele>
        <time>2015-05-17T09:51:03Z</time>
      </trkpt>
      <trkpt lat="45.80278" lon="2.96861">
        <ele>1037.68</ele>
        <time>2015-05-17T09:51:24Z</time>
      </trkpt>
      <trkpt lat="45.80273" lon="2.96835">
        <ele>1040.56</ele>
        <time>2015-05-17T09:51:41Z</time>
      </trkpt>
      <trkpt lat="45.80265" lon="2.96811">
        <ele>1040.69</ele>
        <time>2015-05-17T09:51:58Z</time>
      </trkpt>
      <trkpt lat="45.80259" lon="2.96785">
        <ele>1042.29</ele>
        <time>2015-05-17T09:52:15Z</time>
      </trkpt>
      <trkpt lat="45.80249" lon="2.96764">
        <ele>1041.77</ele>
        <time>2015-05-17T09:52:30Z</time>
      </trkpt>
      <trkpt lat="45.80242" lon="2.96739">
        <ele>1044.4</ele>
        <time>2015-05-17T09:52:48Z</time>
      </trkpt>
      <trkpt lat="45.80233" lon="2.96715">
        <ele>1047.76</ele>
        <time>2015-05-17T09:53:58Z</time>
      </trkpt>
      <trkpt lat="45.80234" lon="2.96688">
        <ele>1050.91</ele>
        <time>2015-05-17T09:54:15Z</time>
      </trkpt>
      <trkpt lat="45.80238" lon="2.96663">
        <ele>1050.81</ele>
        <time>2015-05-17T09:54:33Z</time>
      </trkpt>
      <trkpt lat="45.80241" lon="2.96656">
        <ele>1048.8</ele>
        <time>2015-05-17T10:23:52Z</time>
      </trkpt>
      <trkpt lat="45.80248" lon="2.9668">
        <ele>1041.61</ele>
        <time>2015-05-17T10:37:50Z</time>
      </trkpt>
      <trkpt lat="45.80257" lon="2.96704">
        <ele>1033.37</ele>
        <time>2015-05-17T10:38:15Z</time>
      </trkpt>
      <trkpt lat="45.80262" lon="2.96729">
        <ele>1030.39</ele>
        <time>2015-05-17T10:38:32Z</time>
      </trkpt>
      <trkpt lat="45.80276" lon="2.96747">
        <ele>1031.34</ele>
        <time>2015-05-17T10:38:53Z</time>
      </trkpt>
      <trkpt lat="45.8029" lon="2.96763">
        <ele>1033.52</ele>
        <time>2015-05-17T10:39:07Z</time>
      </trkpt>
      <trkpt lat="45.80304" lon="2.96786">
        <ele>1032.29</ele>
        <time>2015-05-17T10:39:21Z</time>
      </trkpt>
      <trkpt lat="45.80312" lon="2.96809">
        <ele>1029.99</ele>
        <time>2015-05-17T10:39:35Z</time>
      </trkpt>
      <trkpt lat="45.80317" lon="2.96835">
        <ele>1031.88</ele>
        <time>2015-05-17T10:39:47Z</time>
      </trkpt>
      <trkpt lat="45.80325" lon="2.96859">
        <ele>1040.7</ele>
        <time>2015-05-17T10:39:59Z</time>
      </trkpt>
      <trkpt lat="45.80333" lon="2.96882">
        <ele>1034.39</ele>
        <time>2015-05-17T10:40:13Z</time>
      </trkpt>
      <trkpt lat="45.80338" lon="2.96907">
        <ele>1032.98</ele>
        <time>2015-05-17T10:40:27Z</time>
      </trkpt>
      <trkpt lat="45.80346" lon="2.96931">
        <ele>1032.51</ele>
        <time>2015-05-17T10:40:40Z</time>
      </trkpt>
      <trkpt lat="45.80354" lon="2.96956">
        <ele>1034.19</ele>
        <time>2015-05-17T10:40:55Z</time>
      </trkpt>
      <trkpt lat="45.80368" lon="2.96974">
        <ele>1035.22</ele>
        <time>2015-05-17T10:41:10Z</time>
      </trkpt>
      <trkpt lat="45.80381" lon="2.96995">
        <ele>1032.96</ele>
        <time>2015-05-17T10:41:25Z</time>
      </trkpt>
      <trkpt lat="45.80393" lon="2.96975">
        <ele>1025.74</ele>
        <time>2015-05-17T10:41:57Z</time>
      </trkpt>
      <trkpt lat="45.80404" lon="2.96952">
        <ele>1019.9</ele>
        <time>2015-05-17T10:42:12Z</time>
      </trkpt>
      <trkpt lat="45.80417" lon="2.96933">
        <ele>1014.61</ele>
        <time>2015-05-17T10:42:28Z</time>
      </trkpt>
      <trkpt lat="45.80428" lon="2.9691">
        <ele>1015.37</ele>
        <time>2015-05-17T10:42:44Z</time>
      </trkpt>
      <trkpt lat="45.8044" lon="2.96888">
        <ele>1010.78</ele>
        <time>2015-05-17T10:42:59Z</time>
      </trkpt>
      <trkpt lat="45.80456" lon="2.96875">
        <ele>1014.03</ele>
        <time>2015-05-17T10:43:10Z</time>
      </trkpt>
      <trkpt lat="45.80472" lon="2.96861">
        <ele>1012.05</ele>
        <time>2015-05-17T10:43:23Z</time>
      </trkpt>
      <trkpt lat="45.80485" lon="2.96843">
        <ele>1016.94</ele>
        <time>2015-05-17T10:43:36Z</time>
      </trkpt>
      <trkpt lat="45.80496" lon="2.96822">
        <ele>1015.73</ele>
        <time>2015-05-17T10:43:53Z</time>
      </trkpt>
      <trkpt lat="45.8051" lon="2.96804">
        <ele>1015.7</ele>
        <time>2015-05-17T10:44:08Z</time>
      </trkpt>
      <trkpt lat="45.80524" lon="2.96787">
        <ele>1020.5</ele>
        <time>2015-05-17T10:44:23Z</time>
      </trkpt>
      <trkpt lat="45.80535" lon="2.96767">
        <ele>1015.18</ele>
        <time>2015-05-17T10:44:35Z</time>
      </trkpt>
      <trkpt lat="45.80552" lon="2.96757">
        <ele>1022.56</ele>
        <time>2015-05-17T10:44:53Z</time>
      </trkpt>
      <trkpt lat="45.80567" lon="2.96741">
        <ele>1021.42</ele>
        <time>2015-05-17T10:45:08Z</time>
      </trkpt>
      <trkpt lat="45.80583" lon="2.96727">
        <ele>1024.63</ele>
        <time>2015-05-17T10:45:22Z</time>
      </trkpt>
      <trkpt lat="45.80601" lon="2.96718">
        <ele>1023.35</ele>
        <time>2015-05-17T10:45:32Z</time>
      </trkpt>
      <trkpt lat="45.80618" lon="2.96706">
        <ele>1019.29</ele>
        <time>2015-05-17T10:45:50Z</time>
      </trkpt>
      <trkpt lat="45.80637" lon="2.96703">
        <ele>1020.78</ele>
        <time>2015-05-17T10:46:00Z</time>
      </trkpt>
      <trkpt lat="45.80657" lon="2.96697">
        <ele>1017.86</ele>
        <time>2015-05-17T10:46:19Z</time>
      </trkpt>
      <trkpt lat="45.80674" lon="2.96689">
        <ele>1016.25</ele>
        <time>2015-05-17T10:46:32Z</time>
      </trkpt>
      <trkpt lat="45.80689" lon="2.96675">
        <ele>1012.91</ele>
        <time>2015-05-17T10:46:52Z</time>
      </trkpt>
      <trkpt lat="45.80709" lon="2.96669">
        <ele>1014.74</ele>
        <time>2015-05-17T10:47:05Z</time>
      </trkpt>
      <trkpt lat="45.80725" lon="2.96658">
        <ele>1013.06</ele>
        <time>2015-05-17T10:47:16Z</time>
      </trkpt>
      <trkpt lat="45.80742" lon="2.96649">
        <ele>1014.32</ele>
        <time>2015-05-17T10:47:30Z</time>
      </trkpt>
      <trkpt lat="45.8076" lon="2.96636">
        <ele>1010.71</ele>
        <time>2015-05-17T10:47:47Z</time>
      </trkpt>
      <trkpt lat="45.80776" lon="2.96622">
        <ele>1009.98</ele>
        <time>2015-05-17T10:48:04Z</time>
      </trkpt>
      <trkpt lat="45.80793" lon="2.96615">
        <ele>1013.52</ele>
        <time>2015-05-17T10:48:20Z</time>
      </trkpt>
      <trkpt lat="45.80809" lon="2.96601">
        <ele>1005.15</ele>
        <time>2015-05-17T10:48:39Z</time>
      </trkpt>
      <trkpt lat="45.80824" lon="2.96584">
        <ele>997.81</ele>
        <time>2015-05-17T10:48:53Z</time>
      </trkpt>
      <trkpt lat="45.80839" lon="2.96568">
        <ele>997.37</ele>
        <time>2015-05-17T10:49:06Z</time>
      </trkpt>
      <trkpt lat="45.80856" lon="2.96558">
        <ele>996.97</ele>
        <time>2015-05-17T10:49:21Z</time>
      </trkpt>
      <trkpt lat="45.80873" lon="2.96547">
        <ele>999.64</ele>
        <time>2015-05-17T10:49:36Z</time>
      </trkpt>
      <trkpt lat="45.80889" lon="2.96533">
        <ele>993.59</ele>
        <time>2015-05-17T10:50:00Z</time>
      </trkpt>
      <trkpt lat="45.80896" lon="2.96509">
        <ele>989.59</ele>
        <time>2015-05-17T10:50:15Z</time>
      </trkpt>
      <trkpt lat="45.80901" lon="2.96483">
        <ele>991.8</ele>
        <time>2015-05-17T10:50:42Z</time>
      </trkpt>
      <trkpt lat="45.80906" lon="2.96459">
        <ele>996.1</ele>
        <time>2015-05-17T10:50:52Z</time>
      </trkpt>
      <trkpt lat="45.80911" lon="2.96432">
        <ele>999.53</ele>
        <time>2015-05-17T10:51:04Z</time>
      </trkpt>
      <trkpt lat="45.80914" lon="2.96406">
        <ele>1000.29</ele>
        <time>2015-05-17T10:51:18Z</time>
      </trkpt>
      <trkpt lat="45.80917" lon="2.96378">
        <ele>999.07</ele>
        <time>2015-05-17T10:51:33Z</time>
      </trkpt>
      <trkpt lat="45.80919" lon="2.96352">
        <ele>1000.51</ele>
        <time>2015-05-17T10:51:48Z</time>
      </trkpt>
      <trkpt lat="45.80915" lon="2.96325">
        <ele>999.35</ele>
        <time>2015-05-17T10:52:02Z</time>
      </trkpt>
      <trkpt lat="45.80919" lon="2.96299">
        <ele>998.56</ele>
        <time>2015-05-17T10:52:18Z</time>
      </trkpt>
      <trkpt lat="45.80922" lon="2.96272">
        <ele>1000.04</ele>
        <time>2015-05-17T10:52:32Z</time>
      </trkpt>
      <trkpt lat="45.80922" lon="2.96245">
        <ele>997.41</ele>
        <time>2015-05-17T10:52:46Z</time>
      </trkpt>
      <trkpt lat="45.80922" lon="2.96218">
        <ele>996.55</ele>
        <time>2015-05-17T10:52:59Z</time>
      </trkpt>
      <trkpt lat="45.80924" lon="2.96191">
        <ele>993.3</ele>
        <time>2015-05-17T10:53:12Z</time>
      </trkpt>
      <trkpt lat="45.80931" lon="2.96166">
        <ele>988.88</ele>
        <time>2015-05-17T10:53:29Z</time>
      </trkpt>
      <trkpt lat="45.80939" lon="2.96143">
        <ele>986.05</ele>
        <time>2015-05-17T10:53:46Z</time>
      </trkpt>
      <trkpt lat="45.80957" lon="2.96135">
        <ele>985.9</ele>
        <time>2015-05-17T10:54:03Z</time>
      </trkpt>
      <trkpt lat="45.80977" lon="2.96135">
        <ele>988.49</ele>
        <time>2015-05-17T10:54:26Z</time>
      </trkpt>
      <trkpt lat="45.80995" lon="2.96132">
        <ele>988.98</ele>
        <time>2015-05-17T10:54:38Z</time>
      </trkpt>
      <trkpt lat="45.81014" lon="2.9613">
        <ele>979.64</ele>
        <time>2015-05-17T10:54:51Z</time>
      </trkpt>
      <trkpt lat="45.81033" lon="2.9613">
        <ele>976.89</ele>
        <time>2015-05-17T10:55:01Z</time>
      </trkpt>
      <trkpt lat="45.81043" lon="2.96151">
        <ele>976.31</ele>
        <time>2015-05-17T10:55:24Z</time>
      </trkpt>
      <trkpt lat="45.81041" lon="2.96177">
        <ele>976.91</ele>
        <time>2015-05-17T10:55:43Z</time>
      </trkpt>
      <trkpt lat="45.8104" lon="2.96204">
        <ele>981.48</ele>
        <time>2015-05-17T10:55:58Z</time>
      </trkpt>
      <trkpt lat="45.81039" lon="2.96231">
        <ele>985.65</ele>
        <time>2015-05-17T10:56:13Z</time>
      </trkpt>
      <trkpt lat="45.81036" lon="2.96258">
        <ele>985.87</ele>
        <time>2015-05-17T10:56:27Z</time>
      </trkpt>
      <trkpt lat="45.81036" lon="2.96285">
        <ele>987.32</ele>
        <time>2015-05-17T10:56:41Z</time>
      </trkpt>
      <trkpt lat="45.8103" lon="2.96311">
        <ele>984.8</ele>
        <time>2015-05-17T10:56:55Z</time>
      </trkpt>
      <trkpt lat="45.81029" lon="2.96338">
        <ele>980.61</ele>
        <time>2015-05-17T10:57:09Z</time>
      </trkpt>
      <trkpt lat="45.81035" lon="2.96364">
        <ele>978.56</ele>
        <time>2015-05-17T10:57:25Z</time>
      </trkpt>
      <trkpt lat="45.81052" lon="2.96352">
        <ele>976.85</ele>
        <time>2015-05-17T10:58:09Z</time>
      </trkpt>
      <trkpt lat="45.8106" lon="2.96328">
        <ele>978.31</ele>
        <time>2015-05-17T10:58:24Z</time>
      </trkpt>
      <trkpt lat="45.81067" lon="2.96303">
        <ele>977.86</ele>
        <time>2015-05-17T10:58:39Z</time>
      </trkpt>
      <trkpt lat="45.81074" lon="2.96278">
        <ele>977.31</ele>
        <time>2015-05-17T10:58:54Z</time>
      </trkpt>
      <trkpt lat="45.81082" lon="2.96253">
        <ele>977.3</ele>
        <time>2015-05-17T10:59:09Z</time>
      </trkpt>
      <trkpt lat="45.81096" lon="2.96235">
        <ele>978.98</ele>
        <time>2015-05-17T10:59:25Z</time>
      </trkpt>
      <trkpt lat="45.81114" lon="2.96243">
        <ele>980.72</ele>
        <time>2015-05-17T10:59:40Z</time>
      </trkpt>
      <trkpt lat="45.81131" lon="2.96253">
        <ele>977.68</ele>
        <time>2015-05-17T10:59:56Z</time>
      </trkpt>
      <trkpt lat="45.81149" lon="2.96255">
        <ele>974.58</ele>
        <time>2015-05-17T11:00:11Z</time>
      </trkpt>
      <trkpt lat="45.81164" lon="2.96271">
        <ele>974.58</ele>
        <time>2015-05-17T11:00:26Z</time>
      </trkpt>
      <trkpt lat="45.81182" lon="2.96278">
        <ele>973.02</ele>
        <time>2015-05-17T11:00:41Z</time>
      </trkpt>
      <trkpt lat="45.812" lon="2.96286">
        <ele>972.62</ele>
        <time>2015-05-17T11:00:55Z</time>
      </trkpt>
      <trkpt lat="45.81219" lon="2.96292">
        <ele>973.06</ele>
        <time>2015-05-17T11:01:10Z</time>
      </trkpt>
      <trkpt lat="45.81236" lon="2.96304">
        <ele>973.23</ele>
        <time>2015-05-17T11:01:25Z</time>
      </trkpt>
      <trkpt lat="45.81253" lon="2.96315">
        <ele>971.75</ele>
        <time>2015-05-17T11:01:39Z</time>
      </trkpt>
      <trkpt lat="45.81267" lon="2.96333">
        <ele>972.07</ele>
        <time>2015-05-17T11:01:53Z</time>
      </trkpt>
      <trkpt lat="45.8128" lon="2.96352">
        <ele>968.57</ele>
        <time>2015-05-17T11:02:08Z</time>
      </trkpt>
      <trkpt lat="45.81289" lon="2.96377">
        <ele>969.83</ele>
        <time>2015-05-17T11:02:23Z</time>
      </trkpt>
      <trkpt lat="45.81295" lon="2.96402">
        <ele>971.68</ele>
        <time>2015-05-17T11:02:36Z</time>
      </trkpt>
      <trkpt lat="45.81307" lon="2.96422">
        <ele>970.24</ele>
        <time>2015-05-17T11:02:50Z</time>
      </trkpt>
      <trkpt lat="45.8132" lon="2.9644">
        <ele>967.08</ele>
        <time>2015-05-17T11:03:04Z</time>
      </trkpt>
      <trkpt lat="45.8133" lon="2.96462">
        <ele>967.49</ele>
        <time>2015-05-17T11:03:19Z</time>
      </trkpt>
      <trkpt lat="45.81339" lon="2.96485">
        <ele>967.27</ele>
        <time>2015-05-17T11:03:34Z</time>
      </trkpt>
      <trkpt lat="45.81349" lon="2.96508">
        <ele>975.64</ele>
        <time>2015-05-17T11:03:47Z</time>
      </trkpt>
      <trkpt lat="45.81356" lon="2.96533">
        <ele>982.83</ele>
        <time>2015-05-17T11:04:00Z</time>
      </trkpt>
      <trkpt lat="45.81366" lon="2.96555">
        <ele>980.18</ele>
        <time>2015-05-17T11:04:14Z</time>
      </trkpt>
      <trkpt lat="45.81379" lon="2.96576">
        <ele>972.35</ele>
        <time>2015-05-17T11:04:31Z</time>
      </trkpt>
      <trkpt lat="45.81389" lon="2.96599">
        <ele>970.25</ele>
        <time>2015-05-17T11:04:48Z</time>
      </trkpt>
      <trkpt lat="45.814" lon="2.96622">
        <ele>967.66</ele>
        <time>2015-05-17T11:05:03Z</time>
      </trkpt>
      <trkpt lat="45.8141" lon="2.96645">
        <ele>968.38</ele>
        <time>2015-05-17T11:05:19Z</time>
      </trkpt>
      <trkpt lat="45.81422" lon="2.96664">
        <ele>964.51</ele>
        <time>2015-05-17T11:05:33Z</time>
      </trkpt>
      <trkpt lat="45.81435" lon="2.96685">
        <ele>964.89</ele>
        <time>2015-05-17T11:05:47Z</time>
      </trkpt>
      <trkpt lat="45.81444" lon="2.96708">
        <ele>965.75</ele>
        <time>2015-05-17T11:06:02Z</time>
      </trkpt>
      <trkpt lat="45.81455" lon="2.96729">
        <ele>964.55</ele>
        <time>2015-05-17T11:06:15Z</time>
      </trkpt>
      <trkpt lat="45.81466" lon="2.9675">
        <ele>964.84</ele>
        <time>2015-05-17T11:06:29Z</time>
      </trkpt>
      <trkpt lat="45.81475" lon="2.96773">
        <ele>965.05</ele>
        <time>2015-05-17T11:06:42Z</time>
      </trkpt>
      <trkpt lat="45.81485" lon="2.96795">
        <ele>963.42</ele>
        <time>2015-05-17T11:06:56Z</time>
      </trkpt>
      <trkpt lat="45.81495" lon="2.96817">
        <ele>965.03</ele>
        <time>2015-05-17T11:07:10Z</time>
      </trkpt>
      <trkpt lat="45.81507" lon="2.96838">
        <ele>963.51</ele>
        <time>2015-05-17T11:07:24Z</time>
      </trkpt>
      <trkpt lat="45.81517" lon="2.96861">
        <ele>965.55</ele>
        <time>2015-05-17T11:07:39Z</time>
      </trkpt>
      <trkpt lat="45.81529" lon="2.96881">
        <ele>958.48</ele>
        <time>2015-05-17T11:07:53Z</time>
      </trkpt>
      <trkpt lat="45.81546" lon="2.96892">
        <ele>970.55</ele>
        <time>2015-05-17T11:08:14Z</time>
      </trkpt>
      <trkpt lat="45.81562" lon="2.96878">
        <ele>968.35</ele>
        <time>2015-05-17T11:08:26Z</time>
      </trkpt>
      <trkpt lat="45.81578" lon="2.96865">
        <ele>964.45</ele>
        <time>2015-05-17T11:08:39Z</time>
      </trkpt>
      <trkpt lat="45.81592" lon="2.96848">
        <ele>965.93</ele>
        <time>2015-05-17T11:08:52Z</time>
      </trkpt>
      <trkpt lat="45.81609" lon="2.96836">
        <ele>968.72</ele>
        <time>2015-05-17T11:09:05Z</time>
      </trkpt>
      <trkpt lat="45.8162" lon="2.96816">
        <ele>969.8</ele>
        <time>2015-05-17T11:09:19Z</time>
      </trkpt>
      <trkpt lat="45.81634" lon="2.96799">
        <ele>968.97</ele>
        <time>2015-05-17T11:09:36Z</time>
      </trkpt>
      <trkpt lat="45.81647" lon="2.9678">
        <ele>968.59</ele>
        <time>2015-05-17T11:09:52Z</time>
      </trkpt>
      <trkpt lat="45.81661" lon="2.96764">
        <ele>967.35</ele>
        <time>2015-05-17T11:10:08Z</time>
      </trkpt>
      <trkpt lat="45.81672" lon="2.96742">
        <ele>964.52</ele>
        <time>2015-05-17T11:10:24Z</time>
      </trkpt>
      <trkpt lat="45.81687" lon="2.96727">
        <ele>967.54</ele>
        <time>2015-05-17T11:10:38Z</time>
      </trkpt>
      <trkpt lat="45.81701" lon="2.96709">
        <ele>965.95</ele>
        <time>2015-05-17T11:10:53Z</time>
      </trkpt>
      <trkpt lat="45.81717" lon="2.96689">
        <ele>969.95</ele>
        <time>2015-05-17T11:11:10Z</time>
      </trkpt>
      <trkpt lat="45.81727" lon="2.96666">
        <ele>969.28</ele>
        <time>2015-05-17T11:11:21Z</time>
      </trkpt>
      <trkpt lat="45.81744" lon="2.96655">
        <ele>969.72</ele>
        <time>2015-05-17T11:11:39Z</time>
      </trkpt>
      <trkpt lat="45.8176" lon="2.96641">
        <ele>970.2</ele>
        <time>2015-05-17T11:11:49Z</time>
      </trkpt>
      <trkpt lat="45.81768" lon="2.96618">
        <ele>971.09</ele>
        <time>2015-05-17T11:12:04Z</time>
      </trkpt>
      <trkpt lat="45.81781" lon="2.966">
        <ele>971.09</ele>
        <time>2015-05-17T11:12:20Z</time>
      </trkpt>
      <trkpt lat="45.81798" lon="2.96584">
        <ele>973.96</ele>
        <time>2015-05-17T11:12:36Z</time>
      </trkpt>
      <trkpt lat="45.81813" lon="2.96568">
        <ele>973.44</ele>
        <time>2015-05-17T11:12:48Z</time>
      </trkpt>
      <trkpt lat="45.81828" lon="2.96553">
        <ele>973.74</ele>
        <time>2015-05-17T11:13:03Z</time>
      </trkpt>
      <trkpt lat="45.81843" lon="2.96535">
        <ele>974.85</ele>
        <time>2015-05-17T11:13:18Z</time>
      </trkpt>
      <trkpt lat="45.81858" lon="2.9652">
        <ele>972.81</ele>
        <time>2015-05-17T11:13:42Z</time>
      </trkpt>
      <trkpt lat="45.81876" lon="2.9651">
        <ele>974.91</ele>
        <time>2015-05-17T11:14:00Z</time>
      </trkpt>
      <trkpt lat="45.81891" lon="2.96493">
        <ele>976.62</ele>
        <time>2015-05-17T11:14:10Z</time>
      </trkpt>
      <trkpt lat="45.81911" lon="2.965">
        <ele>970.34</ele>
        <time>2015-05-17T11:14:25Z</time>
      </trkpt>
      <trkpt lat="45.81929" lon="2.96494">
        <ele>968.86</ele>
        <time>2015-05-17T11:14:34Z</time>
      </trkpt>
      <trkpt lat="45.81943" lon="2.96476">
        <ele>968.78</ele>
        <time>2015-05-17T11:14:48Z</time>
      </trkpt>
      <trkpt lat="45.81963" lon="2.96473">
        <ele>972.9</ele>
        <time>2015-05-17T11:15:01Z</time>
      </trkpt>
      <trkpt lat="45.81981" lon="2.96464">
        <ele>969.8</ele>
        <time>2015-05-17T11:15:31Z</time>
      </trkpt>
      <trkpt lat="45.81997" lon="2.96451">
        <ele>969.67</ele>
        <time>2015-05-17T11:15:42Z</time>
      </trkpt>
      <trkpt lat="45.82011" lon="2.96435">
        <ele>969.84</ele>
        <time>2015-05-17T11:15:54Z</time>
      </trkpt>
      <trkpt lat="45.82029" lon="2.96432">
        <ele>969.86</ele>
        <time>2015-05-17T11:16:08Z</time>
      </trkpt>
      <trkpt lat="45.82047" lon="2.96423">
        <ele>966.54</ele>
        <time>2015-05-17T11:16:17Z</time>
      </trkpt>
      <trkpt lat="45.82068" lon="2.96422">
        <ele>965.19</ele>
        <time>2015-05-17T11:16:43Z</time>
      </trkpt>
      <trkpt lat="45.82085" lon="2.96414">
        <ele>968.42</ele>
        <time>2015-05-17T11:16:50Z</time>
      </trkpt>
      <trkpt lat="45.82106" lon="2.96409">
        <ele>971.01</ele>
        <time>2015-05-17T11:16:59Z</time>
      </trkpt>
      <trkpt lat="45.82124" lon="2.96397">
        <ele>967.51</ele>
        <time>2015-05-17T11:17:12Z</time>
      </trkpt>
      <trkpt lat="45.82141" lon="2.96386">
        <ele>975.05</ele>
        <time>2015-05-17T11:17:53Z</time>
      </trkpt>
      <trkpt lat="45.82161" lon="2.96385">
        <ele>982.33</ele>
        <time>2015-05-17T11:18:02Z</time>
      </trkpt>
      <trkpt lat="45.82173" lon="2.96366">
        <ele>983.19</ele>
        <time>2015-05-17T11:18:23Z</time>
      </trkpt>
      <trkpt lat="45.82191" lon="2.96359">
        <ele>978.9</ele>
        <time>2015-05-17T11:18:40Z</time>
      </trkpt>
      <trkpt lat="45.82208" lon="2.96351">
        <ele>979.26</ele>
        <time>2015-05-17T11:19:04Z</time>
      </trkpt>
      <trkpt lat="45.82225" lon="2.96339">
        <ele>971.74</ele>
        <time>2015-05-17T11:19:35Z</time>
      </trkpt>
      <trkpt lat="45.82243" lon="2.96335">
        <ele>970.96</ele>
        <time>2015-05-17T11:19:56Z</time>
      </trkpt>
      <trkpt lat="45.82261" lon="2.96331">
        <ele>976.74</ele>
        <time>2015-05-17T11:20:13Z</time>
      </trkpt>
      <trkpt lat="45.82277" lon="2.96318">
        <ele>977.07</ele>
        <time>2015-05-17T11:20:31Z</time>
      </trkpt>
      <trkpt lat="45.82295" lon="2.9631">
        <ele>983.06</ele>
        <time>2015-05-17T11:23:05Z</time>
      </trkpt>
      <trkpt lat="45.82312" lon="2.96325">
        <ele>975.16</ele>
        <time>2015-05-17T11:23:13Z</time>
      </trkpt>
      <trkpt lat="45.8233" lon="2.96321">
        <ele>981.46</ele>
        <time>2015-05-17T11:23:23Z</time>
      </trkpt>
      <trkpt lat="45.8235" lon="2.96327">
        <ele>979.08</ele>
        <time>2015-05-17T11:23:33Z</time>
      </trkpt>
      <trkpt lat="45.82367" lon="2.9632">
        <ele>977.5</ele>
        <time>2015-05-17T11:24:05Z</time>
      </trkpt>
      <trkpt lat="45.82385" lon="2.96318">
        <ele>975.05</ele>
        <time>2015-05-17T11:24:26Z</time>
      </trkpt>
      <trkpt lat="45.82404" lon="2.96313">
        <ele>968.19</ele>
        <time>2015-05-17T11:24:34Z</time>
      </trkpt>
      <trkpt lat="45.82422" lon="2.96319">
        <ele>971.43</ele>
        <time>2015-05-17T11:24:44Z</time>
      </trkpt>
      <trkpt lat="45.82441" lon="2.96318">
        <ele>979.51</ele>
        <time>2015-05-17T11:25:00Z</time>
      </trkpt>
      <trkpt lat="45.82458" lon="2.96305">
        <ele>982.5</ele>
        <time>2015-05-17T11:25:13Z</time>
      </trkpt>
      <trkpt lat="45.82476" lon="2.96297">
        <ele>982.43</ele>
        <time>2015-05-17T11:25:27Z</time>
      </trkpt>
      <trkpt lat="45.82474" lon="2.96271">
        <ele>977.17</ele>
        <time>2015-05-17T11:26:47Z</time>
      </trkpt>
      <trkpt lat="45.82476" lon="2.96244">
        <ele>973.92</ele>
        <time>2015-05-17T11:27:05Z</time>
      </trkpt>
      <trkpt lat="45.8248" lon="2.96218">
        <ele>975.39</ele>
        <time>2015-05-17T11:27:23Z</time>
      </trkpt>
      <trkpt lat="45.82476" lon="2.96193">
        <ele>979.67</ele>
        <time>2015-05-17T11:27:49Z</time>
      </trkpt>
      <trkpt lat="45.82477" lon="2.96165">
        <ele>980.01</ele>
        <time>2015-05-17T11:28:15Z</time>
      </trkpt>
      <trkpt lat="45.82459" lon="2.96156">
        <ele>980.51</ele>
        <time>2015-05-17T11:28:34Z</time>
      </trkpt>
      <trkpt lat="45.82443" lon="2.96142">
        <ele>985.42</ele>
        <time>2015-05-17T11:29:06Z</time>
      </trkpt>
      <trkpt lat="45.82426" lon="2.9613">
        <ele>985.75</ele>
        <time>2015-05-17T11:29:18Z</time>
      </trkpt>
      <trkpt lat="45.82409" lon="2.96123">
        <ele>990.05</ele>
        <time>2015-05-17T11:29:45Z</time>
      </trkpt>
      <trkpt lat="45.82395" lon="2.96105">
        <ele>996.37</ele>
        <time>2015-05-17T11:29:57Z</time>
      </trkpt>
      <trkpt lat="45.82387" lon="2.96082">
        <ele>991.82</ele>
        <time>2015-05-17T11:30:16Z</time>
      </trkpt>
      <trkpt lat="45.82384" lon="2.96057">
        <ele>993.96</ele>
        <time>2015-05-17T11:30:44Z</time>
      </trkpt>
      <trkpt lat="45.824" lon="2.96042">
        <ele>999.3</ele>
        <time>2015-05-17T11:31:31Z</time>
      </trkpt>
      <trkpt lat="45.82414" lon="2.96026">
        <ele>1002.11</ele>
        <time>2015-05-17T11:31:40Z</time>
      </trkpt>
      <trkpt lat="45.82431" lon="2.96011">
        <ele>1006.55</ele>
        <time>2015-05-17T11:32:21Z</time>
      </trkpt>
      <trkpt lat="45.8245" lon="2.96002">
        <ele>1006.3</ele>
        <time>2015-05-17T11:32:56Z</time>
      </trkpt>
      <trkpt lat="45.82457" lon="2.95978">
        <ele>1010.97</ele>
        <time>2015-05-17T11:33:06Z</time>
      </trkpt>
      <trkpt lat="45.82468" lon="2.95954">
        <ele>1017.89</ele>
        <time>2015-05-17T11:33:35Z</time>
      </trkpt>
      <trkpt lat="45.82478" lon="2.95932">
        <ele>1023.29</ele>
        <time>2015-05-17T11:34:07Z</time>
      </trkpt>
      <trkpt lat="45.8249" lon="2.95909">
        <ele>1037.05</ele>
        <time>2015-05-17T11:34:39Z</time>
      </trkpt>
      <trkpt lat="45.82496" lon="2.9588">
        <ele>1038.05</ele>
        <time>2015-05-17T11:35:23Z</time>
      </trkpt>
      <trkpt lat="45.82503" lon="2.95856">
        <ele>1045.59</ele>
        <time>2015-05-17T11:35:40Z</time>
      </trkpt>
      <trkpt lat="45.82508" lon="2.95829">
        <ele>1046.36</ele>
        <time>2015-05-17T11:36:19Z</time>
      </trkpt>
      <trkpt lat="45.82515" lon="2.95805">
        <ele>1053.28</ele>
        <time>2015-05-17T11:36:36Z</time>
      </trkpt>
      <trkpt lat="45.82522" lon="2.95781">
        <ele>1065.17</ele>
        <time>2015-05-17T11:37:29Z</time>
      </trkpt>
      <trkpt lat="45.82521" lon="2.95755">
        <ele>1060.24</ele>
        <time>2015-05-17T11:37:56Z</time>
      </trkpt>
      <trkpt lat="45.82513" lon="2.95731">
        <ele>1070.77</ele>
        <time>2015-05-17T11:38:20Z</time>
      </trkpt>
      <trkpt lat="45.82521" lon="2.95708">
        <ele>1072.19</ele>
        <time>2015-05-17T11:38:53Z</time>
      </trkpt>
      <trkpt lat="45.82515" lon="2.95682">
        <ele>1088.74</ele>
        <time>2015-05-17T11:39:39Z</time>
      </trkpt>
      <trkpt lat="45.82508" lon="2.95657">
        <ele>1094.8</ele>
        <time>2015-05-17T11:40:16Z</time>
      </trkpt>
      <trkpt lat="45.825" lon="2.95633">
        <ele>1097.79</ele>
        <time>2015-05-17T11:40:39Z</time>
      </trkpt>
      <trkpt lat="45.82493" lon="2.95609">
        <ele>1104.53</ele>
        <time>2015-05-17T11:41:20Z</time>
      </trkpt>
      <trkpt lat="45.82488" lon="2.95582">
        <ele>1109.24</ele>
        <time>2015-05-17T11:41:46Z</time>
      </trkpt>
      <trkpt lat="45.82488" lon="2.95556">
        <ele>1115.89</ele>
        <time>2015-05-17T11:42:11Z</time>
      </trkpt>
      <trkpt lat="45.82485" lon="2.9553">
        <ele>1121.29</ele>
        <time>2015-05-17T11:42:36Z</time>
      </trkpt>
      <trkpt lat="45.82483" lon="2.95503">
        <ele>1123.3</ele>
        <time>2015-05-17T11:43:04Z</time>
      </trkpt>
      <trkpt lat="45.82476" lon="2.95478">
        <ele>1124.3</ele>
        <time>2015-05-17T11:43:30Z</time>
      </trkpt>
      <trkpt lat="45.82472" lon="2.95452">
        <ele>1131.67</ele>
        <time>2015-05-17T11:44:14Z</time>
      </trkpt>
      <trkpt lat="45.82471" lon="2.95426">
        <ele>1132.3</ele>
        <time>2015-05-17T11:44:50Z</time>
      </trkpt>
      <trkpt lat="45.82467" lon="2.95401">
        <ele>1136.45</ele>
        <time>2015-05-17T11:45:16Z</time>
      </trkpt>
      <trkpt lat="45.82455" lon="2.9538">
        <ele>1134.83</ele>
        <time>2015-05-17T11:59:20Z</time>
      </trkpt>
      <trkpt lat="45.82444" lon="2.9536">
        <ele>1131.05</ele>
        <time>2015-05-17T11:59:43Z</time>
      </trkpt>
      <trkpt lat="45.8243" lon="2.95342">
        <ele>1128.81</ele>
        <time>2015-05-17T12:00:00Z</time>
      </trkpt>
      <trkpt lat="45.82418" lon="2.95322">
        <ele>1125.21</ele>
        <time>2015-05-17T12:00:20Z</time>
      </trkpt>
      <trkpt lat="45.82407" lon="2.95301">
        <ele>1122.56</ele>
        <time>2015-05-17T12:00:39Z</time>
      </trkpt>
      <trkpt lat="45.82401" lon="2.95276">
        <ele>1120.83</ele>
        <time>2015-05-17T12:00:57Z</time>
      </trkpt>
      <trkpt lat="45.82392" lon="2.95252">
        <ele>1118.31</ele>
        <time>2015-05-17T12:01:14Z</time>
      </trkpt>
      <trkpt lat="45.82388" lon="2.95225">
        <ele>1116.8</ele>
        <time>2015-05-17T12:01:35Z</time>
      </trkpt>
      <trkpt lat="45.82382" lon="2.952">
        <ele>1119.02</ele>
        <time>2015-05-17T12:01:54Z</time>
      </trkpt>
      <trkpt lat="45.82384" lon="2.95174">
        <ele>1123.14</ele>
        <time>2015-05-17T12:02:16Z</time>
      </trkpt>
      <trkpt lat="45.82382" lon="2.95148">
        <ele>1124.78</ele>
        <time>2015-05-17T12:02:39Z</time>
      </trkpt>
      <trkpt lat="45.82379" lon="2.95121">
        <ele>1124.77</ele>
        <time>2015-05-17T12:03:03Z</time>
      </trkpt>
      <trkpt lat="45.82374" lon="2.95096">
        <ele>1121.26</ele>
        <time>2015-05-17T12:03:28Z</time>
      </trkpt>
      <trkpt lat="45.82374" lon="2.9507">
        <ele>1119.86</ele>
        <time>2015-05-17T12:03:47Z</time>
      </trkpt>
      <trkpt lat="45.82379" lon="2.95043">
        <ele>1118.81</ele>
        <time>2015-05-17T12:04:05Z</time>
      </trkpt>
      <trkpt lat="45.82393" lon="2.95026">
        <ele>1116.83</ele>
        <time>2015-05-17T12:04:23Z</time>
      </trkpt>
      <trkpt lat="45.82411" lon="2.95029">
        <ele>1110.86</ele>
        <time>2015-05-17T12:04:47Z</time>
      </trkpt>
      <trkpt lat="45.82429" lon="2.95034">
        <ele>1105.87</ele>
        <time>2015-05-17T12:05:06Z</time>
      </trkpt>
      <trkpt lat="45.82448" lon="2.95042">
        <ele>1108.01</ele>
        <time>2015-05-17T12:05:24Z</time>
      </trkpt>
      <trkpt lat="45.82467" lon="2.95047">
        <ele>1108.82</ele>
        <time>2015-05-17T12:05:43Z</time>
      </trkpt>
      <trkpt lat="45.82485" lon="2.95049">
        <ele>1108.86</ele>
        <time>2015-05-17T12:05:58Z</time>
      </trkpt>
      <trkpt lat="45.82503" lon="2.95051">
        <ele>1105.92</ele>
        <time>2015-05-17T12:06:16Z</time>
      </trkpt>
      <trkpt lat="45.82522" lon="2.95058">
        <ele>1106.44</ele>
        <time>2015-05-17T12:06:31Z</time>
      </trkpt>
      <trkpt lat="45.8254" lon="2.95062">
        <ele>1104.61</ele>
        <time>2015-05-17T12:06:49Z</time>
      </trkpt>
      <trkpt lat="45.82558" lon="2.95064">
        <ele>1104.79</ele>
        <time>2015-05-17T12:07:08Z</time>
      </trkpt>
      <trkpt lat="45.82576" lon="2.95063">
        <ele>1104.8</ele>
        <time>2015-05-17T12:07:30Z</time>
      </trkpt>
      <trkpt lat="45.82594" lon="2.95069">
        <ele>1108.79</ele>
        <time>2015-05-17T12:07:59Z</time>
      </trkpt>
      <trkpt lat="45.82612" lon="2.95075">
        <ele>1113.8</ele>
        <time>2015-05-17T12:08:37Z</time>
      </trkpt>
      <trkpt lat="45.8263" lon="2.95083">
        <ele>1112.98</ele>
        <time>2015-05-17T12:09:05Z</time>
      </trkpt>
      <trkpt lat="45.82648" lon="2.95084">
        <ele>1121.3</ele>
        <time>2015-05-17T12:09:43Z</time>
      </trkpt>
      <trkpt lat="45.82666" lon="2.9509">
        <ele>1116.11</ele>
        <time>2015-05-17T12:10:05Z</time>
      </trkpt>
      <trkpt lat="45.82684" lon="2.95094">
        <ele>1112.35</ele>
        <time>2015-05-17T12:10:24Z</time>
      </trkpt>
      <trkpt lat="45.82702" lon="2.95088">
        <ele>1106.79</ele>
        <time>2015-05-17T12:10:50Z</time>
      </trkpt>
      <trkpt lat="45.82721" lon="2.95088">
        <ele>1095</ele>
        <time>2015-05-17T12:11:17Z</time>
      </trkpt>
      <trkpt lat="45.82738" lon="2.95081">
        <ele>1092.04</ele>
        <time>2015-05-17T12:11:44Z</time>
      </trkpt>
      <trkpt lat="45.82756" lon="2.95078">
        <ele>1082.78</ele>
        <time>2015-05-17T12:12:21Z</time>
      </trkpt>
      <trkpt lat="45.82774" lon="2.95074">
        <ele>1082.76</ele>
        <time>2015-05-17T12:12:28Z</time>
      </trkpt>
      <trkpt lat="45.82792" lon="2.95081">
        <ele>1068.8</ele>
        <time>2015-05-17T12:14:05Z</time>
      </trkpt>
      <trkpt lat="45.8281" lon="2.9508">
        <ele>1068.48</ele>
        <time>2015-05-17T12:14:25Z</time>
      </trkpt>
      <trkpt lat="45.82828" lon="2.95087">
        <ele>1061.93</ele>
        <time>2015-05-17T12:14:40Z</time>
      </trkpt>
      <trkpt lat="45.82846" lon="2.9509">
        <ele>1057.31</ele>
        <time>2015-05-17T12:14:57Z</time>
      </trkpt>
      <trkpt lat="45.82865" lon="2.95089">
        <ele>1050.61</ele>
        <time>2015-05-17T12:15:17Z</time>
      </trkpt>
      <trkpt lat="45.82883" lon="2.95085">
        <ele>1043.16</ele>
        <time>2015-05-17T12:15:43Z</time>
      </trkpt>
      <trkpt lat="45.82902" lon="2.95077">
        <ele>1041.75</ele>
        <time>2015-05-17T12:16:04Z</time>
      </trkpt>
      <trkpt lat="45.82921" lon="2.95067">
        <ele>1033.51</ele>
        <time>2015-05-17T12:16:27Z</time>
      </trkpt>
      <trkpt lat="45.82933" lon="2.95046">
        <ele>1031.04</ele>
        <time>2015-05-17T12:16:49Z</time>
      </trkpt>
      <trkpt lat="45.82943" lon="2.95023">
        <ele>1033.58</ele>
        <time>2015-05-17T12:17:02Z</time>
      </trkpt>
      <trkpt lat="45.82957" lon="2.95041">
        <ele>1015.73</ele>
        <time>2015-05-17T12:18:07Z</time>
      </trkpt>
      <trkpt lat="45.8297" lon="2.9506">
        <ele>1017.02</ele>
        <time>2015-05-17T12:18:24Z</time>
      </trkpt>
      <trkpt lat="45.82985" lon="2.95077">
        <ele>1020.29</ele>
        <time>2015-05-17T12:18:39Z</time>
      </trkpt>
      <trkpt lat="45.83001" lon="2.95089">
        <ele>1024.9</ele>
        <time>2015-05-17T12:18:49Z</time>
      </trkpt>
      <trkpt lat="45.82988" lon="2.95107">
        <ele>1020.44</ele>
        <time>2015-05-17T12:18:57Z</time>
      </trkpt>
      <trkpt lat="45.82994" lon="2.95132">
        <ele>1016.34</ele>
        <time>2015-05-17T12:19:14Z</time>
      </trkpt>
      <trkpt lat="45.82999" lon="2.95158">
        <ele>1008.59</ele>
        <time>2015-05-17T12:19:31Z</time>
      </trkpt>
      <trkpt lat="45.82995" lon="2.95184">
        <ele>1006.34</ele>
        <time>2015-05-17T12:19:47Z</time>
      </trkpt>
      <trkpt lat="45.83013" lon="2.95194">
        <ele>1013.45</ele>
        <time>2015-05-17T12:19:55Z</time>
      </trkpt>
      <trkpt lat="45.83024" lon="2.95214">
        <ele>1023.56</ele>
        <time>2015-05-17T12:20:09Z</time>
      </trkpt>
      <trkpt lat="45.83025" lon="2.95241">
        <ele>1020.91</ele>
        <time>2015-05-17T12:20:24Z</time>
      </trkpt>
      <trkpt lat="45.83033" lon="2.95265">
        <ele>1023.32</ele>
        <time>2015-05-17T12:20:45Z</time>
      </trkpt>
      <trkpt lat="45.83039" lon="2.9529">
        <ele>1019.58</ele>
        <time>2015-05-17T12:22:09Z</time>
      </trkpt>
      <trkpt lat="45.83052" lon="2.95313">
        <ele>1017.01</ele>
        <time>2015-05-17T12:22:17Z</time>
      </trkpt>
      <trkpt lat="45.8306" lon="2.95338">
        <ele>1017.97</ele>
        <time>2015-05-17T12:22:31Z</time>
      </trkpt>
      <trkpt lat="45.83074" lon="2.95357">
        <ele>1024.75</ele>
        <time>2015-05-17T12:22:46Z</time>
      </trkpt>
      <trkpt lat="45.83073" lon="2.95385">
        <ele>1023.3</ele>
        <time>2015-05-17T12:22:57Z</time>
      </trkpt>
      <trkpt lat="45.83084" lon="2.95407">
        <ele>1023.84</ele>
        <time>2015-05-17T12:23:13Z</time>
      </trkpt>
      <trkpt lat="45.83091" lon="2.95431">
        <ele>1021.27</ele>
        <time>2015-05-17T12:23:26Z</time>
      </trkpt>
      <trkpt lat="45.83097" lon="2.95456">
        <ele>1015.51</ele>
        <time>2015-05-17T12:23:41Z</time>
      </trkpt>
      <trkpt lat="45.831" lon="2.95482">
        <ele>1019.42</ele>
        <time>2015-05-17T12:23:53Z</time>
      </trkpt>
      <trkpt lat="45.83103" lon="2.9551">
        <ele>1022.67</ele>
        <time>2015-05-17T12:24:04Z</time>
      </trkpt>
      <trkpt lat="45.83106" lon="2.95536">
        <ele>1027.23</ele>
        <time>2015-05-17T12:24:21Z</time>
      </trkpt>
      <trkpt lat="45.83119" lon="2.95518">
        <ele>1025.92</ele>
        <time>2015-05-17T12:25:16Z</time>
      </trkpt>
      <trkpt lat="45.83129" lon="2.95494">
        <ele>1026.49</ele>
        <time>2015-05-17T12:25:40Z</time>
      </trkpt>
      <trkpt lat="45.83142" lon="2.95475">
        <ele>1019.92</ele>
        <time>2015-05-17T12:25:57Z</time>
      </trkpt>
      <trkpt lat="45.83154" lon="2.95454">
        <ele>1019.69</ele>
        <time>2015-05-17T12:26:12Z</time>
      </trkpt>
      <trkpt lat="45.83172" lon="2.95444">
        <ele>1010.96</ele>
        <time>2015-05-17T12:27:58Z</time>
      </trkpt>
      <trkpt lat="45.83191" lon="2.95441">
        <ele>1013.33</ele>
        <time>2015-05-17T12:28:09Z</time>
      </trkpt>
      <trkpt lat="45.83209" lon="2.95435">
        <ele>1015.63</ele>
        <time>2015-05-17T12:28:28Z</time>
      </trkpt>
      <trkpt lat="45.83228" lon="2.9543">
        <ele>1020.8</ele>
        <time>2015-05-17T12:29:02Z</time>
      </trkpt>
      <trkpt lat="45.83247" lon="2.95424">
        <ele>1024.19</ele>
        <time>2015-05-17T12:29:09Z</time>
      </trkpt>
      <trkpt lat="45.83266" lon="2.95424">
        <ele>1021.92</ele>
        <time>2015-05-17T12:29:23Z</time>
      </trkpt>
      <trkpt lat="45.83285" lon="2.95423">
        <ele>1027.08</ele>
        <time>2015-05-17T12:29:40Z</time>
      </trkpt>
      <trkpt lat="45.83304" lon="2.95422">
        <ele>1022.43</ele>
        <time>2015-05-17T12:29:56Z</time>
      </trkpt>
      <trkpt lat="45.83323" lon="2.95421">
        <ele>1015.81</ele>
        <time>2015-05-17T12:30:13Z</time>
      </trkpt>
      <trkpt lat="45.8334" lon="2.95412">
        <ele>1022.78</ele>
        <time>2015-05-17T12:30:32Z</time>
      </trkpt>
      <trkpt lat="45.83358" lon="2.95409">
        <ele>1026.67</ele>
        <time>2015-05-17T12:30:58Z</time>
      </trkpt>
      <trkpt lat="45.83375" lon="2.95403">
        <ele>1026.61</ele>
        <time>2015-05-17T12:31:16Z</time>
      </trkpt>
      <trkpt lat="45.83393" lon="2.95399">
        <ele>1029.76</ele>
        <time>2015-05-17T12:31:35Z</time>
      </trkpt>
      <trkpt lat="45.83411" lon="2.95411">
        <ele>1029.04</ele>
        <time>2015-05-17T12:31:59Z</time>
      </trkpt>
      <trkpt lat="45.83422" lon="2.95432">
        <ele>1028.74</ele>
        <time>2015-05-17T12:32:18Z</time>
      </trkpt>
      <trkpt lat="45.83442" lon="2.95432">
        <ele>1033.74</ele>
        <time>2015-05-17T12:32:38Z</time>
      </trkpt>
      <trkpt lat="45.83461" lon="2.95441">
        <ele>1037.42</ele>
        <time>2015-05-17T12:33:00Z</time>
      </trkpt>
      <trkpt lat="45.83478" lon="2.95447">
        <ele>1038.14</ele>
        <time>2015-05-17T12:33:13Z</time>
      </trkpt>
      <trkpt lat="45.83494" lon="2.95461">
        <ele>1033.52</ele>
        <time>2015-05-17T12:33:29Z</time>
      </trkpt>
      <trkpt lat="45.83511" lon="2.95473">
        <ele>1036.02</ele>
        <time>2015-05-17T12:34:06Z</time>
      </trkpt>
      <trkpt lat="45.83529" lon="2.95487">
        <ele>1033.67</ele>
        <time>2015-05-17T12:34:20Z</time>
      </trkpt>
      <trkpt lat="45.83546" lon="2.95502">
        <ele>1026.69</ele>
        <time>2015-05-17T12:34:28Z</time>
      </trkpt>
      <trkpt lat="45.83563" lon="2.95508">
        <ele>1032.07</ele>
        <time>2015-05-17T12:34:43Z</time>
      </trkpt>
      <trkpt lat="45.83581" lon="2.95518">
        <ele>1035.56</ele>
        <time>2015-05-17T12:34:56Z</time>
      </trkpt>
      <trkpt lat="45.836" lon="2.95527">
        <ele>1040.11</ele>
        <time>2015-05-17T12:35:07Z</time>
      </trkpt>
      <trkpt lat="45.83618" lon="2.95532">
        <ele>1037.09</ele>
        <time>2015-05-17T12:35:20Z</time>
      </trkpt>
      <trkpt lat="45.83634" lon="2.95544">
        <ele>1037.07</ele>
        <time>2015-05-17T12:35:43Z</time>
      </trkpt>
      <trkpt lat="45.83651" lon="2.95553">
        <ele>1037.23</ele>
        <time>2015-05-17T12:35:59Z</time>
      </trkpt>
      <trkpt lat="45.83668" lon="2.95567">
        <ele>1033.45</ele>
        <time>2015-05-17T12:36:10Z</time>
      </trkpt>
      <trkpt lat="45.83682" lon="2.95586">
        <ele>1030.78</ele>
        <time>2015-05-17T12:36:28Z</time>
      </trkpt>
      <trkpt lat="45.83679" lon="2.95613">
        <ele>1031.34</ele>
        <time>2015-05-17T12:36:47Z</time>
      </trkpt>
      <trkpt lat="45.83669" lon="2.95634">
        <ele>1026.86</ele>
        <time>2015-05-17T12:37:04Z</time>
      </trkpt>
      <trkpt lat="45.8366" lon="2.95657">
        <ele>1033.11</ele>
        <time>2015-05-17T12:37:22Z</time>
      </trkpt>
      <trkpt lat="45.83646" lon="2.95677">
        <ele>1037.62</ele>
        <time>2015-05-17T12:37:37Z</time>
      </trkpt>
      <trkpt lat="45.83636" lon="2.95702">
        <ele>1039.15</ele>
        <time>2015-05-17T12:37:53Z</time>
      </trkpt>
      <trkpt lat="45.8363" lon="2.95727">
        <ele>1044.76</ele>
        <time>2015-05-17T12:39:35Z</time>
      </trkpt>
      <trkpt lat="45.8362" lon="2.95751">
        <ele>1049.79</ele>
        <time>2015-05-17T12:39:56Z</time>
      </trkpt>
      <trkpt lat="45.83609" lon="2.95774">
        <ele>1047.65</ele>
        <time>2015-05-17T12:40:06Z</time>
      </trkpt>
      <trkpt lat="45.83608" lon="2.95803">
        <ele>1049.25</ele>
        <time>2015-05-17T12:40:19Z</time>
      </trkpt>
      <trkpt lat="45.83595" lon="2.95821">
        <ele>1050.71</ele>
        <time>2015-05-17T12:40:29Z</time>
      </trkpt>
      <trkpt lat="45.8358" lon="2.95835">
        <ele>1045.16</ele>
        <time>2015-05-17T12:40:40Z</time>
      </trkpt>
      <trkpt lat="45.83571" lon="2.95859">
        <ele>1045.92</ele>
        <time>2015-05-17T12:40:57Z</time>
      </trkpt>
      <trkpt lat="45.83574" lon="2.95885">
        <ele>1040.38</ele>
        <time>2015-05-17T12:41:31Z</time>
      </trkpt>
      <trkpt lat="45.83592" lon="2.95901">
        <ele>1043.08</ele>
        <time>2015-05-17T12:41:47Z</time>
      </trkpt>
      <trkpt lat="45.83611" lon="2.9591">
        <ele>1040.71</ele>
        <time>2015-05-17T12:42:02Z</time>
      </trkpt>
      <trkpt lat="45.83627" lon="2.95921">
        <ele>1036.1</ele>
        <time>2015-05-17T12:42:17Z</time>
      </trkpt>
      <trkpt lat="45.83646" lon="2.95922">
        <ele>1030.01</ele>
        <time>2015-05-17T12:42:38Z</time>
      </trkpt>
      <trkpt lat="45.83657" lon="2.959">
        <ele>1024.82</ele>
        <time>2015-05-17T12:42:54Z</time>
      </trkpt>
      <trkpt lat="45.83676" lon="2.95897">
        <ele>1025.63</ele>
        <time>2015-05-17T12:43:15Z</time>
      </trkpt>
      <trkpt lat="45.83691" lon="2.95911">
        <ele>1026.27</ele>
        <time>2015-05-17T12:43:53Z</time>
      </trkpt>
      <trkpt lat="45.83682" lon="2.95934">
        <ele>1017.68</ele>
        <time>2015-05-17T12:44:15Z</time>
      </trkpt>
      <trkpt lat="45.83682" lon="2.9596">
        <ele>1021.02</ele>
        <time>2015-05-17T12:44:31Z</time>
      </trkpt>
      <trkpt lat="45.83688" lon="2.95984">
        <ele>1022.85</ele>
        <time>2015-05-17T12:44:55Z</time>
      </trkpt>
      <trkpt lat="45.83703" lon="2.96001">
        <ele>1023.78</ele>
        <time>2015-05-17T12:45:10Z</time>
      </trkpt>
      <trkpt lat="45.8372" lon="2.96017">
        <ele>1031.3</ele>
        <time>2015-05-17T12:45:52Z</time>
      </trkpt>
      <trkpt lat="45.83733" lon="2.96035">
        <ele>1033.34</ele>
        <time>2015-05-17T12:46:02Z</time>
      </trkpt>
      <trkpt lat="45.83741" lon="2.96059">
        <ele>1034.26</ele>
        <time>2015-05-17T12:46:47Z</time>
      </trkpt>
      <trkpt lat="45.83752" lon="2.96082">
        <ele>1025.48</ele>
        <time>2015-05-17T12:47:11Z</time>
      </trkpt>
      <trkpt lat="45.83758" lon="2.96108">
        <ele>1016.8</ele>
        <time>2015-05-17T12:47:18Z</time>
      </trkpt>
      <trkpt lat="45.83758" lon="2.96134">
        <ele>1020.05</ele>
        <time>2015-05-17T12:47:27Z</time>
      </trkpt>
      <trkpt lat="45.83752" lon="2.96159">
        <ele>1027.8</ele>
        <time>2015-05-17T12:47:52Z</time>
      </trkpt>
      <trkpt lat="45.83754" lon="2.96185">
        <ele>1035.64</ele>
        <time>2015-05-17T12:48:01Z</time>
      </trkpt>
      <trkpt lat="45.83756" lon="2.96211">
        <ele>1040.47</ele>
        <time>2015-05-17T12:48:21Z</time>
      </trkpt>
      <trkpt lat="45.83769" lon="2.96229">
        <ele>1046.02</ele>
        <time>2015-05-17T12:49:01Z</time>
      </trkpt>
      <trkpt lat="45.83787" lon="2.96234">
        <ele>1055.69</ele>
        <time>2015-05-17T12:49:33Z</time>
      </trkpt>
      <trkpt lat="45.83805" lon="2.96236">
        <ele>1057.42</ele>
        <time>2015-05-17T12:49:59Z</time>
      </trkpt>
      <trkpt lat="45.83823" lon="2.96241">
        <ele>1060.63</ele>
        <time>2015-05-17T12:50:18Z</time>
      </trkpt>
      <trkpt lat="45.83841" lon="2.96239">
        <ele>1061.95</ele>
        <time>2015-05-17T12:50:41Z</time>
      </trkpt>
      <trkpt lat="45.83861" lon="2.96236">
        <ele>1068.7</ele>
        <time>2015-05-17T12:50:57Z</time>
      </trkpt>
      <trkpt lat="45.83879" lon="2.96235">
        <ele>1073.59</ele>
        <time>2015-05-17T12:51:11Z</time>
      </trkpt>
      <trkpt lat="45.83898" lon="2.96237">
        <ele>1077.39</ele>
        <time>2015-05-17T12:51:27Z</time>
      </trkpt>
      <trkpt lat="45.83913" lon="2.96222">
        <ele>1083.25</ele>
        <time>2015-05-17T12:52:22Z</time>
      </trkpt>
      <trkpt lat="45.83931" lon="2.96214">
        <ele>1085.37</ele>
        <time>2015-05-17T12:55:32Z</time>
      </trkpt>
      <trkpt lat="45.83949" lon="2.96217">
        <ele>1077.53</ele>
        <time>2015-05-17T12:55:47Z</time>
      </trkpt>
      <trkpt lat="45.83965" lon="2.96229">
        <ele>1074.37</ele>
        <time>2015-05-17T12:56:02Z</time>
      </trkpt>
      <trkpt lat="45.83985" lon="2.9623">
        <ele>1080.27</ele>
        <time>2015-05-17T12:57:00Z</time>
      </trkpt>
      <trkpt lat="45.84003" lon="2.96237">
        <ele>1078.64</ele>
        <time>2015-05-17T12:57:12Z</time>
      </trkpt>
      <trkpt lat="45.84024" lon="2.96242">
        <ele>1086.3</ele>
        <time>2015-05-17T12:57:52Z</time>
      </trkpt>
      <trkpt lat="45.84041" lon="2.96253">
        <ele>1086.55</ele>
        <time>2015-05-17T12:58:05Z</time>
      </trkpt>
      <trkpt lat="45.84059" lon="2.96258">
        <ele>1090.75</ele>
        <time>2015-05-17T12:58:17Z</time>
      </trkpt>
      <trkpt lat="45.84077" lon="2.96267">
        <ele>1094.17</ele>
        <time>2015-05-17T12:58:42Z</time>
      </trkpt>
      <trkpt lat="45.84095" lon="2.96278">
        <ele>1091.88</ele>
        <time>2015-05-17T12:59:03Z</time>
      </trkpt>
      <trkpt lat="45.8411" lon="2.96293">
        <ele>1096.78</ele>
        <time>2015-05-17T12:59:32Z</time>
      </trkpt>
      <trkpt lat="45.84126" lon="2.96308">
        <ele>1105.53</ele>
        <time>2015-05-17T13:00:20Z</time>
      </trkpt>
      <trkpt lat="45.84142" lon="2.96324">
        <ele>1104.06</ele>
        <time>2015-05-17T13:00:31Z</time>
      </trkpt>
      <trkpt lat="45.84159" lon="2.96334">
        <ele>1105.96</ele>
        <time>2015-05-17T13:00:45Z</time>
      </trkpt>
      <trkpt lat="45.84176" lon="2.96343">
        <ele>1120</ele>
        <time>2015-05-17T13:01:11Z</time>
      </trkpt>
      <trkpt lat="45.84193" lon="2.96359">
        <ele>1135.3</ele>
        <time>2015-05-17T13:03:34Z</time>
      </trkpt>
      <trkpt lat="45.84208" lon="2.96375">
        <ele>1133.19</ele>
        <time>2015-05-17T13:03:50Z</time>
      </trkpt>
      <trkpt lat="45.84221" lon="2.96393">
        <ele>1131.12</ele>
        <time>2015-05-17T13:04:04Z</time>
      </trkpt>
      <trkpt lat="45.84235" lon="2.96411">
        <ele>1133.12</ele>
        <time>2015-05-17T13:04:20Z</time>
      </trkpt>
      <trkpt lat="45.84249" lon="2.96428">
        <ele>1130.5</ele>
        <time>2015-05-17T13:04:40Z</time>
      </trkpt>
      <trkpt lat="45.84259" lon="2.96449">
        <ele>1131.62</ele>
        <time>2015-05-17T13:04:55Z</time>
      </trkpt>
      <trkpt lat="45.84274" lon="2.96465">
        <ele>1133.99</ele>
        <time>2015-05-17T13:05:10Z</time>
      </trkpt>
      <trkpt lat="45.84289" lon="2.96484">
        <ele>1138.23</ele>
        <time>2015-05-17T13:05:35Z</time>
      </trkpt>
      <trkpt lat="45.84306" lon="2.96494">
        <ele>1139.73</ele>
        <time>2015-05-17T13:05:48Z</time>
      </trkpt>
      <trkpt lat="45.84323" lon="2.96504">
        <ele>1142.43</ele>
        <time>2015-05-17T13:06:07Z</time>
      </trkpt>
      <trkpt lat="45.8434" lon="2.96517">
        <ele>1138.95</ele>
        <time>2015-05-17T13:06:25Z</time>
      </trkpt>
      <trkpt lat="45.84358" lon="2.96522">
        <ele>1138.36</ele>
        <time>2015-05-17T13:06:45Z</time>
      </trkpt>
      <trkpt lat="45.84376" lon="2.9652">
        <ele>1142.78</ele>
        <time>2015-05-17T13:07:00Z</time>
      </trkpt>
      <trkpt lat="45.84393" lon="2.96508">
        <ele>1149.81</ele>
        <time>2015-05-17T13:09:54Z</time>
      </trkpt>
      <trkpt lat="45.84394" lon="2.96482">
        <ele>1143.12</ele>
        <time>2015-05-17T13:10:16Z</time>
      </trkpt>
      <trkpt lat="45.8441" lon="2.96467">
        <ele>1135.36</ele>
        <time>2015-05-17T13:10:39Z</time>
      </trkpt>
      <trkpt lat="45.84426" lon="2.96454">
        <ele>1133.82</ele>
        <time>2015-05-17T13:10:57Z</time>
      </trkpt>
      <trkpt lat="45.84445" lon="2.96453">
        <ele>1127.14</ele>
        <time>2015-05-17T13:11:15Z</time>
      </trkpt>
      <trkpt lat="45.8446" lon="2.96466">
        <ele>1122.57</ele>
        <time>2015-05-17T13:11:37Z</time>
      </trkpt>
      <trkpt lat="45.84472" lon="2.96487">
        <ele>1124.91</ele>
        <time>2015-05-17T13:11:53Z</time>
      </trkpt>
      <trkpt lat="45.84486" lon="2.96504">
        <ele>1132.74</ele>
        <time>2015-05-17T13:12:11Z</time>
      </trkpt>
      <trkpt lat="45.84503" lon="2.96514">
        <ele>1128.35</ele>
        <time>2015-05-17T13:12:30Z</time>
      </trkpt>
      <trkpt lat="45.84518" lon="2.96528">
        <ele>1120.43</ele>
        <time>2015-05-17T13:12:39Z</time>
      </trkpt>
      <trkpt lat="45.84534" lon="2.96541">
        <ele>1115.31</ele>
        <time>2015-05-17T13:12:59Z</time>
      </trkpt>
      <trkpt lat="45.84549" lon="2.96556">
        <ele>1111.83</ele>
        <time>2015-05-17T13:13:22Z</time>
      </trkpt>
      <trkpt lat="45.84564" lon="2.9657">
        <ele>1112.45</ele>
        <time>2015-05-17T13:13:50Z</time>
      </trkpt>
      <trkpt lat="45.84578" lon="2.96587">
        <ele>1120.56</ele>
        <time>2015-05-17T13:14:27Z</time>
      </trkpt>
      <trkpt lat="45.84597" lon="2.96596">
        <ele>1132.8</ele>
        <time>2015-05-17T13:15:14Z</time>
      </trkpt>
      <trkpt lat="45.84607" lon="2.96619">
        <ele>1132.47</ele>
        <time>2015-05-17T13:15:35Z</time>
      </trkpt>
      <trkpt lat="45.8462" lon="2.96639">
        <ele>1135.05</ele>
        <time>2015-05-17T13:16:02Z</time>
      </trkpt>
      <trkpt lat="45.84635" lon="2.96654">
        <ele>1136.07</ele>
        <time>2015-05-17T13:16:31Z</time>
      </trkpt>
      <trkpt lat="45.84652" lon="2.96666">
        <ele>1139.82</ele>
        <time>2015-05-17T13:17:17Z</time>
      </trkpt>
      <trkpt lat="45.84669" lon="2.96676">
        <ele>1154.05</ele>
        <time>2015-05-17T13:18:07Z</time>
      </trkpt>
      <trkpt lat="45.8468" lon="2.96698">
        <ele>1151.82</ele>
        <time>2015-05-17T13:19:20Z</time>
      </trkpt>
      <trkpt lat="45.84683" lon="2.96724">
        <ele>1147.5</ele>
        <time>2015-05-17T13:19:33Z</time>
      </trkpt>
      <trkpt lat="45.84693" lon="2.96746">
        <ele>1145.96</ele>
        <time>2015-05-17T13:19:46Z</time>
      </trkpt>
      <trkpt lat="45.847" lon="2.96769">
        <ele>1144.73</ele>
        <time>2015-05-17T13:20:03Z</time>
      </trkpt>
      <trkpt lat="45.84707" lon="2.96794">
        <ele>1149.12</ele>
        <time>2015-05-17T13:20:18Z</time>
      </trkpt>
      <trkpt lat="45.84721" lon="2.96813">
        <ele>1152.69</ele>
        <time>2015-05-17T13:20:51Z</time>
      </trkpt>
      <trkpt lat="45.84735" lon="2.96832">
        <ele>1149.44</ele>
        <time>2015-05-17T13:21:07Z</time>
      </trkpt>
      <trkpt lat="45.84746" lon="2.96852">
        <ele>1142.93</ele>
        <time>2015-05-17T13:21:27Z</time>
      </trkpt>
      <trkpt lat="45.84763" lon="2.96864">
        <ele>1143.74</ele>
        <time>2015-05-17T13:21:39Z</time>
      </trkpt>
      <trkpt lat="45.8478" lon="2.9688">
        <ele>1145.35</ele>
        <time>2015-05-17T13:22:29Z</time>
      </trkpt>
      <trkpt lat="45.84796" lon="2.96891">
        <ele>1143.44</ele>
        <time>2015-05-17T13:22:44Z</time>
      </trkpt>
      <trkpt lat="45.84814" lon="2.96891">
        <ele>1143.16</ele>
        <time>2015-05-17T13:23:00Z</time>
      </trkpt>
      <trkpt lat="45.84833" lon="2.96892">
        <ele>1143.32</ele>
        <time>2015-05-17T13:23:14Z</time>
      </trkpt>
      <trkpt lat="45.84845" lon="2.96872">
        <ele>1137.14</ele>
        <time>2015-05-17T13:23:37Z</time>
      </trkpt>
      <trkpt lat="45.84863" lon="2.9687">
        <ele>1129.38</ele>
        <time>2015-05-17T13:23:56Z</time>
      </trkpt>
      <trkpt lat="45.8488" lon="2.96856">
        <ele>1127.18</ele>
        <time>2015-05-17T13:24:14Z</time>
      </trkpt>
      <trkpt lat="45.84893" lon="2.96838">
        <ele>1125.04</ele>
        <time>2015-05-17T13:24:34Z</time>
      </trkpt>
      <trkpt lat="45.84904" lon="2.96817">
        <ele>1126.71</ele>
        <time>2015-05-17T13:25:14Z</time>
      </trkpt>
      <trkpt lat="45.84914" lon="2.96794">
        <ele>1121.87</ele>
        <time>2015-05-17T13:25:30Z</time>
      </trkpt>
      <trkpt lat="45.84917" lon="2.96767">
        <ele>1118.65</ele>
        <time>2015-05-17T13:25:48Z</time>
      </trkpt>
      <trkpt lat="45.84933" lon="2.96753">
        <ele>1110.57</ele>
        <time>2015-05-17T13:26:43Z</time>
      </trkpt>
      <trkpt lat="45.8495" lon="2.96744">
        <ele>1105.6</ele>
        <time>2015-05-17T13:27:00Z</time>
      </trkpt>
      <trkpt lat="45.84966" lon="2.96731">
        <ele>1100.55</ele>
        <time>2015-05-17T13:27:29Z</time>
      </trkpt>
      <trkpt lat="45.84984" lon="2.96723">
        <ele>1094.54</ele>
        <time>2015-05-17T13:27:41Z</time>
      </trkpt>
      <trkpt lat="45.85002" lon="2.96717">
        <ele>1092.57</ele>
        <time>2015-05-17T13:27:59Z</time>
      </trkpt>
      <trkpt lat="45.85017" lon="2.967">
        <ele>1089.09</ele>
        <time>2015-05-17T13:28:17Z</time>
      </trkpt>
      <trkpt lat="45.85034" lon="2.96691">
        <ele>1086.23</ele>
        <time>2015-05-17T13:28:27Z</time>
      </trkpt>
      <trkpt lat="45.85049" lon="2.96677">
        <ele>1081.67</ele>
        <time>2015-05-17T13:28:43Z</time>
      </trkpt>
      <trkpt lat="45.85064" lon="2.96659">
        <ele>1082.76</ele>
        <time>2015-05-17T13:28:56Z</time>
      </trkpt>
      <trkpt lat="45.85079" lon="2.96644">
        <ele>1080.71</ele>
        <time>2015-05-17T13:29:12Z</time>
      </trkpt>
      <trkpt lat="45.85096" lon="2.96633">
        <ele>1073.63</ele>
        <time>2015-05-17T13:29:27Z</time>
      </trkpt>
      <trkpt lat="45.85106" lon="2.96611">
        <ele>1074.35</ele>
        <time>2015-05-17T13:29:46Z</time>
      </trkpt>
      <trkpt lat="45.85123" lon="2.96602">
        <ele>1072.17</ele>
        <time>2015-05-17T13:30:02Z</time>
      </trkpt>
      <trkpt lat="45.85129" lon="2.96575">
        <ele>1062.58</ele>
        <time>2015-05-17T13:30:20Z</time>
      </trkpt>
      <trkpt lat="45.85131" lon="2.9655">
        <ele>1056.36</ele>
        <time>2015-05-17T13:30:42Z</time>
      </trkpt>
      <trkpt lat="45.85142" lon="2.96527">
        <ele>1056.3</ele>
        <time>2015-05-17T13:31:06Z</time>
      </trkpt>
      <trkpt lat="45.85151" lon="2.96503">
        <ele>1041.09</ele>
        <time>2015-05-17T13:31:29Z</time>
      </trkpt>
      <trkpt lat="45.85159" lon="2.96477">
        <ele>1037.35</ele>
        <time>2015-05-17T13:31:46Z</time>
      </trkpt>
      <trkpt lat="45.8516" lon="2.96449">
        <ele>1040.78</ele>
        <time>2015-05-17T13:32:02Z</time>
      </trkpt>
      <trkpt lat="45.85163" lon="2.96423">
        <ele>1035.09</ele>
        <time>2015-05-17T13:32:16Z</time>
      </trkpt>
      <trkpt lat="45.8518" lon="2.96414">
        <ele>1023.61</ele>
        <time>2015-05-17T13:33:29Z</time>
      </trkpt>
      <trkpt lat="45.85196" lon="2.96427">
        <ele>1025.5</ele>
        <time>2015-05-17T13:33:46Z</time>
      </trkpt>
      <trkpt lat="45.85208" lon="2.96448">
        <ele>1026.74</ele>
        <time>2015-05-17T13:33:59Z</time>
      </trkpt>
      <trkpt lat="45.85221" lon="2.96469">
        <ele>1026.86</ele>
        <time>2015-05-17T13:34:12Z</time>
      </trkpt>
      <trkpt lat="45.85235" lon="2.9649">
        <ele>1027.28</ele>
        <time>2015-05-17T13:34:26Z</time>
      </trkpt>
      <trkpt lat="45.85243" lon="2.96515">
        <ele>1027.54</ele>
        <time>2015-05-17T13:34:42Z</time>
      </trkpt>
      <trkpt lat="45.85249" lon="2.9654">
        <ele>1028.13</ele>
        <time>2015-05-17T13:34:56Z</time>
      </trkpt>
      <trkpt lat="45.85261" lon="2.96561">
        <ele>1018.66</ele>
        <time>2015-05-17T13:35:13Z</time>
      </trkpt>
      <trkpt lat="45.85268" lon="2.96586">
        <ele>1021.96</ele>
        <time>2015-05-17T13:37:05Z</time>
      </trkpt>
      <trkpt lat="45.85277" lon="2.96611">
        <ele>1018.14</ele>
        <time>2015-05-17T13:37:25Z</time>
      </trkpt>
      <trkpt lat="45.85293" lon="2.96626">
        <ele>1023.26</ele>
        <time>2015-05-17T13:37:41Z</time>
      </trkpt>
      <trkpt lat="45.85308" lon="2.96644">
        <ele>1015.98</ele>
        <time>2015-05-17T13:37:57Z</time>
      </trkpt>
      <trkpt lat="45.85301" lon="2.96668">
        <ele>1012.49</ele>
        <time>2015-05-17T13:38:11Z</time>
      </trkpt>
      <trkpt lat="45.85293" lon="2.96692">
        <ele>1010.37</ele>
        <time>2015-05-17T13:38:26Z</time>
      </trkpt>
      <trkpt lat="45.85287" lon="2.96718">
        <ele>1012.15</ele>
        <time>2015-05-17T13:38:43Z</time>
      </trkpt>
      <trkpt lat="45.85275" lon="2.96741">
        <ele>1011.3</ele>
        <time>2015-05-17T13:38:59Z</time>
      </trkpt>
      <trkpt lat="45.85259" lon="2.96753">
        <ele>999.44</ele>
        <time>2015-05-17T13:39:16Z</time>
      </trkpt>
      <trkpt lat="45.85249" lon="2.96775">
        <ele>1005.74</ele>
        <time>2015-05-17T13:39:30Z</time>
      </trkpt>
      <trkpt lat="45.85242" lon="2.96801">
        <ele>1008.14</ele>
        <time>2015-05-17T13:39:42Z</time>
      </trkpt>
      <trkpt lat="45.85241" lon="2.96827">
        <ele>1014.89</ele>
        <time>2015-05-17T13:39:53Z</time>
      </trkpt>
      <trkpt lat="45.85239" lon="2.96853">
        <ele>1007.97</ele>
        <time>2015-05-17T13:40:12Z</time>
      </trkpt>
      <trkpt lat="45.85246" lon="2.96877">
        <ele>1005.15</ele>
        <time>2015-05-17T13:40:26Z</time>
      </trkpt>
      <trkpt lat="45.85248" lon="2.96905">
        <ele>1001.8</ele>
        <time>2015-05-17T13:40:51Z</time>
      </trkpt>
      <trkpt lat="45.85252" lon="2.96932">
        <ele>996.2</ele>
        <time>2015-05-17T13:41:01Z</time>
      </trkpt>
      <trkpt lat="45.85254" lon="2.96958">
        <ele>996.77</ele>
        <time>2015-05-17T13:41:12Z</time>
      </trkpt>
      <trkpt lat="45.85252" lon="2.96985">
        <ele>996.89</ele>
        <time>2015-05-17T13:41:25Z</time>
      </trkpt>
      <trkpt lat="45.85249" lon="2.97013">
        <ele>998.36</ele>
        <time>2015-05-17T13:41:40Z</time>
      </trkpt>
      <trkpt lat="45.85243" lon="2.97038">
        <ele>1001.5</ele>
        <time>2015-05-17T13:41:56Z</time>
      </trkpt>
      <trkpt lat="45.85235" lon="2.97061">
        <ele>998.76</ele>
        <time>2015-05-17T13:42:11Z</time>
      </trkpt>
      <trkpt lat="45.85225" lon="2.97083">
        <ele>995.74</ele>
        <time>2015-05-17T13:42:24Z</time>
      </trkpt>
      <trkpt lat="45.85224" lon="2.9711">
        <ele>992.54</ele>
        <time>2015-05-17T13:42:41Z</time>
      </trkpt>
      <trkpt lat="45.85215" lon="2.97135">
        <ele>997.61</ele>
        <time>2015-05-17T13:42:56Z</time>
      </trkpt>
      <trkpt lat="45.85204" lon="2.97156">
        <ele>997.21</ele>
        <time>2015-05-17T13:43:13Z</time>
      </trkpt>
      <trkpt lat="45.85195" lon="2.97179">
        <ele>994.56</ele>
        <time>2015-05-17T13:43:27Z</time>
      </trkpt>
      <trkpt lat="45.85184" lon="2.972">
        <ele>992.26</ele>
        <time>2015-05-17T13:43:43Z</time>
      </trkpt>
      <trkpt lat="45.85171" lon="2.9722">
        <ele>997.5</ele>
        <time>2015-05-17T13:43:55Z</time>
      </trkpt>
      <trkpt lat="45.85165" lon="2.97246">
        <ele>999.73</ele>
        <time>2015-05-17T13:44:12Z</time>
      </trkpt>
      <trkpt lat="45.85153" lon="2.97266">
        <ele>1000.17</ele>
        <time>2015-05-17T13:44:27Z</time>
      </trkpt>
      <trkpt lat="45.85136" lon="2.97275">
        <ele>1000.19</ele>
        <time>2015-05-17T13:44:42Z</time>
      </trkpt>
      <trkpt lat="45.85124" lon="2.97296">
        <ele>995.31</ele>
        <time>2015-05-17T13:44:58Z</time>
      </trkpt>
      <trkpt lat="45.85106" lon="2.97308">
        <ele>991.05</ele>
        <time>2015-05-17T13:45:16Z</time>
      </trkpt>
      <trkpt lat="45.85095" lon="2.97329">
        <ele>990.94</ele>
        <time>2015-05-17T13:45:28Z</time>
      </trkpt>
      <trkpt lat="45.8509" lon="2.97354">
        <ele>987.09</ele>
        <time>2015-05-17T13:45:42Z</time>
      </trkpt>
      <trkpt lat="45.85109" lon="2.97366">
        <ele>983.98</ele>
        <time>2015-05-17T13:45:58Z</time>
      </trkpt>
      <trkpt lat="45.85126" lon="2.97376">
        <ele>975.55</ele>
        <time>2015-05-17T13:46:22Z</time>
      </trkpt>
      <trkpt lat="45.85141" lon="2.97391">
        <ele>966.86</ele>
        <time>2015-05-17T13:46:33Z</time>
      </trkpt>
      <trkpt lat="45.85152" lon="2.97414">
        <ele>966.25</ele>
        <time>2015-05-17T13:46:46Z</time>
      </trkpt>
      <trkpt lat="45.85163" lon="2.97439">
        <ele>962.85</ele>
        <time>2015-05-17T13:47:02Z</time>
      </trkpt>
      <trkpt lat="45.85177" lon="2.9746">
        <ele>962.8</ele>
        <time>2015-05-17T13:47:33Z</time>
      </trkpt>
      <trkpt lat="45.85191" lon="2.97477">
        <ele>957.54</ele>
        <time>2015-05-17T13:47:41Z</time>
      </trkpt>
      <trkpt lat="45.85201" lon="2.97499">
        <ele>954.43</ele>
        <time>2015-05-17T13:47:57Z</time>
      </trkpt>
      <trkpt lat="45.85216" lon="2.97516">
        <ele>952.02</ele>
        <time>2015-05-17T13:48:20Z</time>
      </trkpt>
      <trkpt lat="45.85225" lon="2.9754">
        <ele>954.49</ele>
        <time>2015-05-17T13:48:37Z</time>
      </trkpt>
      <trkpt lat="45.85232" lon="2.97565">
        <ele>944.67</ele>
        <time>2015-05-17T13:48:52Z</time>
      </trkpt>
      <trkpt lat="45.85244" lon="2.97586">
        <ele>943.32</ele>
        <time>2015-05-17T13:49:09Z</time>
      </trkpt>
      <trkpt lat="45.85255" lon="2.97607">
        <ele>946.04</ele>
        <time>2015-05-17T13:49:20Z</time>
      </trkpt>
      <trkpt lat="45.85269" lon="2.97626">
        <ele>939.79</ele>
        <time>2015-05-17T13:49:41Z</time>
      </trkpt>
      <trkpt lat="45.85285" lon="2.9764">
        <ele>929.97</ele>
        <time>2015-05-17T13:50:03Z</time>
      </trkpt>
      <trkpt lat="45.85298" lon="2.97658">
        <ele>925.78</ele>
        <time>2015-05-17T13:50:20Z</time>
      </trkpt>
      <trkpt lat="45.8531" lon="2.97681">
        <ele>922.72</ele>
        <time>2015-05-17T13:50:39Z</time>
      </trkpt>
      <trkpt lat="45.85323" lon="2.97703">
        <ele>924.43</ele>
        <time>2015-05-17T13:50:48Z</time>
      </trkpt>
      <trkpt lat="45.85337" lon="2.97721">
        <ele>918.75</ele>
        <time>2015-05-17T13:51:01Z</time>
      </trkpt>
      <trkpt lat="45.85351" lon="2.97739">
        <ele>919.48</ele>
        <time>2015-05-17T13:51:11Z</time>
      </trkpt>
      <trkpt lat="45.85356" lon="2.97764">
        <ele>922.51</ele>
        <time>2015-05-17T13:51:27Z</time>
      </trkpt>
      <trkpt lat="45.85368" lon="2.97785">
        <ele>917.67</ele>
        <time>2015-05-17T13:51:41Z</time>
      </trkpt>
      <trkpt lat="45.85384" lon="2.97796">
        <ele>910.25</ele>
        <time>2015-05-17T13:51:55Z</time>
      </trkpt>
      <trkpt lat="45.85402" lon="2.97805">
        <ele>910.46</ele>
        <time>2015-05-17T13:52:14Z</time>
      </trkpt>
      <trkpt lat="45.8542" lon="2.97809">
        <ele>897.36</ele>
        <time>2015-05-17T13:52:26Z</time>
      </trkpt>
      <trkpt lat="45.85437" lon="2.97818">
        <ele>888.1</ele>
        <time>2015-05-17T13:52:40Z</time>
      </trkpt>
      <trkpt lat="45.85454" lon="2.97826">
        <ele>902.79</ele>
        <time>2015-05-17T13:53:10Z</time>
      </trkpt>
      <trkpt lat="45.85475" lon="2.97834">
        <ele>892.05</ele>
        <time>2015-05-17T13:53:21Z</time>
      </trkpt>
      <trkpt lat="45.85494" lon="2.97838">
        <ele>889.34</ele>
        <time>2015-05-17T13:53:29Z</time>
      </trkpt>
      <trkpt lat="45.85511" lon="2.97851">
        <ele>893.55</ele>
        <time>2015-05-17T13:53:45Z</time>
      </trkpt>
      <trkpt lat="45.85527" lon="2.97862">
        <ele>894.3</ele>
        <time>2015-05-17T13:55:09Z</time>
      </trkpt>
      <trkpt lat="45.85543" lon="2.97875">
        <ele>896.58</ele>
        <time>2015-05-17T13:55:19Z</time>
      </trkpt>
      <trkpt lat="45.85562" lon="2.97881">
        <ele>895.95</ele>
        <time>2015-05-17T13:55:37Z</time>
      </trkpt>
      <trkpt lat="45.8558" lon="2.97888">
        <ele>890.48</ele>
        <time>2015-05-17T13:55:44Z</time>
      </trkpt>
      <trkpt lat="45.85589" lon="2.97913">
        <ele>887.03</ele>
        <time>2015-05-17T13:55:57Z</time>
      </trkpt>
      <trkpt lat="45.85596" lon="2.97938">
        <ele>888.8</ele>
        <time>2015-05-17T13:57:39Z</time>
      </trkpt>
      <trkpt lat="45.85612" lon="2.97955">
        <ele>887.74</ele>
        <time>2015-05-17T13:58:05Z</time>
      </trkpt>
      <trkpt lat="45.85631" lon="2.9796">
        <ele>878.1</ele>
        <time>2015-05-17T13:58:14Z</time>
      </trkpt>
      <trkpt lat="45.85643" lon="2.97979">
        <ele>875.48</ele>
        <time>2015-05-17T13:58:26Z</time>
      </trkpt>
      <trkpt lat="45.85653" lon="2.98005">
        <ele>875.18</ele>
        <time>2015-05-17T13:58:38Z</time>
      </trkpt>
      <trkpt lat="45.85658" lon="2.9803">
        <ele>879.51</ele>
        <time>2015-05-17T13:58:51Z</time>
      </trkpt>
      <trkpt lat="45.85668" lon="2.98052">
        <ele>879.77</ele>
        <time>2015-05-17T13:59:32Z</time>
      </trkpt>
      <trkpt lat="45.85686" lon="2.98059">
        <ele>879.21</ele>
        <time>2015-05-17T14:00:42Z</time>
      </trkpt>
      <trkpt lat="45.85704" lon="2.98052">
        <ele>875.75</ele>
        <time>2015-05-17T14:01:07Z</time>
      </trkpt>
      <trkpt lat="45.85722" lon="2.98041">
        <ele>869.8</ele>
        <time>2015-05-17T14:01:23Z</time>
      </trkpt>
      <trkpt lat="45.85738" lon="2.98029">
        <ele>867.19</ele>
        <time>2015-05-17T14:02:13Z</time>
      </trkpt>
      <trkpt lat="45.85759" lon="2.98031">
        <ele>870.17</ele>
        <time>2015-05-17T14:02:37Z</time>
      </trkpt>
      <trkpt lat="45.85777" lon="2.98027">
        <ele>876.9</ele>
        <time>2015-05-17T14:02:44Z</time>
      </trkpt>
      <trkpt lat="45.85796" lon="2.98025">
        <ele>880.61</ele>
        <time>2015-05-17T14:02:55Z</time>
      </trkpt>
      <trkpt lat="45.85812" lon="2.98039">
        <ele>892.4</ele>
        <time>2015-05-17T14:03:40Z</time>
      </trkpt>
      <trkpt lat="45.85829" lon="2.98058">
        <ele>892.97</ele>
        <time>2015-05-17T14:04:11Z</time>
      </trkpt>
      <trkpt lat="45.85846" lon="2.9807">
        <ele>896.54</ele>
        <time>2015-05-17T14:04:26Z</time>
      </trkpt>
      <trkpt lat="45.85858" lon="2.9809">
        <ele>898.35</ele>
        <time>2015-05-17T14:04:54Z</time>
      </trkpt>
      <trkpt lat="45.85869" lon="2.9811">
        <ele>910.06</ele>
        <time>2015-05-17T14:05:40Z</time>
      </trkpt>
      <trkpt lat="45.85863" lon="2.98134">
        <ele>920.69</ele>
        <time>2015-05-17T14:06:00Z</time>
      </trkpt>
      <trkpt lat="45.85856" lon="2.98162">
        <ele>914.64</ele>
        <time>2015-05-17T14:06:32Z</time>
      </trkpt>
      <trkpt lat="45.85842" lon="2.98179">
        <ele>925.74</ele>
        <time>2015-05-17T14:07:04Z</time>
      </trkpt>
      <trkpt lat="45.85827" lon="2.98194">
        <ele>921.46</ele>
        <time>2015-05-17T14:07:18Z</time>
      </trkpt>
      <trkpt lat="45.85815" lon="2.98215">
        <ele>923.27</ele>
        <time>2015-05-17T14:07:35Z</time>
      </trkpt>
      <trkpt lat="45.85809" lon="2.98241">
        <ele>924.87</ele>
        <time>2015-05-17T14:08:01Z</time>
      </trkpt>
      <trkpt lat="45.85804" lon="2.98266">
        <ele>930.19</ele>
        <time>2015-05-17T14:08:19Z</time>
      </trkpt>
      <trkpt lat="45.85802" lon="2.98292">
        <ele>936.23</ele>
        <time>2015-05-17T14:08:37Z</time>
      </trkpt>
      <trkpt lat="45.85808" lon="2.98317">
        <ele>936.01</ele>
        <time>2015-05-17T14:08:59Z</time>
      </trkpt>
      <trkpt lat="45.85819" lon="2.9834">
        <ele>941.2</ele>
        <time>2015-05-17T14:09:22Z</time>
      </trkpt>
      <trkpt lat="45.8583" lon="2.98361">
        <ele>944.3</ele>
        <time>2015-05-17T14:10:12Z</time>
      </trkpt>
      <trkpt lat="45.85839" lon="2.98384">
        <ele>947.43</ele>
        <time>2015-05-17T14:10:55Z</time>
      </trkpt>
      <trkpt lat="45.85854" lon="2.98399">
        <ele>948.62</ele>
        <time>2015-05-17T14:11:10Z</time>
      </trkpt>
      <trkpt lat="45.85867" lon="2.98417">
        <ele>960.99</ele>
        <time>2015-05-17T14:15:03Z</time>
      </trkpt>
      <trkpt lat="45.85885" lon="2.98425">
        <ele>964.94</ele>
        <time>2015-05-17T14:15:38Z</time>
      </trkpt>
      <trkpt lat="45.85903" lon="2.98431">
        <ele>967.02</ele>
        <time>2015-05-17T14:15:50Z</time>
      </trkpt>
      <trkpt lat="45.85922" lon="2.98437">
        <ele>971.78</ele>
        <time>2015-05-17T14:16:09Z</time>
      </trkpt>
      <trkpt lat="45.85939" lon="2.98429">
        <ele>969.11</ele>
        <time>2015-05-17T14:16:25Z</time>
      </trkpt>
      <trkpt lat="45.85956" lon="2.98419">
        <ele>972.78</ele>
        <time>2015-05-17T14:16:56Z</time>
      </trkpt>
      <trkpt lat="45.8597" lon="2.98402">
        <ele>973.3</ele>
        <time>2015-05-17T14:17:34Z</time>
      </trkpt>
      <trkpt lat="45.85986" lon="2.98389">
        <ele>966.67</ele>
        <time>2015-05-17T14:17:51Z</time>
      </trkpt>
      <trkpt lat="45.86004" lon="2.98378">
        <ele>962.96</ele>
        <time>2015-05-17T14:18:13Z</time>
      </trkpt>
      <trkpt lat="45.8602" lon="2.98366">
        <ele>959.24</ele>
        <time>2015-05-17T14:18:22Z</time>
      </trkpt>
      <trkpt lat="45.86039" lon="2.98361">
        <ele>965.71</ele>
        <time>2015-05-17T14:18:36Z</time>
      </trkpt>
      <trkpt lat="45.86057" lon="2.98352">
        <ele>968.53</ele>
        <time>2015-05-17T14:18:49Z</time>
      </trkpt>
      <trkpt lat="45.86076" lon="2.98345">
        <ele>970.53</ele>
        <time>2015-05-17T14:19:12Z</time>
      </trkpt>
      <trkpt lat="45.86093" lon="2.98341">
        <ele>972.86</ele>
        <time>2015-05-17T14:19:21Z</time>
      </trkpt>
      <trkpt lat="45.86113" lon="2.9834">
        <ele>976.05</ele>
        <time>2015-05-17T14:19:48Z</time>
      </trkpt>
      <trkpt lat="45.86131" lon="2.98341">
        <ele>979.01</ele>
        <time>2015-05-17T14:20:04Z</time>
      </trkpt>
      <trkpt lat="45.8615" lon="2.98343">
        <ele>983.34</ele>
        <time>2015-05-17T14:21:53Z</time>
      </trkpt>
      <trkpt lat="45.86168" lon="2.98346">
        <ele>979.5</ele>
        <time>2015-05-17T14:22:07Z</time>
      </trkpt>
      <trkpt lat="45.86187" lon="2.98354">
        <ele>983.43</ele>
        <time>2015-05-17T14:22:27Z</time>
      </trkpt>
      <trkpt lat="45.86204" lon="2.98365">
        <ele>978.98</ele>
        <time>2015-05-17T14:23:00Z</time>
      </trkpt>
      <trkpt lat="45.86221" lon="2.98377">
        <ele>975.57</ele>
        <time>2015-05-17T14:23:22Z</time>
      </trkpt>
      <trkpt lat="45.86229" lon="2.98402">
        <ele>977.73</ele>
        <time>2015-05-17T14:23:38Z</time>
      </trkpt>
      <trkpt lat="45.86234" lon="2.98427">
        <ele>980.11</ele>
        <time>2015-05-17T14:24:07Z</time>
      </trkpt>
      <trkpt lat="45.86235" lon="2.98455">
        <ele>971.3</ele>
        <time>2015-05-17T14:24:28Z</time>
      </trkpt>
      <trkpt lat="45.86235" lon="2.98481">
        <ele>969.92</ele>
        <time>2015-05-17T14:25:00Z</time>
      </trkpt>
      <trkpt lat="45.86241" lon="2.98506">
        <ele>959.43</ele>
        <time>2015-05-17T14:25:28Z</time>
      </trkpt>
      <trkpt lat="45.86245" lon="2.98532">
        <ele>954.71</ele>
        <time>2015-05-17T14:25:41Z</time>
      </trkpt>
      <trkpt lat="45.86243" lon="2.98558">
        <ele>943.55</ele>
        <time>2015-05-17T14:26:20Z</time>
      </trkpt>
      <trkpt lat="45.86239" lon="2.98584">
        <ele>940.08</ele>
        <time>2015-05-17T14:26:37Z</time>
      </trkpt>
      <trkpt lat="45.86233" lon="2.98609">
        <ele>931.71</ele>
        <time>2015-05-17T14:26:51Z</time>
      </trkpt>
      <trkpt lat="45.86236" lon="2.98637">
        <ele>926.58</ele>
        <time>2015-05-17T14:27:40Z</time>
      </trkpt>
      <trkpt lat="45.86246" lon="2.98658">
        <ele>929.53</ele>
        <time>2015-05-17T14:39:14Z</time>
      </trkpt>
      <trkpt lat="45.86264" lon="2.98667">
        <ele>923.3</ele>
        <time>2015-05-17T14:39:45Z</time>
      </trkpt>
      <trkpt lat="45.86282" lon="2.98671">
        <ele>914.04</ele>
        <time>2015-05-17T14:40:07Z</time>
      </trkpt>
      <trkpt lat="45.863" lon="2.98679">
        <ele>907.31</ele>
        <time>2015-05-17T14:40:32Z</time>
      </trkpt>
      <trkpt lat="45.86319" lon="2.98678">
        <ele>901.48</ele>
        <time>2015-05-17T14:40:48Z</time>
      </trkpt>
      <trkpt lat="45.8634" lon="2.98675">
        <ele>897.53</ele>
        <time>2015-05-17T14:41:19Z</time>
      </trkpt>
      <trkpt lat="45.86359" lon="2.98662">
        <ele>889</ele>
        <time>2015-05-17T14:41:29Z</time>
      </trkpt>
      <trkpt lat="45.8638" lon="2.98652">
        <ele>886.55</ele>
        <time>2015-05-17T14:41:59Z</time>
      </trkpt>
      <trkpt lat="45.86396" lon="2.98639">
        <ele>881.04</ele>
        <time>2015-05-17T14:42:24Z</time>
      </trkpt>
      <trkpt lat="45.86414" lon="2.98637">
        <ele>874.81</ele>
        <time>2015-05-17T14:42:40Z</time>
      </trkpt>
      <trkpt lat="45.86432" lon="2.98631">
        <ele>873.35</ele>
        <time>2015-05-17T14:42:54Z</time>
      </trkpt>
      <trkpt lat="45.86451" lon="2.98634">
        <ele>870.49</ele>
        <time>2015-05-17T14:43:19Z</time>
      </trkpt>
      <trkpt lat="45.86468" lon="2.98642">
        <ele>866.3</ele>
        <time>2015-05-17T14:43:45Z</time>
      </trkpt>
      <trkpt lat="45.86488" lon="2.98649">
        <ele>859.09</ele>
        <time>2015-05-17T14:43:54Z</time>
      </trkpt>
      <trkpt lat="45.86508" lon="2.98655">
        <ele>850.98</ele>
        <time>2015-05-17T14:44:02Z</time>
      </trkpt>
      <trkpt lat="45.86531" lon="2.98658">
        <ele>852.62</ele>
        <time>2015-05-17T14:44:12Z</time>
      </trkpt>
      <trkpt lat="45.86549" lon="2.98662">
        <ele>857.61</ele>
        <time>2015-05-17T14:44:20Z</time>
      </trkpt>
      <trkpt lat="45.86568" lon="2.98664">
        <ele>853.79</ele>
        <time>2015-05-17T14:44:39Z</time>
      </trkpt>
      <trkpt lat="45.86587" lon="2.98666">
        <ele>851.59</ele>
        <time>2015-05-17T14:44:50Z</time>
      </trkpt>
      <trkpt lat="45.86605" lon="2.98668">
        <ele>841.19</ele>
        <time>2015-05-17T14:45:06Z</time>
      </trkpt>
      <trkpt lat="45.86622" lon="2.98659">
        <ele>841.76</ele>
        <time>2015-05-17T14:45:26Z</time>
      </trkpt>
      <trkpt lat="45.86638" lon="2.98646">
        <ele>836.27</ele>
        <time>2015-05-17T14:45:42Z</time>
      </trkpt>
      <trkpt lat="45.86653" lon="2.98628">
        <ele>824.59</ele>
        <time>2015-05-17T14:45:59Z</time>
      </trkpt>
      <trkpt lat="45.86669" lon="2.9861">
        <ele>818.8</ele>
        <time>2015-05-17T14:47:38Z</time>
      </trkpt>
      <trkpt lat="45.86683" lon="2.98593">
        <ele>808.7</ele>
        <time>2015-05-17T14:47:47Z</time>
      </trkpt>
      <trkpt lat="45.86695" lon="2.98569">
        <ele>818.2</ele>
        <time>2015-05-17T14:47:59Z</time>
      </trkpt>
      <trkpt lat="45.86702" lon="2.98543">
        <ele>827.19</ele>
        <time>2015-05-17T14:48:14Z</time>
      </trkpt>
      <trkpt lat="45.86718" lon="2.98527">
        <ele>831.14</ele>
        <time>2015-05-17T14:48:27Z</time>
      </trkpt>
      <trkpt lat="45.86731" lon="2.98508">
        <ele>831.42</ele>
        <time>2015-05-17T14:48:38Z</time>
      </trkpt>
      <trkpt lat="45.86744" lon="2.9849">
        <ele>829.81</ele>
        <time>2015-05-17T14:49:03Z</time>
      </trkpt>
      <trkpt lat="45.86753" lon="2.98465">
        <ele>829.73</ele>
        <time>2015-05-17T14:49:18Z</time>
      </trkpt>
      <trkpt lat="45.86759" lon="2.98439">
        <ele>823.7</ele>
        <time>2015-05-17T14:49:29Z</time>
      </trkpt>
      <trkpt lat="45.86764" lon="2.98413">
        <ele>816.44</ele>
        <time>2015-05-17T14:49:45Z</time>
      </trkpt>
      <trkpt lat="45.86773" lon="2.98389">
        <ele>818.41</ele>
        <time>2015-05-17T14:49:57Z</time>
      </trkpt>
      <trkpt lat="45.86785" lon="2.9837">
        <ele>815.11</ele>
        <time>2015-05-17T14:50:15Z</time>
      </trkpt>
      <trkpt lat="45.86799" lon="2.98352">
        <ele>817.16</ele>
        <time>2015-05-17T14:50:28Z</time>
      </trkpt>
      <trkpt lat="45.86816" lon="2.98341">
        <ele>806.8</ele>
        <time>2015-05-17T14:50:53Z</time>
      </trkpt>
      <trkpt lat="45.86835" lon="2.98331">
        <ele>805.88</ele>
        <time>2015-05-17T14:51:09Z</time>
      </trkpt>
      <trkpt lat="45.86852" lon="2.98321">
        <ele>808.55</ele>
        <time>2015-05-17T14:51:27Z</time>
      </trkpt>
      <trkpt lat="45.86869" lon="2.98307">
        <ele>809.5</ele>
        <time>2015-05-17T14:51:44Z</time>
      </trkpt>
      <trkpt lat="45.86887" lon="2.98296">
        <ele>806.6</ele>
        <time>2015-05-17T14:51:59Z</time>
      </trkpt>
      <trkpt lat="45.86904" lon="2.98282">
        <ele>800.96</ele>
        <time>2015-05-17T14:52:11Z</time>
      </trkpt>
      <trkpt lat="45.86912" lon="2.98259">
        <ele>807.84</ele>
        <time>2015-05-17T14:52:25Z</time>
      </trkpt>
      <trkpt lat="45.86929" lon="2.98247">
        <ele>811.05</ele>
        <time>2015-05-17T14:52:53Z</time>
      </trkpt>
      <trkpt lat="45.86948" lon="2.98241">
        <ele>808.02</ele>
        <time>2015-05-17T14:53:05Z</time>
      </trkpt>
      <trkpt lat="45.86966" lon="2.98234">
        <ele>809.92</ele>
        <time>2015-05-17T14:53:23Z</time>
      </trkpt>
      <trkpt lat="45.86984" lon="2.98227">
        <ele>803.42</ele>
        <time>2015-05-17T14:53:36Z</time>
      </trkpt>
      <trkpt lat="45.87002" lon="2.9822">
        <ele>801.75</ele>
        <time>2015-05-17T14:53:49Z</time>
      </trkpt>
      <trkpt lat="45.87021" lon="2.98218">
        <ele>804.99</ele>
        <time>2015-05-17T14:54:04Z</time>
      </trkpt>
      <trkpt lat="45.87039" lon="2.98212">
        <ele>804.18</ele>
        <time>2015-05-17T14:54:22Z</time>
      </trkpt>
      <trkpt lat="45.87058" lon="2.982">
        <ele>805.64</ele>
        <time>2015-05-17T14:54:36Z</time>
      </trkpt>
      <trkpt lat="45.87075" lon="2.98192">
        <ele>804.34</ele>
        <time>2015-05-17T14:54:52Z</time>
      </trkpt>
      <trkpt lat="45.87093" lon="2.98185">
        <ele>806.26</ele>
        <time>2015-05-17T14:55:05Z</time>
      </trkpt>
      <trkpt lat="45.8711" lon="2.98174">
        <ele>808.25</ele>
        <time>2015-05-17T14:55:18Z</time>
      </trkpt>
      <trkpt lat="45.87125" lon="2.98157">
        <ele>806.14</ele>
        <time>2015-05-17T14:55:34Z</time>
      </trkpt>
      <trkpt lat="45.87131" lon="2.98131">
        <ele>799.95</ele>
        <time>2015-05-17T14:55:53Z</time>
      </trkpt>
      <trkpt lat="45.87137" lon="2.98107">
        <ele>799.99</ele>
        <time>2015-05-17T14:56:11Z</time>
      </trkpt>
      <trkpt lat="45.87155" lon="2.98112">
        <ele>800.02</ele>
        <time>2015-05-17T14:57:06Z</time>
      </trkpt>
      <trkpt lat="45.87168" lon="2.98131">
        <ele>800.33</ele>
        <time>2015-05-17T14:57:20Z</time>
      </trkpt>
      <trkpt lat="45.87182" lon="2.98147">
        <ele>800.36</ele>
        <time>2015-05-17T14:57:39Z</time>
      </trkpt>
      <trkpt lat="45.87191" lon="2.98174">
        <ele>796.45</ele>
        <time>2015-05-17T14:57:51Z</time>
      </trkpt>
      <trkpt lat="45.87202" lon="2.98195">
        <ele>795.76</ele>
        <time>2015-05-17T14:58:04Z</time>
      </trkpt>
      <trkpt lat="45.87207" lon="2.9822">
        <ele>795.54</ele>
        <time>2015-05-17T14:58:18Z</time>
      </trkpt>
      <trkpt lat="45.87216" lon="2.98244">
        <ele>796.96</ele>
        <time>2015-05-17T14:58:33Z</time>
      </trkpt>
      <trkpt lat="45.87219" lon="2.98271">
        <ele>799.84</ele>
        <time>2015-05-17T14:58:47Z</time>
      </trkpt>
      <trkpt lat="45.87225" lon="2.98296">
        <ele>794.77</ele>
        <time>2015-05-17T14:59:02Z</time>
      </trkpt>
      <trkpt lat="45.87225" lon="2.98322">
        <ele>793.18</ele>
        <time>2015-05-17T14:59:19Z</time>
      </trkpt>
      <trkpt lat="45.87226" lon="2.98348">
        <ele>795.76</ele>
        <time>2015-05-17T14:59:33Z</time>
      </trkpt>
      <trkpt lat="45.87226" lon="2.98376">
        <ele>790.72</ele>
        <time>2015-05-17T14:59:48Z</time>
      </trkpt>
      <trkpt lat="45.87233" lon="2.984">
        <ele>789.57</ele>
        <time>2015-05-17T15:00:05Z</time>
      </trkpt>
      <trkpt lat="45.87234" lon="2.98427">
        <ele>792.16</ele>
        <time>2015-05-17T15:00:17Z</time>
      </trkpt>
      <trkpt lat="45.87247" lon="2.98449">
        <ele>793.5</ele>
        <time>2015-05-17T15:00:35Z</time>
      </trkpt>
      <trkpt lat="45.87243" lon="2.98475">
        <ele>789.4</ele>
        <time>2015-05-17T15:00:52Z</time>
      </trkpt>
      <trkpt lat="45.87246" lon="2.98501">
        <ele>790.57</ele>
        <time>2015-05-17T15:01:07Z</time>
      </trkpt>
      <trkpt lat="45.87256" lon="2.98524">
        <ele>785.55</ele>
        <time>2015-05-17T15:01:29Z</time>
      </trkpt>
      <trkpt lat="45.87271" lon="2.98542">
        <ele>787.52</ele>
        <time>2015-05-17T15:01:45Z</time>
      </trkpt>
      <trkpt lat="45.87285" lon="2.98559">
        <ele>788.26</ele>
        <time>2015-05-17T15:01:57Z</time>
      </trkpt>
      <trkpt lat="45.87281" lon="2.98585">
        <ele>780.83</ele>
        <time>2015-05-17T15:02:22Z</time>
      </trkpt>
      <trkpt lat="45.87275" lon="2.98609">
        <ele>781</ele>
        <time>2015-05-17T15:02:36Z</time>
      </trkpt>
      <trkpt lat="45.8727" lon="2.98635">
        <ele>784.74</ele>
        <time>2015-05-17T15:02:50Z</time>
      </trkpt>
      <trkpt lat="45.87263" lon="2.98661">
        <ele>782.08</ele>
        <time>2015-05-17T15:03:04Z</time>
      </trkpt>
      <trkpt lat="45.87261" lon="2.98687">
        <ele>785.23</ele>
        <time>2015-05-17T15:03:18Z</time>
      </trkpt>
      <trkpt lat="45.87263" lon="2.98713">
        <ele>780.78</ele>
        <time>2015-05-17T15:03:35Z</time>
      </trkpt>
      <trkpt lat="45.87266" lon="2.9874">
        <ele>778.98</ele>
        <time>2015-05-17T15:03:49Z</time>
      </trkpt>
      <trkpt lat="45.87264" lon="2.98767">
        <ele>773.89</ele>
        <time>2015-05-17T15:04:06Z</time>
      </trkpt>
      <trkpt lat="45.87264" lon="2.98794">
        <ele>769.37</ele>
        <time>2015-05-17T15:04:23Z</time>
      </trkpt>
      <trkpt lat="45.87271" lon="2.98819">
        <ele>762.26</ele>
        <time>2015-05-17T15:04:42Z</time>
      </trkpt>
      <trkpt lat="45.87264" lon="2.98843">
        <ele>756.1</ele>
        <time>2015-05-17T15:05:00Z</time>
      </trkpt>
      <trkpt lat="45.87262" lon="2.9887">
        <ele>759.98</ele>
        <time>2015-05-17T15:05:13Z</time>
      </trkpt>
      <trkpt lat="45.87262" lon="2.98896">
        <ele>761.68</ele>
        <time>2015-05-17T15:05:27Z</time>
      </trkpt>
      <trkpt lat="45.87265" lon="2.98924">
        <ele>763.06</ele>
        <time>2015-05-17T15:05:43Z</time>
      </trkpt>
      <trkpt lat="45.87266" lon="2.98951">
        <ele>758.71</ele>
        <time>2015-05-17T15:05:57Z</time>
      </trkpt>
      <trkpt lat="45.87268" lon="2.98979">
        <ele>763.21</ele>
        <time>2015-05-17T15:06:08Z</time>
      </trkpt>
      <trkpt lat="45.87262" lon="2.99005">
        <ele>769.23</ele>
        <time>2015-05-17T15:06:25Z</time>
      </trkpt>
      <trkpt lat="45.87245" lon="2.99014">
        <ele>770.42</ele>
        <time>2015-05-17T15:06:42Z</time>
      </trkpt>
      <trkpt lat="45.87229" lon="2.99003">
        <ele>778.28</ele>
        <time>2015-05-17T15:07:29Z</time>
      </trkpt>
      <trkpt lat="45.87211" lon="2.99008">
        <ele>775.19</ele>
        <time>2015-05-17T15:07:47Z</time>
      </trkpt>
      <trkpt lat="45.87195" lon="2.99021">
        <ele>778.92</ele>
        <time>2015-05-17T15:08:01Z</time>
      </trkpt>
      <trkpt lat="45.87178" lon="2.99032">
        <ele>780.86</ele>
        <time>2015-05-17T15:08:24Z</time>
      </trkpt>
      <trkpt lat="45.87162" lon="2.99048">
        <ele>780.54</ele>
        <time>2015-05-17T15:08:42Z</time>
      </trkpt>
      <trkpt lat="45.87149" lon="2.99068">
        <ele>782.75</ele>
        <time>2015-05-17T15:08:58Z</time>
      </trkpt>
      <trkpt lat="45.87139" lon="2.9909">
        <ele>780.8</ele>
        <time>2015-05-17T15:09:14Z</time>
      </trkpt>
      <trkpt lat="45.87124" lon="2.99109">
        <ele>781.44</ele>
        <time>2015-05-17T15:09:29Z</time>
      </trkpt>
      <trkpt lat="45.87116" lon="2.99132">
        <ele>780.61</ele>
        <time>2015-05-17T15:09:42Z</time>
      </trkpt>
      <trkpt lat="45.87112" lon="2.99158">
        <ele>776.89</ele>
        <time>2015-05-17T15:09:59Z</time>
      </trkpt>
      <trkpt lat="45.87121" lon="2.99181">
        <ele>769.85</ele>
        <time>2015-05-17T15:10:16Z</time>
      </trkpt>
      <trkpt lat="45.87129" lon="2.99205">
        <ele>766.32</ele>
        <time>2015-05-17T15:10:31Z</time>
      </trkpt>
      <trkpt lat="45.87134" lon="2.99231">
        <ele>772.63</ele>
        <time>2015-05-17T15:10:45Z</time>
      </trkpt>
      <trkpt lat="45.87149" lon="2.99246">
        <ele>771.24</ele>
        <time>2015-05-17T15:11:00Z</time>
      </trkpt>
      <trkpt lat="45.87155" lon="2.99271">
        <ele>773.73</ele>
        <time>2015-05-17T15:11:14Z</time>
      </trkpt>
      <trkpt lat="45.87159" lon="2.99299">
        <ele>771.7</ele>
        <time>2015-05-17T15:11:30Z</time>
      </trkpt>
      <trkpt lat="45.87162" lon="2.99326">
        <ele>770.55</ele>
        <time>2015-05-17T15:11:44Z</time>
      </trkpt>
      <trkpt lat="45.87159" lon="2.99353">
        <ele>769.36</ele>
        <time>2015-05-17T15:12:00Z</time>
      </trkpt>
      <trkpt lat="45.87147" lon="2.99372">
        <ele>768.28</ele>
        <time>2015-05-17T15:12:16Z</time>
      </trkpt>
      <trkpt lat="45.87133" lon="2.99389">
        <ele>767.54</ele>
        <time>2015-05-17T15:12:32Z</time>
      </trkpt>
      <trkpt lat="45.87116" lon="2.99401">
        <ele>764.81</ele>
        <time>2015-05-17T15:12:48Z</time>
      </trkpt>
      <trkpt lat="45.87098" lon="2.99409">
        <ele>758.83</ele>
        <time>2015-05-17T15:13:12Z</time>
      </trkpt>
      <trkpt lat="45.87087" lon="2.9943">
        <ele>757.03</ele>
        <time>2015-05-17T15:13:29Z</time>
      </trkpt>
      <trkpt lat="45.87091" lon="2.99456">
        <ele>755.47</ele>
        <time>2015-05-17T15:13:48Z</time>
      </trkpt>
      <trkpt lat="45.8709" lon="2.99484">
        <ele>757.68</ele>
        <time>2015-05-17T15:14:04Z</time>
      </trkpt>
      <trkpt lat="45.87087" lon="2.9951">
        <ele>756.8</ele>
        <time>2015-05-17T15:14:18Z</time>
      </trkpt>
      <trkpt lat="45.87084" lon="2.99535">
        <ele>756.55</ele>
        <time>2015-05-17T15:14:32Z</time>
      </trkpt>
      <trkpt lat="45.87078" lon="2.99561">
        <ele>750.36</ele>
        <time>2015-05-17T15:14:50Z</time>
      </trkpt>
      <trkpt lat="45.87083" lon="2.99587">
        <ele>748.51</ele>
        <time>2015-05-17T15:15:06Z</time>
      </trkpt>
      <trkpt lat="45.8708" lon="2.99612">
        <ele>743.18</ele>
        <time>2015-05-17T15:15:23Z</time>
      </trkpt>
      <trkpt lat="45.87073" lon="2.99637">
        <ele>738.37</ele>
        <time>2015-05-17T15:15:38Z</time>
      </trkpt>
      <trkpt lat="45.87073" lon="2.99664">
        <ele>732.89</ele>
        <time>2015-05-17T15:15:56Z</time>
      </trkpt>
      <trkpt lat="45.87067" lon="2.9969">
        <ele>731.5</ele>
        <time>2015-05-17T15:16:10Z</time>
      </trkpt>
      <trkpt lat="45.87063" lon="2.99717">
        <ele>724.93</ele>
        <time>2015-05-17T15:16:25Z</time>
      </trkpt>
      <trkpt lat="45.87067" lon="2.99744">
        <ele>728.92</ele>
        <time>2015-05-17T15:16:38Z</time>
      </trkpt>
      <trkpt lat="45.87074" lon="2.99768">
        <ele>732.65</ele>
        <time>2015-05-17T15:16:51Z</time>
      </trkpt>
      <trkpt lat="45.87072" lon="2.99794">
        <ele>731.16</ele>
        <time>2015-05-17T15:17:16Z</time>
      </trkpt>
      <trkpt lat="45.87075" lon="2.99821">
        <ele>737.88</ele>
        <time>2015-05-17T15:17:31Z</time>
      </trkpt>
      <trkpt lat="45.87068" lon="2.99847">
        <ele>729.21</ele>
        <time>2015-05-17T15:18:23Z</time>
      </trkpt>
      <trkpt lat="45.87053" lon="2.99863">
        <ele>730.65</ele>
        <time>2015-05-17T15:18:36Z</time>
      </trkpt>
      <trkpt lat="45.87037" lon="2.99876">
        <ele>729.57</ele>
        <time>2015-05-17T15:18:53Z</time>
      </trkpt>
      <trkpt lat="45.87019" lon="2.99885">
        <ele>725.41</ele>
        <time>2015-05-17T15:19:11Z</time>
      </trkpt>
      <trkpt lat="45.87003" lon="2.99898">
        <ele>728.8</ele>
        <time>2015-05-17T15:19:50Z</time>
      </trkpt>
      <trkpt lat="45.86984" lon="2.99908">
        <ele>724.6</ele>
        <time>2015-05-17T15:19:56Z</time>
      </trkpt>
      <trkpt lat="45.86966" lon="2.99919">
        <ele>729.42</ele>
        <time>2015-05-17T15:21:12Z</time>
      </trkpt>
      <trkpt lat="45.86947" lon="2.99919">
        <ele>734.86</ele>
        <time>2015-05-17T15:21:24Z</time>
      </trkpt>
      <trkpt lat="45.86928" lon="2.99916">
        <ele>736.22</ele>
        <time>2015-05-17T15:21:40Z</time>
      </trkpt>
      <trkpt lat="45.86909" lon="2.99917">
        <ele>732.18</ele>
        <time>2015-05-17T15:21:56Z</time>
      </trkpt>
      <trkpt lat="45.8689" lon="2.9992">
        <ele>730.61</ele>
        <time>2015-05-17T15:22:12Z</time>
      </trkpt>
      <trkpt lat="45.86877" lon="2.99939">
        <ele>722.03</ele>
        <time>2015-05-17T15:22:28Z</time>
      </trkpt>
      <trkpt lat="45.86868" lon="2.99962">
        <ele>723.04</ele>
        <time>2015-05-17T15:22:41Z</time>
      </trkpt>
      <trkpt lat="45.86859" lon="2.99987">
        <ele>732.9</ele>
        <time>2015-05-17T15:22:55Z</time>
      </trkpt>
      <trkpt lat="45.86848" lon="3.00009">
        <ele>729.45</ele>
        <time>2015-05-17T15:23:10Z</time>
      </trkpt>
      <trkpt lat="45.86838" lon="3.00034">
        <ele>723.67</ele>
        <time>2015-05-17T15:23:30Z</time>
      </trkpt>
      <trkpt lat="45.86835" lon="3.00059">
        <ele>726.47</ele>
        <time>2015-05-17T15:23:46Z</time>
      </trkpt>
      <trkpt lat="45.86832" lon="3.00085">
        <ele>722.72</ele>
        <time>2015-05-17T15:24:03Z</time>
      </trkpt>
      <trkpt lat="45.86826" lon="3.0011">
        <ele>722.63</ele>
        <time>2015-05-17T15:24:18Z</time>
      </trkpt>
      <trkpt lat="45.86814" lon="3.00131">
        <ele>718.22</ele>
        <time>2015-05-17T15:24:30Z</time>
      </trkpt>
      <trkpt lat="45.86803" lon="3.00153">
        <ele>719.11</ele>
        <time>2015-05-17T15:24:43Z</time>
      </trkpt>
      <trkpt lat="45.86795" lon="3.00177">
        <ele>713.87</ele>
        <time>2015-05-17T15:25:04Z</time>
      </trkpt>
      <trkpt lat="45.86787" lon="3.00201">
        <ele>715.73</ele>
        <time>2015-05-17T15:25:15Z</time>
      </trkpt>
      <trkpt lat="45.86782" lon="3.00227">
        <ele>720.08</ele>
        <time>2015-05-17T15:25:27Z</time>
      </trkpt>
      <trkpt lat="45.86772" lon="3.0025">
        <ele>722.46</ele>
        <time>2015-05-17T15:25:43Z</time>
      </trkpt>
      <trkpt lat="45.86764" lon="3.00274">
        <ele>729.66</ele>
        <time>2015-05-17T15:25:55Z</time>
      </trkpt>
      <trkpt lat="45.86755" lon="3.00299">
        <ele>728.2</ele>
        <time>2015-05-17T15:26:16Z</time>
      </trkpt>
      <trkpt lat="45.86743" lon="3.00319">
        <ele>719.66</ele>
        <time>2015-05-17T15:26:39Z</time>
      </trkpt>
      <trkpt lat="45.86732" lon="3.0034">
        <ele>717.31</ele>
        <time>2015-05-17T15:26:52Z</time>
      </trkpt>
      <trkpt lat="45.86721" lon="3.00361">
        <ele>716.27</ele>
        <time>2015-05-17T15:27:06Z</time>
      </trkpt>
      <trkpt lat="45.86709" lon="3.00382">
        <ele>707.35</ele>
        <time>2015-05-17T15:27:30Z</time>
      </trkpt>
      <trkpt lat="45.86693" lon="3.00401">
        <ele>704.83</ele>
        <time>2015-05-17T15:27:48Z</time>
      </trkpt>
      <trkpt lat="45.86681" lon="3.0042">
        <ele>708.89</ele>
        <time>2015-05-17T15:27:57Z</time>
      </trkpt>
      <trkpt lat="45.86669" lon="3.0044">
        <ele>713.79</ele>
        <time>2015-05-17T15:28:11Z</time>
      </trkpt>
      <trkpt lat="45.86653" lon="3.00458">
        <ele>718.01</ele>
        <time>2015-05-17T15:28:22Z</time>
      </trkpt>
      <trkpt lat="45.86639" lon="3.00475">
        <ele>712.74</ele>
        <time>2015-05-17T15:28:43Z</time>
      </trkpt>
      <trkpt lat="45.86629" lon="3.00498">
        <ele>707.15</ele>
        <time>2015-05-17T15:28:56Z</time>
      </trkpt>
      <trkpt lat="45.86625" lon="3.00524">
        <ele>715.06</ele>
        <time>2015-05-17T15:29:10Z</time>
      </trkpt>
      <trkpt lat="45.86611" lon="3.00541">
        <ele>719.06</ele>
        <time>2015-05-17T15:29:25Z</time>
      </trkpt>
      <trkpt lat="45.86593" lon="3.00542">
        <ele>724.43</ele>
        <time>2015-05-17T15:30:58Z</time>
      </trkpt>
      <trkpt lat="45.86576" lon="3.00534">
        <ele>729.73</ele>
        <time>2015-05-17T15:31:17Z</time>
      </trkpt>
      <trkpt lat="45.86559" lon="3.00526">
        <ele>730.91</ele>
        <time>2015-05-17T15:31:40Z</time>
      </trkpt>
      <trkpt lat="45.86544" lon="3.00509">
        <ele>733.49</ele>
        <time>2015-05-17T15:32:05Z</time>
      </trkpt>
      <trkpt lat="45.86526" lon="3.00497">
        <ele>735.27</ele>
        <time>2015-05-17T15:32:20Z</time>
      </trkpt>
      <trkpt lat="45.86509" lon="3.0049">
        <ele>740.73</ele>
        <time>2015-05-17T15:32:32Z</time>
      </trkpt>
      <trkpt lat="45.86491" lon="3.00484">
        <ele>743.24</ele>
        <time>2015-05-17T15:32:48Z</time>
      </trkpt>
      <trkpt lat="45.86474" lon="3.00478">
        <ele>751.79</ele>
        <time>2015-05-17T15:33:11Z</time>
      </trkpt>
      <trkpt lat="45.86456" lon="3.0048">
        <ele>753.84</ele>
        <time>2015-05-17T15:33:25Z</time>
      </trkpt>
      <trkpt lat="45.86438" lon="3.00467">
        <ele>756.6</ele>
        <time>2015-05-17T15:33:40Z</time>
      </trkpt>
      <trkpt lat="45.86431" lon="3.00443">
        <ele>762.28</ele>
        <time>2015-05-17T15:34:00Z</time>
      </trkpt>
      <trkpt lat="45.86417" lon="3.00425">
        <ele>766.16</ele>
        <time>2015-05-17T15:34:13Z</time>
      </trkpt>
      <trkpt lat="45.864" lon="3.00415">
        <ele>767.15</ele>
        <time>2015-05-17T15:34:32Z</time>
      </trkpt>
      <trkpt lat="45.86393" lon="3.00389">
        <ele>767.3</ele>
        <time>2015-05-17T15:34:46Z</time>
      </trkpt>
      <trkpt lat="45.8641" lon="3.00376">
        <ele>760.31</ele>
        <time>2015-05-17T15:35:06Z</time>
      </trkpt>
      <trkpt lat="45.86424" lon="3.00359">
        <ele>764.73</ele>
        <time>2015-05-17T15:35:19Z</time>
      </trkpt>
      <trkpt lat="45.86431" lon="3.00335">
        <ele>758.81</ele>
        <time>2015-05-17T15:35:34Z</time>
      </trkpt>
      <trkpt lat="45.86444" lon="3.00317">
        <ele>761.51</ele>
        <time>2015-05-17T15:35:47Z</time>
      </trkpt>
      <trkpt lat="45.86456" lon="3.00297">
        <ele>763.9</ele>
        <time>2015-05-17T15:36:05Z</time>
      </trkpt>
    </trkseg>
  </trk>
</gpx>